<?xml version='1.0' encoding='UTF-8'?><gpx version="1.1" creator="JPX - https://github.com/jenetics/jpx" xmlns="http://www.topografix.com/GPX/1/1"><trk><trkseg><trkpt lat="44.33292379432902" lon="7.490168026169695"><ele>636.0</ele><time>2026-05-03T12:49:40.999Z</time></trkpt><trkpt lat="44.33299036110667" lon="7.490171208620578"><ele>636.0</ele><time>2026-05-03T12:51:28.999Z</time></trkpt><trkpt lat="44.33302290487362" lon="7.490089582565715"><ele>636.0</ele><time>2026-05-03T12:51:30.999Z</time></trkpt><trkpt lat="44.333079748731734" lon="7.4899951720662985"><ele>636.0</ele><time>2026-05-03T12:51:37.999Z</time></trkpt><trkpt lat="44.33302014724083" lon="7.489887587936671"><ele>636.0</ele><time>2026-05-03T12:51:39.998Z</time></trkpt><trkpt lat="44.33302904610762" lon="7.48967267767871"><ele>635.75</ele><time>2026-05-03T12:51:41.998Z</time></trkpt><trkpt lat="44.33308443187364" lon="7.489504494317005"><ele>635.5</ele><time>2026-05-03T12:51:42.998Z</time></trkpt><trkpt lat="44.333110074750614" lon="7.489314032203185"><ele>635.25</ele><time>2026-05-03T12:51:43.998Z</time></trkpt><trkpt lat="44.3331180437027" lon="7.489122150248033"><ele>635.0</ele><time>2026-05-03T12:51:44.998Z</time></trkpt><trkpt lat="44.333143773315136" lon="7.4889169808505835"><ele>635.3333333333333</ele><time>2026-05-03T12:51:45.998Z</time></trkpt><trkpt lat="44.33317368966913" lon="7.4886899602730574"><ele>635.6666666666666</ele><time>2026-05-03T12:51:46.997Z</time></trkpt><trkpt lat="44.33320698237723" lon="7.48847830737395"><ele>636.0</ele><time>2026-05-03T12:51:47.997Z</time></trkpt><trkpt lat="44.333218483588" lon="7.488289179478463"><ele>636.0</ele><time>2026-05-03T12:51:48.997Z</time></trkpt><trkpt lat="44.333231207904156" lon="7.488159328023534"><ele>636.0</ele><time>2026-05-03T12:51:49.997Z</time></trkpt><trkpt lat="44.33325467302453" lon="7.4880383673244175"><ele>636.0</ele><time>2026-05-03T12:51:51.997Z</time></trkpt><trkpt lat="44.333364841795586" lon="7.4880552442019885"><ele>636.0</ele><time>2026-05-03T12:51:53.997Z</time></trkpt><trkpt lat="44.33347905220739" lon="7.488110442502373"><ele>636.0</ele><time>2026-05-03T12:51:54.997Z</time></trkpt><trkpt lat="44.33355659456784" lon="7.487917826290688"><ele>636.5</ele><time>2026-05-03T12:51:56.996Z</time></trkpt><trkpt lat="44.33357401830541" lon="7.487737616153103"><ele>637.0</ele><time>2026-05-03T12:51:57.996Z</time></trkpt><trkpt lat="44.3335669754604" lon="7.4875490094869"><ele>637.5</ele><time>2026-05-03T12:51:58.996Z</time></trkpt><trkpt lat="44.33357874985922" lon="7.4873404940562915"><ele>638.0</ele><time>2026-05-03T12:51:59.996Z</time></trkpt><trkpt lat="44.33360070373722" lon="7.487139552107205"><ele>638.25</ele><time>2026-05-03T12:52:00.996Z</time></trkpt><trkpt lat="44.33360179909346" lon="7.486934166110044"><ele>638.5</ele><time>2026-05-03T12:52:01.996Z</time></trkpt><trkpt lat="44.33360874251833" lon="7.486723657993986"><ele>638.75</ele><time>2026-05-03T12:52:02.996Z</time></trkpt><trkpt lat="44.33363673642824" lon="7.48653360666944"><ele>639.0</ele><time>2026-05-03T12:52:03.996Z</time></trkpt><trkpt lat="44.333657880271105" lon="7.486318812051679"><ele>639.3333333333334</ele><time>2026-05-03T12:52:04.996Z</time></trkpt><trkpt lat="44.33366791531654" lon="7.4861008309064125"><ele>639.6666666666667</ele><time>2026-05-03T12:52:05.996Z</time></trkpt><trkpt lat="44.33367912244761" lon="7.4858781260520795"><ele>640.0</ele><time>2026-05-03T12:52:06.996Z</time></trkpt><trkpt lat="44.33369081651971" lon="7.485662938666448"><ele>640.0</ele><time>2026-05-03T12:52:07.996Z</time></trkpt><trkpt lat="44.33370476746077" lon="7.485456367450595"><ele>640.0</ele><time>2026-05-03T12:52:08.996Z</time></trkpt><trkpt lat="44.333715214865926" lon="7.485250730271982"><ele>640.0</ele><time>2026-05-03T12:52:09.996Z</time></trkpt><trkpt lat="44.33372514553653" lon="7.485056816858169"><ele>640.0</ele><time>2026-05-03T12:52:10.996Z</time></trkpt><trkpt lat="44.33373294087817" lon="7.484917370175286"><ele>640.0</ele><time>2026-05-03T12:52:11.996Z</time></trkpt><trkpt lat="44.33373572177944" lon="7.4848224709392825"><ele>640.0</ele><time>2026-05-03T12:52:14.996Z</time></trkpt><trkpt lat="44.33363917758296" lon="7.484748813838824"><ele>640.0</ele><time>2026-05-03T12:52:17.995Z</time></trkpt><trkpt lat="44.33356042204847" lon="7.484752385722382"><ele>640.0</ele><time>2026-05-03T12:52:18.995Z</time></trkpt><trkpt lat="44.33349578438606" lon="7.484730132534539"><ele>640.0</ele><time>2026-05-03T12:52:19.995Z</time></trkpt><trkpt lat="44.33341613756212" lon="7.484717343229415"><ele>640.0</ele><time>2026-05-03T12:52:20.995Z</time></trkpt><trkpt lat="44.333331277329165" lon="7.484701443228521"><ele>640.0</ele><time>2026-05-03T12:52:21.995Z</time></trkpt><trkpt lat="44.333259833818246" lon="7.484685694161846"><ele>640.0</ele><time>2026-05-03T12:52:22.995Z</time></trkpt><trkpt lat="44.33327169862852" lon="7.484501702042841"><ele>640.0</ele><time>2026-05-03T12:52:25.995Z</time></trkpt><trkpt lat="44.333362424251604" lon="7.484435854941248"><ele>640.0</ele><time>2026-05-03T12:52:26.995Z</time></trkpt><trkpt lat="44.33348133858643" lon="7.4843847636458065"><ele>640.0</ele><time>2026-05-03T12:52:27.995Z</time></trkpt><trkpt lat="44.33359086498662" lon="7.48430236159791"><ele>640.0</ele><time>2026-05-03T12:52:28.995Z</time></trkpt><trkpt lat="44.333709924773004" lon="7.484192426587287"><ele>640.0</ele><time>2026-05-03T12:52:29.995Z</time></trkpt><trkpt lat="44.3338387136055" lon="7.484089755646294"><ele>640.0</ele><time>2026-05-03T12:52:30.995Z</time></trkpt><trkpt lat="44.333965128991665" lon="7.4839744336284095"><ele>640.0</ele><time>2026-05-03T12:52:31.995Z</time></trkpt><trkpt lat="44.33409228608778" lon="7.483857030644144"><ele>640.3333333333334</ele><time>2026-05-03T12:52:32.995Z</time></trkpt><trkpt lat="44.334237502523834" lon="7.483753645036056"><ele>640.6666666666666</ele><time>2026-05-03T12:52:33.995Z</time></trkpt><trkpt lat="44.33438576883987" lon="7.483671263494688"><ele>641.0</ele><time>2026-05-03T12:52:34.995Z</time></trkpt><trkpt lat="44.334523192721434" lon="7.483585495982559"><ele>641.0</ele><time>2026-05-03T12:52:35.995Z</time></trkpt><trkpt lat="44.334666923934414" lon="7.48348466114471"><ele>641.0</ele><time>2026-05-03T12:52:36.995Z</time></trkpt><trkpt lat="44.334815111795926" lon="7.483376364029454"><ele>641.0</ele><time>2026-05-03T12:52:37.995Z</time></trkpt><trkpt lat="44.334968112272705" lon="7.483281178302748"><ele>641.3333333333333</ele><time>2026-05-03T12:52:38.995Z</time></trkpt><trkpt lat="44.3351255892968" lon="7.4831898925223115"><ele>641.6666666666666</ele><time>2026-05-03T12:52:39.995Z</time></trkpt><trkpt lat="44.33528533799215" lon="7.483090760957677"><ele>642.0</ele><time>2026-05-03T12:52:40.995Z</time></trkpt><trkpt lat="44.335431336161825" lon="7.482989407884353"><ele>642.0</ele><time>2026-05-03T12:52:41.995Z</time></trkpt><trkpt lat="44.33570669737932" lon="7.482767411754789"><ele>642.0</ele><time>2026-05-03T12:52:43.995Z</time></trkpt><trkpt lat="44.33582227724175" lon="7.482644179681835"><ele>642.0</ele><time>2026-05-03T12:52:44.995Z</time></trkpt><trkpt lat="44.33594277468381" lon="7.482495611400775"><ele>642.0</ele><time>2026-05-03T12:52:45.995Z</time></trkpt><trkpt lat="44.336064112875405" lon="7.4823488608587985"><ele>642.0</ele><time>2026-05-03T12:52:46.995Z</time></trkpt><trkpt lat="44.336183939673184" lon="7.482193447549268"><ele>642.3333333333334</ele><time>2026-05-03T12:52:47.995Z</time></trkpt><trkpt lat="44.33629739085609" lon="7.482022471697583"><ele>642.6666666666667</ele><time>2026-05-03T12:52:48.995Z</time></trkpt><trkpt lat="44.33640608256466" lon="7.481835071022265"><ele>643.0</ele><time>2026-05-03T12:52:49.995Z</time></trkpt><trkpt lat="44.33650413255891" lon="7.48165358543656"><ele>643.0</ele><time>2026-05-03T12:52:50.995Z</time></trkpt><trkpt lat="44.33659418149104" lon="7.481456933350179"><ele>643.0</ele><time>2026-05-03T12:52:51.995Z</time></trkpt><trkpt lat="44.33668010607192" lon="7.481243434319175"><ele>643.0</ele><time>2026-05-03T12:52:52.995Z</time></trkpt><trkpt lat="44.336763777970496" lon="7.481039224889113"><ele>643.3333333333334</ele><time>2026-05-03T12:52:53.995Z</time></trkpt><trkpt lat="44.33682595522549" lon="7.480829265267904"><ele>643.6666666666666</ele><time>2026-05-03T12:52:54.995Z</time></trkpt><trkpt lat="44.33689053476875" lon="7.480628934149928"><ele>644.0</ele><time>2026-05-03T12:52:55.995Z</time></trkpt><trkpt lat="44.336956546302346" lon="7.480438435673621"><ele>644.25</ele><time>2026-05-03T12:52:56.995Z</time></trkpt><trkpt lat="44.33703117963317" lon="7.480255258763743"><ele>644.5</ele><time>2026-05-03T12:52:57.995Z</time></trkpt><trkpt lat="44.33711742137503" lon="7.480097266191516"><ele>644.75</ele><time>2026-05-03T12:52:58.995Z</time></trkpt><trkpt lat="44.337217495765955" lon="7.4799750609846125"><ele>645.0</ele><time>2026-05-03T12:52:59.995Z</time></trkpt><trkpt lat="44.33732659901711" lon="7.479878753580316"><ele>645.25</ele><time>2026-05-03T12:53:00.995Z</time></trkpt><trkpt lat="44.33740779215116" lon="7.4797698264244"><ele>645.5</ele><time>2026-05-03T12:53:01.995Z</time></trkpt><trkpt lat="44.3374298020795" lon="7.47957512342371"><ele>645.75</ele><time>2026-05-03T12:53:02.995Z</time></trkpt><trkpt lat="44.3374879339764" lon="7.479377560345473"><ele>646.0</ele><time>2026-05-03T12:53:03.995Z</time></trkpt><trkpt lat="44.33756325647424" lon="7.479189712481051"><ele>646.0</ele><time>2026-05-03T12:53:04.995Z</time></trkpt><trkpt lat="44.337670516291084" lon="7.479012587102139"><ele>646.0</ele><time>2026-05-03T12:53:05.995Z</time></trkpt><trkpt lat="44.337790467610695" lon="7.478849488322535"><ele>646.0</ele><time>2026-05-03T12:53:06.995Z</time></trkpt><trkpt lat="44.337909152866025" lon="7.4786897707722275"><ele>646.0</ele><time>2026-05-03T12:53:07.995Z</time></trkpt><trkpt lat="44.33803036161078" lon="7.478526208162717"><ele>646.0</ele><time>2026-05-03T12:53:08.994Z</time></trkpt><trkpt lat="44.338153120635766" lon="7.478364529879099"><ele>646.0</ele><time>2026-05-03T12:53:09.994Z</time></trkpt><trkpt lat="44.33827290003114" lon="7.478203942204496"><ele>646.0</ele><time>2026-05-03T12:53:10.994Z</time></trkpt><trkpt lat="44.33838370100889" lon="7.478052196324613"><ele>646.0</ele><time>2026-05-03T12:53:11.994Z</time></trkpt><trkpt lat="44.33849575806422" lon="7.477912613536348"><ele>646.0</ele><time>2026-05-03T12:53:12.994Z</time></trkpt><trkpt lat="44.33861265141693" lon="7.477770241956869"><ele>646.0</ele><time>2026-05-03T12:53:13.994Z</time></trkpt><trkpt lat="44.33872553622823" lon="7.47762471623887"><ele>646.0</ele><time>2026-05-03T12:53:14.994Z</time></trkpt><trkpt lat="44.3388430037523" lon="7.477470876375479"><ele>646.0</ele><time>2026-05-03T12:53:15.994Z</time></trkpt><trkpt lat="44.33896350787553" lon="7.477318177453539"><ele>646.0</ele><time>2026-05-03T12:53:16.994Z</time></trkpt><trkpt lat="44.33908066024414" lon="7.477169304068662"><ele>646.0</ele><time>2026-05-03T12:53:17.994Z</time></trkpt><trkpt lat="44.339194414619854" lon="7.477012410418137"><ele>646.0</ele><time>2026-05-03T12:53:18.994Z</time></trkpt><trkpt lat="44.3393164348738" lon="7.47685778747749"><ele>646.0</ele><time>2026-05-03T12:53:19.994Z</time></trkpt><trkpt lat="44.33945251211061" lon="7.476707744851698"><ele>646.0</ele><time>2026-05-03T12:53:20.994Z</time></trkpt><trkpt lat="44.33960152019468" lon="7.476559515615153"><ele>646.0</ele><time>2026-05-03T12:53:21.994Z</time></trkpt><trkpt lat="44.3397665799096" lon="7.476422831606844"><ele>646.0</ele><time>2026-05-03T12:53:22.994Z</time></trkpt><trkpt lat="44.33991722017515" lon="7.47631186015122"><ele>646.0</ele><time>2026-05-03T12:53:23.994Z</time></trkpt><trkpt lat="44.340065394132" lon="7.476210224988149"><ele>646.0</ele><time>2026-05-03T12:53:24.994Z</time></trkpt><trkpt lat="44.34021441877336" lon="7.47612864919476"><ele>646.0</ele><time>2026-05-03T12:53:25.994Z</time></trkpt><trkpt lat="44.34036763084862" lon="7.476065985412254"><ele>646.0</ele><time>2026-05-03T12:53:26.994Z</time></trkpt><trkpt lat="44.34053025560347" lon="7.475998447992652"><ele>646.0</ele><time>2026-05-03T12:53:27.994Z</time></trkpt><trkpt lat="44.34068578745839" lon="7.475938086228418"><ele>644.0</ele><time>2026-05-03T12:53:28.995Z</time></trkpt><trkpt lat="44.3408380893691" lon="7.475888350503955"><ele>642.0</ele><time>2026-05-03T12:53:29.995Z</time></trkpt><trkpt lat="44.34099082937149" lon="7.475846724811306"><ele>640.0</ele><time>2026-05-03T12:53:30.995Z</time></trkpt><trkpt lat="44.3411379589329" lon="7.475812786025617"><ele>640.0</ele><time>2026-05-03T12:53:31.996Z</time></trkpt><trkpt lat="44.34128249707049" lon="7.475781524659559"><ele>640.0</ele><time>2026-05-03T12:53:32.996Z</time></trkpt><trkpt lat="44.34142060610444" lon="7.475755044319156"><ele>640.0</ele><time>2026-05-03T12:53:33.996Z</time></trkpt><trkpt lat="44.34155266407146" lon="7.47572488413682"><ele>640.0</ele><time>2026-05-03T12:53:34.996Z</time></trkpt><trkpt lat="44.34168469711461" lon="7.475695567183771"><ele>637.0</ele><time>2026-05-03T12:53:35.997Z</time></trkpt><trkpt lat="44.341813709460176" lon="7.475668723688336"><ele>634.0</ele><time>2026-05-03T12:53:36.997Z</time></trkpt><trkpt lat="44.341943010477415" lon="7.475641716636871"><ele>631.0</ele><time>2026-05-03T12:53:37.997Z</time></trkpt><trkpt lat="44.34207356733367" lon="7.475615823941897"><ele>628.0</ele><time>2026-05-03T12:53:38.997Z</time></trkpt><trkpt lat="44.34220642515477" lon="7.47559706401779"><ele>627.3333333333334</ele><time>2026-05-03T12:53:39.997Z</time></trkpt><trkpt lat="44.34234964048983" lon="7.475589827419259"><ele>626.6666666666666</ele><time>2026-05-03T12:53:40.997Z</time></trkpt><trkpt lat="44.342504245842264" lon="7.475603739675368"><ele>626.0</ele><time>2026-05-03T12:53:41.998Z</time></trkpt><trkpt lat="44.34266786786821" lon="7.4756412264816685"><ele>626.0</ele><time>2026-05-03T12:53:42.998Z</time></trkpt><trkpt lat="44.342827294722056" lon="7.475715086396726"><ele>626.0</ele><time>2026-05-03T12:53:43.998Z</time></trkpt><trkpt lat="44.34298783152967" lon="7.475828264555126"><ele>626.0</ele><time>2026-05-03T12:53:44.998Z</time></trkpt><trkpt lat="44.34314260192318" lon="7.475961036147513"><ele>625.6666666666666</ele><time>2026-05-03T12:53:45.998Z</time></trkpt><trkpt lat="44.34327985196569" lon="7.476114794278703"><ele>625.3333333333334</ele><time>2026-05-03T12:53:46.998Z</time></trkpt><trkpt lat="44.3434109202649" lon="7.476279603580569"><ele>625.0</ele><time>2026-05-03T12:53:47.998Z</time></trkpt><trkpt lat="44.343539841678286" lon="7.476441043809769"><ele>625.0</ele><time>2026-05-03T12:53:48.998Z</time></trkpt><trkpt lat="44.3436685826723" lon="7.47659000351194"><ele>625.0</ele><time>2026-05-03T12:53:49.998Z</time></trkpt><trkpt lat="44.343801579685305" lon="7.476720272648062"><ele>625.0</ele><time>2026-05-03T12:53:50.998Z</time></trkpt><trkpt lat="44.343956852205146" lon="7.476812452156274"><ele>623.6666666666667</ele><time>2026-05-03T12:53:51.999Z</time></trkpt><trkpt lat="44.344127630002156" lon="7.476857755427059"><ele>622.3333333333334</ele><time>2026-05-03T12:53:52.999Z</time></trkpt><trkpt lat="44.34429572767325" lon="7.47685082034331"><ele>621.0</ele><time>2026-05-03T12:53:53.999Z</time></trkpt><trkpt lat="44.34446301647209" lon="7.47679887487504"><ele>621.0</ele><time>2026-05-03T12:53:54.999Z</time></trkpt><trkpt lat="44.34463607169712" lon="7.476698030927441"><ele>621.0</ele><time>2026-05-03T12:53:55.999Z</time></trkpt><trkpt lat="44.3447980026452" lon="7.4765572017934145"><ele>621.0</ele><time>2026-05-03T12:53:56.999Z</time></trkpt><trkpt lat="44.34492823165291" lon="7.476369850231845"><ele>618.0</ele><time>2026-05-03T12:53:57.999Z</time></trkpt><trkpt lat="44.34503793636851" lon="7.4761388793026455"><ele>615.0</ele><time>2026-05-03T12:53:58.999Z</time></trkpt><trkpt lat="44.34511563535524" lon="7.475862746944019"><ele>612.0</ele><time>2026-05-03T12:53:59.999Z</time></trkpt><trkpt lat="44.34517409319763" lon="7.475581377146897"><ele>612.6666666666666</ele><time>2026-05-03T12:54:00.999Z</time></trkpt><trkpt lat="44.34522119283619" lon="7.475315594400943"><ele>613.3333333333333</ele><time>2026-05-03T12:54:01.999Z</time></trkpt><trkpt lat="44.34526253036335" lon="7.475058368861464"><ele>614.0</ele><time>2026-05-03T12:54:02.999Z</time></trkpt><trkpt lat="44.345314620512205" lon="7.4748066836323614"><ele>613.6666666666666</ele><time>2026-05-03T12:54:03.999Z</time></trkpt><trkpt lat="44.345385109446156" lon="7.4745681176724625"><ele>613.3333333333334</ele><time>2026-05-03T12:54:04.999Z</time></trkpt><trkpt lat="44.345468480459836" lon="7.474332017869539"><ele>613.0</ele><time>2026-05-03T12:54:05.999Z</time></trkpt><trkpt lat="44.34557351667274" lon="7.47410726050908"><ele>609.0</ele><time>2026-05-03T12:54:06.999Z</time></trkpt><trkpt lat="44.34571023943947" lon="7.4739008586151865"><ele>605.0</ele><time>2026-05-03T12:54:07.999Z</time></trkpt><trkpt lat="44.34586851238747" lon="7.473724062828454"><ele>601.0</ele><time>2026-05-03T12:54:08.999Z</time></trkpt><trkpt lat="44.346040692359" lon="7.473589093558994"><ele>601.0</ele><time>2026-05-03T12:54:09.999Z</time></trkpt><trkpt lat="44.34623591801954" lon="7.473497575668179"><ele>601.0</ele><time>2026-05-03T12:54:10.999Z</time></trkpt><trkpt lat="44.346452994993925" lon="7.473426540590144"><ele>601.0</ele><time>2026-05-03T12:54:11.999Z</time></trkpt><trkpt lat="44.34665593856001" lon="7.473383018272142"><ele>599.25</ele><time>2026-05-03T12:54:12.999Z</time></trkpt><trkpt lat="44.34682201211113" lon="7.473358402271917"><ele>597.5</ele><time>2026-05-03T12:54:13.999Z</time></trkpt><trkpt lat="44.346958925210025" lon="7.473355504043736"><ele>595.75</ele><time>2026-05-03T12:54:14.999Z</time></trkpt><trkpt lat="44.34708081378633" lon="7.473390616359018"><ele>594.0</ele><time>2026-05-03T12:54:15.999Z</time></trkpt><trkpt lat="44.34719191569074" lon="7.473483051072046"><ele>597.75</ele><time>2026-05-03T12:54:16.999Z</time></trkpt><trkpt lat="44.347272276933474" lon="7.473637526457947"><ele>601.5</ele><time>2026-05-03T12:54:17.999Z</time></trkpt><trkpt lat="44.34730619210842" lon="7.473839623224925"><ele>605.25</ele><time>2026-05-03T12:54:18.999Z</time></trkpt><trkpt lat="44.34728526110674" lon="7.4740673935265605"><ele>609.0</ele><time>2026-05-03T12:54:19.999Z</time></trkpt><trkpt lat="44.347283479636666" lon="7.474283246690662"><ele>609.0</ele><time>2026-05-03T12:54:20.999Z</time></trkpt><trkpt lat="44.347303428132456" lon="7.474508709761176"><ele>609.0</ele><time>2026-05-03T12:54:21.999Z</time></trkpt><trkpt lat="44.34733540465047" lon="7.474740929223964"><ele>609.0</ele><time>2026-05-03T12:54:22.999Z</time></trkpt><trkpt lat="44.34736835352882" lon="7.474980600180967"><ele>606.6666666666666</ele><time>2026-05-03T12:54:23.999Z</time></trkpt><trkpt lat="44.34741344519508" lon="7.475228362657789"><ele>604.3333333333333</ele><time>2026-05-03T12:54:24.999Z</time></trkpt><trkpt lat="44.347484179343695" lon="7.47547262006115"><ele>602.0</ele><time>2026-05-03T12:54:25.999Z</time></trkpt><trkpt lat="44.34758420452974" lon="7.475707046633901"><ele>601.0</ele><time>2026-05-03T12:54:26.999Z</time></trkpt><trkpt lat="44.34771048071152" lon="7.475919085936117"><ele>600.0</ele><time>2026-05-03T12:54:27.999Z</time></trkpt><trkpt lat="44.34786303496436" lon="7.476091011462358"><ele>599.0</ele><time>2026-05-03T12:54:28.999Z</time></trkpt><trkpt lat="44.34803179684575" lon="7.47624669241768"><ele>600.0</ele><time>2026-05-03T12:54:29.999Z</time></trkpt><trkpt lat="44.34821947064201" lon="7.47637358862071"><ele>601.0</ele><time>2026-05-03T12:54:30.999Z</time></trkpt><trkpt lat="44.34842927652286" lon="7.476459670929685"><ele>602.0</ele><time>2026-05-03T12:54:31.999Z</time></trkpt><trkpt lat="44.34865694972707" lon="7.476490441707781"><ele>602.0</ele><time>2026-05-03T12:54:32.999Z</time></trkpt><trkpt lat="44.34887408512285" lon="7.476500151402073"><ele>602.0</ele><time>2026-05-03T12:54:33.999Z</time></trkpt><trkpt lat="44.349063780377065" lon="7.476503342163854"><ele>602.0</ele><time>2026-05-03T12:54:34.999Z</time></trkpt><trkpt lat="44.349243221423045" lon="7.476513824062712"><ele>605.0</ele><time>2026-05-03T12:54:35.999Z</time></trkpt><trkpt lat="44.34941169673927" lon="7.476516382266834"><ele>608.0</ele><time>2026-05-03T12:54:36.999Z</time></trkpt><trkpt lat="44.349576059203585" lon="7.476508410017731"><ele>611.0</ele><time>2026-05-03T12:54:37.999Z</time></trkpt><trkpt lat="44.34974826941769" lon="7.476506208128866"><ele>612.6666666666666</ele><time>2026-05-03T12:54:38.999Z</time></trkpt><trkpt lat="44.349916157355615" lon="7.476517449823254"><ele>614.3333333333334</ele><time>2026-05-03T12:54:39.999Z</time></trkpt><trkpt lat="44.35009093324264" lon="7.47654101120048"><ele>616.0</ele><time>2026-05-03T12:54:40.999Z</time></trkpt><trkpt lat="44.35026028097948" lon="7.476580068942568"><ele>616.0</ele><time>2026-05-03T12:54:41.999Z</time></trkpt><trkpt lat="44.35042880685811" lon="7.476633568454931"><ele>616.0</ele><time>2026-05-03T12:54:42.999Z</time></trkpt><trkpt lat="44.35059696031308" lon="7.476701693264532"><ele>616.0</ele><time>2026-05-03T12:54:43.999Z</time></trkpt><trkpt lat="44.350768460019005" lon="7.476775759298591"><ele>617.3333333333334</ele><time>2026-05-03T12:54:44.999Z</time></trkpt><trkpt lat="44.350937251699506" lon="7.476849779183515"><ele>618.6666666666666</ele><time>2026-05-03T12:54:45.999Z</time></trkpt><trkpt lat="44.35110213623832" lon="7.476925821699748"><ele>620.0</ele><time>2026-05-03T12:54:46.999Z</time></trkpt><trkpt lat="44.351269364517506" lon="7.4770028711806535"><ele>619.0</ele><time>2026-05-03T12:54:47.999Z</time></trkpt><trkpt lat="44.35144036144839" lon="7.477079503732163"><ele>618.0</ele><time>2026-05-03T12:54:48.999Z</time></trkpt><trkpt lat="44.35161798469521" lon="7.477156947056642"><ele>617.0</ele><time>2026-05-03T12:54:49.999Z</time></trkpt><trkpt lat="44.35179059641563" lon="7.4772379160181055"><ele>617.0</ele><time>2026-05-03T12:54:50.999Z</time></trkpt><trkpt lat="44.351962452461485" lon="7.4773181852744255"><ele>617.0</ele><time>2026-05-03T12:54:51.999Z</time></trkpt><trkpt lat="44.352140304777166" lon="7.4773958743325455"><ele>617.0</ele><time>2026-05-03T12:54:52.999Z</time></trkpt><trkpt lat="44.352314093562406" lon="7.477473808081344"><ele>618.3333333333333</ele><time>2026-05-03T12:54:53.999Z</time></trkpt><trkpt lat="44.35249121821931" lon="7.477554248377799"><ele>619.6666666666666</ele><time>2026-05-03T12:54:54.999Z</time></trkpt><trkpt lat="44.352659439828116" lon="7.4776333525528145"><ele>621.0</ele><time>2026-05-03T12:54:55.999Z</time></trkpt><trkpt lat="44.352831353796866" lon="7.477717817932637"><ele>621.0</ele><time>2026-05-03T12:54:56.999Z</time></trkpt><trkpt lat="44.35300007955265" lon="7.477797420639401"><ele>621.0</ele><time>2026-05-03T12:54:57.999Z</time></trkpt><trkpt lat="44.35317169127233" lon="7.477869227938225"><ele>621.0</ele><time>2026-05-03T12:54:58.999Z</time></trkpt><trkpt lat="44.35334729215554" lon="7.47795011742267"><ele>620.3333333333334</ele><time>2026-05-03T12:54:59.999Z</time></trkpt><trkpt lat="44.353512929430885" lon="7.478035508133435"><ele>619.6666666666667</ele><time>2026-05-03T12:55:00.999Z</time></trkpt><trkpt lat="44.35367785403851" lon="7.47811535631985"><ele>619.0</ele><time>2026-05-03T12:55:01.999Z</time></trkpt><trkpt lat="44.35384514358639" lon="7.478195571084228"><ele>620.0</ele><time>2026-05-03T12:55:02.999Z</time></trkpt><trkpt lat="44.35401195433757" lon="7.478269722576694"><ele>621.0</ele><time>2026-05-03T12:55:03.999Z</time></trkpt><trkpt lat="44.35417559603398" lon="7.47834666167433"><ele>622.0</ele><time>2026-05-03T12:55:04.999Z</time></trkpt><trkpt lat="44.354336171588464" lon="7.47842533268332"><ele>622.0</ele><time>2026-05-03T12:55:05.999Z</time></trkpt><trkpt lat="44.354489391528695" lon="7.478503253985727"><ele>622.0</ele><time>2026-05-03T12:55:06.999Z</time></trkpt><trkpt lat="44.35464780043613" lon="7.478575350110142"><ele>622.0</ele><time>2026-05-03T12:55:07.999Z</time></trkpt><trkpt lat="44.3548010356492" lon="7.47864673718554"><ele>621.75</ele><time>2026-05-03T12:55:08.999Z</time></trkpt><trkpt lat="44.354949260801455" lon="7.478716273934971"><ele>621.5</ele><time>2026-05-03T12:55:09.999Z</time></trkpt><trkpt lat="44.355087747394535" lon="7.478786501714124"><ele>621.25</ele><time>2026-05-03T12:55:10.999Z</time></trkpt><trkpt lat="44.35520839594312" lon="7.478860594018447"><ele>621.0</ele><time>2026-05-03T12:55:11.999Z</time></trkpt><trkpt lat="44.355300281830345" lon="7.478946243287892"><ele>621.0</ele><time>2026-05-03T12:55:12.999Z</time></trkpt><trkpt lat="44.35538292271404" lon="7.479012297037162"><ele>621.0</ele><time>2026-05-03T12:55:13.999Z</time></trkpt><trkpt lat="44.35545566906695" lon="7.479062978066341"><ele>621.0</ele><time>2026-05-03T12:55:14.999Z</time></trkpt><trkpt lat="44.355670229326435" lon="7.478770256683479"><ele>623.0</ele><time>2026-05-03T12:55:16.999Z</time></trkpt><trkpt lat="44.355763369038996" lon="7.478648277643162"><ele>625.0</ele><time>2026-05-03T12:55:17.999Z</time></trkpt><trkpt lat="44.35589585961664" lon="7.478588253977664"><ele>627.0</ele><time>2026-05-03T12:55:18.998Z</time></trkpt><trkpt lat="44.35603847225799" lon="7.478566707795128"><ele>629.0</ele><time>2026-05-03T12:55:19.998Z</time></trkpt><trkpt lat="44.35619300691187" lon="7.478520509318252"><ele>629.0</ele><time>2026-05-03T12:55:20.998Z</time></trkpt><trkpt lat="44.35634487174559" lon="7.478450576897742"><ele>629.0</ele><time>2026-05-03T12:55:21.998Z</time></trkpt><trkpt lat="44.356500475351666" lon="7.478368023009784"><ele>629.0</ele><time>2026-05-03T12:55:22.998Z</time></trkpt><trkpt lat="44.356668060482086" lon="7.478294399077589"><ele>628.0</ele><time>2026-05-03T12:55:23.998Z</time></trkpt><trkpt lat="44.3568334762316" lon="7.478215618025027"><ele>627.0</ele><time>2026-05-03T12:55:24.998Z</time></trkpt><trkpt lat="44.356994704974014" lon="7.478131903313346"><ele>626.0</ele><time>2026-05-03T12:55:25.998Z</time></trkpt><trkpt lat="44.35715496610581" lon="7.4780521109582825"><ele>626.3333333333333</ele><time>2026-05-03T12:55:26.998Z</time></trkpt><trkpt lat="44.35732000134034" lon="7.477971676663868"><ele>626.6666666666666</ele><time>2026-05-03T12:55:27.998Z</time></trkpt><trkpt lat="44.35748662169157" lon="7.4778876449061125"><ele>627.0</ele><time>2026-05-03T12:55:28.998Z</time></trkpt><trkpt lat="44.35765311403554" lon="7.477806967760352"><ele>627.3333333333334</ele><time>2026-05-03T12:55:29.998Z</time></trkpt><trkpt lat="44.357822367439404" lon="7.4777228480632525"><ele>627.6666666666667</ele><time>2026-05-03T12:55:30.998Z</time></trkpt><trkpt lat="44.35798611846055" lon="7.477638181517493"><ele>628.0</ele><time>2026-05-03T12:55:31.998Z</time></trkpt><trkpt lat="44.35814868734789" lon="7.4775542012635965"><ele>627.3333333333334</ele><time>2026-05-03T12:55:32.998Z</time></trkpt><trkpt lat="44.358318416531255" lon="7.477469855484868"><ele>626.6666666666666</ele><time>2026-05-03T12:55:33.998Z</time></trkpt><trkpt lat="44.35848994487632" lon="7.47738477690459"><ele>626.0</ele><time>2026-05-03T12:55:34.999Z</time></trkpt><trkpt lat="44.35865941478797" lon="7.47730096646539"><ele>626.0</ele><time>2026-05-03T12:55:35.999Z</time></trkpt><trkpt lat="44.358827173943965" lon="7.477217624622154"><ele>626.0</ele><time>2026-05-03T12:55:36.999Z</time></trkpt><trkpt lat="44.35898951798898" lon="7.477136185451162"><ele>626.0</ele><time>2026-05-03T12:55:37.999Z</time></trkpt><trkpt lat="44.35915714480579" lon="7.477054222811836"><ele>626.0</ele><time>2026-05-03T12:55:38.999Z</time></trkpt><trkpt lat="44.35932542540235" lon="7.476973316810108"><ele>626.0</ele><time>2026-05-03T12:55:39.999Z</time></trkpt><trkpt lat="44.35949375578875" lon="7.476886742529349"><ele>626.0</ele><time>2026-05-03T12:55:40.999Z</time></trkpt><trkpt lat="44.35966044633077" lon="7.476800820723392"><ele>626.0</ele><time>2026-05-03T12:55:41.999Z</time></trkpt><trkpt lat="44.35982709394397" lon="7.476722222149157"><ele>626.0</ele><time>2026-05-03T12:55:42.999Z</time></trkpt><trkpt lat="44.359994148025194" lon="7.4766440026576815"><ele>626.0</ele><time>2026-05-03T12:55:43.999Z</time></trkpt><trkpt lat="44.36015246321916" lon="7.47656804175322"><ele>626.0</ele><time>2026-05-03T12:55:44.999Z</time></trkpt><trkpt lat="44.36030017661949" lon="7.476497626747087"><ele>626.0</ele><time>2026-05-03T12:55:45.999Z</time></trkpt><trkpt lat="44.36044087842973" lon="7.4764284415838915"><ele>626.0</ele><time>2026-05-03T12:55:46.999Z</time></trkpt><trkpt lat="44.36056994970412" lon="7.476361373757573"><ele>626.0</ele><time>2026-05-03T12:55:48Z</time></trkpt><trkpt lat="44.36069253417337" lon="7.47631574253592"><ele>625.6666666666666</ele><time>2026-05-03T12:55:49Z</time></trkpt><trkpt lat="44.36080555085811" lon="7.476297816135518"><ele>625.3333333333333</ele><time>2026-05-03T12:55:50Z</time></trkpt><trkpt lat="44.36089744421481" lon="7.476298566490872"><ele>625.0</ele><time>2026-05-03T12:55:51Z</time></trkpt><trkpt lat="44.36096825739305" lon="7.476267589738614"><ele>624.6666666666666</ele><time>2026-05-03T12:55:51.999Z</time></trkpt><trkpt lat="44.36101458996337" lon="7.476193458110351"><ele>624.3333333333334</ele><time>2026-05-03T12:55:52.999Z</time></trkpt><trkpt lat="44.36102467878274" lon="7.4760901676211375"><ele>624.0</ele><time>2026-05-03T12:55:53.999Z</time></trkpt><trkpt lat="44.360982751423315" lon="7.47596992515645"><ele>624.0</ele><time>2026-05-03T12:55:54.999Z</time></trkpt><trkpt lat="44.360927339250914" lon="7.47582208270076"><ele>624.0</ele><time>2026-05-03T12:55:55.999Z</time></trkpt><trkpt lat="44.36090815146483" lon="7.475657065909734"><ele>624.0</ele><time>2026-05-03T12:55:56.999Z</time></trkpt><trkpt lat="44.36089852196861" lon="7.475481775245512"><ele>624.0</ele><time>2026-05-03T12:55:57.999Z</time></trkpt><trkpt lat="44.36088351611784" lon="7.475292314833142"><ele>624.25</ele><time>2026-05-03T12:55:58.999Z</time></trkpt><trkpt lat="44.360865302871794" lon="7.475098156416628"><ele>624.5</ele><time>2026-05-03T12:55:59.999Z</time></trkpt><trkpt lat="44.360841750048706" lon="7.474888865855391"><ele>624.75</ele><time>2026-05-03T12:56:00.999Z</time></trkpt><trkpt lat="44.360817468422496" lon="7.474688490810873"><ele>625.0</ele><time>2026-05-03T12:56:01.999Z</time></trkpt><trkpt lat="44.36078843437581" lon="7.474488486112303"><ele>625.5</ele><time>2026-05-03T12:56:02.999Z</time></trkpt><trkpt lat="44.36075735458005" lon="7.474309428388959"><ele>626.0</ele><time>2026-05-03T12:56:03.999Z</time></trkpt><trkpt lat="44.3607264474641" lon="7.474135928282132"><ele>626.5</ele><time>2026-05-03T12:56:04.999Z</time></trkpt><trkpt lat="44.3606937906982" lon="7.473957053932812"><ele>627.0</ele><time>2026-05-03T12:56:05.999Z</time></trkpt><trkpt lat="44.360658836077576" lon="7.473768118562683"><ele>627.5</ele><time>2026-05-03T12:56:06.999Z</time></trkpt><trkpt lat="44.360625515101816" lon="7.47358590545521"><ele>628.0</ele><time>2026-05-03T12:56:07.999Z</time></trkpt><trkpt lat="44.36059558312567" lon="7.473396047777097"><ele>628.5</ele><time>2026-05-03T12:56:08.999Z</time></trkpt><trkpt lat="44.36056396216347" lon="7.473216697325499"><ele>629.0</ele><time>2026-05-03T12:56:09.999Z</time></trkpt><trkpt lat="44.36053365453278" lon="7.473043243911994"><ele>629.75</ele><time>2026-05-03T12:56:10.999Z</time></trkpt><trkpt lat="44.36050623019872" lon="7.472865632042737"><ele>630.5</ele><time>2026-05-03T12:56:11.999Z</time></trkpt><trkpt lat="44.360477026603725" lon="7.47269952430449"><ele>631.25</ele><time>2026-05-03T12:56:12.999Z</time></trkpt><trkpt lat="44.36045082630816" lon="7.472531384333725"><ele>632.0</ele><time>2026-05-03T12:56:13.999Z</time></trkpt><trkpt lat="44.360426718014594" lon="7.472361468652002"><ele>632.0</ele><time>2026-05-03T12:56:14.999Z</time></trkpt><trkpt lat="44.36040842923466" lon="7.472212600199751"><ele>632.0</ele><time>2026-05-03T12:56:15.999Z</time></trkpt><trkpt lat="44.36039221500583" lon="7.472076432713247"><ele>632.0</ele><time>2026-05-03T12:56:16.999Z</time></trkpt><trkpt lat="44.36036953905632" lon="7.471945446482093"><ele>632.0</ele><time>2026-05-03T12:56:17.999Z</time></trkpt><trkpt lat="44.36034451031063" lon="7.471826343678115"><ele>632.0</ele><time>2026-05-03T12:56:18.999Z</time></trkpt><trkpt lat="44.36031856376864" lon="7.471728513086575"><ele>632.6666666666666</ele><time>2026-05-03T12:56:19.999Z</time></trkpt><trkpt lat="44.36027702966926" lon="7.471606389595658"><ele>633.3333333333333</ele><time>2026-05-03T12:56:22.999Z</time></trkpt><trkpt lat="44.36023222336921" lon="7.47144682971536"><ele>634.0</ele><time>2026-05-03T12:57:12.999Z</time></trkpt><trkpt lat="44.36022790292823" lon="7.47135487956796"><ele>634.6666666666666</ele><time>2026-05-03T12:57:13.999Z</time></trkpt><trkpt lat="44.36022420761417" lon="7.471254646807111"><ele>635.3333333333334</ele><time>2026-05-03T12:57:14.999Z</time></trkpt><trkpt lat="44.36022356992932" lon="7.471151632064612"><ele>636.0</ele><time>2026-05-03T12:57:15.999Z</time></trkpt><trkpt lat="44.36021908641498" lon="7.471059861603666"><ele>636.6666666666666</ele><time>2026-05-03T12:57:16.999Z</time></trkpt><trkpt lat="44.36022129658164" lon="7.470929503271337"><ele>637.3333333333334</ele><time>2026-05-03T12:57:18.999Z</time></trkpt><trkpt lat="44.3602311193891" lon="7.4708239652341035"><ele>638.0</ele><time>2026-05-03T12:57:20.999Z</time></trkpt><trkpt lat="44.360213097431824" lon="7.470674773236414"><ele>638.6666666666667</ele><time>2026-05-03T12:57:22.999Z</time></trkpt><trkpt lat="44.36017333501449" lon="7.47058717828611"><ele>639.3333333333334</ele><time>2026-05-03T12:57:23.999Z</time></trkpt><trkpt lat="44.360129575583926" lon="7.470500240651417"><ele>640.0</ele><time>2026-05-03T12:57:24.999Z</time></trkpt><trkpt lat="44.360092260606365" lon="7.470416273854313"><ele>640.8</ele><time>2026-05-03T12:57:25.998Z</time></trkpt><trkpt lat="44.36004730948645" lon="7.47029647614052"><ele>641.6</ele><time>2026-05-03T12:57:27.998Z</time></trkpt><trkpt lat="44.360048271630596" lon="7.470197633997379"><ele>642.4000000000001</ele><time>2026-05-03T12:57:29.998Z</time></trkpt><trkpt lat="44.360201259237364" lon="7.470183433367615"><ele>643.2</ele><time>2026-05-03T12:57:31.998Z</time></trkpt><trkpt lat="44.36029290434009" lon="7.470128909859125"><ele>644.0</ele><time>2026-05-03T12:57:32.998Z</time></trkpt><trkpt lat="44.36040051016632" lon="7.47012807884543"><ele>644.0</ele><time>2026-05-03T12:57:33.998Z</time></trkpt><trkpt lat="44.36049964464567" lon="7.470097381987314"><ele>644.0</ele><time>2026-05-03T12:57:34.998Z</time></trkpt><trkpt lat="44.3605785762942" lon="7.470026954918747"><ele>644.0</ele><time>2026-05-03T12:57:35.998Z</time></trkpt><trkpt lat="44.36064541704025" lon="7.469971382613468"><ele>644.0</ele><time>2026-05-03T12:57:36.998Z</time></trkpt><trkpt lat="44.360711029552924" lon="7.469917557227922"><ele>644.0</ele><time>2026-05-03T12:57:37.998Z</time></trkpt><trkpt lat="44.36074331203877" lon="7.469829835415752"><ele>644.0</ele><time>2026-05-03T12:57:39.998Z</time></trkpt><trkpt lat="44.3606997999247" lon="7.469749328783738"><ele>643.2</ele><time>2026-05-03T12:58:15.999Z</time></trkpt><trkpt lat="44.36071744872651" lon="7.469659887197621"><ele>642.4000000000001</ele><time>2026-05-03T12:58:16.999Z</time></trkpt><trkpt lat="44.36074845533802" lon="7.469562834533103"><ele>641.6</ele><time>2026-05-03T12:58:17.999Z</time></trkpt><trkpt lat="44.36076239128892" lon="7.469371935645592"><ele>640.8</ele><time>2026-05-03T12:58:19.999Z</time></trkpt><trkpt lat="44.360772511135494" lon="7.469234115827905"><ele>640.0</ele><time>2026-05-03T12:58:20.999Z</time></trkpt><trkpt lat="44.360732769763594" lon="7.469120364505895"><ele>642.8333333333334</ele><time>2026-05-03T12:58:21.999Z</time></trkpt><trkpt lat="44.36071247641145" lon="7.468979155849097"><ele>645.6666666666667</ele><time>2026-05-03T12:58:23.999Z</time></trkpt><trkpt lat="44.360721535293614" lon="7.468859064495849"><ele>648.5</ele><time>2026-05-03T12:58:27.999Z</time></trkpt><trkpt lat="44.360719397101505" lon="7.46876949328226"><ele>651.3333333333334</ele><time>2026-05-03T12:58:30.999Z</time></trkpt><trkpt lat="44.36069889185392" lon="7.468672754765468"><ele>654.1666666666666</ele><time>2026-05-03T12:58:33.999Z</time></trkpt><trkpt lat="44.360678079634596" lon="7.468767204212768"><ele>657.0</ele><time>2026-05-03T12:58:43.999Z</time></trkpt><trkpt lat="44.36070039572356" lon="7.468850534175888"><ele>657.0</ele><time>2026-05-03T12:58:45.999Z</time></trkpt><trkpt lat="44.36071686525608" lon="7.4689596108093825"><ele>657.0</ele><time>2026-05-03T12:58:49.999Z</time></trkpt><trkpt lat="44.36073425326983" lon="7.469098106797348"><ele>657.0</ele><time>2026-05-03T12:58:59.999Z</time></trkpt><trkpt lat="44.36076902112898" lon="7.469274852377036"><ele>657.0</ele><time>2026-05-03T12:59:01.999Z</time></trkpt><trkpt lat="44.36077444785137" lon="7.469377580247432"><ele>657.0</ele><time>2026-05-03T12:59:02.999Z</time></trkpt><trkpt lat="44.3607719265567" lon="7.469482968216535"><ele>657.0</ele><time>2026-05-03T12:59:03.999Z</time></trkpt><trkpt lat="44.360736950406654" lon="7.469557755994371"><ele>657.0</ele><time>2026-05-03T12:59:04.999Z</time></trkpt><trkpt lat="44.36071536548012" lon="7.469644670898233"><ele>657.0</ele><time>2026-05-03T12:59:05.999Z</time></trkpt><trkpt lat="44.36068392662626" lon="7.469767781525824"><ele>657.0</ele><time>2026-05-03T12:59:07.999Z</time></trkpt><trkpt lat="44.36077404941167" lon="7.469758244429408"><ele>657.0</ele><time>2026-05-03T12:59:11.999Z</time></trkpt><trkpt lat="44.36080541986113" lon="7.4696673254058155"><ele>657.0</ele><time>2026-05-03T12:59:12.999Z</time></trkpt><trkpt lat="44.360846894225986" lon="7.4695518468806705"><ele>657.0</ele><time>2026-05-03T12:59:13.999Z</time></trkpt><trkpt lat="44.3609117164163" lon="7.469438981417477"><ele>657.0</ele><time>2026-05-03T12:59:14.999Z</time></trkpt><trkpt lat="44.360984898153" lon="7.469321212444578"><ele>657.0</ele><time>2026-05-03T12:59:15.999Z</time></trkpt><trkpt lat="44.36106999053835" lon="7.469223735958056"><ele>657.0</ele><time>2026-05-03T12:59:16.999Z</time></trkpt><trkpt lat="44.36117766789752" lon="7.46917073119477"><ele>657.0</ele><time>2026-05-03T12:59:17.999Z</time></trkpt><trkpt lat="44.361285689220935" lon="7.469151396821041"><ele>655.8</ele><time>2026-05-03T12:59:18.999Z</time></trkpt><trkpt lat="44.36138839537802" lon="7.4691631912934575"><ele>654.6</ele><time>2026-05-03T12:59:19.999Z</time></trkpt><trkpt lat="44.361483088185075" lon="7.469180159091814"><ele>653.4</ele><time>2026-05-03T12:59:20.999Z</time></trkpt><trkpt lat="44.36157044801146" lon="7.4692018409047884"><ele>652.1999999999999</ele><time>2026-05-03T12:59:21.999Z</time></trkpt><trkpt lat="44.36166958753956" lon="7.469191616328571"><ele>651.0</ele><time>2026-05-03T12:59:22.999Z</time></trkpt><trkpt lat="44.36177112008124" lon="7.469159742700617"><ele>651.0</ele><time>2026-05-03T12:59:23.999Z</time></trkpt><trkpt lat="44.36187792086626" lon="7.469105397045366"><ele>651.0</ele><time>2026-05-03T12:59:24.999Z</time></trkpt><trkpt lat="44.3619937756613" lon="7.4690923549535135"><ele>651.0</ele><time>2026-05-03T12:59:25.999Z</time></trkpt><trkpt lat="44.36212469450515" lon="7.469050059049811"><ele>651.0</ele><time>2026-05-03T12:59:26.999Z</time></trkpt><trkpt lat="44.36224957444303" lon="7.469038626641843"><ele>651.25</ele><time>2026-05-03T12:59:27.999Z</time></trkpt><trkpt lat="44.36238142279047" lon="7.468995590647137"><ele>651.5</ele><time>2026-05-03T12:59:28.999Z</time></trkpt><trkpt lat="44.362515310829124" lon="7.468935357050838"><ele>651.75</ele><time>2026-05-03T12:59:29.999Z</time></trkpt><trkpt lat="44.36263466630545" lon="7.468885703005322"><ele>652.0</ele><time>2026-05-03T12:59:30.999Z</time></trkpt><trkpt lat="44.362748380028734" lon="7.468844939532256"><ele>652.0</ele><time>2026-05-03T12:59:31.999Z</time></trkpt><trkpt lat="44.36286235202988" lon="7.46878446152774"><ele>652.0</ele><time>2026-05-03T12:59:32.999Z</time></trkpt><trkpt lat="44.362981690367896" lon="7.468711908299159"><ele>652.0</ele><time>2026-05-03T12:59:33.999Z</time></trkpt><trkpt lat="44.363101013243345" lon="7.468642637920524"><ele>652.0</ele><time>2026-05-03T12:59:34.999Z</time></trkpt><trkpt lat="44.36322571407599" lon="7.468572930978612"><ele>655.0</ele><time>2026-05-03T12:59:35.999Z</time></trkpt><trkpt lat="44.363342627483064" lon="7.468505204372917"><ele>658.0</ele><time>2026-05-03T12:59:36.999Z</time></trkpt><trkpt lat="44.36345088384268" lon="7.468443106472437"><ele>661.0</ele><time>2026-05-03T12:59:37.999Z</time></trkpt><trkpt lat="44.36355512710557" lon="7.468363465429722"><ele>664.0</ele><time>2026-05-03T12:59:38.999Z</time></trkpt><trkpt lat="44.36365076339073" lon="7.468264145586399"><ele>664.0</ele><time>2026-05-03T12:59:39.999Z</time></trkpt><trkpt lat="44.363724618142456" lon="7.468135115356506"><ele>664.0</ele><time>2026-05-03T12:59:40.999Z</time></trkpt><trkpt lat="44.36377643687842" lon="7.4679870566564"><ele>664.0</ele><time>2026-05-03T12:59:41.999Z</time></trkpt><trkpt lat="44.36381800316634" lon="7.467832221367333"><ele>664.0</ele><time>2026-05-03T12:59:42.998Z</time></trkpt><trkpt lat="44.363842867744964" lon="7.467686474787078"><ele>664.6</ele><time>2026-05-03T12:59:43.998Z</time></trkpt><trkpt lat="44.363909561234664" lon="7.4675685379856285"><ele>665.2</ele><time>2026-05-03T12:59:44.998Z</time></trkpt><trkpt lat="44.36397933925508" lon="7.467453883102503"><ele>665.8000000000001</ele><time>2026-05-03T12:59:45.998Z</time></trkpt><trkpt lat="44.36408137568357" lon="7.467395497097413"><ele>666.4000000000001</ele><time>2026-05-03T12:59:47Z</time></trkpt><trkpt lat="44.364183558409444" lon="7.467313677669453"><ele>667.0</ele><time>2026-05-03T12:59:48Z</time></trkpt><trkpt lat="44.36428589788755" lon="7.4672471836701195"><ele>667.0</ele><time>2026-05-03T12:59:49Z</time></trkpt><trkpt lat="44.36439344899055" lon="7.467177722277493"><ele>667.0</ele><time>2026-05-03T12:59:50Z</time></trkpt><trkpt lat="44.36448615375988" lon="7.467087607606048"><ele>667.0</ele><time>2026-05-03T12:59:51Z</time></trkpt><trkpt lat="44.36458608663406" lon="7.467028243708653"><ele>667.0</ele><time>2026-05-03T12:59:52Z</time></trkpt><trkpt lat="44.36466802822345" lon="7.466929529538302"><ele>667.0</ele><time>2026-05-03T12:59:53Z</time></trkpt><trkpt lat="44.36475911534155" lon="7.466857781099569"><ele>667.2</ele><time>2026-05-03T12:59:54Z</time></trkpt><trkpt lat="44.364839542940395" lon="7.46677387322264"><ele>667.4000000000001</ele><time>2026-05-03T12:59:55Z</time></trkpt><trkpt lat="44.364909991348384" lon="7.466656881136577"><ele>667.5999999999999</ele><time>2026-05-03T12:59:56Z</time></trkpt><trkpt lat="44.364956242311465" lon="7.466515903649793"><ele>667.8</ele><time>2026-05-03T12:59:57Z</time></trkpt><trkpt lat="44.365002273222245" lon="7.466372104382801"><ele>668.0</ele><time>2026-05-03T12:59:58Z</time></trkpt><trkpt lat="44.36506878048681" lon="7.466224444538964"><ele>671.8</ele><time>2026-05-03T12:59:59Z</time></trkpt><trkpt lat="44.36510516147201" lon="7.466077966535858"><ele>675.5999999999999</ele><time>2026-05-03T13:00:00Z</time></trkpt><trkpt lat="44.36511563913271" lon="7.465924302757691"><ele>679.4000000000001</ele><time>2026-05-03T13:00:01Z</time></trkpt><trkpt lat="44.36513764330124" lon="7.465791769935528"><ele>683.2</ele><time>2026-05-03T13:00:02Z</time></trkpt><trkpt lat="44.36517193515817" lon="7.465677957607873"><ele>687.0</ele><time>2026-05-03T13:00:03Z</time></trkpt><trkpt lat="44.36523510568407" lon="7.46559957135717"><ele>687.0</ele><time>2026-05-03T13:00:04Z</time></trkpt><trkpt lat="44.36534456660891" lon="7.465617669516364"><ele>687.0</ele><time>2026-05-03T13:00:05Z</time></trkpt><trkpt lat="44.365442131848496" lon="7.465561626868314"><ele>687.0</ele><time>2026-05-03T13:00:06Z</time></trkpt><trkpt lat="44.365546482726515" lon="7.465560961590322"><ele>687.0</ele><time>2026-05-03T13:00:07Z</time></trkpt><trkpt lat="44.36561301292218" lon="7.4654817783043255"><ele>687.0</ele><time>2026-05-03T13:00:08Z</time></trkpt><trkpt lat="44.36570646118937" lon="7.465378177966948"><ele>688.2</ele><time>2026-05-03T13:00:09Z</time></trkpt><trkpt lat="44.365776124133774" lon="7.465268738489439"><ele>689.4000000000001</ele><time>2026-05-03T13:00:10Z</time></trkpt><trkpt lat="44.36585496173401" lon="7.465187260545766"><ele>690.5999999999999</ele><time>2026-05-03T13:00:11Z</time></trkpt><trkpt lat="44.365939857083276" lon="7.465117917279932"><ele>691.8</ele><time>2026-05-03T13:00:12Z</time></trkpt><trkpt lat="44.36603507164836" lon="7.465093043024976"><ele>693.0</ele><time>2026-05-03T13:00:13Z</time></trkpt><trkpt lat="44.36612593036395" lon="7.465055071078551"><ele>693.0</ele><time>2026-05-03T13:00:14Z</time></trkpt><trkpt lat="44.36622059242769" lon="7.465016173587419"><ele>693.0</ele><time>2026-05-03T13:00:15Z</time></trkpt><trkpt lat="44.36630786288912" lon="7.4649659944541185"><ele>693.0</ele><time>2026-05-03T13:00:16Z</time></trkpt><trkpt lat="44.36638338891302" lon="7.46491215283587"><ele>693.0</ele><time>2026-05-03T13:00:17Z</time></trkpt><trkpt lat="44.366459158621446" lon="7.464865365785344"><ele>693.0</ele><time>2026-05-03T13:00:18Z</time></trkpt><trkpt lat="44.3665431217518" lon="7.464822213383103"><ele>692.8333333333334</ele><time>2026-05-03T13:00:19Z</time></trkpt><trkpt lat="44.3666272429525" lon="7.464780850905116"><ele>692.6666666666666</ele><time>2026-05-03T13:00:20Z</time></trkpt><trkpt lat="44.36671655759942" lon="7.464736534495703"><ele>692.5</ele><time>2026-05-03T13:00:21Z</time></trkpt><trkpt lat="44.36680425974612" lon="7.464694873250877"><ele>692.3333333333333</ele><time>2026-05-03T13:00:22Z</time></trkpt><trkpt lat="44.36688648565152" lon="7.464650774065816"><ele>692.1666666666666</ele><time>2026-05-03T13:00:23Z</time></trkpt><trkpt lat="44.36696208424802" lon="7.464610711890265"><ele>692.0</ele><time>2026-05-03T13:00:24Z</time></trkpt><trkpt lat="44.36703144289933" lon="7.464583111741897"><ele>692.0</ele><time>2026-05-03T13:00:25Z</time></trkpt><trkpt lat="44.36709519370339" lon="7.464543703945081"><ele>692.0</ele><time>2026-05-03T13:00:26Z</time></trkpt><trkpt lat="44.36715418381837" lon="7.464437900321297"><ele>692.0</ele><time>2026-05-03T13:01:04.999Z</time></trkpt><trkpt lat="44.36712536982031" lon="7.464346398613615"><ele>692.0</ele><time>2026-05-03T13:01:05.999Z</time></trkpt><trkpt lat="44.36707468221666" lon="7.464264850470076"><ele>692.0</ele><time>2026-05-03T13:01:06.999Z</time></trkpt><trkpt lat="44.367029213565296" lon="7.464175527700575"><ele>692.0</ele><time>2026-05-03T13:01:07.999Z</time></trkpt><trkpt lat="44.366975947316014" lon="7.464091681027976"><ele>692.0</ele><time>2026-05-03T13:01:08.999Z</time></trkpt><trkpt lat="44.36691192924701" lon="7.463955378041167"><ele>692.0</ele><time>2026-05-03T13:01:10.999Z</time></trkpt><trkpt lat="44.36686370284513" lon="7.463856255527774"><ele>692.0</ele><time>2026-05-03T13:01:12.999Z</time></trkpt><trkpt lat="44.36680701312749" lon="7.4637546057190365"><ele>692.0</ele><time>2026-05-03T13:01:57Z</time></trkpt><trkpt lat="44.36675449214317" lon="7.463675596748354"><ele>692.0</ele><time>2026-05-03T13:01:58Z</time></trkpt><trkpt lat="44.366690879335735" lon="7.463592423192271"><ele>691.0</ele><time>2026-05-03T13:01:59Z</time></trkpt><trkpt lat="44.3666184602539" lon="7.463479879703219"><ele>690.0</ele><time>2026-05-03T13:02:00Z</time></trkpt><trkpt lat="44.36654226776178" lon="7.4633488582212095"><ele>689.0</ele><time>2026-05-03T13:02:01Z</time></trkpt><trkpt lat="44.36647422982396" lon="7.463190583220207"><ele>688.0</ele><time>2026-05-03T13:02:02Z</time></trkpt><trkpt lat="44.36641049215353" lon="7.4630150112506435"><ele>700.0</ele><time>2026-05-03T13:02:03Z</time></trkpt><trkpt lat="44.366340364351856" lon="7.462822581079649"><ele>712.0</ele><time>2026-05-03T13:02:04Z</time></trkpt><trkpt lat="44.36627463808349" lon="7.462634753355839"><ele>724.0</ele><time>2026-05-03T13:02:05Z</time></trkpt><trkpt lat="44.366207501979275" lon="7.462450816094016"><ele>724.0</ele><time>2026-05-03T13:02:06Z</time></trkpt><trkpt lat="44.366137414197986" lon="7.4622575540416864"><ele>724.0</ele><time>2026-05-03T13:02:07Z</time></trkpt><trkpt lat="44.36607102313425" lon="7.462082055968771"><ele>724.0</ele><time>2026-05-03T13:02:08Z</time></trkpt><trkpt lat="44.366007801665674" lon="7.46189174600192"><ele>724.0</ele><time>2026-05-03T13:02:09Z</time></trkpt><trkpt lat="44.36592193726732" lon="7.461733412805502"><ele>721.5</ele><time>2026-05-03T13:02:10Z</time></trkpt><trkpt lat="44.36584189386824" lon="7.4615650645193305"><ele>719.0</ele><time>2026-05-03T13:02:11Z</time></trkpt><trkpt lat="44.36575152741797" lon="7.461420983228823"><ele>716.5</ele><time>2026-05-03T13:02:12Z</time></trkpt><trkpt lat="44.36563671023217" lon="7.461325545356043"><ele>714.0</ele><time>2026-05-03T13:02:13Z</time></trkpt><trkpt lat="44.36553647533236" lon="7.461236457486147"><ele>718.8000000000001</ele><time>2026-05-03T13:02:14Z</time></trkpt><trkpt lat="44.36542023116844" lon="7.461204248778623"><ele>723.6</ele><time>2026-05-03T13:02:15Z</time></trkpt><trkpt lat="44.36533958448017" lon="7.461155441838388"><ele>728.4</ele><time>2026-05-03T13:02:16Z</time></trkpt><trkpt lat="44.36528108909905" lon="7.461067286889569"><ele>733.2</ele><time>2026-05-03T13:02:17Z</time></trkpt><trkpt lat="44.36523484746639" lon="7.460967425493482"><ele>738.0</ele><time>2026-05-03T13:02:18Z</time></trkpt><trkpt lat="44.365230036263476" lon="7.460846337628764"><ele>738.0</ele><time>2026-05-03T13:02:19Z</time></trkpt><trkpt lat="44.36524869080956" lon="7.4607095164966575"><ele>738.0</ele><time>2026-05-03T13:02:20Z</time></trkpt><trkpt lat="44.3652729597203" lon="7.460557418716895"><ele>738.0</ele><time>2026-05-03T13:02:21Z</time></trkpt><trkpt lat="44.36528714688466" lon="7.460361393200049"><ele>738.0</ele><time>2026-05-03T13:02:22Z</time></trkpt><trkpt lat="44.36525602429271" lon="7.460195680076058"><ele>737.1666666666666</ele><time>2026-05-03T13:02:23Z</time></trkpt><trkpt lat="44.36522758714816" lon="7.460101211846852"><ele>736.3333333333334</ele><time>2026-05-03T13:02:24Z</time></trkpt><trkpt lat="44.36519143214417" lon="7.4599944776764335"><ele>735.5</ele><time>2026-05-03T13:02:25Z</time></trkpt><trkpt lat="44.365116307211515" lon="7.459951646292456"><ele>734.6666666666667</ele><time>2026-05-03T13:02:26Z</time></trkpt><trkpt lat="44.365020651892415" lon="7.459929028701557"><ele>733.8333333333334</ele><time>2026-05-03T13:02:27Z</time></trkpt><trkpt lat="44.364915959913404" lon="7.459922050831362"><ele>733.0</ele><time>2026-05-03T13:02:28Z</time></trkpt><trkpt lat="44.36479059233424" lon="7.4599106985004635"><ele>737.8</ele><time>2026-05-03T13:02:29Z</time></trkpt><trkpt lat="44.364664428624565" lon="7.459877187418654"><ele>742.5999999999999</ele><time>2026-05-03T13:02:30Z</time></trkpt><trkpt lat="44.364561540316984" lon="7.459828958613477"><ele>747.4000000000001</ele><time>2026-05-03T13:02:31Z</time></trkpt><trkpt lat="44.364477568910644" lon="7.459757729384549"><ele>752.2</ele><time>2026-05-03T13:02:32Z</time></trkpt><trkpt lat="44.364377896244974" lon="7.459709403177443"><ele>757.0</ele><time>2026-05-03T13:02:33Z</time></trkpt><trkpt lat="44.36429575392101" lon="7.459622740734893"><ele>754.8</ele><time>2026-05-03T13:02:34Z</time></trkpt><trkpt lat="44.364207513350934" lon="7.459590000652058"><ele>752.6</ele><time>2026-05-03T13:02:35Z</time></trkpt><trkpt lat="44.364168319369625" lon="7.45950551107183"><ele>750.4</ele><time>2026-05-03T13:02:36Z</time></trkpt><trkpt lat="44.36414290747697" lon="7.459311815391081"><ele>748.1999999999999</ele><time>2026-05-03T13:02:38Z</time></trkpt><trkpt lat="44.36412702093891" lon="7.459200276936271"><ele>746.0</ele><time>2026-05-03T13:02:38.999Z</time></trkpt><trkpt lat="44.36411397619399" lon="7.4590831130979165"><ele>746.0</ele><time>2026-05-03T13:02:39.999Z</time></trkpt><trkpt lat="44.36410226076223" lon="7.458876490544588"><ele>746.0</ele><time>2026-05-03T13:02:40.999Z</time></trkpt><trkpt lat="44.364098642902334" lon="7.4587266742161775"><ele>746.0</ele><time>2026-05-03T13:02:41.999Z</time></trkpt><trkpt lat="44.36411820686933" lon="7.458582779344032"><ele>746.0</ele><time>2026-05-03T13:02:42.999Z</time></trkpt><trkpt lat="44.364149976946095" lon="7.458451119886577"><ele>747.0</ele><time>2026-05-03T13:02:43.999Z</time></trkpt><trkpt lat="44.364183440770326" lon="7.458275179032472"><ele>748.0</ele><time>2026-05-03T13:02:44.999Z</time></trkpt><trkpt lat="44.364191338734756" lon="7.458127728706973"><ele>749.0</ele><time>2026-05-03T13:02:45.999Z</time></trkpt><trkpt lat="44.36416095054642" lon="7.457978308815779"><ele>750.0</ele><time>2026-05-03T13:02:46.999Z</time></trkpt><trkpt lat="44.36409846665148" lon="7.457824472189669"><ele>750.0</ele><time>2026-05-03T13:02:47.999Z</time></trkpt><trkpt lat="44.36404338596868" lon="7.457662036329658"><ele>750.0</ele><time>2026-05-03T13:02:48.999Z</time></trkpt><trkpt lat="44.363960026050854" lon="7.457544297809529"><ele>750.0</ele><time>2026-05-03T13:02:49.999Z</time></trkpt><trkpt lat="44.36389358983463" lon="7.457401361133901"><ele>750.0</ele><time>2026-05-03T13:02:50.999Z</time></trkpt><trkpt lat="44.3638140398662" lon="7.457274068257401"><ele>757.5</ele><time>2026-05-03T13:02:51.999Z</time></trkpt><trkpt lat="44.36373148783156" lon="7.457143956969165"><ele>765.0</ele><time>2026-05-03T13:02:52.999Z</time></trkpt><trkpt lat="44.36363889067807" lon="7.4569844175506015"><ele>772.5</ele><time>2026-05-03T13:02:53.999Z</time></trkpt><trkpt lat="44.36357466271838" lon="7.456844302276371"><ele>780.0</ele><time>2026-05-03T13:02:54.999Z</time></trkpt><trkpt lat="44.36349973147048" lon="7.456714415166492"><ele>780.0</ele><time>2026-05-03T13:02:55.999Z</time></trkpt><trkpt lat="44.36345692271461" lon="7.456559085654482"><ele>780.0</ele><time>2026-05-03T13:02:56.999Z</time></trkpt><trkpt lat="44.36338918299538" lon="7.4564680045983165"><ele>780.0</ele><time>2026-05-03T13:02:57.999Z</time></trkpt><trkpt lat="44.363330025970185" lon="7.456393001777303"><ele>780.0</ele><time>2026-05-03T13:02:58.999Z</time></trkpt><trkpt lat="44.3632484139396" lon="7.456293451544758"><ele>780.0</ele><time>2026-05-03T13:02:59.999Z</time></trkpt><trkpt lat="44.36317566304213" lon="7.456179824690996"><ele>781.8</ele><time>2026-05-03T13:03:00.999Z</time></trkpt><trkpt lat="44.36306186004566" lon="7.456138762005796"><ele>783.6</ele><time>2026-05-03T13:03:01.999Z</time></trkpt><trkpt lat="44.362973490721785" lon="7.45606073506978"><ele>785.4000000000001</ele><time>2026-05-03T13:03:02.999Z</time></trkpt><trkpt lat="44.36289873273442" lon="7.455991381927174"><ele>787.2</ele><time>2026-05-03T13:03:03.999Z</time></trkpt><trkpt lat="44.36284288969453" lon="7.455913762832569"><ele>789.0</ele><time>2026-05-03T13:03:04.999Z</time></trkpt><trkpt lat="44.36278002357632" lon="7.45583236203114"><ele>789.0</ele><time>2026-05-03T13:03:05.999Z</time></trkpt><trkpt lat="44.36270619048794" lon="7.455762748476253"><ele>789.0</ele><time>2026-05-03T13:03:06.999Z</time></trkpt><trkpt lat="44.362660173081316" lon="7.455658391457193"><ele>789.0</ele><time>2026-05-03T13:03:07.999Z</time></trkpt><trkpt lat="44.362594936367095" lon="7.455602345461407"><ele>789.0</ele><time>2026-05-03T13:03:08.999Z</time></trkpt><trkpt lat="44.36250128501515" lon="7.455548698256764"><ele>789.0</ele><time>2026-05-03T13:03:09.999Z</time></trkpt><trkpt lat="44.36242585454377" lon="7.455473744436817"><ele>789.0</ele><time>2026-05-03T13:03:10.999Z</time></trkpt><trkpt lat="44.362330148649335" lon="7.455392581523994"><ele>786.0</ele><time>2026-05-03T13:03:11.999Z</time></trkpt><trkpt lat="44.3622081384815" lon="7.455323290869985"><ele>783.0</ele><time>2026-05-03T13:03:12.999Z</time></trkpt><trkpt lat="44.362116323202606" lon="7.455230956445409"><ele>780.0</ele><time>2026-05-03T13:03:13.999Z</time></trkpt><trkpt lat="44.36203298545224" lon="7.455160820112454"><ele>777.0</ele><time>2026-05-03T13:03:14.999Z</time></trkpt><trkpt lat="44.361971386769234" lon="7.4551253060433655"><ele>774.0</ele><time>2026-05-03T13:03:15.999Z</time></trkpt><trkpt lat="44.36192966556824" lon="7.45499224342962"><ele>779.0</ele><time>2026-05-03T13:03:16.999Z</time></trkpt><trkpt lat="44.36192734417229" lon="7.454869165890938"><ele>784.0</ele><time>2026-05-03T13:03:17.999Z</time></trkpt><trkpt lat="44.36189259502426" lon="7.4547647630680585"><ele>789.0</ele><time>2026-05-03T13:03:18.999Z</time></trkpt><trkpt lat="44.36183016827309" lon="7.454670586302689"><ele>794.0</ele><time>2026-05-03T13:03:20.999Z</time></trkpt><trkpt lat="44.36189900793672" lon="7.454531159203871"><ele>799.0</ele><time>2026-05-03T13:03:30.999Z</time></trkpt><trkpt lat="44.36185992234821" lon="7.454435012025845"><ele>799.0</ele><time>2026-05-03T13:05:12.999Z</time></trkpt><trkpt lat="44.36177898375215" lon="7.4543644662056785"><ele>799.0</ele><time>2026-05-03T13:05:15.999Z</time></trkpt><trkpt lat="44.361714577198356" lon="7.454240744135134"><ele>799.0</ele><time>2026-05-03T13:05:17.999Z</time></trkpt><trkpt lat="44.36172174675874" lon="7.454126441004414"><ele>799.0</ele><time>2026-05-03T13:05:18.999Z</time></trkpt><trkpt lat="44.36175052831149" lon="7.453988027590862"><ele>799.0</ele><time>2026-05-03T13:05:19.999Z</time></trkpt><trkpt lat="44.361803132206106" lon="7.453848200163081"><ele>799.0</ele><time>2026-05-03T13:05:20.999Z</time></trkpt><trkpt lat="44.36185611075644" lon="7.453718580099513"><ele>799.0</ele><time>2026-05-03T13:05:21.999Z</time></trkpt><trkpt lat="44.36187702869927" lon="7.453613060917741"><ele>799.0</ele><time>2026-05-03T13:05:22.999Z</time></trkpt><trkpt lat="44.361857202660175" lon="7.453352725247026"><ele>799.0</ele><time>2026-05-03T13:05:24.999Z</time></trkpt><trkpt lat="44.36181626580215" lon="7.453171001492565"><ele>799.0</ele><time>2026-05-03T13:05:25.999Z</time></trkpt><trkpt lat="44.36179518671818" lon="7.45298629723051"><ele>799.0</ele><time>2026-05-03T13:05:26.999Z</time></trkpt><trkpt lat="44.36179884165246" lon="7.452853670954327"><ele>799.0</ele><time>2026-05-03T13:05:27.999Z</time></trkpt><trkpt lat="44.361821377635756" lon="7.452716006924181"><ele>799.0</ele><time>2026-05-03T13:05:28.999Z</time></trkpt><trkpt lat="44.361824830031516" lon="7.452622427613562"><ele>799.0</ele><time>2026-05-03T13:05:29.999Z</time></trkpt><trkpt lat="44.36188904827147" lon="7.452513444288261"><ele>799.0</ele><time>2026-05-03T13:05:30.999Z</time></trkpt><trkpt lat="44.361984583679025" lon="7.45241923206182"><ele>799.0</ele><time>2026-05-03T13:05:31.999Z</time></trkpt><trkpt lat="44.36204548931258" lon="7.452346605634105"><ele>799.0</ele><time>2026-05-03T13:05:32.999Z</time></trkpt><trkpt lat="44.362076814941105" lon="7.452239558355246"><ele>799.0</ele><time>2026-05-03T13:05:33.999Z</time></trkpt><trkpt lat="44.362098455647974" lon="7.452150603283365"><ele>799.0</ele><time>2026-05-03T13:05:34.999Z</time></trkpt><trkpt lat="44.36207554848291" lon="7.451991890342131"><ele>798.2</ele><time>2026-05-03T13:05:36.999Z</time></trkpt><trkpt lat="44.36213270113456" lon="7.451881050175059"><ele>797.4000000000001</ele><time>2026-05-03T13:05:38.999Z</time></trkpt><trkpt lat="44.36221546794085" lon="7.451845183406045"><ele>796.6</ele><time>2026-05-03T13:05:39.999Z</time></trkpt><trkpt lat="44.362294769083924" lon="7.451775498982103"><ele>795.8</ele><time>2026-05-03T13:05:40.999Z</time></trkpt><trkpt lat="44.362414238139735" lon="7.451667945264206"><ele>795.0</ele><time>2026-05-03T13:05:41.999Z</time></trkpt><trkpt lat="44.362533235783" lon="7.451642608984305"><ele>795.0</ele><time>2026-05-03T13:05:42.999Z</time></trkpt><trkpt lat="44.36266287785744" lon="7.451657876400961"><ele>795.0</ele><time>2026-05-03T13:05:43.999Z</time></trkpt><trkpt lat="44.36274011010052" lon="7.451657842896813"><ele>795.0</ele><time>2026-05-03T13:05:44.999Z</time></trkpt><trkpt lat="44.36278856151115" lon="7.451583358580916"><ele>795.0</ele><time>2026-05-03T13:05:45.999Z</time></trkpt><trkpt lat="44.36287632610717" lon="7.451516884730269"><ele>795.0</ele><time>2026-05-03T13:05:46.999Z</time></trkpt><trkpt lat="44.36293745218361" lon="7.451466331377623"><ele>795.0</ele><time>2026-05-03T13:05:47.999Z</time></trkpt><trkpt lat="44.363013857137936" lon="7.451558979443708"><ele>795.0</ele><time>2026-05-03T13:05:49.999Z</time></trkpt><trkpt lat="44.36305015655736" lon="7.451683266521075"><ele>795.0</ele><time>2026-05-03T13:05:50.999Z</time></trkpt><trkpt lat="44.36312076620345" lon="7.451787967947148"><ele>795.0</ele><time>2026-05-03T13:05:52.999Z</time></trkpt><trkpt lat="44.36317608467859" lon="7.451884095727879"><ele>795.0</ele><time>2026-05-03T13:05:54.999Z</time></trkpt><trkpt lat="44.36323828850923" lon="7.451976308687423"><ele>796.5</ele><time>2026-05-03T13:05:56.999Z</time></trkpt><trkpt lat="44.363290058995275" lon="7.452041075625921"><ele>798.0</ele><time>2026-05-03T13:05:57.999Z</time></trkpt><trkpt lat="44.3633472529608" lon="7.452115788770611"><ele>799.5</ele><time>2026-05-03T13:05:58.999Z</time></trkpt><trkpt lat="44.363415980342964" lon="7.452150691230585"><ele>801.0</ele><time>2026-05-03T13:05:59.999Z</time></trkpt><trkpt lat="44.36346546436265" lon="7.452206321489873"><ele>802.5</ele><time>2026-05-03T13:06:00.999Z</time></trkpt><trkpt lat="44.36356100707714" lon="7.452229693889715"><ele>804.0</ele><time>2026-05-03T13:06:02.999Z</time></trkpt><trkpt lat="44.36368390577365" lon="7.452231247280102"><ele>800.4000000000001</ele><time>2026-05-03T13:06:05Z</time></trkpt><trkpt lat="44.36377202399481" lon="7.452254575265888"><ele>796.8</ele><time>2026-05-03T13:06:06Z</time></trkpt><trkpt lat="44.36389659962511" lon="7.4522768730993"><ele>793.2</ele><time>2026-05-03T13:06:07Z</time></trkpt><trkpt lat="44.36401165875776" lon="7.452286554538945"><ele>789.5999999999999</ele><time>2026-05-03T13:06:08Z</time></trkpt><trkpt lat="44.364113369832125" lon="7.452300282705363"><ele>786.0</ele><time>2026-05-03T13:06:09Z</time></trkpt><trkpt lat="44.36424223635114" lon="7.452380020155299"><ele>786.0</ele><time>2026-05-03T13:06:10Z</time></trkpt><trkpt lat="44.36436767166589" lon="7.452467191374847"><ele>786.0</ele><time>2026-05-03T13:06:11Z</time></trkpt><trkpt lat="44.36446973068669" lon="7.452541638332744"><ele>786.0</ele><time>2026-05-03T13:06:12Z</time></trkpt><trkpt lat="44.36455311815311" lon="7.452625938194544"><ele>786.0</ele><time>2026-05-03T13:06:13Z</time></trkpt><trkpt lat="44.36461937484927" lon="7.452726186771351"><ele>786.0</ele><time>2026-05-03T13:06:14Z</time></trkpt><trkpt lat="44.36468973014788" lon="7.452808155753748"><ele>786.0</ele><time>2026-05-03T13:06:15Z</time></trkpt><trkpt lat="44.36475795391706" lon="7.45289479832056"><ele>786.0</ele><time>2026-05-03T13:06:16Z</time></trkpt><trkpt lat="44.364814910328725" lon="7.452957893194482"><ele>786.0</ele><time>2026-05-03T13:06:17Z</time></trkpt><trkpt lat="44.36487155231717" lon="7.453025471922235"><ele>786.0</ele><time>2026-05-03T13:06:18Z</time></trkpt><trkpt lat="44.3649416290486" lon="7.453085157501927"><ele>786.0</ele><time>2026-05-03T13:06:19Z</time></trkpt><trkpt lat="44.36501199189134" lon="7.453134537205389"><ele>784.1666666666666</ele><time>2026-05-03T13:06:20Z</time></trkpt><trkpt lat="44.365083550719476" lon="7.45318711787857"><ele>782.3333333333333</ele><time>2026-05-03T13:06:21Z</time></trkpt><trkpt lat="44.36513210056046" lon="7.453278870190012"><ele>780.5</ele><time>2026-05-03T13:06:22Z</time></trkpt><trkpt lat="44.36520783843232" lon="7.453327885861497"><ele>778.6666666666666</ele><time>2026-05-03T13:06:23Z</time></trkpt><trkpt lat="44.36526852469366" lon="7.453382268965259"><ele>776.8333333333333</ele><time>2026-05-03T13:06:24Z</time></trkpt><trkpt lat="44.3653263051517" lon="7.4534349427088085"><ele>775.0</ele><time>2026-05-03T13:06:25Z</time></trkpt><trkpt lat="44.365429672947435" lon="7.453466915813695"><ele>775.0</ele><time>2026-05-03T13:06:27Z</time></trkpt><trkpt lat="44.3655007386543" lon="7.453414625327516"><ele>775.0</ele><time>2026-05-03T13:06:30Z</time></trkpt><trkpt lat="44.36560221674233" lon="7.453401049653074"><ele>775.0</ele><time>2026-05-03T13:06:32Z</time></trkpt><trkpt lat="44.365656555997404" lon="7.453281137657196"><ele>775.0</ele><time>2026-05-03T13:06:33Z</time></trkpt><trkpt lat="44.36572924738125" lon="7.453124865755933"><ele>775.0</ele><time>2026-05-03T13:06:34Z</time></trkpt><trkpt lat="44.36578962982514" lon="7.452974193926348"><ele>783.0</ele><time>2026-05-03T13:06:35Z</time></trkpt><trkpt lat="44.365830809057485" lon="7.452812274420381"><ele>791.0</ele><time>2026-05-03T13:06:36Z</time></trkpt><trkpt lat="44.36588275246726" lon="7.4526436013895685"><ele>799.0</ele><time>2026-05-03T13:06:37Z</time></trkpt><trkpt lat="44.36593913356504" lon="7.452484057805972"><ele>807.0</ele><time>2026-05-03T13:06:38Z</time></trkpt><trkpt lat="44.36601358665971" lon="7.452347997290599"><ele>807.0</ele><time>2026-05-03T13:06:39Z</time></trkpt><trkpt lat="44.36608305207939" lon="7.452216469137242"><ele>807.0</ele><time>2026-05-03T13:06:40Z</time></trkpt><trkpt lat="44.36615584830912" lon="7.452101724881989"><ele>807.0</ele><time>2026-05-03T13:06:41Z</time></trkpt><trkpt lat="44.36625730078808" lon="7.451989175924845"><ele>807.0</ele><time>2026-05-03T13:06:42Z</time></trkpt><trkpt lat="44.36638259749243" lon="7.451891767350683"><ele>809.2</ele><time>2026-05-03T13:06:43Z</time></trkpt><trkpt lat="44.36650043437446" lon="7.451836665086199"><ele>811.4000000000001</ele><time>2026-05-03T13:06:44Z</time></trkpt><trkpt lat="44.36659162297403" lon="7.451765109495786"><ele>813.5999999999999</ele><time>2026-05-03T13:06:45Z</time></trkpt><trkpt lat="44.366694904213084" lon="7.451737099354854"><ele>815.8</ele><time>2026-05-03T13:06:46Z</time></trkpt><trkpt lat="44.366779665697926" lon="7.451746004500058"><ele>818.0</ele><time>2026-05-03T13:06:47Z</time></trkpt><trkpt lat="44.36688387018549" lon="7.451763504495081"><ele>818.0</ele><time>2026-05-03T13:06:48Z</time></trkpt><trkpt lat="44.36696895638644" lon="7.451754421963159"><ele>818.0</ele><time>2026-05-03T13:06:49Z</time></trkpt><trkpt lat="44.3670556488366" lon="7.451694300350303"><ele>818.0</ele><time>2026-05-03T13:06:50Z</time></trkpt><trkpt lat="44.367028521505084" lon="7.451604453020404"><ele>818.0</ele><time>2026-05-03T13:06:51Z</time></trkpt><trkpt lat="44.36692146761738" lon="7.451527673757736"><ele>818.0</ele><time>2026-05-03T13:06:53Z</time></trkpt><trkpt lat="44.36684117529218" lon="7.4514719911137695"><ele>818.0</ele><time>2026-05-03T13:06:54Z</time></trkpt><trkpt lat="44.36673354770662" lon="7.451439400987928"><ele>818.0</ele><time>2026-05-03T13:06:55Z</time></trkpt><trkpt lat="44.36662507057237" lon="7.451497638707491"><ele>818.0</ele><time>2026-05-03T13:06:56Z</time></trkpt><trkpt lat="44.366680914494154" lon="7.451422698145706"><ele>818.0</ele><time>2026-05-03T13:06:59Z</time></trkpt><trkpt lat="44.36690354539559" lon="7.451379954806492"><ele>818.0</ele><time>2026-05-03T13:07:01Z</time></trkpt><trkpt lat="44.367018878475996" lon="7.451312837779678"><ele>818.0</ele><time>2026-05-03T13:07:02Z</time></trkpt><trkpt lat="44.36713083961904" lon="7.451249489653779"><ele>818.0</ele><time>2026-05-03T13:07:03Z</time></trkpt><trkpt lat="44.367230508810216" lon="7.451178596777415"><ele>818.0</ele><time>2026-05-03T13:07:04Z</time></trkpt><trkpt lat="44.367342896880125" lon="7.451097314528584"><ele>820.4</ele><time>2026-05-03T13:07:05Z</time></trkpt><trkpt lat="44.36741593972975" lon="7.451011949813027"><ele>822.8</ele><time>2026-05-03T13:07:06Z</time></trkpt><trkpt lat="44.367479278194686" lon="7.450930083204118"><ele>825.2</ele><time>2026-05-03T13:07:07Z</time></trkpt><trkpt lat="44.36753738391354" lon="7.450763974841361"><ele>827.6</ele><time>2026-05-03T13:07:08Z</time></trkpt><trkpt lat="44.367620554117174" lon="7.450669512951262"><ele>830.0</ele><time>2026-05-03T13:07:09Z</time></trkpt><trkpt lat="44.367708760517814" lon="7.450563983920448"><ele>830.0</ele><time>2026-05-03T13:07:10Z</time></trkpt><trkpt lat="44.36781833676366" lon="7.450464521922419"><ele>830.0</ele><time>2026-05-03T13:07:11Z</time></trkpt><trkpt lat="44.367916030529436" lon="7.450377699421102"><ele>830.0</ele><time>2026-05-03T13:07:12Z</time></trkpt><trkpt lat="44.36797400828094" lon="7.450288066464936"><ele>830.0</ele><time>2026-05-03T13:07:13Z</time></trkpt><trkpt lat="44.36798138974435" lon="7.450179526808601"><ele>830.0</ele><time>2026-05-03T13:07:14Z</time></trkpt><trkpt lat="44.36795892893114" lon="7.450037962160227"><ele>830.4</ele><time>2026-05-03T13:07:15Z</time></trkpt><trkpt lat="44.3679441877313" lon="7.449906047572779"><ele>830.8</ele><time>2026-05-03T13:07:16Z</time></trkpt><trkpt lat="44.36803750124257" lon="7.44980117722891"><ele>831.2</ele><time>2026-05-03T13:07:17.999Z</time></trkpt><trkpt lat="44.36812591960431" lon="7.449773303299116"><ele>831.6</ele><time>2026-05-03T13:07:18.999Z</time></trkpt><trkpt lat="44.368184317005856" lon="7.44967773250946"><ele>832.0</ele><time>2026-05-03T13:07:19.999Z</time></trkpt><trkpt lat="44.36820127888968" lon="7.449537934712514"><ele>835.5</ele><time>2026-05-03T13:07:20.999Z</time></trkpt><trkpt lat="44.36819990818671" lon="7.4494041016243795"><ele>839.0</ele><time>2026-05-03T13:07:21.999Z</time></trkpt><trkpt lat="44.36820304760282" lon="7.449244534803757"><ele>842.5</ele><time>2026-05-03T13:07:22.999Z</time></trkpt><trkpt lat="44.368185872377026" lon="7.449063996624709"><ele>846.0</ele><time>2026-05-03T13:07:23.999Z</time></trkpt><trkpt lat="44.36820223488142" lon="7.448909497646024"><ele>846.1999999999999</ele><time>2026-05-03T13:07:24.999Z</time></trkpt><trkpt lat="44.36821206894764" lon="7.4487626846334045"><ele>846.4</ele><time>2026-05-03T13:07:25.999Z</time></trkpt><trkpt lat="44.36823092488287" lon="7.4486710554826745"><ele>846.6</ele><time>2026-05-03T13:07:26.999Z</time></trkpt><trkpt lat="44.368198567995705" lon="7.448559744484324"><ele>846.8</ele><time>2026-05-03T13:07:30.999Z</time></trkpt><trkpt lat="44.36816869660604" lon="7.448470048266046"><ele>847.0</ele><time>2026-05-03T13:07:34.999Z</time></trkpt><trkpt lat="44.368054939489724" lon="7.44838292770827"><ele>846.8</ele><time>2026-05-03T13:08:30Z</time></trkpt><trkpt lat="44.367985456113225" lon="7.44829136781188"><ele>846.6</ele><time>2026-05-03T13:08:31Z</time></trkpt><trkpt lat="44.36793014410136" lon="7.448150700691796"><ele>846.4</ele><time>2026-05-03T13:08:32Z</time></trkpt><trkpt lat="44.36783879438098" lon="7.448038475388292"><ele>846.1999999999999</ele><time>2026-05-03T13:08:33Z</time></trkpt><trkpt lat="44.36776222539915" lon="7.4479408219099295"><ele>846.0</ele><time>2026-05-03T13:08:34Z</time></trkpt><trkpt lat="44.36768507849453" lon="7.447876211012467"><ele>846.0</ele><time>2026-05-03T13:08:35Z</time></trkpt><trkpt lat="44.36761107544081" lon="7.447821158461609"><ele>846.0</ele><time>2026-05-03T13:08:36Z</time></trkpt><trkpt lat="44.367582069351776" lon="7.4477058613375"><ele>846.0</ele><time>2026-05-03T13:08:37Z</time></trkpt><trkpt lat="44.36752977073273" lon="7.447639088430077"><ele>846.0</ele><time>2026-05-03T13:08:38Z</time></trkpt><trkpt lat="44.36742071511753" lon="7.447508747417201"><ele>846.0</ele><time>2026-05-03T13:08:40Z</time></trkpt><trkpt lat="44.36735208480174" lon="7.447386618088194"><ele>846.0</ele><time>2026-05-03T13:08:41Z</time></trkpt><trkpt lat="44.36724302471497" lon="7.447274809806676"><ele>846.0</ele><time>2026-05-03T13:08:42Z</time></trkpt><trkpt lat="44.36718354179725" lon="7.447114691974328"><ele>846.0</ele><time>2026-05-03T13:08:43Z</time></trkpt><trkpt lat="44.367111821032" lon="7.446950922684119"><ele>846.0</ele><time>2026-05-03T13:08:44Z</time></trkpt><trkpt lat="44.36701925679064" lon="7.44680482980207"><ele>852.6666666666667</ele><time>2026-05-03T13:08:45Z</time></trkpt><trkpt lat="44.3669032796826" lon="7.4466589475100315"><ele>859.3333333333334</ele><time>2026-05-03T13:08:46Z</time></trkpt><trkpt lat="44.36677817310023" lon="7.4465051785559995"><ele>866.0</ele><time>2026-05-03T13:08:47Z</time></trkpt><trkpt lat="44.366673557889655" lon="7.446329787999073"><ele>863.1999999999999</ele><time>2026-05-03T13:08:48Z</time></trkpt><trkpt lat="44.36660546564857" lon="7.446134097135219"><ele>860.3999999999999</ele><time>2026-05-03T13:08:49Z</time></trkpt><trkpt lat="44.366568107788" lon="7.445958427841291"><ele>857.6</ele><time>2026-05-03T13:08:50Z</time></trkpt><trkpt lat="44.366537308642286" lon="7.445862851504674"><ele>854.8</ele><time>2026-05-03T13:08:51Z</time></trkpt><trkpt lat="44.36648733948239" lon="7.44580122874781"><ele>852.0</ele><time>2026-05-03T13:08:53Z</time></trkpt><trkpt lat="44.36639126189106" lon="7.445696722592567"><ele>856.3333333333334</ele><time>2026-05-03T13:08:55Z</time></trkpt><trkpt lat="44.36632607160206" lon="7.445605009878266"><ele>860.6666666666667</ele><time>2026-05-03T13:08:56Z</time></trkpt><trkpt lat="44.36626452586195" lon="7.445532939584584"><ele>865.0</ele><time>2026-05-03T13:08:57Z</time></trkpt><trkpt lat="44.3662122658808" lon="7.445454569978228"><ele>869.3333333333334</ele><time>2026-05-03T13:08:58Z</time></trkpt><trkpt lat="44.36617831368916" lon="7.445355717602591"><ele>873.6666666666667</ele><time>2026-05-03T13:08:59Z</time></trkpt><trkpt lat="44.36612375394898" lon="7.445268554249085"><ele>878.0</ele><time>2026-05-03T13:09:00Z</time></trkpt><trkpt lat="44.36605625501874" lon="7.445168997720789"><ele>878.0</ele><time>2026-05-03T13:09:01Z</time></trkpt><trkpt lat="44.36599073758536" lon="7.445017664529025"><ele>878.0</ele><time>2026-05-03T13:09:02Z</time></trkpt><trkpt lat="44.36594013001616" lon="7.4449147441153105"><ele>878.0</ele><time>2026-05-03T13:09:03Z</time></trkpt><trkpt lat="44.36587929590401" lon="7.444791026138133"><ele>878.0</ele><time>2026-05-03T13:09:04Z</time></trkpt><trkpt lat="44.365813919738656" lon="7.444657991785915"><ele>878.0</ele><time>2026-05-03T13:09:05Z</time></trkpt><trkpt lat="44.36573392956743" lon="7.444506870089823"><ele>874.25</ele><time>2026-05-03T13:09:06Z</time></trkpt><trkpt lat="44.36565623670118" lon="7.44436614564904"><ele>870.5</ele><time>2026-05-03T13:09:07Z</time></trkpt><trkpt lat="44.3655774808488" lon="7.444228634375506"><ele>866.75</ele><time>2026-05-03T13:09:08Z</time></trkpt><trkpt lat="44.3654989438639" lon="7.444115088227867"><ele>863.0</ele><time>2026-05-03T13:09:09Z</time></trkpt><trkpt lat="44.36544010894833" lon="7.443974560985089"><ele>874.0</ele><time>2026-05-03T13:09:10Z</time></trkpt><trkpt lat="44.365364038915565" lon="7.4438414244391"><ele>885.0</ele><time>2026-05-03T13:09:11Z</time></trkpt><trkpt lat="44.36528860973501" lon="7.443714284796717"><ele>896.0</ele><time>2026-05-03T13:09:11.999Z</time></trkpt><trkpt lat="44.365265525647864" lon="7.443517420918661"><ele>907.0</ele><time>2026-05-03T13:09:12.999Z</time></trkpt><trkpt lat="44.36518353010919" lon="7.4433611408672675"><ele>907.0</ele><time>2026-05-03T13:09:13.999Z</time></trkpt><trkpt lat="44.365135287341204" lon="7.443203032219126"><ele>907.0</ele><time>2026-05-03T13:09:14.999Z</time></trkpt><trkpt lat="44.365096787858825" lon="7.443044081385963"><ele>907.0</ele><time>2026-05-03T13:09:15.999Z</time></trkpt><trkpt lat="44.365076277945626" lon="7.442882616285516"><ele>907.0</ele><time>2026-05-03T13:09:16.999Z</time></trkpt><trkpt lat="44.36505704721212" lon="7.442769119470941"><ele>907.0</ele><time>2026-05-03T13:09:17.999Z</time></trkpt><trkpt lat="44.36499092952396" lon="7.442655653858089"><ele>903.5</ele><time>2026-05-03T13:09:18.999Z</time></trkpt><trkpt lat="44.36488926023678" lon="7.442548808878427"><ele>900.0</ele><time>2026-05-03T13:09:19.999Z</time></trkpt><trkpt lat="44.36482887355401" lon="7.442397352358371"><ele>896.5</ele><time>2026-05-03T13:09:20.999Z</time></trkpt><trkpt lat="44.364740023389466" lon="7.442242364218093"><ele>893.0</ele><time>2026-05-03T13:09:21.999Z</time></trkpt><trkpt lat="44.36468765740947" lon="7.442093454082389"><ele>903.25</ele><time>2026-05-03T13:09:22.999Z</time></trkpt><trkpt lat="44.36465066576088" lon="7.441952621682693"><ele>913.5</ele><time>2026-05-03T13:09:23.999Z</time></trkpt><trkpt lat="44.36465234686136" lon="7.441792392846268"><ele>923.75</ele><time>2026-05-03T13:09:24.999Z</time></trkpt><trkpt lat="44.364612354558254" lon="7.44165903228711"><ele>934.0</ele><time>2026-05-03T13:09:25.999Z</time></trkpt><trkpt lat="44.36458525614022" lon="7.441484858757255"><ele>934.0</ele><time>2026-05-03T13:09:26.999Z</time></trkpt><trkpt lat="44.3645466399173" lon="7.441315187533946"><ele>934.0</ele><time>2026-05-03T13:09:27.999Z</time></trkpt><trkpt lat="44.36454041864104" lon="7.441146013841918"><ele>934.0</ele><time>2026-05-03T13:09:28.999Z</time></trkpt><trkpt lat="44.36456785750247" lon="7.440967598780376"><ele>934.0</ele><time>2026-05-03T13:09:29.999Z</time></trkpt><trkpt lat="44.36459161093059" lon="7.440780411173247"><ele>933.6666666666666</ele><time>2026-05-03T13:09:30.999Z</time></trkpt><trkpt lat="44.36460950938948" lon="7.440650481003702"><ele>933.3333333333333</ele><time>2026-05-03T13:09:31.999Z</time></trkpt><trkpt lat="44.36461365411469" lon="7.440559890707667"><ele>933.0</ele><time>2026-05-03T13:09:32.999Z</time></trkpt><trkpt lat="44.36457408525946" lon="7.440456126089732"><ele>932.6666666666667</ele><time>2026-05-03T13:09:33.999Z</time></trkpt><trkpt lat="44.36455074669241" lon="7.440348714696756"><ele>932.3333333333334</ele><time>2026-05-03T13:09:34.999Z</time></trkpt><trkpt lat="44.36450495141125" lon="7.4402073394226615"><ele>932.0</ele><time>2026-05-03T13:09:36.999Z</time></trkpt><trkpt lat="44.36448791297898" lon="7.440069494476411"><ele>930.4000000000001</ele><time>2026-05-03T13:09:38.999Z</time></trkpt><trkpt lat="44.36443899754431" lon="7.439943062479655"><ele>928.8000000000001</ele><time>2026-05-03T13:09:40.999Z</time></trkpt><trkpt lat="44.36439407479993" lon="7.439785727050462"><ele>927.2</ele><time>2026-05-03T13:09:42.999Z</time></trkpt><trkpt lat="44.36434492900478" lon="7.439702626980441"><ele>925.6</ele><time>2026-05-03T13:09:43.999Z</time></trkpt><trkpt lat="44.36430019818309" lon="7.439572450943561"><ele>924.0</ele><time>2026-05-03T13:09:44.999Z</time></trkpt><trkpt lat="44.36424302472388" lon="7.439440186705266"><ele>921.6</ele><time>2026-05-03T13:09:45.999Z</time></trkpt><trkpt lat="44.364167078347975" lon="7.439303814288226"><ele>919.2</ele><time>2026-05-03T13:09:46.999Z</time></trkpt><trkpt lat="44.36409186383493" lon="7.439166106183674"><ele>916.8000000000001</ele><time>2026-05-03T13:09:47.999Z</time></trkpt><trkpt lat="44.36402172315913" lon="7.439051284101177"><ele>914.4000000000001</ele><time>2026-05-03T13:09:48.999Z</time></trkpt><trkpt lat="44.36397980984852" lon="7.438982503894564"><ele>912.0</ele><time>2026-05-03T13:09:49.999Z</time></trkpt><trkpt lat="44.363861704382124" lon="7.438916525782939"><ele>916.0</ele><time>2026-05-03T13:10:21Z</time></trkpt><trkpt lat="44.36383793553312" lon="7.438823216487035"><ele>920.0</ele><time>2026-05-03T13:10:22Z</time></trkpt><trkpt lat="44.363793261004126" lon="7.438710324436863"><ele>924.0</ele><time>2026-05-03T13:10:23Z</time></trkpt><trkpt lat="44.36373579393839" lon="7.438562442660267"><ele>928.0</ele><time>2026-05-03T13:10:24Z</time></trkpt><trkpt lat="44.363722601715004" lon="7.4384152954549165"><ele>932.0</ele><time>2026-05-03T13:10:25Z</time></trkpt><trkpt lat="44.36363762062053" lon="7.438272215797545"><ele>932.0</ele><time>2026-05-03T13:10:26Z</time></trkpt><trkpt lat="44.36360093955874" lon="7.438108527269942"><ele>932.0</ele><time>2026-05-03T13:10:27Z</time></trkpt><trkpt lat="44.36356432975899" lon="7.437946245780814"><ele>932.0</ele><time>2026-05-03T13:10:28Z</time></trkpt><trkpt lat="44.36351855094526" lon="7.437757595443693"><ele>932.0</ele><time>2026-05-03T13:10:29Z</time></trkpt><trkpt lat="44.3634724533195" lon="7.437603967723294"><ele>930.2</ele><time>2026-05-03T13:10:30Z</time></trkpt><trkpt lat="44.36345747205659" lon="7.43744317741558"><ele>928.4000000000001</ele><time>2026-05-03T13:10:31Z</time></trkpt><trkpt lat="44.36343390149723" lon="7.437286119786875"><ele>926.5999999999999</ele><time>2026-05-03T13:10:32Z</time></trkpt><trkpt lat="44.36342185012225" lon="7.437158135165552"><ele>924.8</ele><time>2026-05-03T13:10:33Z</time></trkpt><trkpt lat="44.36342478181429" lon="7.437027662010158"><ele>923.0</ele><time>2026-05-03T13:10:34Z</time></trkpt><trkpt lat="44.363483632912896" lon="7.43689206427063"><ele>922.0</ele><time>2026-05-03T13:10:35Z</time></trkpt><trkpt lat="44.363540507015315" lon="7.436757255593496"><ele>921.0</ele><time>2026-05-03T13:10:36Z</time></trkpt><trkpt lat="44.363582757114635" lon="7.436658289879823"><ele>920.0</ele><time>2026-05-03T13:10:37Z</time></trkpt><trkpt lat="44.36354269353153" lon="7.436563891636843"><ele>919.0</ele><time>2026-05-03T13:10:38Z</time></trkpt><trkpt lat="44.36348943861332" lon="7.4364443200172605"><ele>918.0</ele><time>2026-05-03T13:10:39Z</time></trkpt><trkpt lat="44.36346076629467" lon="7.436280959459674"><ele>918.0</ele><time>2026-05-03T13:10:40Z</time></trkpt><trkpt lat="44.363485092547954" lon="7.436106101389128"><ele>918.0</ele><time>2026-05-03T13:10:41Z</time></trkpt><trkpt lat="44.3634938680962" lon="7.4359513010240725"><ele>918.0</ele><time>2026-05-03T13:10:42Z</time></trkpt><trkpt lat="44.36350962476783" lon="7.435801726543442"><ele>918.0</ele><time>2026-05-03T13:10:43Z</time></trkpt><trkpt lat="44.36355638307805" lon="7.435679239625452"><ele>918.0</ele><time>2026-05-03T13:10:44Z</time></trkpt><trkpt lat="44.36358373476296" lon="7.435570666850484"><ele>920.5</ele><time>2026-05-03T13:10:45Z</time></trkpt><trkpt lat="44.363675675009254" lon="7.435305151980336"><ele>923.0</ele><time>2026-05-03T13:10:46Z</time></trkpt><trkpt lat="44.36370008473732" lon="7.435142657768686"><ele>925.5</ele><time>2026-05-03T13:10:47Z</time></trkpt><trkpt lat="44.363724821564084" lon="7.435026248664281"><ele>928.0</ele><time>2026-05-03T13:10:48Z</time></trkpt><trkpt lat="44.36375181080461" lon="7.434887530324559"><ele>928.0</ele><time>2026-05-03T13:10:49Z</time></trkpt><trkpt lat="44.36378128280632" lon="7.434712038829071"><ele>928.0</ele><time>2026-05-03T13:10:50Z</time></trkpt><trkpt lat="44.36384339460636" lon="7.434524531258994"><ele>928.0</ele><time>2026-05-03T13:10:51Z</time></trkpt><trkpt lat="44.36391013301423" lon="7.434340843362618"><ele>928.0</ele><time>2026-05-03T13:10:52Z</time></trkpt><trkpt lat="44.363974635882386" lon="7.434159298602383"><ele>924.5999999999999</ele><time>2026-05-03T13:10:53Z</time></trkpt><trkpt lat="44.36399815734488" lon="7.43403827142819"><ele>921.1999999999999</ele><time>2026-05-03T13:10:54Z</time></trkpt><trkpt lat="44.36402982169206" lon="7.4339320095153205"><ele>917.8</ele><time>2026-05-03T13:10:55Z</time></trkpt><trkpt lat="44.364076154828446" lon="7.433781084616014"><ele>914.4</ele><time>2026-05-03T13:10:56Z</time></trkpt><trkpt lat="44.36410942437461" lon="7.433591241062442"><ele>911.0</ele><time>2026-05-03T13:10:57Z</time></trkpt><trkpt lat="44.36412821589535" lon="7.433420391006982"><ele>911.0</ele><time>2026-05-03T13:10:58Z</time></trkpt><trkpt lat="44.364120308832966" lon="7.433282988282808"><ele>911.0</ele><time>2026-05-03T13:10:59Z</time></trkpt><trkpt lat="44.364086549841716" lon="7.433113392811005"><ele>911.0</ele><time>2026-05-03T13:11:00Z</time></trkpt><trkpt lat="44.36402791330545" lon="7.432886699671415"><ele>911.0</ele><time>2026-05-03T13:11:01Z</time></trkpt><trkpt lat="44.36398151616085" lon="7.432686937446945"><ele>909.5999999999999</ele><time>2026-05-03T13:11:02Z</time></trkpt><trkpt lat="44.36394120003173" lon="7.432532722061432"><ele>908.1999999999999</ele><time>2026-05-03T13:11:03Z</time></trkpt><trkpt lat="44.36390341404712" lon="7.432392380054271"><ele>906.8000000000001</ele><time>2026-05-03T13:11:04Z</time></trkpt><trkpt lat="44.36386409943165" lon="7.432244197857079"><ele>905.4000000000001</ele><time>2026-05-03T13:11:04.999Z</time></trkpt><trkpt lat="44.363837661482705" lon="7.4321299587086465"><ele>904.0</ele><time>2026-05-03T13:11:05.999Z</time></trkpt><trkpt lat="44.36381811102196" lon="7.432001107310038"><ele>903.8333333333333</ele><time>2026-05-03T13:11:06.999Z</time></trkpt><trkpt lat="44.363806095394224" lon="7.431906213447579"><ele>903.6666666666666</ele><time>2026-05-03T13:11:07.999Z</time></trkpt><trkpt lat="44.36384503311425" lon="7.431796669929558"><ele>903.5</ele><time>2026-05-03T13:11:08.999Z</time></trkpt><trkpt lat="44.36389455365354" lon="7.431709731558825"><ele>903.3333333333333</ele><time>2026-05-03T13:11:09.999Z</time></trkpt><trkpt lat="44.363922461186654" lon="7.431580466488118"><ele>903.1666666666666</ele><time>2026-05-03T13:11:10.999Z</time></trkpt><trkpt lat="44.36394839913627" lon="7.431425581911427"><ele>903.0</ele><time>2026-05-03T13:11:11.999Z</time></trkpt><trkpt lat="44.363957927574894" lon="7.431316218667052"><ele>904.0</ele><time>2026-05-03T13:11:12.999Z</time></trkpt><trkpt lat="44.363980551521514" lon="7.43119163016955"><ele>905.0</ele><time>2026-05-03T13:11:13.999Z</time></trkpt><trkpt lat="44.363985643768146" lon="7.431057764811877"><ele>906.0</ele><time>2026-05-03T13:11:14.999Z</time></trkpt><trkpt lat="44.363991006767165" lon="7.430911063417392"><ele>907.0</ele><time>2026-05-03T13:11:15.999Z</time></trkpt><trkpt lat="44.363995318260706" lon="7.430778464431499"><ele>908.0</ele><time>2026-05-03T13:11:16.999Z</time></trkpt><trkpt lat="44.364000241958855" lon="7.430626294281925"><ele>911.0</ele><time>2026-05-03T13:11:17.999Z</time></trkpt><trkpt lat="44.3640113558759" lon="7.4304658418572505"><ele>914.0</ele><time>2026-05-03T13:11:18.999Z</time></trkpt><trkpt lat="44.36402763390672" lon="7.430302221419459"><ele>917.0</ele><time>2026-05-03T13:11:19.999Z</time></trkpt><trkpt lat="44.36401510282882" lon="7.4301255785624765"><ele>920.0</ele><time>2026-05-03T13:11:20.999Z</time></trkpt><trkpt lat="44.36404188280116" lon="7.429958259015156"><ele>920.0000000000001</ele><time>2026-05-03T13:11:21.999Z</time></trkpt><trkpt lat="44.36404851237674" lon="7.429798675938352"><ele>920.0</ele><time>2026-05-03T13:11:22.999Z</time></trkpt><trkpt lat="44.364078585499115" lon="7.429682213785758"><ele>920.0</ele><time>2026-05-03T13:11:23.999Z</time></trkpt><trkpt lat="44.364041142399174" lon="7.429575673515219"><ele>920.0</ele><time>2026-05-03T13:11:27.999Z</time></trkpt><trkpt lat="44.363972351272906" lon="7.429503674337314"><ele>920.0000000000001</ele><time>2026-05-03T13:11:29.999Z</time></trkpt><trkpt lat="44.36391571813836" lon="7.429433000887139"><ele>920.0</ele><time>2026-05-03T13:11:31.999Z</time></trkpt><trkpt lat="44.36385316643238" lon="7.429354941342491"><ele>926.0</ele><time>2026-05-03T13:11:32.999Z</time></trkpt><trkpt lat="44.3637666020323" lon="7.429268646753111"><ele>932.0</ele><time>2026-05-03T13:11:33.999Z</time></trkpt><trkpt lat="44.363687084753586" lon="7.4291703131159865"><ele>938.0</ele><time>2026-05-03T13:11:34.999Z</time></trkpt><trkpt lat="44.363571044249944" lon="7.42904389908036"><ele>944.0</ele><time>2026-05-03T13:11:35.999Z</time></trkpt><trkpt lat="44.36345116902216" lon="7.428913839301666"><ele>945.75</ele><time>2026-05-03T13:11:36.999Z</time></trkpt><trkpt lat="44.363337527509294" lon="7.428795365097818"><ele>947.5</ele><time>2026-05-03T13:11:37.999Z</time></trkpt><trkpt lat="44.363230204970485" lon="7.4286848703943305"><ele>949.25</ele><time>2026-05-03T13:11:38.999Z</time></trkpt><trkpt lat="44.363097889339244" lon="7.428553445638657"><ele>951.0</ele><time>2026-05-03T13:11:39.999Z</time></trkpt><trkpt lat="44.36299775314902" lon="7.428427215100669"><ele>951.0</ele><time>2026-05-03T13:11:40.999Z</time></trkpt><trkpt lat="44.36289461035903" lon="7.428304021335246"><ele>950.9999999999999</ele><time>2026-05-03T13:11:41.999Z</time></trkpt><trkpt lat="44.36282311249122" lon="7.428196420981072"><ele>950.9999999999999</ele><time>2026-05-03T13:11:42.999Z</time></trkpt><trkpt lat="44.36272257029704" lon="7.428090269440726"><ele>951.0</ele><time>2026-05-03T13:11:43.999Z</time></trkpt><trkpt lat="44.36264679781999" lon="7.42806625338092"><ele>951.0</ele><time>2026-05-03T13:11:44.999Z</time></trkpt><trkpt lat="44.36254815263987" lon="7.428100799386171"><ele>951.0</ele><time>2026-05-03T13:11:46.999Z</time></trkpt><trkpt lat="44.3624597945117" lon="7.428002104980364"><ele>950.9999999999999</ele><time>2026-05-03T13:11:48.999Z</time></trkpt><trkpt lat="44.36240046897158" lon="7.427925358123983"><ele>950.9999999999999</ele><time>2026-05-03T13:11:49.999Z</time></trkpt><trkpt lat="44.36232818805933" lon="7.427786502373734"><ele>951.0</ele><time>2026-05-03T13:11:50.999Z</time></trkpt><trkpt lat="44.36225472627898" lon="7.427648680232473"><ele>951.0</ele><time>2026-05-03T13:11:51.999Z</time></trkpt><trkpt lat="44.362180573431075" lon="7.427501432570253"><ele>950.8</ele><time>2026-05-03T13:11:52.999Z</time></trkpt><trkpt lat="44.36211286347651" lon="7.4273833544992645"><ele>950.5999999999999</ele><time>2026-05-03T13:11:53.999Z</time></trkpt><trkpt lat="44.362064508100005" lon="7.427291704730412"><ele>950.4</ele><time>2026-05-03T13:11:54.999Z</time></trkpt><trkpt lat="44.36205862788238" lon="7.427174717505663"><ele>950.2</ele><time>2026-05-03T13:11:55.999Z</time></trkpt><trkpt lat="44.362039110862945" lon="7.427031054632899"><ele>950.0</ele><time>2026-05-03T13:11:56.999Z</time></trkpt><trkpt lat="44.36197352725079" lon="7.426901750064092"><ele>950.0</ele><time>2026-05-03T13:11:57.999Z</time></trkpt><trkpt lat="44.36189433424524" lon="7.426790102780589"><ele>950.0</ele><time>2026-05-03T13:11:58.999Z</time></trkpt><trkpt lat="44.361822898499085" lon="7.4266702114061705"><ele>950.0</ele><time>2026-05-03T13:11:59.999Z</time></trkpt><trkpt lat="44.36179260237785" lon="7.42651337439965"><ele>950.0</ele><time>2026-05-03T13:12:00.999Z</time></trkpt><trkpt lat="44.36173465077553" lon="7.42635522263239"><ele>950.25</ele><time>2026-05-03T13:12:01.999Z</time></trkpt><trkpt lat="44.36169876383142" lon="7.42620800646131"><ele>950.5</ele><time>2026-05-03T13:12:02.999Z</time></trkpt><trkpt lat="44.361715730486274" lon="7.426065219842642"><ele>950.75</ele><time>2026-05-03T13:12:03.999Z</time></trkpt><trkpt lat="44.361753401081536" lon="7.425920830357301"><ele>951.0</ele><time>2026-05-03T13:12:04.999Z</time></trkpt><trkpt lat="44.36181401835683" lon="7.42576671187912"><ele>951.0</ele><time>2026-05-03T13:12:05.999Z</time></trkpt><trkpt lat="44.36184707890035" lon="7.4256074419337725"><ele>950.9999999999999</ele><time>2026-05-03T13:12:06.999Z</time></trkpt><trkpt lat="44.361905268012514" lon="7.425511939130026"><ele>950.9999999999999</ele><time>2026-05-03T13:12:07.999Z</time></trkpt><trkpt lat="44.36193542851055" lon="7.425385935736179"><ele>951.0</ele><time>2026-05-03T13:12:09.999Z</time></trkpt><trkpt lat="44.361946795952434" lon="7.4252570386748795"><ele>951.0</ele><time>2026-05-03T13:13:03Z</time></trkpt><trkpt lat="44.361866020541974" lon="7.425076246586464"><ele>950.4</ele><time>2026-05-03T13:13:05Z</time></trkpt><trkpt lat="44.36182291602587" lon="7.424962590036134"><ele>949.8</ele><time>2026-05-03T13:13:06Z</time></trkpt><trkpt lat="44.361741611471395" lon="7.424853769367483"><ele>949.1999999999999</ele><time>2026-05-03T13:13:08Z</time></trkpt><trkpt lat="44.36165950191587" lon="7.4247547985448294"><ele>948.5999999999999</ele><time>2026-05-03T13:13:10Z</time></trkpt><trkpt lat="44.36158031245317" lon="7.424678275620487"><ele>948.0</ele><time>2026-05-03T13:13:11Z</time></trkpt><trkpt lat="44.361487329282184" lon="7.42459894433754"><ele>948.8</ele><time>2026-05-03T13:13:13Z</time></trkpt><trkpt lat="44.36140275161024" lon="7.424530631600973"><ele>949.5999999999999</ele><time>2026-05-03T13:13:15Z</time></trkpt><trkpt lat="44.36133524769759" lon="7.4244761736136855"><ele>950.4000000000001</ele><time>2026-05-03T13:13:16Z</time></trkpt><trkpt lat="44.36125732553526" lon="7.424418657172804"><ele>951.2</ele><time>2026-05-03T13:13:16.999Z</time></trkpt><trkpt lat="44.36119854298631" lon="7.42430368136166"><ele>952.0</ele><time>2026-05-03T13:13:17.999Z</time></trkpt><trkpt lat="44.36112053817902" lon="7.424215405663427"><ele>952.0</ele><time>2026-05-03T13:13:18.999Z</time></trkpt><trkpt lat="44.36105630574442" lon="7.424094957872361"><ele>952.0</ele><time>2026-05-03T13:13:19.999Z</time></trkpt><trkpt lat="44.36104069923092" lon="7.423921849508746"><ele>952.0</ele><time>2026-05-03T13:13:20.999Z</time></trkpt><trkpt lat="44.361036777934" lon="7.423718553878831"><ele>952.0</ele><time>2026-05-03T13:13:21.999Z</time></trkpt><trkpt lat="44.36102485169258" lon="7.423572215141195"><ele>949.0</ele><time>2026-05-03T13:13:22.999Z</time></trkpt><trkpt lat="44.36099937143981" lon="7.423478967562376"><ele>946.0</ele><time>2026-05-03T13:13:23.999Z</time></trkpt><trkpt lat="44.3609448096372" lon="7.423376587971245"><ele>943.0</ele><time>2026-05-03T13:13:24.999Z</time></trkpt><trkpt lat="44.360862250932534" lon="7.423257666726906"><ele>940.0</ele><time>2026-05-03T13:13:25.999Z</time></trkpt><trkpt lat="44.360728509923554" lon="7.423102342930773"><ele>938.0</ele><time>2026-05-03T13:13:26.999Z</time></trkpt><trkpt lat="44.360620006884616" lon="7.422959370471932"><ele>936.0</ele><time>2026-05-03T13:13:27.999Z</time></trkpt><trkpt lat="44.360523356233976" lon="7.422797309366195"><ele>934.0</ele><time>2026-05-03T13:13:28.999Z</time></trkpt><trkpt lat="44.36042034385603" lon="7.422645093386283"><ele>934.6</ele><time>2026-05-03T13:13:29.999Z</time></trkpt><trkpt lat="44.360332066947954" lon="7.422529150999025"><ele>935.2</ele><time>2026-05-03T13:13:30.999Z</time></trkpt><trkpt lat="44.360297526572985" lon="7.422344280027759"><ele>935.8000000000001</ele><time>2026-05-03T13:13:32.999Z</time></trkpt><trkpt lat="44.36028929375477" lon="7.422256670084616"><ele>936.4000000000001</ele><time>2026-05-03T13:13:34.999Z</time></trkpt><trkpt lat="44.36022744867064" lon="7.422204667063029"><ele>937.0</ele><time>2026-05-03T13:13:36.999Z</time></trkpt><trkpt lat="44.36014000805183" lon="7.422143294065951"><ele>937.0</ele><time>2026-05-03T13:13:37.999Z</time></trkpt><trkpt lat="44.3600727206287" lon="7.422051188855474"><ele>937.0</ele><time>2026-05-03T13:13:38.999Z</time></trkpt><trkpt lat="44.35998887551422" lon="7.421965100178218"><ele>937.0</ele><time>2026-05-03T13:13:39.999Z</time></trkpt><trkpt lat="44.35990071725549" lon="7.421864085473446"><ele>937.0</ele><time>2026-05-03T13:13:40.999Z</time></trkpt><trkpt lat="44.35983303854526" lon="7.421747819223987"><ele>937.0</ele><time>2026-05-03T13:13:41.999Z</time></trkpt><trkpt lat="44.359803248304495" lon="7.4216073729531145"><ele>937.0</ele><time>2026-05-03T13:13:42.999Z</time></trkpt><trkpt lat="44.359796169817315" lon="7.421445872355013"><ele>937.0</ele><time>2026-05-03T13:13:43.999Z</time></trkpt><trkpt lat="44.35979441298464" lon="7.421338047365774"><ele>937.0</ele><time>2026-05-03T13:13:44.999Z</time></trkpt><trkpt lat="44.35973199043635" lon="7.421237378263248"><ele>937.0</ele><time>2026-05-03T13:13:45.999Z</time></trkpt><trkpt lat="44.359657420601316" lon="7.421076073912912"><ele>937.0</ele><time>2026-05-03T13:13:46.999Z</time></trkpt><trkpt lat="44.359592109457836" lon="7.4210143890128055"><ele>942.6</ele><time>2026-05-03T13:13:47.999Z</time></trkpt><trkpt lat="44.35951130687867" lon="7.420921028675459"><ele>948.2</ele><time>2026-05-03T13:13:48.999Z</time></trkpt><trkpt lat="44.35942579089361" lon="7.420817579380989"><ele>953.8</ele><time>2026-05-03T13:13:49.999Z</time></trkpt><trkpt lat="44.359351803672425" lon="7.420674598174504"><ele>959.4</ele><time>2026-05-03T13:13:50.999Z</time></trkpt><trkpt lat="44.35930606931592" lon="7.42057446632398"><ele>965.0</ele><time>2026-05-03T13:13:51.999Z</time></trkpt><trkpt lat="44.35926737211502" lon="7.42046916520821"><ele>965.75</ele><time>2026-05-03T13:13:52.999Z</time></trkpt><trkpt lat="44.35931315651844" lon="7.420315935107097"><ele>966.5</ele><time>2026-05-03T13:13:53.999Z</time></trkpt><trkpt lat="44.35936099905731" lon="7.420186105202611"><ele>967.25</ele><time>2026-05-03T13:13:54.999Z</time></trkpt><trkpt lat="44.35936629152844" lon="7.419981404218059"><ele>968.0</ele><time>2026-05-03T13:13:56.999Z</time></trkpt><trkpt lat="44.35932781188263" lon="7.419839060154809"><ele>968.0</ele><time>2026-05-03T13:13:57.999Z</time></trkpt><trkpt lat="44.35928567482357" lon="7.419706546995171"><ele>968.0</ele><time>2026-05-03T13:13:58.999Z</time></trkpt><trkpt lat="44.35924747062219" lon="7.4195600043584715"><ele>968.0</ele><time>2026-05-03T13:13:59.999Z</time></trkpt><trkpt lat="44.35916781222917" lon="7.419423503338906"><ele>968.0</ele><time>2026-05-03T13:14:00.999Z</time></trkpt><trkpt lat="44.35912946164955" lon="7.419263081812444"><ele>966.75</ele><time>2026-05-03T13:14:01.999Z</time></trkpt><trkpt lat="44.35911466312123" lon="7.419133286766253"><ele>965.5</ele><time>2026-05-03T13:14:02.999Z</time></trkpt><trkpt lat="44.359079597709744" lon="7.418973153868742"><ele>964.25</ele><time>2026-05-03T13:14:03.999Z</time></trkpt><trkpt lat="44.3590669248295" lon="7.418812494384516"><ele>963.0</ele><time>2026-05-03T13:14:04.999Z</time></trkpt><trkpt lat="44.35906487596342" lon="7.418630190912314"><ele>963.25</ele><time>2026-05-03T13:14:05.999Z</time></trkpt><trkpt lat="44.35902950256402" lon="7.418476475405127"><ele>963.5</ele><time>2026-05-03T13:14:06.999Z</time></trkpt><trkpt lat="44.35900933226665" lon="7.418281682059738"><ele>963.75</ele><time>2026-05-03T13:14:07.999Z</time></trkpt><trkpt lat="44.35897517239325" lon="7.418101952042476"><ele>964.0</ele><time>2026-05-03T13:14:08.999Z</time></trkpt><trkpt lat="44.35894319494269" lon="7.41791785186492"><ele>964.0</ele><time>2026-05-03T13:14:09.999Z</time></trkpt><trkpt lat="44.358969113429154" lon="7.417743083414256"><ele>964.0</ele><time>2026-05-03T13:14:10.999Z</time></trkpt><trkpt lat="44.358968990199344" lon="7.417568017983893"><ele>964.0</ele><time>2026-05-03T13:14:11.999Z</time></trkpt><trkpt lat="44.35891932963355" lon="7.41735448838346"><ele>964.0</ele><time>2026-05-03T13:14:12.999Z</time></trkpt><trkpt lat="44.35891442880539" lon="7.417155050303837"><ele>964.4000000000001</ele><time>2026-05-03T13:14:14.999Z</time></trkpt><trkpt lat="44.35890641934905" lon="7.4170304728655125"><ele>964.8000000000001</ele><time>2026-05-03T13:14:15.999Z</time></trkpt><trkpt lat="44.358905656711805" lon="7.416938009800928"><ele>965.1999999999999</ele><time>2026-05-03T13:14:16.999Z</time></trkpt><trkpt lat="44.358940053957156" lon="7.416773539434289"><ele>965.5999999999999</ele><time>2026-05-03T13:15:09.999Z</time></trkpt><trkpt lat="44.35897820233337" lon="7.416697503924578"><ele>966.0</ele><time>2026-05-03T13:15:10.999Z</time></trkpt><trkpt lat="44.35905952427394" lon="7.416460495184178"><ele>966.0</ele><time>2026-05-03T13:15:12.999Z</time></trkpt><trkpt lat="44.35911517048641" lon="7.416343815585065"><ele>966.0</ele><time>2026-05-03T13:15:13.999Z</time></trkpt><trkpt lat="44.35919489286078" lon="7.416232771804791"><ele>966.0</ele><time>2026-05-03T13:15:14.999Z</time></trkpt><trkpt lat="44.3593011980247" lon="7.416131483619164"><ele>966.0</ele><time>2026-05-03T13:15:15.999Z</time></trkpt><trkpt lat="44.35940006454701" lon="7.41603844580186"><ele>964.0</ele><time>2026-05-03T13:15:16.999Z</time></trkpt><trkpt lat="44.359468673484045" lon="7.415956137017171"><ele>962.0</ele><time>2026-05-03T13:15:17.999Z</time></trkpt><trkpt lat="44.35952097275651" lon="7.415854687736714"><ele>960.0</ele><time>2026-05-03T13:15:18.999Z</time></trkpt><trkpt lat="44.35955749639603" lon="7.415627473275426"><ele>958.0</ele><time>2026-05-03T13:15:19.999Z</time></trkpt><trkpt lat="44.35957769566228" lon="7.415416194131456"><ele>958.25</ele><time>2026-05-03T13:15:20.999Z</time></trkpt><trkpt lat="44.35961074834055" lon="7.415211679543054"><ele>958.5</ele><time>2026-05-03T13:15:21.999Z</time></trkpt><trkpt lat="44.35963063988888" lon="7.415016829121737"><ele>958.75</ele><time>2026-05-03T13:15:22.999Z</time></trkpt><trkpt lat="44.35963757732529" lon="7.41483338357865"><ele>959.0</ele><time>2026-05-03T13:15:23.999Z</time></trkpt><trkpt lat="44.35962656425866" lon="7.414637148602655"><ele>959.0</ele><time>2026-05-03T13:15:24.999Z</time></trkpt><trkpt lat="44.359506871108444" lon="7.414441165533193"><ele>959.0</ele><time>2026-05-03T13:15:25.999Z</time></trkpt><trkpt lat="44.359452680158924" lon="7.414244983381636"><ele>959.0</ele><time>2026-05-03T13:15:26.999Z</time></trkpt><trkpt lat="44.35939263552339" lon="7.414053531645386"><ele>959.0</ele><time>2026-05-03T13:15:27.999Z</time></trkpt><trkpt lat="44.35933150841046" lon="7.413875462504104"><ele>959.0</ele><time>2026-05-03T13:15:28.999Z</time></trkpt><trkpt lat="44.35926120155186" lon="7.413723911839286"><ele>959.0</ele><time>2026-05-03T13:15:29.999Z</time></trkpt><trkpt lat="44.359176278393036" lon="7.41355020004139"><ele>959.0</ele><time>2026-05-03T13:15:30.999Z</time></trkpt><trkpt lat="44.35912763639832" lon="7.413375920326033"><ele>957.6</ele><time>2026-05-03T13:15:31.999Z</time></trkpt><trkpt lat="44.35909244589024" lon="7.413265557608213"><ele>956.2</ele><time>2026-05-03T13:15:32.999Z</time></trkpt><trkpt lat="44.359019327733165" lon="7.413232270938352"><ele>954.8000000000001</ele><time>2026-05-03T13:15:33.999Z</time></trkpt><trkpt lat="44.359103207627925" lon="7.413118901500962"><ele>953.4000000000001</ele><time>2026-05-03T13:15:35.999Z</time></trkpt><trkpt lat="44.35919474231732" lon="7.413051155051554"><ele>952.0</ele><time>2026-05-03T13:15:36.999Z</time></trkpt><trkpt lat="44.3592825263788" lon="7.412956255546874"><ele>952.0</ele><time>2026-05-03T13:15:37.999Z</time></trkpt><trkpt lat="44.359367679633756" lon="7.4128631139865995"><ele>952.0</ele><time>2026-05-03T13:15:38.999Z</time></trkpt><trkpt lat="44.35944455219712" lon="7.412760126014263"><ele>952.0</ele><time>2026-05-03T13:15:39.999Z</time></trkpt><trkpt lat="44.359531050516594" lon="7.412638692279912"><ele>952.0</ele><time>2026-05-03T13:15:40.999Z</time></trkpt><trkpt lat="44.35960693240589" lon="7.412529358126122"><ele>952.0</ele><time>2026-05-03T13:15:41.999Z</time></trkpt><trkpt lat="44.35966280576359" lon="7.412404224025718"><ele>955.8</ele><time>2026-05-03T13:15:42.999Z</time></trkpt><trkpt lat="44.35970222343886" lon="7.412268507625937"><ele>959.6</ele><time>2026-05-03T13:15:43.999Z</time></trkpt><trkpt lat="44.35971778804535" lon="7.412116846617239"><ele>963.3999999999999</ele><time>2026-05-03T13:15:44.999Z</time></trkpt><trkpt lat="44.359739293384436" lon="7.411987481458337"><ele>967.1999999999999</ele><time>2026-05-03T13:15:45.999Z</time></trkpt><trkpt lat="44.359738740631904" lon="7.411847791666781"><ele>971.0</ele><time>2026-05-03T13:15:46.999Z</time></trkpt><trkpt lat="44.35972700845105" lon="7.411716195080017"><ele>966.0</ele><time>2026-05-03T13:15:47.999Z</time></trkpt><trkpt lat="44.359696043745544" lon="7.4115327982822565"><ele>960.9999999999999</ele><time>2026-05-03T13:15:48.999Z</time></trkpt><trkpt lat="44.359663001741175" lon="7.411378910869337"><ele>955.9999999999999</ele><time>2026-05-03T13:15:49.999Z</time></trkpt><trkpt lat="44.359629568781465" lon="7.411241720009278"><ele>951.0</ele><time>2026-05-03T13:15:50.999Z</time></trkpt><trkpt lat="44.35960723543679" lon="7.411113383587186"><ele>946.0</ele><time>2026-05-03T13:15:51.999Z</time></trkpt><trkpt lat="44.35959014661023" lon="7.410990868872966"><ele>946.0</ele><time>2026-05-03T13:15:52.999Z</time></trkpt><trkpt lat="44.35957470487176" lon="7.410876099453269"><ele>945.9999999999999</ele><time>2026-05-03T13:15:53.999Z</time></trkpt><trkpt lat="44.3595669390043" lon="7.410777104445812"><ele>945.9999999999999</ele><time>2026-05-03T13:15:54.999Z</time></trkpt><trkpt lat="44.3595478150381" lon="7.410633142656311"><ele>946.0</ele><time>2026-05-03T13:15:56.999Z</time></trkpt><trkpt lat="44.35953812561959" lon="7.410490521481251"><ele>946.0</ele><time>2026-05-03T13:16:00.999Z</time></trkpt><trkpt lat="44.359522876884874" lon="7.410339357865682"><ele>948.4</ele><time>2026-05-03T13:16:02.999Z</time></trkpt><trkpt lat="44.35950068360159" lon="7.410236314695533"><ele>950.8</ele><time>2026-05-03T13:16:03.999Z</time></trkpt><trkpt lat="44.3594603521182" lon="7.410106403427029"><ele>953.1999999999999</ele><time>2026-05-03T13:16:04.999Z</time></trkpt><trkpt lat="44.35941229878382" lon="7.4099629228315695"><ele>955.5999999999999</ele><time>2026-05-03T13:16:05.999Z</time></trkpt><trkpt lat="44.3593581699741" lon="7.409814228628361"><ele>958.0</ele><time>2026-05-03T13:16:06.999Z</time></trkpt><trkpt lat="44.35930589530117" lon="7.409642294655066"><ele>960.0</ele><time>2026-05-03T13:16:07.999Z</time></trkpt><trkpt lat="44.359266365128306" lon="7.409451733921773"><ele>962.0</ele><time>2026-05-03T13:16:08.999Z</time></trkpt><trkpt lat="44.35922726913198" lon="7.409249342686811"><ele>964.0</ele><time>2026-05-03T13:16:09.999Z</time></trkpt><trkpt lat="44.35920674040017" lon="7.409052405170196"><ele>966.0</ele><time>2026-05-03T13:16:10.999Z</time></trkpt><trkpt lat="44.359181042446046" lon="7.408919237466844"><ele>968.75</ele><time>2026-05-03T13:16:11.999Z</time></trkpt><trkpt lat="44.35919477021898" lon="7.408771462255871"><ele>971.5</ele><time>2026-05-03T13:16:12.999Z</time></trkpt><trkpt lat="44.359175842803204" lon="7.408618227330365"><ele>974.25</ele><time>2026-05-03T13:16:13.999Z</time></trkpt><trkpt lat="44.3591317240841" lon="7.408457253582401"><ele>977.0</ele><time>2026-05-03T13:16:14.999Z</time></trkpt><trkpt lat="44.35906234713072" lon="7.408296477462115"><ele>977.0</ele><time>2026-05-03T13:16:15.999Z</time></trkpt><trkpt lat="44.35900638636698" lon="7.4081566497073705"><ele>977.0</ele><time>2026-05-03T13:16:16.999Z</time></trkpt><trkpt lat="44.35895397115979" lon="7.40806817738739"><ele>977.0</ele><time>2026-05-03T13:16:17.999Z</time></trkpt><trkpt lat="44.358989217754406" lon="7.4079417910860235"><ele>977.0</ele><time>2026-05-03T13:16:19.998Z</time></trkpt><trkpt lat="44.35905677571671" lon="7.407875168991612"><ele>977.0</ele><time>2026-05-03T13:16:20.998Z</time></trkpt><trkpt lat="44.35914911380528" lon="7.407777079056899"><ele>976.2</ele><time>2026-05-03T13:16:21.998Z</time></trkpt><trkpt lat="44.35920761414445" lon="7.4076949773104666"><ele>975.4000000000001</ele><time>2026-05-03T13:16:22.998Z</time></trkpt><trkpt lat="44.35922956331717" lon="7.407594341400816"><ele>974.5999999999999</ele><time>2026-05-03T13:16:23.998Z</time></trkpt><trkpt lat="44.35922486708106" lon="7.40743602538475"><ele>973.8</ele><time>2026-05-03T13:16:24.998Z</time></trkpt><trkpt lat="44.359214036709986" lon="7.40722966708534"><ele>973.0</ele><time>2026-05-03T13:16:25.998Z</time></trkpt><trkpt lat="44.35918006294557" lon="7.407041221215279"><ele>971.25</ele><time>2026-05-03T13:16:26.998Z</time></trkpt><trkpt lat="44.35917974835008" lon="7.406893462222009"><ele>969.5</ele><time>2026-05-03T13:16:27.998Z</time></trkpt><trkpt lat="44.359173952096725" lon="7.40672491889931"><ele>967.75</ele><time>2026-05-03T13:16:28.998Z</time></trkpt><trkpt lat="44.35918237566338" lon="7.406526349997436"><ele>966.0</ele><time>2026-05-03T13:16:29.998Z</time></trkpt><trkpt lat="44.35922442315418" lon="7.406363652684371"><ele>965.75</ele><time>2026-05-03T13:16:30.998Z</time></trkpt><trkpt lat="44.3592456624356" lon="7.40617786887378"><ele>965.5</ele><time>2026-05-03T13:16:31.998Z</time></trkpt><trkpt lat="44.35925238050954" lon="7.406043083498971"><ele>965.25</ele><time>2026-05-03T13:16:32.998Z</time></trkpt><trkpt lat="44.35925152032891" lon="7.405864950977948"><ele>965.0</ele><time>2026-05-03T13:16:34Z</time></trkpt><trkpt lat="44.359232498816496" lon="7.405698425528169"><ele>965.0</ele><time>2026-05-03T13:16:35Z</time></trkpt><trkpt lat="44.35919442714613" lon="7.405517707607224"><ele>965.0</ele><time>2026-05-03T13:16:36Z</time></trkpt><trkpt lat="44.35917841118308" lon="7.405388255591602"><ele>965.0</ele><time>2026-05-03T13:16:37Z</time></trkpt><trkpt lat="44.35917279794206" lon="7.405286104769042"><ele>965.0</ele><time>2026-05-03T13:16:38Z</time></trkpt><trkpt lat="44.35917456884725" lon="7.405173836204686"><ele>965.0</ele><time>2026-05-03T13:16:39Z</time></trkpt><trkpt lat="44.35922053551258" lon="7.4050987416412095"><ele>965.8333333333334</ele><time>2026-05-03T13:16:40Z</time></trkpt><trkpt lat="44.3592936099922" lon="7.40508869650696"><ele>966.6666666666667</ele><time>2026-05-03T13:16:41Z</time></trkpt><trkpt lat="44.359359260206304" lon="7.405063133617317"><ele>967.5</ele><time>2026-05-03T13:16:42Z</time></trkpt><trkpt lat="44.35944739651782" lon="7.405047757826513"><ele>968.3333333333333</ele><time>2026-05-03T13:16:43Z</time></trkpt><trkpt lat="44.359545334618105" lon="7.405028191149132"><ele>969.1666666666666</ele><time>2026-05-03T13:16:44Z</time></trkpt><trkpt lat="44.35963599264317" lon="7.405034857537343"><ele>970.0</ele><time>2026-05-03T13:16:45Z</time></trkpt><trkpt lat="44.35972059053941" lon="7.4050304893855285"><ele>970.0</ele><time>2026-05-03T13:16:46Z</time></trkpt><trkpt lat="44.35981484578775" lon="7.405014499255482"><ele>970.0</ele><time>2026-05-03T13:16:47Z</time></trkpt><trkpt lat="44.35990559144943" lon="7.404980634213603"><ele>970.0</ele><time>2026-05-03T13:16:48Z</time></trkpt><trkpt lat="44.35999862734796" lon="7.40493039612787"><ele>970.0</ele><time>2026-05-03T13:16:49Z</time></trkpt><trkpt lat="44.36007569343611" lon="7.404869981318775"><ele>970.0</ele><time>2026-05-03T13:16:50Z</time></trkpt><trkpt lat="44.36014855052571" lon="7.404793033106554"><ele>970.0</ele><time>2026-05-03T13:16:51Z</time></trkpt><trkpt lat="44.36020667319264" lon="7.404687496565339"><ele>970.0</ele><time>2026-05-03T13:16:52Z</time></trkpt><trkpt lat="44.36023263228168" lon="7.404550586923371"><ele>970.0</ele><time>2026-05-03T13:16:53Z</time></trkpt><trkpt lat="44.36026264423461" lon="7.404403344172838"><ele>970.0</ele><time>2026-05-03T13:16:54Z</time></trkpt><trkpt lat="44.3603202047293" lon="7.40427340163405"><ele>970.0</ele><time>2026-05-03T13:16:55Z</time></trkpt><trkpt lat="44.36038257002895" lon="7.404158110037998"><ele>967.75</ele><time>2026-05-03T13:16:56Z</time></trkpt><trkpt lat="44.36045066227723" lon="7.404034421125224"><ele>965.5</ele><time>2026-05-03T13:16:57Z</time></trkpt><trkpt lat="44.360523218129416" lon="7.403878888718426"><ele>963.25</ele><time>2026-05-03T13:16:58Z</time></trkpt><trkpt lat="44.36057434185849" lon="7.40367689447134"><ele>961.0</ele><time>2026-05-03T13:16:59Z</time></trkpt><trkpt lat="44.360608040692085" lon="7.403480541084464"><ele>961.0</ele><time>2026-05-03T13:17:00Z</time></trkpt><trkpt lat="44.36066989499768" lon="7.403287087651682"><ele>961.0</ele><time>2026-05-03T13:17:01Z</time></trkpt><trkpt lat="44.360700418164235" lon="7.403067413935758"><ele>961.0</ele><time>2026-05-03T13:17:02Z</time></trkpt><trkpt lat="44.36073567161166" lon="7.402910324207985"><ele>961.0</ele><time>2026-05-03T13:17:03Z</time></trkpt><trkpt lat="44.360759984329974" lon="7.402731198913938"><ele>960.25</ele><time>2026-05-03T13:17:04Z</time></trkpt><trkpt lat="44.36077561424098" lon="7.402541547953243"><ele>959.5</ele><time>2026-05-03T13:17:05Z</time></trkpt><trkpt lat="44.36077359876841" lon="7.402333548667481"><ele>958.75</ele><time>2026-05-03T13:17:06Z</time></trkpt><trkpt lat="44.36080361048364" lon="7.402154939347581"><ele>958.0</ele><time>2026-05-03T13:17:07Z</time></trkpt><trkpt lat="44.360813001495636" lon="7.401967783375843"><ele>958.0</ele><time>2026-05-03T13:17:08Z</time></trkpt><trkpt lat="44.36082815504644" lon="7.401755221564143"><ele>958.0</ele><time>2026-05-03T13:17:09Z</time></trkpt><trkpt lat="44.36083340749632" lon="7.4015569120233335"><ele>958.0</ele><time>2026-05-03T13:17:10Z</time></trkpt><trkpt lat="44.36082816491541" lon="7.401380406599452"><ele>958.0</ele><time>2026-05-03T13:17:11Z</time></trkpt><trkpt lat="44.360819698465846" lon="7.40119205520888"><ele>958.75</ele><time>2026-05-03T13:17:12Z</time></trkpt><trkpt lat="44.36082314113988" lon="7.401003336260933"><ele>959.5</ele><time>2026-05-03T13:17:13Z</time></trkpt><trkpt lat="44.36081294907481" lon="7.40082462073147"><ele>960.25</ele><time>2026-05-03T13:17:14Z</time></trkpt><trkpt lat="44.360778930101134" lon="7.400642811088628"><ele>961.0</ele><time>2026-05-03T13:17:15Z</time></trkpt><trkpt lat="44.36075487955369" lon="7.40048104216882"><ele>962.0</ele><time>2026-05-03T13:17:16Z</time></trkpt><trkpt lat="44.36072931242897" lon="7.400343495200348"><ele>962.9999999999999</ele><time>2026-05-03T13:17:17Z</time></trkpt><trkpt lat="44.36071908944423" lon="7.400217891764706"><ele>963.9999999999999</ele><time>2026-05-03T13:17:18Z</time></trkpt><trkpt lat="44.36066240336631" lon="7.400106505615535"><ele>965.0</ele><time>2026-05-03T13:17:19Z</time></trkpt><trkpt lat="44.360653100945534" lon="7.399967388702412"><ele>966.0</ele><time>2026-05-03T13:17:19.999Z</time></trkpt><trkpt lat="44.36064197113218" lon="7.399816037030064"><ele>966.5999999999999</ele><time>2026-05-03T13:17:20.999Z</time></trkpt><trkpt lat="44.36063176333998" lon="7.3996581787489895"><ele>967.1999999999999</ele><time>2026-05-03T13:17:21.999Z</time></trkpt><trkpt lat="44.36062154846374" lon="7.399516682956231"><ele>967.8000000000001</ele><time>2026-05-03T13:17:22.999Z</time></trkpt><trkpt lat="44.360599975552205" lon="7.399371799786487"><ele>968.4000000000001</ele><time>2026-05-03T13:17:23.999Z</time></trkpt><trkpt lat="44.360601471132156" lon="7.399237423999783"><ele>969.0</ele><time>2026-05-03T13:17:24.999Z</time></trkpt><trkpt lat="44.36059967432907" lon="7.399080430290922"><ele>969.0</ele><time>2026-05-03T13:17:25.999Z</time></trkpt><trkpt lat="44.360563806506555" lon="7.398933800069307"><ele>969.0000000000001</ele><time>2026-05-03T13:17:26.999Z</time></trkpt><trkpt lat="44.36052023261057" lon="7.398777802345691"><ele>969.0000000000001</ele><time>2026-05-03T13:17:27.999Z</time></trkpt><trkpt lat="44.36051729373637" lon="7.398607330871514"><ele>969.0</ele><time>2026-05-03T13:17:28.999Z</time></trkpt><trkpt lat="44.360534886352276" lon="7.398515123118546"><ele>969.0</ele><time>2026-05-03T13:17:29.999Z</time></trkpt><trkpt lat="44.36057928825489" lon="7.398400496536212"><ele>970.0</ele><time>2026-05-03T13:17:30.999Z</time></trkpt><trkpt lat="44.36064837355313" lon="7.39827976970845"><ele>971.0000000000001</ele><time>2026-05-03T13:17:31.999Z</time></trkpt><trkpt lat="44.36070452819527" lon="7.398091535293819"><ele>972.0000000000001</ele><time>2026-05-03T13:17:32.999Z</time></trkpt><trkpt lat="44.36072786655659" lon="7.397936094311016"><ele>973.0</ele><time>2026-05-03T13:17:33.999Z</time></trkpt><trkpt lat="44.360757240395856" lon="7.397836234838827"><ele>974.0</ele><time>2026-05-03T13:17:34.999Z</time></trkpt><trkpt lat="44.36079257024433" lon="7.397667398639496"><ele>974.5000000000001</ele><time>2026-05-03T13:17:36.999Z</time></trkpt><trkpt lat="44.36082671744043" lon="7.3975589296233455"><ele>975.0</ele><time>2026-05-03T13:17:37.999Z</time></trkpt><trkpt lat="44.36083190762917" lon="7.397464003964118"><ele>975.5</ele><time>2026-05-03T13:17:38.999Z</time></trkpt><trkpt lat="44.360862774430494" lon="7.397382908673318"><ele>976.0</ele><time>2026-05-03T13:17:39.999Z</time></trkpt><trkpt lat="44.360919105567774" lon="7.397301395500055"><ele>976.5000000000001</ele><time>2026-05-03T13:17:40.999Z</time></trkpt><trkpt lat="44.36097316109422" lon="7.397190311177931"><ele>977.0</ele><time>2026-05-03T13:17:42.999Z</time></trkpt><trkpt lat="44.36103499668133" lon="7.397104618447564"><ele>978.0</ele><time>2026-05-03T13:17:44.999Z</time></trkpt><trkpt lat="44.36108692982761" lon="7.397016196399498"><ele>979.0</ele><time>2026-05-03T13:17:46.999Z</time></trkpt><trkpt lat="44.36114360130094" lon="7.396940678746923"><ele>980.0</ele><time>2026-05-03T13:17:48.999Z</time></trkpt><trkpt lat="44.36127660461756" lon="7.396718780559915"><ele>981.0</ele><time>2026-05-03T13:17:50.999Z</time></trkpt><trkpt lat="44.36132533279221" lon="7.39663757021274"><ele>982.0</ele><time>2026-05-03T13:17:51.999Z</time></trkpt><trkpt lat="44.36137138476777" lon="7.396561831554789"><ele>981.9999999999999</ele><time>2026-05-03T13:17:52.999Z</time></trkpt><trkpt lat="44.36141578746043" lon="7.396489389969829"><ele>982.0</ele><time>2026-05-03T13:17:53.999Z</time></trkpt><trkpt lat="44.36146175442669" lon="7.396336542897902"><ele>982.0</ele><time>2026-05-03T13:17:55.999Z</time></trkpt><trkpt lat="44.36147659221804" lon="7.396247119568533"><ele>982.0</ele><time>2026-05-03T13:17:56.999Z</time></trkpt><trkpt lat="44.36149994951443" lon="7.396155299343447"><ele>981.9999999999999</ele><time>2026-05-03T13:17:57.999Z</time></trkpt><trkpt lat="44.36153683779684" lon="7.396064681736243"><ele>982.0</ele><time>2026-05-03T13:17:58.999Z</time></trkpt><trkpt lat="44.36157734534857" lon="7.395976511190462"><ele>982.8571428571428</ele><time>2026-05-03T13:17:59.999Z</time></trkpt><trkpt lat="44.361622065846035" lon="7.3958936276450995"><ele>983.7142857142856</ele><time>2026-05-03T13:18:00.999Z</time></trkpt><trkpt lat="44.36166527969073" lon="7.3958143662611695"><ele>984.5714285714286</ele><time>2026-05-03T13:18:01.999Z</time></trkpt><trkpt lat="44.36171413115027" lon="7.395732342637091"><ele>985.4285714285713</ele><time>2026-05-03T13:18:02.999Z</time></trkpt><trkpt lat="44.36176376278815" lon="7.395645453452679"><ele>986.2857142857142</ele><time>2026-05-03T13:18:03.999Z</time></trkpt><trkpt lat="44.36180360476941" lon="7.395561995059145"><ele>987.1428571428571</ele><time>2026-05-03T13:18:04.999Z</time></trkpt><trkpt lat="44.36184058415254" lon="7.3954763854805305"><ele>988.0</ele><time>2026-05-03T13:18:05.999Z</time></trkpt><trkpt lat="44.3618816829607" lon="7.395365794267549"><ele>988.2</ele><time>2026-05-03T13:18:06.999Z</time></trkpt><trkpt lat="44.3619158600672" lon="7.395248756856098"><ele>988.4</ele><time>2026-05-03T13:18:07.999Z</time></trkpt><trkpt lat="44.36193126523711" lon="7.395082012889277"><ele>988.6000000000001</ele><time>2026-05-03T13:18:08.999Z</time></trkpt><trkpt lat="44.36196075956078" lon="7.394967496806068"><ele>988.8000000000001</ele><time>2026-05-03T13:18:09.999Z</time></trkpt><trkpt lat="44.361981911811576" lon="7.3948351666650325"><ele>989.0</ele><time>2026-05-03T13:18:10.999Z</time></trkpt><trkpt lat="44.36199217844081" lon="7.394665099798231"><ele>989.6</ele><time>2026-05-03T13:18:11.999Z</time></trkpt><trkpt lat="44.36200502062195" lon="7.39447928044751"><ele>990.2</ele><time>2026-05-03T13:18:12.999Z</time></trkpt><trkpt lat="44.36202666187641" lon="7.394348020222842"><ele>990.8000000000001</ele><time>2026-05-03T13:18:13.999Z</time></trkpt><trkpt lat="44.36205484091022" lon="7.394199547971319"><ele>991.4000000000001</ele><time>2026-05-03T13:18:14.999Z</time></trkpt><trkpt lat="44.36207984475002" lon="7.394070685338619"><ele>992.0</ele><time>2026-05-03T13:18:15.999Z</time></trkpt><trkpt lat="44.362114718663626" lon="7.3939389456636"><ele>995.0</ele><time>2026-05-03T13:18:16.999Z</time></trkpt><trkpt lat="44.36212257387463" lon="7.3937887143596"><ele>998.0</ele><time>2026-05-03T13:18:17.999Z</time></trkpt><trkpt lat="44.36210823135025" lon="7.393601269921824"><ele>1001.0</ele><time>2026-05-03T13:18:18.999Z</time></trkpt><trkpt lat="44.36210997093264" lon="7.393406229796198"><ele>1004.0</ele><time>2026-05-03T13:18:19.999Z</time></trkpt><trkpt lat="44.36212660334178" lon="7.393251493563355"><ele>1004.0</ele><time>2026-05-03T13:18:20.999Z</time></trkpt><trkpt lat="44.36214052426837" lon="7.393046844600231"><ele>1004.0</ele><time>2026-05-03T13:18:21.999Z</time></trkpt><trkpt lat="44.36225953723881" lon="7.393194453163382"><ele>1004.0</ele><time>2026-05-03T13:18:22.999Z</time></trkpt><trkpt lat="44.362355539908016" lon="7.393138310414542"><ele>1004.0</ele><time>2026-05-03T13:18:23.999Z</time></trkpt><trkpt lat="44.362396304519436" lon="7.393039491803845"><ele>1006.25</ele><time>2026-05-03T13:18:24.999Z</time></trkpt><trkpt lat="44.362473413441364" lon="7.3928797045957735"><ele>1008.5</ele><time>2026-05-03T13:18:25.999Z</time></trkpt><trkpt lat="44.362566906919874" lon="7.392773540416755"><ele>1010.75</ele><time>2026-05-03T13:18:26.999Z</time></trkpt><trkpt lat="44.3626223028926" lon="7.392648343469447"><ele>1013.0</ele><time>2026-05-03T13:18:27.998Z</time></trkpt><trkpt lat="44.36268209596718" lon="7.392547882833278"><ele>1013.0</ele><time>2026-05-03T13:18:28.998Z</time></trkpt><trkpt lat="44.36275797768472" lon="7.392486541692811"><ele>1013.0</ele><time>2026-05-03T13:18:29.998Z</time></trkpt><trkpt lat="44.36288009846272" lon="7.392410417241238"><ele>1013.0</ele><time>2026-05-03T13:18:30.998Z</time></trkpt><trkpt lat="44.36300630867686" lon="7.392341298487319"><ele>1013.0</ele><time>2026-05-03T13:18:31.998Z</time></trkpt><trkpt lat="44.36313864852873" lon="7.392262677445531"><ele>1012.5</ele><time>2026-05-03T13:18:32.998Z</time></trkpt><trkpt lat="44.36326342233013" lon="7.392228081279392"><ele>1012.0</ele><time>2026-05-03T13:18:33.998Z</time></trkpt><trkpt lat="44.36337669529014" lon="7.392103777589743"><ele>1011.5</ele><time>2026-05-03T13:18:34.998Z</time></trkpt><trkpt lat="44.36346307492178" lon="7.391933015000767"><ele>1011.0</ele><time>2026-05-03T13:18:35.998Z</time></trkpt><trkpt lat="44.363560172614385" lon="7.391772953194289"><ele>1011.0</ele><time>2026-05-03T13:18:36.998Z</time></trkpt><trkpt lat="44.363662105401346" lon="7.391629452104451"><ele>1011.0</ele><time>2026-05-03T13:18:37.998Z</time></trkpt><trkpt lat="44.36373947349707" lon="7.391457406153262"><ele>1011.0</ele><time>2026-05-03T13:18:39Z</time></trkpt><trkpt lat="44.363819270833645" lon="7.391302821647436"><ele>1011.0</ele><time>2026-05-03T13:18:40Z</time></trkpt><trkpt lat="44.36390489801325" lon="7.39116379809418"><ele>1015.0</ele><time>2026-05-03T13:18:41Z</time></trkpt><trkpt lat="44.36399466844868" lon="7.391053117256441"><ele>1018.9999999999999</ele><time>2026-05-03T13:18:42Z</time></trkpt><trkpt lat="44.3640728935106" lon="7.39093997638822"><ele>1022.9999999999999</ele><time>2026-05-03T13:18:43Z</time></trkpt><trkpt lat="44.36412793883413" lon="7.390854013411395"><ele>1027.0</ele><time>2026-05-03T13:18:44Z</time></trkpt><trkpt lat="44.3641928987091" lon="7.3907520932454975"><ele>1031.0</ele><time>2026-05-03T13:18:45Z</time></trkpt><trkpt lat="44.3642704219533" lon="7.390613202749927"><ele>1031.0</ele><time>2026-05-03T13:18:48Z</time></trkpt><trkpt lat="44.364302639045334" lon="7.39052354372502"><ele>1031.0</ele><time>2026-05-03T13:18:50Z</time></trkpt><trkpt lat="44.36433544276979" lon="7.39038362366654"><ele>1031.0</ele><time>2026-05-03T13:18:52Z</time></trkpt><trkpt lat="44.364398543829104" lon="7.390242724953479"><ele>1031.0</ele><time>2026-05-03T13:18:54Z</time></trkpt><trkpt lat="44.36447368458984" lon="7.390139386887551"><ele>1031.0</ele><time>2026-05-03T13:18:56Z</time></trkpt><trkpt lat="44.364558820168725" lon="7.390005206528288"><ele>1031.2</ele><time>2026-05-03T13:18:58Z</time></trkpt><trkpt lat="44.36461890646832" lon="7.389895615270827"><ele>1031.3999999999999</ele><time>2026-05-03T13:18:59Z</time></trkpt><trkpt lat="44.364675328508866" lon="7.389796059595113"><ele>1031.6</ele><time>2026-05-03T13:19:00Z</time></trkpt><trkpt lat="44.36468329109501" lon="7.389612330384756"><ele>1031.8</ele><time>2026-05-03T13:19:01Z</time></trkpt><trkpt lat="44.364751508072885" lon="7.389507613003027"><ele>1032.0</ele><time>2026-05-03T13:19:02Z</time></trkpt><trkpt lat="44.36482729090622" lon="7.389405141845871"><ele>1035.8333333333333</ele><time>2026-05-03T13:19:03Z</time></trkpt><trkpt lat="44.36484157118609" lon="7.3892447008364295"><ele>1039.6666666666667</ele><time>2026-05-03T13:19:04Z</time></trkpt><trkpt lat="44.364842757632395" lon="7.3891319480587665"><ele>1043.5</ele><time>2026-05-03T13:19:05Z</time></trkpt><trkpt lat="44.36486952829114" lon="7.389030280276858"><ele>1047.3333333333335</ele><time>2026-05-03T13:19:06Z</time></trkpt><trkpt lat="44.36489930636166" lon="7.388942077544055"><ele>1051.1666666666667</ele><time>2026-05-03T13:19:07Z</time></trkpt><trkpt lat="44.36496242483011" lon="7.3888836107350135"><ele>1055.0</ele><time>2026-05-03T13:19:08Z</time></trkpt><trkpt lat="44.36503692070191" lon="7.388837908580391"><ele>1055.0</ele><time>2026-05-03T13:19:09Z</time></trkpt><trkpt lat="44.365096861189585" lon="7.3887865802337265"><ele>1055.0</ele><time>2026-05-03T13:19:10Z</time></trkpt><trkpt lat="44.365158933344695" lon="7.388757923091913"><ele>1055.0</ele><time>2026-05-03T13:19:11Z</time></trkpt><trkpt lat="44.36523079021897" lon="7.388557405870672"><ele>1055.0</ele><time>2026-05-03T13:19:13Z</time></trkpt><trkpt lat="44.365150406096184" lon="7.388474825357802"><ele>1055.0</ele><time>2026-05-03T13:19:14Z</time></trkpt><trkpt lat="44.365225665300734" lon="7.388462366103126"><ele>1055.0</ele><time>2026-05-03T13:19:19Z</time></trkpt><trkpt lat="44.36523213771667" lon="7.388566808722999"><ele>1055.0</ele><time>2026-05-03T13:19:21Z</time></trkpt><trkpt lat="44.365285998282324" lon="7.388659383518027"><ele>1055.0</ele><time>2026-05-03T13:19:23Z</time></trkpt><trkpt lat="44.36521979046102" lon="7.3887953715770855"><ele>1055.0</ele><time>2026-05-03T13:19:24Z</time></trkpt><trkpt lat="44.36521463172826" lon="7.388887642839199"><ele>1055.0</ele><time>2026-05-03T13:19:25Z</time></trkpt><trkpt lat="44.365217043707574" lon="7.388985732621399"><ele>1055.0</ele><time>2026-05-03T13:19:26Z</time></trkpt><trkpt lat="44.36522382784854" lon="7.389098639678632"><ele>1056.2</ele><time>2026-05-03T13:19:26.999Z</time></trkpt><trkpt lat="44.36522302437422" lon="7.389215408327466"><ele>1057.4</ele><time>2026-05-03T13:19:27.999Z</time></trkpt><trkpt lat="44.36522428663341" lon="7.389318357485257"><ele>1058.6</ele><time>2026-05-03T13:19:28.999Z</time></trkpt><trkpt lat="44.36524231639987" lon="7.3894435902185505"><ele>1059.8</ele><time>2026-05-03T13:19:30.999Z</time></trkpt><trkpt lat="44.36533222556198" lon="7.38941715596511"><ele>1061.0</ele><time>2026-05-03T13:19:32.999Z</time></trkpt><trkpt lat="44.365365325593714" lon="7.389263552117561"><ele>1061.0</ele><time>2026-05-03T13:19:34.999Z</time></trkpt><trkpt lat="44.36541692426641" lon="7.389159598148483"><ele>1061.0</ele><time>2026-05-03T13:19:36.999Z</time></trkpt><trkpt lat="44.36549805047133" lon="7.38906250742203"><ele>1061.0</ele><time>2026-05-03T13:19:38.999Z</time></trkpt><trkpt lat="44.365585631071035" lon="7.389010692970952"><ele>1061.0</ele><time>2026-05-03T13:19:40.999Z</time></trkpt><trkpt lat="44.36567321286014" lon="7.388900125005186"><ele>1061.0</ele><time>2026-05-03T13:19:42.999Z</time></trkpt><trkpt lat="44.365743487292164" lon="7.3887563988671845"><ele>1064.5</ele><time>2026-05-03T13:19:44.999Z</time></trkpt><trkpt lat="44.365772975128266" lon="7.388676148016504"><ele>1068.0</ele><time>2026-05-03T13:19:45.999Z</time></trkpt><trkpt lat="44.365796096453124" lon="7.38859384669483"><ele>1071.5</ele><time>2026-05-03T13:19:46.999Z</time></trkpt><trkpt lat="44.36582666487246" lon="7.388418042730123"><ele>1075.0</ele><time>2026-05-03T13:19:48.999Z</time></trkpt><trkpt lat="44.365842424196984" lon="7.388331132060034"><ele>1078.5</ele><time>2026-05-03T13:19:49.999Z</time></trkpt><trkpt lat="44.36587418721783" lon="7.38816753304698"><ele>1082.0</ele><time>2026-05-03T13:19:51.999Z</time></trkpt><trkpt lat="44.365866170492744" lon="7.3880626058331424"><ele>1082.0</ele><time>2026-05-03T13:19:53.999Z</time></trkpt><trkpt lat="44.36593547091482" lon="7.388023818169137"><ele>1082.0</ele><time>2026-05-03T13:19:56.999Z</time></trkpt><trkpt lat="44.36594882070687" lon="7.387934159178765"><ele>1082.0</ele><time>2026-05-03T13:19:58.999Z</time></trkpt><trkpt lat="44.36614950253665" lon="7.387933314527456"><ele>1082.0</ele><time>2026-05-03T13:20:00.999Z</time></trkpt><trkpt lat="44.36624877312625" lon="7.387935345417731"><ele>1082.0</ele><time>2026-05-03T13:20:02.999Z</time></trkpt><trkpt lat="44.36633403207276" lon="7.387969004538504"><ele>1085.8</ele><time>2026-05-03T13:20:04.999Z</time></trkpt><trkpt lat="44.36641335501474" lon="7.387968524961044"><ele>1089.6</ele><time>2026-05-03T13:20:08.999Z</time></trkpt><trkpt lat="44.36643170039971" lon="7.387813736269553"><ele>1093.3999999999999</ele><time>2026-05-03T13:20:12.999Z</time></trkpt><trkpt lat="44.36649402352708" lon="7.38767967704875"><ele>1097.2</ele><time>2026-05-03T13:20:14.999Z</time></trkpt><trkpt lat="44.36656821461591" lon="7.387620791848556"><ele>1101.0</ele><time>2026-05-03T13:20:16.999Z</time></trkpt><trkpt lat="44.3665716609774" lon="7.387507190040957"><ele>1101.0</ele><time>2026-05-03T13:20:29.999Z</time></trkpt><trkpt lat="44.36663382659723" lon="7.387403246550118"><ele>1101.0</ele><time>2026-05-03T13:20:31.998Z</time></trkpt><trkpt lat="44.366644811953755" lon="7.387282336150032"><ele>1101.0</ele><time>2026-05-03T13:20:33.998Z</time></trkpt><trkpt lat="44.36665543803674" lon="7.3871078590236365"><ele>1101.0</ele><time>2026-05-03T13:20:36.998Z</time></trkpt><trkpt lat="44.36666707930114" lon="7.386989296272111"><ele>1101.0</ele><time>2026-05-03T13:20:37.998Z</time></trkpt><trkpt lat="44.36670123215244" lon="7.386859655075259"><ele>1101.3333333333333</ele><time>2026-05-03T13:20:39.998Z</time></trkpt><trkpt lat="44.36672419032646" lon="7.386765347198755"><ele>1101.6666666666667</ele><time>2026-05-03T13:20:40.998Z</time></trkpt><trkpt lat="44.366733428214914" lon="7.38667718259808"><ele>1102.0</ele><time>2026-05-03T13:20:41.998Z</time></trkpt><trkpt lat="44.36670690624385" lon="7.386590784619041"><ele>1102.3333333333335</ele><time>2026-05-03T13:20:42.998Z</time></trkpt><trkpt lat="44.36676567250075" lon="7.386462457078843"><ele>1102.6666666666667</ele><time>2026-05-03T13:20:43.998Z</time></trkpt><trkpt lat="44.36678271874886" lon="7.386346961501781"><ele>1103.0</ele><time>2026-05-03T13:20:45Z</time></trkpt><trkpt lat="44.36678989806373" lon="7.38622904188676"><ele>1103.0</ele><time>2026-05-03T13:20:46Z</time></trkpt><trkpt lat="44.36677529847706" lon="7.386129230558433"><ele>1103.0</ele><time>2026-05-03T13:20:47Z</time></trkpt><trkpt lat="44.366755839548674" lon="7.386009615577522"><ele>1103.0</ele><time>2026-05-03T13:20:48Z</time></trkpt><trkpt lat="44.36673729911553" lon="7.385892604006023"><ele>1103.0</ele><time>2026-05-03T13:20:49Z</time></trkpt><trkpt lat="44.36672576050937" lon="7.385786748930297"><ele>1103.0</ele><time>2026-05-03T13:20:50Z</time></trkpt><trkpt lat="44.366723426832586" lon="7.385691613678211"><ele>1103.0</ele><time>2026-05-03T13:20:51Z</time></trkpt><trkpt lat="44.36671795245341" lon="7.385563830479877"><ele>1104.3333333333335</ele><time>2026-05-03T13:20:52Z</time></trkpt><trkpt lat="44.36675089029045" lon="7.385439036458475"><ele>1105.6666666666667</ele><time>2026-05-03T13:20:53Z</time></trkpt><trkpt lat="44.3667628285797" lon="7.385336914661763"><ele>1107.0</ele><time>2026-05-03T13:20:54Z</time></trkpt><trkpt lat="44.36674549334043" lon="7.385234320107784"><ele>1108.3333333333333</ele><time>2026-05-03T13:20:55Z</time></trkpt><trkpt lat="44.366730945056936" lon="7.385111186211447"><ele>1109.6666666666665</ele><time>2026-05-03T13:20:56Z</time></trkpt><trkpt lat="44.366736319227144" lon="7.384978889537381"><ele>1111.0</ele><time>2026-05-03T13:20:57Z</time></trkpt><trkpt lat="44.366758760020126" lon="7.384884692621537"><ele>1111.0</ele><time>2026-05-03T13:20:58Z</time></trkpt><trkpt lat="44.366746780224226" lon="7.3847832803548"><ele>1111.0</ele><time>2026-05-03T13:20:59Z</time></trkpt><trkpt lat="44.36676873921467" lon="7.384690279458185"><ele>1111.0</ele><time>2026-05-03T13:21:00Z</time></trkpt><trkpt lat="44.3668145021904" lon="7.384600960462654"><ele>1111.0</ele><time>2026-05-03T13:21:01Z</time></trkpt><trkpt lat="44.366845873536406" lon="7.384512891756191"><ele>1111.0</ele><time>2026-05-03T13:21:02Z</time></trkpt><trkpt lat="44.366885156707674" lon="7.384434916081967"><ele>1111.0</ele><time>2026-05-03T13:21:03Z</time></trkpt><trkpt lat="44.36691258135479" lon="7.384344410059962"><ele>1111.0</ele><time>2026-05-03T13:21:04Z</time></trkpt><trkpt lat="44.36694977384646" lon="7.384248198464776"><ele>1112.8333333333333</ele><time>2026-05-03T13:21:05Z</time></trkpt><trkpt lat="44.3670023150841" lon="7.384177259407181"><ele>1114.6666666666665</ele><time>2026-05-03T13:21:06Z</time></trkpt><trkpt lat="44.36705713380158" lon="7.384114895260542"><ele>1116.5</ele><time>2026-05-03T13:21:07Z</time></trkpt><trkpt lat="44.36708623170898" lon="7.384030571722982"><ele>1118.3333333333333</ele><time>2026-05-03T13:21:08Z</time></trkpt><trkpt lat="44.36719121716568" lon="7.383934258161237"><ele>1120.1666666666667</ele><time>2026-05-03T13:21:10Z</time></trkpt><trkpt lat="44.36727042382793" lon="7.383907254186561"><ele>1122.0</ele><time>2026-05-03T13:21:11Z</time></trkpt><trkpt lat="44.36733395360961" lon="7.38385779432296"><ele>1123.8333333333333</ele><time>2026-05-03T13:21:12Z</time></trkpt><trkpt lat="44.367422798099064" lon="7.38376770953412"><ele>1125.6666666666667</ele><time>2026-05-03T13:21:14Z</time></trkpt><trkpt lat="44.367523698538896" lon="7.383698886866558"><ele>1127.5</ele><time>2026-05-03T13:21:16Z</time></trkpt><trkpt lat="44.36759444649646" lon="7.383670651456992"><ele>1129.3333333333335</ele><time>2026-05-03T13:21:17Z</time></trkpt><trkpt lat="44.36766701462636" lon="7.383646230402204"><ele>1131.1666666666667</ele><time>2026-05-03T13:21:18Z</time></trkpt><trkpt lat="44.3677346727985" lon="7.38364523842674"><ele>1133.0</ele><time>2026-05-03T13:21:19Z</time></trkpt><trkpt lat="44.36786494142522" lon="7.38357596612238"><ele>1133.0</ele><time>2026-05-03T13:21:21Z</time></trkpt><trkpt lat="44.36791856534133" lon="7.383522523010754"><ele>1133.0</ele><time>2026-05-03T13:21:22Z</time></trkpt><trkpt lat="44.368021161236925" lon="7.3834008789795975"><ele>1133.0</ele><time>2026-05-03T13:21:24Z</time></trkpt><trkpt lat="44.368118374702654" lon="7.383313990943503"><ele>1133.0</ele><time>2026-05-03T13:21:26Z</time></trkpt><trkpt lat="44.36816677223383" lon="7.38324137107145"><ele>1133.0</ele><time>2026-05-03T13:21:27Z</time></trkpt><trkpt lat="44.36824142448768" lon="7.383158210893318"><ele>1134.6</ele><time>2026-05-03T13:21:28.999Z</time></trkpt><trkpt lat="44.36833645295557" lon="7.383070690194011"><ele>1136.1999999999998</ele><time>2026-05-03T13:21:30.999Z</time></trkpt><trkpt lat="44.36841737231916" lon="7.382986907750504"><ele>1137.8</ele><time>2026-05-03T13:21:32.999Z</time></trkpt><trkpt lat="44.36848182817631" lon="7.382864015321822"><ele>1139.3999999999999</ele><time>2026-05-03T13:21:34.999Z</time></trkpt><trkpt lat="44.36855865257225" lon="7.382762256458046"><ele>1141.0</ele><time>2026-05-03T13:21:36.999Z</time></trkpt><trkpt lat="44.36860684917285" lon="7.382655341337422"><ele>1142.5</ele><time>2026-05-03T13:21:39.999Z</time></trkpt><trkpt lat="44.36883041517934" lon="7.382426169595972"><ele>1144.0</ele><time>2026-05-03T13:21:42.999Z</time></trkpt><trkpt lat="44.368889152133875" lon="7.382365496442813"><ele>1145.5</ele><time>2026-05-03T13:21:43.999Z</time></trkpt><trkpt lat="44.36896309345136" lon="7.382330827498315"><ele>1147.0</ele><time>2026-05-03T13:21:44.999Z</time></trkpt><trkpt lat="44.36903236470021" lon="7.382292115694567"><ele>1149.3333333333333</ele><time>2026-05-03T13:21:45.999Z</time></trkpt><trkpt lat="44.36909890308818" lon="7.38223734937513"><ele>1151.6666666666665</ele><time>2026-05-03T13:21:46.999Z</time></trkpt><trkpt lat="44.369158806116936" lon="7.382207470597216"><ele>1154.0</ele><time>2026-05-03T13:21:47.999Z</time></trkpt><trkpt lat="44.36926831588312" lon="7.382143421309262"><ele>1156.3333333333333</ele><time>2026-05-03T13:21:49.999Z</time></trkpt><trkpt lat="44.3693439413441" lon="7.382010843927321"><ele>1158.6666666666667</ele><time>2026-05-03T13:21:51.999Z</time></trkpt><trkpt lat="44.369368425030395" lon="7.381926915788628"><ele>1161.0</ele><time>2026-05-03T13:21:52.999Z</time></trkpt><trkpt lat="44.369384359615196" lon="7.381833307157315"><ele>1162.3999999999999</ele><time>2026-05-03T13:21:53.999Z</time></trkpt><trkpt lat="44.369418221925834" lon="7.381674889942334"><ele>1163.8</ele><time>2026-05-03T13:21:55.999Z</time></trkpt><trkpt lat="44.36949827723432" lon="7.381584735919881"><ele>1165.1999999999998</ele><time>2026-05-03T13:21:57.999Z</time></trkpt><trkpt lat="44.36955441766166" lon="7.381539297886699"><ele>1166.6</ele><time>2026-05-03T13:21:58.999Z</time></trkpt><trkpt lat="44.36962856874342" lon="7.38148736954759"><ele>1168.0</ele><time>2026-05-03T13:21:59.999Z</time></trkpt><trkpt lat="44.369742414796" lon="7.381391748573427"><ele>1169.5</ele><time>2026-05-03T13:22:01.999Z</time></trkpt><trkpt lat="44.369807525757665" lon="7.3813632258487045"><ele>1171.0</ele><time>2026-05-03T13:22:02.999Z</time></trkpt><trkpt lat="44.369925437760386" lon="7.381291493307296"><ele>1172.5</ele><time>2026-05-03T13:22:04.999Z</time></trkpt><trkpt lat="44.36997907527245" lon="7.3812375046502945"><ele>1174.0</ele><time>2026-05-03T13:22:05.999Z</time></trkpt><trkpt lat="44.370023479240075" lon="7.381169999584711"><ele>1175.5</ele><time>2026-05-03T13:22:06.999Z</time></trkpt><trkpt lat="44.37007204861174" lon="7.381110313832804"><ele>1177.0</ele><time>2026-05-03T13:22:07.999Z</time></trkpt><trkpt lat="44.37014587754782" lon="7.3810070681592475"><ele>1178.1666666666665</ele><time>2026-05-03T13:22:09.999Z</time></trkpt><trkpt lat="44.37019950795254" lon="7.380953661913154"><ele>1179.3333333333333</ele><time>2026-05-03T13:22:10.999Z</time></trkpt><trkpt lat="44.37032788945946" lon="7.380943676427378"><ele>1180.5</ele><time>2026-05-03T13:22:12.999Z</time></trkpt><trkpt lat="44.37039105743865" lon="7.380946981515334"><ele>1181.6666666666667</ele><time>2026-05-03T13:22:13.999Z</time></trkpt><trkpt lat="44.37045150547761" lon="7.380922344010192"><ele>1182.8333333333335</ele><time>2026-05-03T13:22:14.999Z</time></trkpt><trkpt lat="44.37054380319117" lon="7.380883454804325"><ele>1184.0</ele><time>2026-05-03T13:22:16.999Z</time></trkpt><trkpt lat="44.3706602607455" lon="7.380884851041555"><ele>1189.0</ele><time>2026-05-03T13:22:19.999Z</time></trkpt><trkpt lat="44.37074464801584" lon="7.380929296228758"><ele>1194.0</ele><time>2026-05-03T13:22:21.999Z</time></trkpt><trkpt lat="44.370809857614006" lon="7.3808519870673726"><ele>1199.0</ele><time>2026-05-03T13:22:24.999Z</time></trkpt><trkpt lat="44.37111181806222" lon="7.380687302832381"><ele>1199.0</ele><time>2026-05-03T13:22:26.999Z</time></trkpt><trkpt lat="44.37116573205758" lon="7.3806209240041785"><ele>1199.0</ele><time>2026-05-03T13:22:27.999Z</time></trkpt><trkpt lat="44.3712177623034" lon="7.380553699029553"><ele>1199.0</ele><time>2026-05-03T13:22:28.998Z</time></trkpt><trkpt lat="44.3712912973643" lon="7.3804945428481"><ele>1199.0</ele><time>2026-05-03T13:22:29.998Z</time></trkpt><trkpt lat="44.37136727636751" lon="7.380409414284413"><ele>1199.0</ele><time>2026-05-03T13:22:30.998Z</time></trkpt><trkpt lat="44.3714639290024" lon="7.380301573882686"><ele>1199.0</ele><time>2026-05-03T13:22:31.998Z</time></trkpt><trkpt lat="44.37153915813343" lon="7.380225878606014"><ele>1200.0</ele><time>2026-05-03T13:22:32.998Z</time></trkpt><trkpt lat="44.37161296613909" lon="7.380176639578559"><ele>1201.0</ele><time>2026-05-03T13:22:33.998Z</time></trkpt><trkpt lat="44.37169738266006" lon="7.380133989069751"><ele>1202.0</ele><time>2026-05-03T13:22:34.998Z</time></trkpt><trkpt lat="44.37177345509873" lon="7.380079189031619"><ele>1203.0</ele><time>2026-05-03T13:22:35.998Z</time></trkpt><trkpt lat="44.371826226439225" lon="7.379995251169961"><ele>1204.0</ele><time>2026-05-03T13:22:36.998Z</time></trkpt><trkpt lat="44.37186194279206" lon="7.379906957572129"><ele>1205.0</ele><time>2026-05-03T13:22:37.998Z</time></trkpt><trkpt lat="44.37191681873407" lon="7.379789851265618"><ele>1205.0</ele><time>2026-05-03T13:22:39.998Z</time></trkpt><trkpt lat="44.371973544250345" lon="7.379742198531737"><ele>1205.0</ele><time>2026-05-03T13:22:40.998Z</time></trkpt><trkpt lat="44.37204683247141" lon="7.379685170458661"><ele>1205.0</ele><time>2026-05-03T13:22:41.998Z</time></trkpt><trkpt lat="44.372130814397025" lon="7.3796464153949355"><ele>1205.0</ele><time>2026-05-03T13:22:42.998Z</time></trkpt><trkpt lat="44.3722224857752" lon="7.379634968338758"><ele>1205.0</ele><time>2026-05-03T13:22:43.998Z</time></trkpt><trkpt lat="44.372326673126544" lon="7.379607863488245"><ele>1205.0</ele><time>2026-05-03T13:22:44.998Z</time></trkpt><trkpt lat="44.37240610223245" lon="7.379583903595896"><ele>1206.6666666666667</ele><time>2026-05-03T13:22:45.998Z</time></trkpt><trkpt lat="44.37247532352719" lon="7.3795458726292384"><ele>1208.3333333333335</ele><time>2026-05-03T13:22:46.998Z</time></trkpt><trkpt lat="44.37259497648039" lon="7.379504489678242"><ele>1210.0</ele><time>2026-05-03T13:22:48.998Z</time></trkpt><trkpt lat="44.3726695112307" lon="7.379477393878497"><ele>1211.6666666666667</ele><time>2026-05-03T13:22:49.998Z</time></trkpt><trkpt lat="44.372751499489134" lon="7.379428209654039"><ele>1213.3333333333333</ele><time>2026-05-03T13:22:51Z</time></trkpt><trkpt lat="44.37281122963744" lon="7.379362766761016"><ele>1215.0</ele><time>2026-05-03T13:22:52Z</time></trkpt><trkpt lat="44.37288259775248" lon="7.379315834851716"><ele>1215.0000000000002</ele><time>2026-05-03T13:22:53Z</time></trkpt><trkpt lat="44.3729470205505" lon="7.379264437295218"><ele>1215.0</ele><time>2026-05-03T13:22:54Z</time></trkpt><trkpt lat="44.373030987760714" lon="7.379182993988547"><ele>1215.0</ele><time>2026-05-03T13:22:56Z</time></trkpt><trkpt lat="44.37308288450962" lon="7.3791095867942955"><ele>1215.0</ele><time>2026-05-03T13:22:58Z</time></trkpt><trkpt lat="44.37304781085161" lon="7.379188800508982"><ele>1215.0</ele><time>2026-05-03T13:25:26.999Z</time></trkpt><trkpt lat="44.373055521620344" lon="7.37910123894952"><ele>1215.0000000000002</ele><time>2026-05-03T13:35:27.999Z</time></trkpt><trkpt lat="44.3730067193997" lon="7.379157583779579"><ele>1215.0</ele><time>2026-05-03T13:35:46.999Z</time></trkpt><trkpt lat="44.373083562887416" lon="7.37908517353468"><ele>1217.6666666666667</ele><time>2026-05-03T13:35:51.999Z</time></trkpt><trkpt lat="44.373137893759335" lon="7.379007488380469"><ele>1220.3333333333333</ele><time>2026-05-03T13:35:53.999Z</time></trkpt><trkpt lat="44.37316199502474" lon="7.37889294378161"><ele>1223.0</ele><time>2026-05-03T13:35:56.999Z</time></trkpt><trkpt lat="44.373215932214684" lon="7.378766812738268"><ele>1225.6666666666665</ele><time>2026-05-03T13:35:58.999Z</time></trkpt><trkpt lat="44.37327070075902" lon="7.378712716529702"><ele>1228.3333333333333</ele><time>2026-05-03T13:36:00.999Z</time></trkpt><trkpt lat="44.373334891927264" lon="7.378694564476644"><ele>1231.0</ele><time>2026-05-03T13:36:03.999Z</time></trkpt><trkpt lat="44.373395711146976" lon="7.3786307216321125"><ele>1231.0</ele><time>2026-05-03T13:36:06.999Z</time></trkpt><trkpt lat="44.37344565887966" lon="7.378510498239346"><ele>1231.0</ele><time>2026-05-03T13:36:08.999Z</time></trkpt><trkpt lat="44.37352129681133" lon="7.37841732568166"><ele>1231.0</ele><time>2026-05-03T13:36:10.999Z</time></trkpt><trkpt lat="44.373592809429674" lon="7.378353604531653"><ele>1231.0</ele><time>2026-05-03T13:36:12.999Z</time></trkpt><trkpt lat="44.3736808446716" lon="7.378264445396495"><ele>1231.0</ele><time>2026-05-03T13:36:14.999Z</time></trkpt><trkpt lat="44.37375096415098" lon="7.37818803374184"><ele>1231.0</ele><time>2026-05-03T13:36:17.999Z</time></trkpt><trkpt lat="44.37382299301318" lon="7.378184439979788"><ele>1231.0</ele><time>2026-05-03T13:36:20.999Z</time></trkpt><trkpt lat="44.37389965512015" lon="7.378148300476063"><ele>1231.0</ele><time>2026-05-03T13:36:22.999Z</time></trkpt><trkpt lat="44.373958595970485" lon="7.378082853653188"><ele>1231.0</ele><time>2026-05-03T13:36:24.999Z</time></trkpt><trkpt lat="44.37401006423358" lon="7.378013025832118"><ele>1231.0</ele><time>2026-05-03T13:36:26.999Z</time></trkpt><trkpt lat="44.3740811679363" lon="7.377993582638396"><ele>1231.0</ele><time>2026-05-03T13:36:29.999Z</time></trkpt><trkpt lat="44.37412307629077" lon="7.37791452395053"><ele>1231.0</ele><time>2026-05-03T13:36:31.999Z</time></trkpt><trkpt lat="44.37415318456595" lon="7.377832909963976"><ele>1235.5714285714284</ele><time>2026-05-03T13:36:33.999Z</time></trkpt><trkpt lat="44.37420239328623" lon="7.377755736419014"><ele>1240.142857142857</ele><time>2026-05-03T13:36:36.999Z</time></trkpt><trkpt lat="44.37423190740379" lon="7.377672339866252"><ele>1244.7142857142858</ele><time>2026-05-03T13:36:45.998Z</time></trkpt><trkpt lat="44.37419512775486" lon="7.377755219249046"><ele>1249.2857142857142</ele><time>2026-05-03T13:40:01.999Z</time></trkpt><trkpt lat="44.37416532715168" lon="7.377838689260848"><ele>1253.857142857143</ele><time>2026-05-03T13:40:08.999Z</time></trkpt><trkpt lat="44.37420911946802" lon="7.3777631258192224"><ele>1258.4285714285713</ele><time>2026-05-03T13:42:06.999Z</time></trkpt><trkpt lat="44.37424168988253" lon="7.377680161831226"><ele>1263.0</ele><time>2026-05-03T13:42:14.999Z</time></trkpt><trkpt lat="44.37426784412538" lon="7.377582986031578"><ele>1262.9999999999998</ele><time>2026-05-03T13:42:28.999Z</time></trkpt><trkpt lat="44.37433191200205" lon="7.377542203371475"><ele>1263.0</ele><time>2026-05-03T13:45:17.998Z</time></trkpt><trkpt lat="44.37437036481067" lon="7.377471751414175"><ele>1263.0</ele><time>2026-05-03T13:45:19.998Z</time></trkpt><trkpt lat="44.37434019466748" lon="7.3773759202744875"><ele>1263.0</ele><time>2026-05-03T13:45:21.998Z</time></trkpt><trkpt lat="44.37439106279756" lon="7.377308114356842"><ele>1263.0</ele><time>2026-05-03T13:45:24.998Z</time></trkpt><trkpt lat="44.37440109211234" lon="7.377196400985643"><ele>1262.9999999999998</ele><time>2026-05-03T13:45:26.998Z</time></trkpt><trkpt lat="44.37442410808289" lon="7.377111174788471"><ele>1263.0</ele><time>2026-05-03T13:45:29.998Z</time></trkpt><trkpt lat="44.37446964480842" lon="7.377037410358235"><ele>1261.6666666666667</ele><time>2026-05-03T13:45:31.998Z</time></trkpt><trkpt lat="44.37453175853012" lon="7.376943799290886"><ele>1260.3333333333333</ele><time>2026-05-03T13:45:33.998Z</time></trkpt><trkpt lat="44.37459677554071" lon="7.376888329329913"><ele>1259.0</ele><time>2026-05-03T13:45:35.998Z</time></trkpt><trkpt lat="44.374660200145506" lon="7.376828526606287"><ele>1257.6666666666665</ele><time>2026-05-03T13:45:37.998Z</time></trkpt><trkpt lat="44.37471113185674" lon="7.376720994823896"><ele>1256.3333333333333</ele><time>2026-05-03T13:45:39.998Z</time></trkpt><trkpt lat="44.374734704661144" lon="7.376600359678505"><ele>1255.0</ele><time>2026-05-03T13:45:41.998Z</time></trkpt><trkpt lat="44.37479923564739" lon="7.376494402797628"><ele>1258.6</ele><time>2026-05-03T13:45:44.998Z</time></trkpt><trkpt lat="44.3748337133284" lon="7.376336480906264"><ele>1262.2</ele><time>2026-05-03T13:45:46.998Z</time></trkpt><trkpt lat="44.37482689935076" lon="7.376244937479396"><ele>1265.8</ele><time>2026-05-03T13:45:47.998Z</time></trkpt><trkpt lat="44.37482649416316" lon="7.376095025312163"><ele>1269.4</ele><time>2026-05-03T13:45:49.998Z</time></trkpt><trkpt lat="44.37486485239537" lon="7.375971130945947"><ele>1273.0</ele><time>2026-05-03T13:45:51.998Z</time></trkpt><trkpt lat="44.37492931810644" lon="7.375829799842007"><ele>1273.0</ele><time>2026-05-03T13:45:53.998Z</time></trkpt><trkpt lat="44.37496795766339" lon="7.375754292281337"><ele>1273.0</ele><time>2026-05-03T13:45:54.997Z</time></trkpt><trkpt lat="44.375015821903126" lon="7.375643488877455"><ele>1273.0</ele><time>2026-05-03T13:45:55.999Z</time></trkpt><trkpt lat="44.37506820387921" lon="7.375552382318111"><ele>1273.0</ele><time>2026-05-03T13:45:56.999Z</time></trkpt><trkpt lat="44.375106718244375" lon="7.375470519384469"><ele>1273.0</ele><time>2026-05-03T13:45:57.999Z</time></trkpt><trkpt lat="44.37520217435291" lon="7.375376444264261"><ele>1273.0</ele><time>2026-05-03T13:46:00Z</time></trkpt><trkpt lat="44.37526439203416" lon="7.375315546677927"><ele>1272.857142857143</ele><time>2026-05-03T13:46:00.999Z</time></trkpt><trkpt lat="44.37532370297426" lon="7.375263473448255"><ele>1272.7142857142858</ele><time>2026-05-03T13:46:02Z</time></trkpt><trkpt lat="44.37537501777186" lon="7.375197736250679"><ele>1272.5714285714284</ele><time>2026-05-03T13:46:03Z</time></trkpt><trkpt lat="44.375417198623396" lon="7.37512177025151"><ele>1272.4285714285716</ele><time>2026-05-03T13:46:03.999Z</time></trkpt><trkpt lat="44.375467005980184" lon="7.375045688111508"><ele>1272.2857142857144</ele><time>2026-05-03T13:46:05Z</time></trkpt><trkpt lat="44.37550927555233" lon="7.374958966714219"><ele>1272.142857142857</ele><time>2026-05-03T13:46:06Z</time></trkpt><trkpt lat="44.37554212282527" lon="7.374873654719599"><ele>1272.0</ele><time>2026-05-03T13:46:06.999Z</time></trkpt><trkpt lat="44.37559250391874" lon="7.374725593101847"><ele>1272.8</ele><time>2026-05-03T13:46:09.001Z</time></trkpt><trkpt lat="44.37564401543945" lon="7.374620756576035"><ele>1273.6</ele><time>2026-05-03T13:46:10Z</time></trkpt><trkpt lat="44.375708268838736" lon="7.374501011223011"><ele>1274.3999999999999</ele><time>2026-05-03T13:46:11Z</time></trkpt><trkpt lat="44.37576264387985" lon="7.37438653101554"><ele>1275.2</ele><time>2026-05-03T13:46:12Z</time></trkpt><trkpt lat="44.37579841183582" lon="7.374250717005647"><ele>1276.0</ele><time>2026-05-03T13:46:13Z</time></trkpt><trkpt lat="44.37585350841359" lon="7.374113322794277"><ele>1276.0</ele><time>2026-05-03T13:46:14Z</time></trkpt><trkpt lat="44.375903803164825" lon="7.37396878569899"><ele>1276.0</ele><time>2026-05-03T13:46:15Z</time></trkpt><trkpt lat="44.37595543721491" lon="7.373818546946774"><ele>1276.0</ele><time>2026-05-03T13:46:16Z</time></trkpt><trkpt lat="44.376007862535474" lon="7.373665956248603"><ele>1276.0</ele><time>2026-05-03T13:46:17Z</time></trkpt><trkpt lat="44.3760466017072" lon="7.373546021075314"><ele>1276.0</ele><time>2026-05-03T13:46:18Z</time></trkpt><trkpt lat="44.376083243433015" lon="7.373432387888897"><ele>1275.0</ele><time>2026-05-03T13:46:19Z</time></trkpt><trkpt lat="44.37612364343721" lon="7.373305187392218"><ele>1274.0</ele><time>2026-05-03T13:46:20Z</time></trkpt><trkpt lat="44.376170583112504" lon="7.373157396748692"><ele>1273.0</ele><time>2026-05-03T13:46:21Z</time></trkpt><trkpt lat="44.37620858734511" lon="7.373024071780288"><ele>1272.0</ele><time>2026-05-03T13:46:22Z</time></trkpt><trkpt lat="44.37623555961283" lon="7.372871545786331"><ele>1271.0</ele><time>2026-05-03T13:46:23Z</time></trkpt><trkpt lat="44.37627340501242" lon="7.372709091873571"><ele>1269.5</ele><time>2026-05-03T13:46:24Z</time></trkpt><trkpt lat="44.3762951028165" lon="7.372540450364516"><ele>1268.0</ele><time>2026-05-03T13:46:25Z</time></trkpt><trkpt lat="44.3763149085807" lon="7.3723560078565695"><ele>1266.5</ele><time>2026-05-03T13:46:26Z</time></trkpt><trkpt lat="44.37633158391148" lon="7.372185016220085"><ele>1265.0</ele><time>2026-05-03T13:46:27Z</time></trkpt><trkpt lat="44.37634804122891" lon="7.372016260109029"><ele>1271.5</ele><time>2026-05-03T13:46:28Z</time></trkpt><trkpt lat="44.37636433514879" lon="7.371833852843311"><ele>1278.0</ele><time>2026-05-03T13:46:29Z</time></trkpt><trkpt lat="44.37637964659673" lon="7.371643031080398"><ele>1284.5</ele><time>2026-05-03T13:46:30Z</time></trkpt><trkpt lat="44.37639444379638" lon="7.371465586572502"><ele>1291.0</ele><time>2026-05-03T13:46:31Z</time></trkpt><trkpt lat="44.37641211111913" lon="7.37129412601781"><ele>1291.0</ele><time>2026-05-03T13:46:32Z</time></trkpt><trkpt lat="44.3764392715675" lon="7.371108090694223"><ele>1291.0</ele><time>2026-05-03T13:46:33Z</time></trkpt><trkpt lat="44.37645740439007" lon="7.370914730256785"><ele>1291.0</ele><time>2026-05-03T13:46:34Z</time></trkpt><trkpt lat="44.376511165696016" lon="7.370769280445981"><ele>1291.0</ele><time>2026-05-03T13:46:35Z</time></trkpt><trkpt lat="44.376562643408136" lon="7.370701119763101"><ele>1291.0</ele><time>2026-05-03T13:46:36Z</time></trkpt><trkpt lat="44.37660148842103" lon="7.3706210470307365"><ele>1291.0</ele><time>2026-05-03T13:46:37Z</time></trkpt><trkpt lat="44.37667545872599" lon="7.3704512078668545"><ele>1291.0</ele><time>2026-05-03T13:46:39Z</time></trkpt><trkpt lat="44.37642490322543" lon="7.3701381507592885"><ele>1288.0</ele><time>2026-05-03T13:46:40Z</time></trkpt><trkpt lat="44.3763912963479" lon="7.370038572959778"><ele>1285.0</ele><time>2026-05-03T13:46:41Z</time></trkpt><trkpt lat="44.37633877986744" lon="7.369926301677839"><ele>1282.0</ele><time>2026-05-03T13:46:42Z</time></trkpt><trkpt lat="44.37626025792624" lon="7.3698390610141065"><ele>1279.0</ele><time>2026-05-03T13:46:43Z</time></trkpt><trkpt lat="44.37621615644941" lon="7.369756353081026"><ele>1276.0</ele><time>2026-05-03T13:46:44Z</time></trkpt><trkpt lat="44.37616028810066" lon="7.3696662205842784"><ele>1273.0</ele><time>2026-05-03T13:46:45Z</time></trkpt><trkpt lat="44.37604079078957" lon="7.369539454472161"><ele>1272.8333333333333</ele><time>2026-05-03T13:46:47Z</time></trkpt><trkpt lat="44.375998156593035" lon="7.369450904567788"><ele>1272.6666666666665</ele><time>2026-05-03T13:46:48Z</time></trkpt><trkpt lat="44.37598440333222" lon="7.369319140028238"><ele>1272.5</ele><time>2026-05-03T13:46:49Z</time></trkpt><trkpt lat="44.37592335680653" lon="7.369228455680491"><ele>1272.3333333333333</ele><time>2026-05-03T13:46:50Z</time></trkpt><trkpt lat="44.375856291812475" lon="7.369149676578634"><ele>1272.1666666666667</ele><time>2026-05-03T13:46:51Z</time></trkpt><trkpt lat="44.375829162796634" lon="7.369052422971113"><ele>1272.0</ele><time>2026-05-03T13:46:52Z</time></trkpt><trkpt lat="44.3757765872421" lon="7.3689585378573685"><ele>1272.0</ele><time>2026-05-03T13:46:53Z</time></trkpt><trkpt lat="44.375681961328205" lon="7.368900111357636"><ele>1272.0</ele><time>2026-05-03T13:46:54Z</time></trkpt><trkpt lat="44.37559627997382" lon="7.368845525487736"><ele>1272.0</ele><time>2026-05-03T13:46:55Z</time></trkpt><trkpt lat="44.37552205666679" lon="7.368779295642113"><ele>1272.0</ele><time>2026-05-03T13:46:56Z</time></trkpt><trkpt lat="44.375459788638935" lon="7.368675560730875"><ele>1272.0</ele><time>2026-05-03T13:46:57Z</time></trkpt><trkpt lat="44.37539993598269" lon="7.368571910277943"><ele>1268.6</ele><time>2026-05-03T13:46:58Z</time></trkpt><trkpt lat="44.37534090322792" lon="7.368473226900821"><ele>1265.2</ele><time>2026-05-03T13:46:59Z</time></trkpt><trkpt lat="44.37527583568756" lon="7.368373682266313"><ele>1261.8</ele><time>2026-05-03T13:47:00Z</time></trkpt><trkpt lat="44.37522298349368" lon="7.368262019032806"><ele>1258.4</ele><time>2026-05-03T13:47:01Z</time></trkpt><trkpt lat="44.375169062201024" lon="7.368154440331011"><ele>1255.0</ele><time>2026-05-03T13:47:02Z</time></trkpt><trkpt lat="44.37510322158703" lon="7.368054836945192"><ele>1254.0</ele><time>2026-05-03T13:47:03Z</time></trkpt><trkpt lat="44.37504374241707" lon="7.367956162994342"><ele>1253.0</ele><time>2026-05-03T13:47:04Z</time></trkpt><trkpt lat="44.37497549323338" lon="7.367887442700654"><ele>1252.0</ele><time>2026-05-03T13:47:05Z</time></trkpt><trkpt lat="44.37487988863927" lon="7.367837199850562"><ele>1251.0</ele><time>2026-05-03T13:47:05.999Z</time></trkpt><trkpt lat="44.374795054584766" lon="7.367778786714596"><ele>1250.0</ele><time>2026-05-03T13:47:06.999Z</time></trkpt><trkpt lat="44.37469717019367" lon="7.367735672747611"><ele>1248.6</ele><time>2026-05-03T13:47:07.999Z</time></trkpt><trkpt lat="44.374602108378745" lon="7.367655634077939"><ele>1247.2</ele><time>2026-05-03T13:47:08.999Z</time></trkpt><trkpt lat="44.37453157766548" lon="7.367559885476814"><ele>1245.8</ele><time>2026-05-03T13:47:09.999Z</time></trkpt><trkpt lat="44.37445523371583" lon="7.36748180601333"><ele>1244.4</ele><time>2026-05-03T13:47:10.999Z</time></trkpt><trkpt lat="44.37435764165751" lon="7.367440254788483"><ele>1243.0</ele><time>2026-05-03T13:47:11.999Z</time></trkpt><trkpt lat="44.37429018026224" lon="7.367386579202975"><ele>1243.0</ele><time>2026-05-03T13:47:12.999Z</time></trkpt><trkpt lat="44.37420110242232" lon="7.367307477532064"><ele>1243.0</ele><time>2026-05-03T13:47:13.999Z</time></trkpt><trkpt lat="44.37416425998277" lon="7.367229841851518"><ele>1243.0</ele><time>2026-05-03T13:47:14.999Z</time></trkpt><trkpt lat="44.374089015257695" lon="7.36716045477813"><ele>1243.0</ele><time>2026-05-03T13:47:15.999Z</time></trkpt><trkpt lat="44.37400595751226" lon="7.367072760592558"><ele>1243.0</ele><time>2026-05-03T13:47:16.999Z</time></trkpt><trkpt lat="44.373923090200265" lon="7.367014873181407"><ele>1240.0</ele><time>2026-05-03T13:47:17.999Z</time></trkpt><trkpt lat="44.373827807071265" lon="7.366919047771887"><ele>1237.0</ele><time>2026-05-03T13:47:18.999Z</time></trkpt><trkpt lat="44.37374781852857" lon="7.3668400100306215"><ele>1234.0</ele><time>2026-05-03T13:47:19.999Z</time></trkpt><trkpt lat="44.37369603067492" lon="7.366777413239307"><ele>1231.0</ele><time>2026-05-03T13:47:20.999Z</time></trkpt><trkpt lat="44.37361363024573" lon="7.3666979564827075"><ele>1228.0</ele><time>2026-05-03T13:47:21.999Z</time></trkpt><trkpt lat="44.373527060336194" lon="7.366659964406895"><ele>1228.0</ele><time>2026-05-03T13:47:22.999Z</time></trkpt><trkpt lat="44.373440316828315" lon="7.366612785472963"><ele>1228.0</ele><time>2026-05-03T13:47:23.999Z</time></trkpt><trkpt lat="44.37335170122471" lon="7.366552648184473"><ele>1228.0</ele><time>2026-05-03T13:47:24.999Z</time></trkpt><trkpt lat="44.373265400821204" lon="7.366501817109358"><ele>1228.0</ele><time>2026-05-03T13:47:25.999Z</time></trkpt><trkpt lat="44.3731879168404" lon="7.3664182721708515"><ele>1228.0</ele><time>2026-05-03T13:47:26.999Z</time></trkpt><trkpt lat="44.37309787518161" lon="7.36633628286093"><ele>1224.6</ele><time>2026-05-03T13:47:27.999Z</time></trkpt><trkpt lat="44.373005094765155" lon="7.366280005210446"><ele>1221.1999999999998</ele><time>2026-05-03T13:47:28.999Z</time></trkpt><trkpt lat="44.37292728434194" lon="7.366222537567995"><ele>1217.8</ele><time>2026-05-03T13:47:29.999Z</time></trkpt><trkpt lat="44.37284628392188" lon="7.366135135842481"><ele>1214.3999999999999</ele><time>2026-05-03T13:47:30.999Z</time></trkpt><trkpt lat="44.37277290246669" lon="7.366064512722568"><ele>1211.0</ele><time>2026-05-03T13:47:31.999Z</time></trkpt><trkpt lat="44.37269853981638" lon="7.365979224267342"><ele>1211.0</ele><time>2026-05-03T13:47:32.999Z</time></trkpt><trkpt lat="44.37259466483004" lon="7.365936292649727"><ele>1211.0</ele><time>2026-05-03T13:47:33.999Z</time></trkpt><trkpt lat="44.37251015226351" lon="7.365930855022555"><ele>1211.0</ele><time>2026-05-03T13:47:34.999Z</time></trkpt><trkpt lat="44.37245001470544" lon="7.365872183054428"><ele>1211.0</ele><time>2026-05-03T13:47:35.999Z</time></trkpt><trkpt lat="44.37238198340801" lon="7.3657915677319235"><ele>1211.0</ele><time>2026-05-03T13:47:36.999Z</time></trkpt><trkpt lat="44.37229052311827" lon="7.365726828002038"><ele>1211.5</ele><time>2026-05-03T13:47:37.999Z</time></trkpt><trkpt lat="44.37217642002343" lon="7.365676201897573"><ele>1212.0</ele><time>2026-05-03T13:47:38.999Z</time></trkpt><trkpt lat="44.37206352601718" lon="7.365605191683943"><ele>1212.5</ele><time>2026-05-03T13:47:39.999Z</time></trkpt><trkpt lat="44.37193593951434" lon="7.365478461638715"><ele>1213.0</ele><time>2026-05-03T13:47:40.999Z</time></trkpt><trkpt lat="44.371795676401476" lon="7.365356579869119"><ele>1213.0</ele><time>2026-05-03T13:47:41.999Z</time></trkpt><trkpt lat="44.37168101222569" lon="7.365235356160326"><ele>1213.0</ele><time>2026-05-03T13:47:42.999Z</time></trkpt><trkpt lat="44.371579889874646" lon="7.365098526035793"><ele>1213.0</ele><time>2026-05-03T13:47:43.999Z</time></trkpt><trkpt lat="44.371467390433075" lon="7.364996165190528"><ele>1213.0</ele><time>2026-05-03T13:47:44.999Z</time></trkpt><trkpt lat="44.371361563229414" lon="7.364928492484556"><ele>1213.75</ele><time>2026-05-03T13:47:45.999Z</time></trkpt><trkpt lat="44.37125524413556" lon="7.3648364782622595"><ele>1214.5</ele><time>2026-05-03T13:47:46.999Z</time></trkpt><trkpt lat="44.37117178877885" lon="7.364692323593388"><ele>1215.25</ele><time>2026-05-03T13:47:47.999Z</time></trkpt><trkpt lat="44.37107688673848" lon="7.3645700537497785"><ele>1216.0</ele><time>2026-05-03T13:47:48.999Z</time></trkpt><trkpt lat="44.37096885988732" lon="7.3644800258189855"><ele>1216.0</ele><time>2026-05-03T13:47:49.999Z</time></trkpt><trkpt lat="44.37088765220707" lon="7.364422929168846"><ele>1216.0</ele><time>2026-05-03T13:47:50.999Z</time></trkpt><trkpt lat="44.37082509856725" lon="7.364366001151373"><ele>1216.0</ele><time>2026-05-03T13:47:51.999Z</time></trkpt><trkpt lat="44.370767316139315" lon="7.364281779384593"><ele>1216.0</ele><time>2026-05-03T13:47:52.999Z</time></trkpt><trkpt lat="44.37070777021816" lon="7.364195800426938"><ele>1216.0</ele><time>2026-05-03T13:47:53.999Z</time></trkpt><trkpt lat="44.370633218665375" lon="7.364128438069491"><ele>1216.0</ele><time>2026-05-03T13:47:54.999Z</time></trkpt><trkpt lat="44.37053984326861" lon="7.364053151045379"><ele>1215.5</ele><time>2026-05-03T13:47:55.999Z</time></trkpt><trkpt lat="44.37044823136211" lon="7.3639632489917455"><ele>1215.0</ele><time>2026-05-03T13:47:56.999Z</time></trkpt><trkpt lat="44.37034410275613" lon="7.363865629351673"><ele>1214.5</ele><time>2026-05-03T13:47:57.999Z</time></trkpt><trkpt lat="44.370249203372765" lon="7.363744943424231"><ele>1214.0</ele><time>2026-05-03T13:47:58.999Z</time></trkpt><trkpt lat="44.370155802817735" lon="7.363641394817974"><ele>1214.0</ele><time>2026-05-03T13:47:59.999Z</time></trkpt><trkpt lat="44.37008199666865" lon="7.363538730121337"><ele>1214.0</ele><time>2026-05-03T13:48:00.998Z</time></trkpt><trkpt lat="44.3700235549844" lon="7.363418655706581"><ele>1214.0</ele><time>2026-05-03T13:48:02Z</time></trkpt><trkpt lat="44.36996126795496" lon="7.363302631744363"><ele>1214.0</ele><time>2026-05-03T13:48:03Z</time></trkpt><trkpt lat="44.36990555250601" lon="7.363183524676605"><ele>1214.0</ele><time>2026-05-03T13:48:04Z</time></trkpt><trkpt lat="44.369846517945334" lon="7.363031217575242"><ele>1211.25</ele><time>2026-05-03T13:48:05Z</time></trkpt><trkpt lat="44.369789297109484" lon="7.362903245630485"><ele>1208.5</ele><time>2026-05-03T13:48:06Z</time></trkpt><trkpt lat="44.36972073252352" lon="7.362765666905089"><ele>1205.75</ele><time>2026-05-03T13:48:07Z</time></trkpt><trkpt lat="44.36964391702063" lon="7.3626488697796155"><ele>1203.0</ele><time>2026-05-03T13:48:08Z</time></trkpt><trkpt lat="44.36957544611017" lon="7.362518944643326"><ele>1201.25</ele><time>2026-05-03T13:48:09Z</time></trkpt><trkpt lat="44.36954626179793" lon="7.362377407976511"><ele>1199.5</ele><time>2026-05-03T13:48:10Z</time></trkpt><trkpt lat="44.3695396088654" lon="7.362224640524073"><ele>1197.75</ele><time>2026-05-03T13:48:11Z</time></trkpt><trkpt lat="44.36953952657341" lon="7.362041428085354"><ele>1196.0</ele><time>2026-05-03T13:48:12Z</time></trkpt><trkpt lat="44.36954361167243" lon="7.361866524613786"><ele>1196.0</ele><time>2026-05-03T13:48:13Z</time></trkpt><trkpt lat="44.36954124534174" lon="7.361706694940686"><ele>1196.0</ele><time>2026-05-03T13:48:14Z</time></trkpt><trkpt lat="44.3695334097705" lon="7.361554960218329"><ele>1196.0</ele><time>2026-05-03T13:48:15Z</time></trkpt><trkpt lat="44.36952232189475" lon="7.361397695071172"><ele>1196.0</ele><time>2026-05-03T13:48:16Z</time></trkpt><trkpt lat="44.36950109542942" lon="7.361228930975828"><ele>1195.75</ele><time>2026-05-03T13:48:17Z</time></trkpt><trkpt lat="44.36947264395445" lon="7.361071034052108"><ele>1195.5</ele><time>2026-05-03T13:48:18Z</time></trkpt><trkpt lat="44.36944289048903" lon="7.360919498433372"><ele>1195.25</ele><time>2026-05-03T13:48:19Z</time></trkpt><trkpt lat="44.36942396851276" lon="7.360752508066623"><ele>1195.0</ele><time>2026-05-03T13:48:20Z</time></trkpt><trkpt lat="44.36941242032345" lon="7.360587792549175"><ele>1194.8</ele><time>2026-05-03T13:48:21Z</time></trkpt><trkpt lat="44.36939788611556" lon="7.36044431736615"><ele>1194.6</ele><time>2026-05-03T13:48:22Z</time></trkpt><trkpt lat="44.369395584898946" lon="7.3603029706442475"><ele>1194.4</ele><time>2026-05-03T13:48:23Z</time></trkpt><trkpt lat="44.36936396218985" lon="7.360157355124238"><ele>1194.2</ele><time>2026-05-03T13:48:24Z</time></trkpt><trkpt lat="44.36932210500023" lon="7.360016891735998"><ele>1194.0</ele><time>2026-05-03T13:48:25Z</time></trkpt><trkpt lat="44.36927527493527" lon="7.359875639924047"><ele>1194.0</ele><time>2026-05-03T13:48:26Z</time></trkpt><trkpt lat="44.369228941007755" lon="7.3597374438160825"><ele>1194.0</ele><time>2026-05-03T13:48:27Z</time></trkpt><trkpt lat="44.369185382904256" lon="7.359601723364384"><ele>1194.0</ele><time>2026-05-03T13:48:28Z</time></trkpt><trkpt lat="44.36914820945631" lon="7.3594473733130386"><ele>1194.0</ele><time>2026-05-03T13:48:29Z</time></trkpt><trkpt lat="44.369127040466815" lon="7.3593186045380685"><ele>1194.0</ele><time>2026-05-03T13:48:30Z</time></trkpt><trkpt lat="44.36911771852485" lon="7.359169241666211"><ele>1194.2</ele><time>2026-05-03T13:48:31Z</time></trkpt><trkpt lat="44.36913040557483" lon="7.359019970112845"><ele>1194.4</ele><time>2026-05-03T13:48:32Z</time></trkpt><trkpt lat="44.369122333861796" lon="7.358866718486483"><ele>1194.6</ele><time>2026-05-03T13:48:33Z</time></trkpt><trkpt lat="44.369097974292394" lon="7.358721462170892"><ele>1194.8</ele><time>2026-05-03T13:48:34Z</time></trkpt><trkpt lat="44.369056400417705" lon="7.358591734042452"><ele>1195.0</ele><time>2026-05-03T13:48:35Z</time></trkpt><trkpt lat="44.369017017538646" lon="7.358484456489266"><ele>1196.0</ele><time>2026-05-03T13:48:36Z</time></trkpt><trkpt lat="44.368982026034786" lon="7.358374655754685"><ele>1197.0</ele><time>2026-05-03T13:48:37Z</time></trkpt><trkpt lat="44.36897246166522" lon="7.358256198422872"><ele>1198.0</ele><time>2026-05-03T13:48:38Z</time></trkpt><trkpt lat="44.36897851983562" lon="7.358135864975832"><ele>1199.0</ele><time>2026-05-03T13:48:39Z</time></trkpt><trkpt lat="44.36896747785073" lon="7.357998086100416"><ele>1200.0</ele><time>2026-05-03T13:48:40Z</time></trkpt><trkpt lat="44.368941822817895" lon="7.357857572858968"><ele>1198.6</ele><time>2026-05-03T13:48:41Z</time></trkpt><trkpt lat="44.36889758513238" lon="7.357738758719355"><ele>1197.2</ele><time>2026-05-03T13:48:42Z</time></trkpt><trkpt lat="44.368842481594335" lon="7.3576348998345305"><ele>1195.8</ele><time>2026-05-03T13:48:43Z</time></trkpt><trkpt lat="44.36878286777341" lon="7.357538088378383"><ele>1194.4</ele><time>2026-05-03T13:48:44Z</time></trkpt><trkpt lat="44.36872782695813" lon="7.357433434733442"><ele>1193.0</ele><time>2026-05-03T13:48:45Z</time></trkpt><trkpt lat="44.36868513399015" lon="7.3573098212905625"><ele>1192.1666666666667</ele><time>2026-05-03T13:48:46Z</time></trkpt><trkpt lat="44.368623139055586" lon="7.357201603305718"><ele>1191.3333333333335</ele><time>2026-05-03T13:48:47Z</time></trkpt><trkpt lat="44.368552741362585" lon="7.357114928767979"><ele>1190.5</ele><time>2026-05-03T13:48:48Z</time></trkpt><trkpt lat="44.36848624468774" lon="7.3570453790871495"><ele>1189.6666666666667</ele><time>2026-05-03T13:48:49Z</time></trkpt><trkpt lat="44.368421886482295" lon="7.356963478594762"><ele>1188.8333333333333</ele><time>2026-05-03T13:48:50Z</time></trkpt><trkpt lat="44.36837124259525" lon="7.356888627813833"><ele>1188.0</ele><time>2026-05-03T13:48:51Z</time></trkpt><trkpt lat="44.368331839843805" lon="7.356817267875948"><ele>1188.0</ele><time>2026-05-03T13:48:52Z</time></trkpt><trkpt lat="44.36829864389864" lon="7.356739810479072"><ele>1188.0</ele><time>2026-05-03T13:48:53Z</time></trkpt><trkpt lat="44.36822990748304" lon="7.356594896367303"><ele>1188.0</ele><time>2026-05-03T13:48:55Z</time></trkpt><trkpt lat="44.36814368709728" lon="7.356482923202784"><ele>1188.0</ele><time>2026-05-03T13:48:57Z</time></trkpt><trkpt lat="44.368097375720914" lon="7.356415377708546"><ele>1188.0</ele><time>2026-05-03T13:48:58Z</time></trkpt><trkpt lat="44.368008515409805" lon="7.356314011722651"><ele>1188.1666666666667</ele><time>2026-05-03T13:49:00Z</time></trkpt><trkpt lat="44.36792939281518" lon="7.356254304982974"><ele>1188.3333333333333</ele><time>2026-05-03T13:49:02Z</time></trkpt><trkpt lat="44.36788300043219" lon="7.356153624942749"><ele>1188.5</ele><time>2026-05-03T13:49:05Z</time></trkpt><trkpt lat="44.3678505384325" lon="7.356062252331808"><ele>1188.6666666666665</ele><time>2026-05-03T13:49:09Z</time></trkpt><trkpt lat="44.36781408187038" lon="7.355964944582611"><ele>1188.8333333333333</ele><time>2026-05-03T13:49:12.999Z</time></trkpt><trkpt lat="44.36777636458664" lon="7.355870212288039"><ele>1189.0</ele><time>2026-05-03T13:49:16.999Z</time></trkpt><trkpt lat="44.36774494378922" lon="7.35577818404003"><ele>1189.0</ele><time>2026-05-03T13:49:19.999Z</time></trkpt><trkpt lat="44.36771690147252" lon="7.355693260885741"><ele>1189.0</ele><time>2026-05-03T13:49:22.999Z</time></trkpt><trkpt lat="44.367665449806175" lon="7.355609095318904"><ele>1189.0</ele><time>2026-05-03T13:49:24.999Z</time></trkpt><trkpt lat="44.367583141517535" lon="7.355552045297483"><ele>1189.0</ele><time>2026-05-03T13:49:26.999Z</time></trkpt><trkpt lat="44.367472682184975" lon="7.355483170385059"><ele>1189.0</ele><time>2026-05-03T13:49:28.999Z</time></trkpt><trkpt lat="44.367410386698936" lon="7.3554587521382295"><ele>1189.0</ele><time>2026-05-03T13:49:29.999Z</time></trkpt><trkpt lat="44.36734285017504" lon="7.355426156307119"><ele>1190.2</ele><time>2026-05-03T13:49:30.999Z</time></trkpt><trkpt lat="44.36725492102648" lon="7.355406724066039"><ele>1191.4</ele><time>2026-05-03T13:49:31.999Z</time></trkpt><trkpt lat="44.36716272482518" lon="7.355328391117434"><ele>1192.6</ele><time>2026-05-03T13:49:32.999Z</time></trkpt><trkpt lat="44.3670723986096" lon="7.355264718963377"><ele>1193.8</ele><time>2026-05-03T13:49:33.999Z</time></trkpt><trkpt lat="44.3669818268983" lon="7.355184856747239"><ele>1195.0</ele><time>2026-05-03T13:49:34.999Z</time></trkpt><trkpt lat="44.36689509790058" lon="7.355087900897414"><ele>1195.8</ele><time>2026-05-03T13:49:35.999Z</time></trkpt><trkpt lat="44.36681531474813" lon="7.354995406953018"><ele>1196.6</ele><time>2026-05-03T13:49:36.999Z</time></trkpt><trkpt lat="44.36672801960232" lon="7.3549229344567575"><ele>1197.4</ele><time>2026-05-03T13:49:37.999Z</time></trkpt><trkpt lat="44.366639551683235" lon="7.354879717227225"><ele>1198.2</ele><time>2026-05-03T13:49:38.999Z</time></trkpt><trkpt lat="44.36653457628167" lon="7.35484209453449"><ele>1199.0</ele><time>2026-05-03T13:49:39.999Z</time></trkpt><trkpt lat="44.366436952289305" lon="7.354768023533529"><ele>1202.2</ele><time>2026-05-03T13:49:40.999Z</time></trkpt><trkpt lat="44.366338208122734" lon="7.354684348230791"><ele>1205.4</ele><time>2026-05-03T13:49:41.999Z</time></trkpt><trkpt lat="44.36625667037753" lon="7.3546076332325745"><ele>1208.6</ele><time>2026-05-03T13:49:42.999Z</time></trkpt><trkpt lat="44.36617038913159" lon="7.354538536769342"><ele>1211.8</ele><time>2026-05-03T13:49:43.999Z</time></trkpt><trkpt lat="44.366084909151695" lon="7.3544810418170155"><ele>1215.0</ele><time>2026-05-03T13:49:44.999Z</time></trkpt><trkpt lat="44.36600903856382" lon="7.354419471905082"><ele>1215.0</ele><time>2026-05-03T13:49:45.999Z</time></trkpt><trkpt lat="44.36596657400432" lon="7.354336247046393"><ele>1215.0</ele><time>2026-05-03T13:49:46.999Z</time></trkpt><trkpt lat="44.365906669885824" lon="7.3542759358034795"><ele>1215.0</ele><time>2026-05-03T13:49:47.999Z</time></trkpt><trkpt lat="44.36586546132364" lon="7.354188627591873"><ele>1215.0</ele><time>2026-05-03T13:49:48.999Z</time></trkpt><trkpt lat="44.365833368044264" lon="7.354081005698283"><ele>1215.0</ele><time>2026-05-03T13:49:49.999Z</time></trkpt><trkpt lat="44.365847137095066" lon="7.353953288629587"><ele>1215.0</ele><time>2026-05-03T13:49:50.999Z</time></trkpt><trkpt lat="44.36584136880965" lon="7.353808102569245"><ele>1216.1666666666667</ele><time>2026-05-03T13:49:51.999Z</time></trkpt><trkpt lat="44.36582503104532" lon="7.353681615140125"><ele>1217.3333333333333</ele><time>2026-05-03T13:49:52.999Z</time></trkpt><trkpt lat="44.36581446494555" lon="7.3535565912801655"><ele>1218.5</ele><time>2026-05-03T13:49:53.999Z</time></trkpt><trkpt lat="44.36582315282461" lon="7.353458607899464"><ele>1219.6666666666665</ele><time>2026-05-03T13:49:54.999Z</time></trkpt><trkpt lat="44.36583814542853" lon="7.353337534419002"><ele>1220.8333333333333</ele><time>2026-05-03T13:49:56.999Z</time></trkpt><trkpt lat="44.365931749202076" lon="7.353413924429605"><ele>1222.0</ele><time>2026-05-03T13:49:58.999Z</time></trkpt><trkpt lat="44.36594898961442" lon="7.353509877713236"><ele>1222.0</ele><time>2026-05-03T13:49:59.999Z</time></trkpt><trkpt lat="44.36600363544603" lon="7.353599032674922"><ele>1222.0</ele><time>2026-05-03T13:50:00.999Z</time></trkpt><trkpt lat="44.36608123745744" lon="7.353664646350758"><ele>1222.0</ele><time>2026-05-03T13:50:01.999Z</time></trkpt><trkpt lat="44.36615404556845" lon="7.353724227731728"><ele>1222.0</ele><time>2026-05-03T13:50:02.999Z</time></trkpt><trkpt lat="44.36627497308869" lon="7.353718626164771"><ele>1222.0</ele><time>2026-05-03T13:50:04.999Z</time></trkpt><trkpt lat="44.366312812909385" lon="7.353610364746284"><ele>1222.0000000000002</ele><time>2026-05-03T13:50:05.999Z</time></trkpt><trkpt lat="44.366302289083954" lon="7.353499126974511"><ele>1222.0</ele><time>2026-05-03T13:50:07.001Z</time></trkpt><trkpt lat="44.366312896075705" lon="7.353411422383367"><ele>1222.0</ele><time>2026-05-03T13:50:08.001Z</time></trkpt><trkpt lat="44.36633508389654" lon="7.3533215360985755"><ele>1222.0</ele><time>2026-05-03T13:50:09.001Z</time></trkpt><trkpt lat="44.36634390158322" lon="7.3532208314257215"><ele>1222.0</ele><time>2026-05-03T13:50:10.001Z</time></trkpt><trkpt lat="44.36635910176276" lon="7.353130936963406"><ele>1222.0000000000002</ele><time>2026-05-03T13:50:11.001Z</time></trkpt><trkpt lat="44.36637317864033" lon="7.353037028080719"><ele>1222.0</ele><time>2026-05-03T13:50:12Z</time></trkpt><trkpt lat="44.366404510312215" lon="7.352946659077521"><ele>1225.5</ele><time>2026-05-03T13:50:13.001Z</time></trkpt><trkpt lat="44.36642291686172" lon="7.352840986916685"><ele>1229.0</ele><time>2026-05-03T13:50:14.001Z</time></trkpt><trkpt lat="44.36644300166304" lon="7.352734593312468"><ele>1232.5</ele><time>2026-05-03T13:50:15.001Z</time></trkpt><trkpt lat="44.366466645829846" lon="7.3526243069301005"><ele>1236.0</ele><time>2026-05-03T13:50:16.001Z</time></trkpt><trkpt lat="44.3664884575052" lon="7.352531371609867"><ele>1239.5</ele><time>2026-05-03T13:50:17.001Z</time></trkpt><trkpt lat="44.36653051053155" lon="7.352369768652451"><ele>1243.0</ele><time>2026-05-03T13:50:19.001Z</time></trkpt><trkpt lat="44.36656774330723" lon="7.352221831256531"><ele>1244.6</ele><time>2026-05-03T13:50:21Z</time></trkpt><trkpt lat="44.36660861637311" lon="7.352047744308475"><ele>1246.1999999999998</ele><time>2026-05-03T13:50:23Z</time></trkpt><trkpt lat="44.36663024555671" lon="7.351940775329767"><ele>1247.8</ele><time>2026-05-03T13:50:24Z</time></trkpt><trkpt lat="44.366649115385506" lon="7.351831563940433"><ele>1249.3999999999999</ele><time>2026-05-03T13:50:25Z</time></trkpt><trkpt lat="44.36666703734148" lon="7.351714138578498"><ele>1251.0</ele><time>2026-05-03T13:50:26Z</time></trkpt><trkpt lat="44.366667726327485" lon="7.351572554546471"><ele>1251.0</ele><time>2026-05-03T13:50:27Z</time></trkpt><trkpt lat="44.36665349861133" lon="7.351458918176043"><ele>1251.0</ele><time>2026-05-03T13:50:28Z</time></trkpt><trkpt lat="44.3665872147821" lon="7.351360572753686"><ele>1251.0</ele><time>2026-05-03T13:50:29Z</time></trkpt><trkpt lat="44.36652083608681" lon="7.351253365649808"><ele>1251.0</ele><time>2026-05-03T13:50:30Z</time></trkpt><trkpt lat="44.36645591761277" lon="7.351130425423572"><ele>1251.0</ele><time>2026-05-03T13:50:31Z</time></trkpt><trkpt lat="44.36642806185131" lon="7.350970784742391"><ele>1250.5</ele><time>2026-05-03T13:50:32Z</time></trkpt><trkpt lat="44.36636033658597" lon="7.350815077322481"><ele>1250.0</ele><time>2026-05-03T13:50:33Z</time></trkpt><trkpt lat="44.366303431060544" lon="7.350661308559842"><ele>1249.5</ele><time>2026-05-03T13:50:34Z</time></trkpt><trkpt lat="44.36623887297074" lon="7.350510225784343"><ele>1249.0</ele><time>2026-05-03T13:50:35Z</time></trkpt><trkpt lat="44.36617573626234" lon="7.350367943898332"><ele>1249.0</ele><time>2026-05-03T13:50:36Z</time></trkpt><trkpt lat="44.36611283159521" lon="7.350224147125454"><ele>1249.0</ele><time>2026-05-03T13:50:37Z</time></trkpt><trkpt lat="44.36606044041662" lon="7.350069310477755"><ele>1249.0</ele><time>2026-05-03T13:50:38Z</time></trkpt><trkpt lat="44.36604274765494" lon="7.3499089077413045"><ele>1249.0</ele><time>2026-05-03T13:50:39Z</time></trkpt><trkpt lat="44.366016271772125" lon="7.349766124047625"><ele>1250.8</ele><time>2026-05-03T13:50:40Z</time></trkpt><trkpt lat="44.36599496762058" lon="7.349611849559081"><ele>1252.6000000000001</ele><time>2026-05-03T13:50:41Z</time></trkpt><trkpt lat="44.365954847143705" lon="7.349468056766093"><ele>1254.4</ele><time>2026-05-03T13:50:42Z</time></trkpt><trkpt lat="44.36592465743658" lon="7.349326507727067"><ele>1256.2</ele><time>2026-05-03T13:50:43Z</time></trkpt><trkpt lat="44.36589695743383" lon="7.349170466985538"><ele>1258.0</ele><time>2026-05-03T13:50:44Z</time></trkpt><trkpt lat="44.36581288906227" lon="7.349045969004397"><ele>1258.0</ele><time>2026-05-03T13:50:45Z</time></trkpt><trkpt lat="44.36574485000239" lon="7.348910363717859"><ele>1258.0</ele><time>2026-05-03T13:50:46Z</time></trkpt><trkpt lat="44.365699793609714" lon="7.348777886000379"><ele>1258.0</ele><time>2026-05-03T13:50:47Z</time></trkpt><trkpt lat="44.36569322677181" lon="7.34865972358994"><ele>1258.0</ele><time>2026-05-03T13:50:48Z</time></trkpt><trkpt lat="44.36568522388349" lon="7.3485533008891775"><ele>1258.0</ele><time>2026-05-03T13:50:49Z</time></trkpt><trkpt lat="44.3656926300651" lon="7.348445232285137"><ele>1260.4</ele><time>2026-05-03T13:50:50Z</time></trkpt><trkpt lat="44.365716185928115" lon="7.348320096457728"><ele>1262.8</ele><time>2026-05-03T13:50:51Z</time></trkpt><trkpt lat="44.36572144546408" lon="7.348195087979641"><ele>1265.2</ele><time>2026-05-03T13:50:52Z</time></trkpt><trkpt lat="44.365704896259935" lon="7.348072188058506"><ele>1267.6</ele><time>2026-05-03T13:50:53Z</time></trkpt><trkpt lat="44.36568361547622" lon="7.347952535667297"><ele>1270.0</ele><time>2026-05-03T13:50:54Z</time></trkpt><trkpt lat="44.36565172942874" lon="7.347833524764777"><ele>1272.0</ele><time>2026-05-03T13:50:55Z</time></trkpt><trkpt lat="44.365613117215624" lon="7.347730435002175"><ele>1274.0</ele><time>2026-05-03T13:50:56Z</time></trkpt><trkpt lat="44.365564655440245" lon="7.347639395978352"><ele>1276.0</ele><time>2026-05-03T13:50:57Z</time></trkpt><trkpt lat="44.36551385848508" lon="7.347561950674432"><ele>1278.0</ele><time>2026-05-03T13:50:58Z</time></trkpt><trkpt lat="44.365452729997195" lon="7.347495754549573"><ele>1280.0</ele><time>2026-05-03T13:50:59Z</time></trkpt><trkpt lat="44.36540328083821" lon="7.347407632568239"><ele>1282.0</ele><time>2026-05-03T13:51:00Z</time></trkpt><trkpt lat="44.36536169234514" lon="7.3473051403963785"><ele>1278.3999999999999</ele><time>2026-05-03T13:51:01Z</time></trkpt><trkpt lat="44.365386280054686" lon="7.347180451174195"><ele>1274.8</ele><time>2026-05-03T13:51:02Z</time></trkpt><trkpt lat="44.36539164544344" lon="7.347047621764886"><ele>1271.2</ele><time>2026-05-03T13:51:03Z</time></trkpt><trkpt lat="44.36535399527125" lon="7.346918527895811"><ele>1267.6</ele><time>2026-05-03T13:51:04Z</time></trkpt><trkpt lat="44.36534590559188" lon="7.346783194852873"><ele>1264.0</ele><time>2026-05-03T13:51:05Z</time></trkpt><trkpt lat="44.365325388418235" lon="7.346650742498301"><ele>1264.0</ele><time>2026-05-03T13:51:06Z</time></trkpt><trkpt lat="44.365326596014036" lon="7.3465203934077605"><ele>1264.0</ele><time>2026-05-03T13:51:07Z</time></trkpt><trkpt lat="44.36535428155903" lon="7.34638642902299"><ele>1264.0</ele><time>2026-05-03T13:51:08Z</time></trkpt><trkpt lat="44.3654061131895" lon="7.346270248557955"><ele>1264.0</ele><time>2026-05-03T13:51:09Z</time></trkpt><trkpt lat="44.36546298984226" lon="7.3461460929039895"><ele>1264.0</ele><time>2026-05-03T13:51:10Z</time></trkpt><trkpt lat="44.365521158348756" lon="7.346019117267963"><ele>1273.5</ele><time>2026-05-03T13:51:11Z</time></trkpt><trkpt lat="44.3655803962047" lon="7.34588020267335"><ele>1283.0</ele><time>2026-05-03T13:51:12Z</time></trkpt><trkpt lat="44.365632286778904" lon="7.345730939970819"><ele>1292.5</ele><time>2026-05-03T13:51:13Z</time></trkpt><trkpt lat="44.36566076271811" lon="7.3455702769172975"><ele>1302.0</ele><time>2026-05-03T13:51:14Z</time></trkpt><trkpt lat="44.365711255046484" lon="7.345435425502853"><ele>1303.5</ele><time>2026-05-03T13:51:15Z</time></trkpt><trkpt lat="44.36573041800966" lon="7.3452732888548935"><ele>1305.0</ele><time>2026-05-03T13:51:15.999Z</time></trkpt><trkpt lat="44.36572739643719" lon="7.345101495156721"><ele>1306.5</ele><time>2026-05-03T13:51:16.999Z</time></trkpt><trkpt lat="44.36571093611964" lon="7.344929061495346"><ele>1308.0</ele><time>2026-05-03T13:51:17.999Z</time></trkpt><trkpt lat="44.36568222212821" lon="7.344771932417465"><ele>1309.8000000000002</ele><time>2026-05-03T13:51:18.999Z</time></trkpt><trkpt lat="44.365642625442995" lon="7.344616225747553"><ele>1311.6</ele><time>2026-05-03T13:51:19.999Z</time></trkpt><trkpt lat="44.3656095620192" lon="7.344476417469847"><ele>1313.4</ele><time>2026-05-03T13:51:20.999Z</time></trkpt><trkpt lat="44.36557739805896" lon="7.3443416226311005"><ele>1315.1999999999998</ele><time>2026-05-03T13:51:21.999Z</time></trkpt><trkpt lat="44.36554685239566" lon="7.344220644446509"><ele>1317.0</ele><time>2026-05-03T13:51:22.999Z</time></trkpt><trkpt lat="44.365514233344086" lon="7.344094290930665"><ele>1314.1999999999998</ele><time>2026-05-03T13:51:23.999Z</time></trkpt><trkpt lat="44.36547910914994" lon="7.343961438807234"><ele>1311.4</ele><time>2026-05-03T13:51:24.999Z</time></trkpt><trkpt lat="44.36542735836313" lon="7.343830562042479"><ele>1308.6</ele><time>2026-05-03T13:51:25.999Z</time></trkpt><trkpt lat="44.36538090499312" lon="7.343692822875328"><ele>1305.8000000000002</ele><time>2026-05-03T13:51:26.999Z</time></trkpt><trkpt lat="44.36533337093656" lon="7.343558138576383"><ele>1303.0</ele><time>2026-05-03T13:51:27.999Z</time></trkpt><trkpt lat="44.36528680626679" lon="7.343436151086404"><ele>1303.0</ele><time>2026-05-03T13:51:28.999Z</time></trkpt><trkpt lat="44.365252691558524" lon="7.343299431279461"><ele>1303.0</ele><time>2026-05-03T13:51:29.999Z</time></trkpt><trkpt lat="44.36520616883073" lon="7.343168444098841"><ele>1303.0</ele><time>2026-05-03T13:51:30.999Z</time></trkpt><trkpt lat="44.3651518574831" lon="7.34303707219104"><ele>1303.0</ele><time>2026-05-03T13:51:31.999Z</time></trkpt><trkpt lat="44.365059971471986" lon="7.3429567763657015"><ele>1303.0</ele><time>2026-05-03T13:51:32.999Z</time></trkpt><trkpt lat="44.36497366091651" lon="7.342914265029927"><ele>1304.8333333333333</ele><time>2026-05-03T13:51:33.999Z</time></trkpt><trkpt lat="44.36490202094164" lon="7.34287469640177"><ele>1306.6666666666665</ele><time>2026-05-03T13:51:34.999Z</time></trkpt><trkpt lat="44.36484763318508" lon="7.342792095762726"><ele>1308.5</ele><time>2026-05-03T13:51:35.999Z</time></trkpt><trkpt lat="44.36480780878746" lon="7.3426767718533466"><ele>1310.3333333333333</ele><time>2026-05-03T13:51:36.999Z</time></trkpt><trkpt lat="44.364787393234" lon="7.342550756894385"><ele>1312.1666666666667</ele><time>2026-05-03T13:51:37.999Z</time></trkpt><trkpt lat="44.364806800362224" lon="7.342421800036585"><ele>1314.0</ele><time>2026-05-03T13:51:38.999Z</time></trkpt><trkpt lat="44.36480698338239" lon="7.3422776929503915"><ele>1315.6</ele><time>2026-05-03T13:51:39.999Z</time></trkpt><trkpt lat="44.36477800382449" lon="7.342140131004167"><ele>1317.2</ele><time>2026-05-03T13:51:40.999Z</time></trkpt><trkpt lat="44.364757597334076" lon="7.341998766607291"><ele>1318.8</ele><time>2026-05-03T13:51:41.999Z</time></trkpt><trkpt lat="44.3647466785009" lon="7.341862444615212"><ele>1320.3999999999999</ele><time>2026-05-03T13:51:42.999Z</time></trkpt><trkpt lat="44.36476439068027" lon="7.341737900184393"><ele>1322.0</ele><time>2026-05-03T13:51:43.999Z</time></trkpt><trkpt lat="44.364779298200176" lon="7.341611207779159"><ele>1322.0</ele><time>2026-05-03T13:51:44.999Z</time></trkpt><trkpt lat="44.36480661801816" lon="7.341498194510767"><ele>1322.0</ele><time>2026-05-03T13:51:45.999Z</time></trkpt><trkpt lat="44.36484547467086" lon="7.34139756357259"><ele>1322.0</ele><time>2026-05-03T13:51:46.999Z</time></trkpt><trkpt lat="44.36488958130076" lon="7.341304281378761"><ele>1322.0</ele><time>2026-05-03T13:51:47.999Z</time></trkpt><trkpt lat="44.36493249748699" lon="7.341209673303563"><ele>1322.0</ele><time>2026-05-03T13:51:48.999Z</time></trkpt><trkpt lat="44.36496855997467" lon="7.3410727945339405"><ele>1322.0</ele><time>2026-05-03T13:51:50.999Z</time></trkpt><trkpt lat="44.3650108877953" lon="7.340983566258891"><ele>1323.8</ele><time>2026-05-03T13:51:52.999Z</time></trkpt><trkpt lat="44.365072616274006" lon="7.340928845635415"><ele>1325.6</ele><time>2026-05-03T13:51:53.999Z</time></trkpt><trkpt lat="44.365241992292916" lon="7.340988968451642"><ele>1327.3999999999999</ele><time>2026-05-03T13:51:55.999Z</time></trkpt><trkpt lat="44.3653139460637" lon="7.341077230567602"><ele>1329.1999999999998</ele><time>2026-05-03T13:51:56.999Z</time></trkpt><trkpt lat="44.36538806935857" lon="7.341137119189201"><ele>1331.0</ele><time>2026-05-03T13:51:57.999Z</time></trkpt><trkpt lat="44.365457869441585" lon="7.341159385843027"><ele>1332.142857142857</ele><time>2026-05-03T13:51:58.999Z</time></trkpt><trkpt lat="44.36553778359895" lon="7.341162952056153"><ele>1333.2857142857142</ele><time>2026-05-03T13:51:59.999Z</time></trkpt><trkpt lat="44.36561309956075" lon="7.341178058755877"><ele>1334.4285714285716</ele><time>2026-05-03T13:52:00.999Z</time></trkpt><trkpt lat="44.36567124442733" lon="7.34121240696116"><ele>1335.5714285714284</ele><time>2026-05-03T13:52:01.999Z</time></trkpt><trkpt lat="44.36571503601791" lon="7.341284480885365"><ele>1336.7142857142856</ele><time>2026-05-03T13:52:02.999Z</time></trkpt><trkpt lat="44.3657442061827" lon="7.341385214989935"><ele>1337.857142857143</ele><time>2026-05-03T13:52:03.999Z</time></trkpt><trkpt lat="44.365761077246724" lon="7.341484899272688"><ele>1339.0</ele><time>2026-05-03T13:52:04.999Z</time></trkpt><trkpt lat="44.365810225433194" lon="7.341589479967397"><ele>1339.0</ele><time>2026-05-03T13:52:06.999Z</time></trkpt><trkpt lat="44.365919845149755" lon="7.341504943551727"><ele>1339.0</ele><time>2026-05-03T13:52:08.999Z</time></trkpt><trkpt lat="44.365977392385496" lon="7.341435720791903"><ele>1339.0</ele><time>2026-05-03T13:52:09.999Z</time></trkpt><trkpt lat="44.36605028039662" lon="7.341400779451637"><ele>1339.0</ele><time>2026-05-03T13:52:10.998Z</time></trkpt><trkpt lat="44.366182512952584" lon="7.3413582687655765"><ele>1339.0</ele><time>2026-05-03T13:52:13.001Z</time></trkpt><trkpt lat="44.3662599912399" lon="7.341357940171922"><ele>1341.0</ele><time>2026-05-03T13:52:14.001Z</time></trkpt><trkpt lat="44.36633279889353" lon="7.341381624669978"><ele>1343.0</ele><time>2026-05-03T13:52:15.001Z</time></trkpt><trkpt lat="44.36641346767857" lon="7.341406872871107"><ele>1345.0</ele><time>2026-05-03T13:52:16.001Z</time></trkpt><trkpt lat="44.366489016987146" lon="7.341411786999443"><ele>1347.0</ele><time>2026-05-03T13:52:17.001Z</time></trkpt><trkpt lat="44.36657494022412" lon="7.341367743779797"><ele>1349.0</ele><time>2026-05-03T13:52:18Z</time></trkpt><trkpt lat="44.366660200135556" lon="7.341317248373667"><ele>1351.0</ele><time>2026-05-03T13:52:19.001Z</time></trkpt><trkpt lat="44.36674837035199" lon="7.341248944396706"><ele>1357.1999999999998</ele><time>2026-05-03T13:52:21.001Z</time></trkpt><trkpt lat="44.36680509176424" lon="7.341120410101906"><ele>1363.3999999999999</ele><time>2026-05-03T13:52:23.001Z</time></trkpt><trkpt lat="44.366907708661" lon="7.341022236029048"><ele>1369.6</ele><time>2026-05-03T13:52:25.001Z</time></trkpt><trkpt lat="44.36699297927463" lon="7.340984376526834"><ele>1375.8</ele><time>2026-05-03T13:52:27.001Z</time></trkpt><trkpt lat="44.367062620311124" lon="7.340933967657725"><ele>1382.0</ele><time>2026-05-03T13:52:30Z</time></trkpt><trkpt lat="44.36718640770616" lon="7.340870005288139"><ele>1385.3333333333335</ele><time>2026-05-03T13:52:32Z</time></trkpt><trkpt lat="44.367253534709626" lon="7.340808086445531"><ele>1388.6666666666667</ele><time>2026-05-03T13:52:33Z</time></trkpt><trkpt lat="44.367317919839564" lon="7.340733170201545"><ele>1392.0</ele><time>2026-05-03T13:52:34Z</time></trkpt><trkpt lat="44.36736535082897" lon="7.340652720943709"><ele>1395.3333333333333</ele><time>2026-05-03T13:52:35Z</time></trkpt><trkpt lat="44.36740418394927" lon="7.340577241108356"><ele>1398.6666666666665</ele><time>2026-05-03T13:52:36Z</time></trkpt><trkpt lat="44.367485169519355" lon="7.340472036941364"><ele>1402.0</ele><time>2026-05-03T13:52:38Z</time></trkpt><trkpt lat="44.36751605831922" lon="7.340391223183518"><ele>1404.5</ele><time>2026-05-03T13:52:39Z</time></trkpt><trkpt lat="44.36752490557278" lon="7.340296456478757"><ele>1407.0</ele><time>2026-05-03T13:52:40Z</time></trkpt><trkpt lat="44.367541379633394" lon="7.340190835846779"><ele>1409.5</ele><time>2026-05-03T13:52:41Z</time></trkpt><trkpt lat="44.36756837687857" lon="7.340099527123628"><ele>1412.0</ele><time>2026-05-03T13:52:42Z</time></trkpt><trkpt lat="44.36760309356498" lon="7.3400163661382125"><ele>1414.5</ele><time>2026-05-03T13:52:43Z</time></trkpt><trkpt lat="44.36764216254742" lon="7.339929832357317"><ele>1417.0</ele><time>2026-05-03T13:52:44Z</time></trkpt><trkpt lat="44.36767028210681" lon="7.339807528795283"><ele>1420.3999999999999</ele><time>2026-05-03T13:52:45Z</time></trkpt><trkpt lat="44.367683009463846" lon="7.3396639231142515"><ele>1423.8</ele><time>2026-05-03T13:52:46Z</time></trkpt><trkpt lat="44.367718322311596" lon="7.339515659219881"><ele>1427.2</ele><time>2026-05-03T13:52:47Z</time></trkpt><trkpt lat="44.367758523916024" lon="7.3393757835747255"><ele>1430.6</ele><time>2026-05-03T13:52:48Z</time></trkpt><trkpt lat="44.36778623863972" lon="7.339250582863675"><ele>1434.0</ele><time>2026-05-03T13:52:49Z</time></trkpt><trkpt lat="44.36780655750314" lon="7.33912205601453"><ele>1434.0</ele><time>2026-05-03T13:52:50Z</time></trkpt><trkpt lat="44.36783533215716" lon="7.338990260402397"><ele>1434.0</ele><time>2026-05-03T13:52:51Z</time></trkpt><trkpt lat="44.367854451547366" lon="7.338862297323839"><ele>1434.0</ele><time>2026-05-03T13:52:52Z</time></trkpt><trkpt lat="44.367869649826105" lon="7.338756617250942"><ele>1434.0</ele><time>2026-05-03T13:52:53Z</time></trkpt><trkpt lat="44.36789497989672" lon="7.338624538500945"><ele>1434.0</ele><time>2026-05-03T13:52:55Z</time></trkpt><trkpt lat="44.36788806481407" lon="7.338502855742859"><ele>1437.3333333333333</ele><time>2026-05-03T13:52:57Z</time></trkpt><trkpt lat="44.36782730026735" lon="7.338525907454769"><ele>1440.6666666666667</ele><time>2026-05-03T13:52:59Z</time></trkpt><trkpt lat="44.36775140020002" lon="7.338587307114477"><ele>1444.0</ele><time>2026-05-03T13:53:21Z</time></trkpt><trkpt lat="44.36765995534102" lon="7.338568528213498"><ele>1447.3333333333335</ele><time>2026-05-03T13:53:22.999Z</time></trkpt><trkpt lat="44.36756259103294" lon="7.3385407380340215"><ele>1450.6666666666667</ele><time>2026-05-03T13:53:24.999Z</time></trkpt><trkpt lat="44.367459542294554" lon="7.3385369878293645"><ele>1454.0</ele><time>2026-05-03T13:53:26.999Z</time></trkpt><trkpt lat="44.36736780898503" lon="7.338531746714972"><ele>1454.0</ele><time>2026-05-03T13:53:28.999Z</time></trkpt><trkpt lat="44.367293412264665" lon="7.338507657860944"><ele>1454.0</ele><time>2026-05-03T13:53:30.999Z</time></trkpt><trkpt lat="44.36721588261442" lon="7.338460579199681"><ele>1454.0</ele><time>2026-05-03T13:53:33.999Z</time></trkpt><trkpt lat="44.36713203012451" lon="7.338381503613512"><ele>1454.0</ele><time>2026-05-03T13:53:36.999Z</time></trkpt><trkpt lat="44.36706579115166" lon="7.33833245573672"><ele>1454.0</ele><time>2026-05-03T13:53:38.999Z</time></trkpt><trkpt lat="44.36700893449464" lon="7.33827637446287"><ele>1454.0</ele><time>2026-05-03T13:53:40.999Z</time></trkpt><trkpt lat="44.36694775347826" lon="7.338194107831513"><ele>1453.1666666666667</ele><time>2026-05-03T13:53:42.999Z</time></trkpt><trkpt lat="44.36692633575165" lon="7.338098582037623"><ele>1452.3333333333335</ele><time>2026-05-03T13:53:44.999Z</time></trkpt><trkpt lat="44.36687851959902" lon="7.338016226268694"><ele>1451.5</ele><time>2026-05-03T13:53:46.999Z</time></trkpt><trkpt lat="44.3668059084383" lon="7.338002730431442"><ele>1450.6666666666667</ele><time>2026-05-03T13:53:48.999Z</time></trkpt><trkpt lat="44.36675403757848" lon="7.337939772400168"><ele>1449.8333333333333</ele><time>2026-05-03T13:53:50.999Z</time></trkpt><trkpt lat="44.36666149023431" lon="7.3378308913931445"><ele>1449.0</ele><time>2026-05-03T13:53:52.999Z</time></trkpt><trkpt lat="44.36660296486218" lon="7.337703412773517"><ele>1452.6666666666667</ele><time>2026-05-03T13:53:54.999Z</time></trkpt><trkpt lat="44.366562395372874" lon="7.337614854543969"><ele>1456.3333333333333</ele><time>2026-05-03T13:53:55.999Z</time></trkpt><trkpt lat="44.36651513235113" lon="7.3375198276436135"><ele>1460.0</ele><time>2026-05-03T13:53:56.999Z</time></trkpt><trkpt lat="44.36646869465602" lon="7.337409618842243"><ele>1463.6666666666665</ele><time>2026-05-03T13:53:57.999Z</time></trkpt><trkpt lat="44.36642539080367" lon="7.337306557341411"><ele>1467.3333333333333</ele><time>2026-05-03T13:53:58.999Z</time></trkpt><trkpt lat="44.36637398283682" lon="7.337214634780706"><ele>1471.0</ele><time>2026-05-03T13:53:59.999Z</time></trkpt><trkpt lat="44.366329533813165" lon="7.337133966392348"><ele>1471.5</ele><time>2026-05-03T13:54:00.999Z</time></trkpt><trkpt lat="44.36628090804379" lon="7.337045431528111"><ele>1472.0</ele><time>2026-05-03T13:54:01.999Z</time></trkpt><trkpt lat="44.36623274021795" lon="7.336949217185876"><ele>1472.5</ele><time>2026-05-03T13:54:02.999Z</time></trkpt><trkpt lat="44.36618584353345" lon="7.336866393861546"><ele>1473.0</ele><time>2026-05-03T13:54:03.999Z</time></trkpt><trkpt lat="44.366093575251824" lon="7.33676893031432"><ele>1473.5</ele><time>2026-05-03T13:54:05.999Z</time></trkpt><trkpt lat="44.36605667779465" lon="7.336697279338817"><ele>1474.0</ele><time>2026-05-03T13:54:06.999Z</time></trkpt><trkpt lat="44.36603812175625" lon="7.336612122109746"><ele>1474.0</ele><time>2026-05-03T13:54:07.999Z</time></trkpt><trkpt lat="44.365951710827744" lon="7.336490123000633"><ele>1474.0</ele><time>2026-05-03T13:54:09.999Z</time></trkpt><trkpt lat="44.36584087017093" lon="7.336408522889925"><ele>1474.0</ele><time>2026-05-03T13:54:11.999Z</time></trkpt><trkpt lat="44.36578156633993" lon="7.3363524446380755"><ele>1474.0</ele><time>2026-05-03T13:54:12.999Z</time></trkpt><trkpt lat="44.36573045586635" lon="7.3362878299889065"><ele>1474.0</ele><time>2026-05-03T13:54:13.999Z</time></trkpt><trkpt lat="44.36568153383254" lon="7.336222629515214"><ele>1476.4</ele><time>2026-05-03T13:54:14.999Z</time></trkpt><trkpt lat="44.365595828440405" lon="7.336101810240932"><ele>1478.8000000000002</ele><time>2026-05-03T13:54:16.998Z</time></trkpt><trkpt lat="44.36550424405084" lon="7.3359912470780095"><ele>1481.1999999999998</ele><time>2026-05-03T13:54:19.001Z</time></trkpt><trkpt lat="44.36541404137991" lon="7.335925409242807"><ele>1483.6</ele><time>2026-05-03T13:54:21.001Z</time></trkpt><trkpt lat="44.36533736164123" lon="7.335841174856512"><ele>1486.0</ele><time>2026-05-03T13:54:23.001Z</time></trkpt><trkpt lat="44.36528676908283" lon="7.335762036473896"><ele>1486.0</ele><time>2026-05-03T13:54:25Z</time></trkpt><trkpt lat="44.36520316245097" lon="7.3356625731218275"><ele>1486.0</ele><time>2026-05-03T13:54:27Z</time></trkpt><trkpt lat="44.36511983222099" lon="7.335549768912427"><ele>1486.0</ele><time>2026-05-03T13:54:29Z</time></trkpt><trkpt lat="44.36502900542842" lon="7.335473396796052"><ele>1486.0</ele><time>2026-05-03T13:54:31Z</time></trkpt><trkpt lat="44.364915247152965" lon="7.335449908139523"><ele>1486.0</ele><time>2026-05-03T13:54:33Z</time></trkpt><trkpt lat="44.36483306040367" lon="7.335426647005368"><ele>1487.4</ele><time>2026-05-03T13:54:35Z</time></trkpt><trkpt lat="44.36476187729442" lon="7.335418472024146"><ele>1488.8</ele><time>2026-05-03T13:54:37Z</time></trkpt><trkpt lat="44.36465952925604" lon="7.335498892925924"><ele>1490.2</ele><time>2026-05-03T13:54:39Z</time></trkpt><trkpt lat="44.36461206017014" lon="7.335562880901032"><ele>1491.6000000000001</ele><time>2026-05-03T13:54:40Z</time></trkpt><trkpt lat="44.36451572569336" lon="7.33566000988567"><ele>1493.0</ele><time>2026-05-03T13:54:42Z</time></trkpt><trkpt lat="44.36442739620475" lon="7.335708699023005"><ele>1493.0</ele><time>2026-05-03T13:54:44Z</time></trkpt><trkpt lat="44.364304810091525" lon="7.335685011073844"><ele>1493.0</ele><time>2026-05-03T13:54:46Z</time></trkpt><trkpt lat="44.36424048450978" lon="7.335652087798581"><ele>1493.0</ele><time>2026-05-03T13:54:47Z</time></trkpt><trkpt lat="44.36417597860572" lon="7.33559670859683"><ele>1493.0</ele><time>2026-05-03T13:54:48Z</time></trkpt><trkpt lat="44.36407521998282" lon="7.335506628677055"><ele>1493.0</ele><time>2026-05-03T13:54:50Z</time></trkpt><trkpt lat="44.36400451065476" lon="7.335389491370821"><ele>1499.8000000000002</ele><time>2026-05-03T13:54:52Z</time></trkpt><trkpt lat="44.36387973973365" lon="7.335387389625097"><ele>1506.6</ele><time>2026-05-03T13:54:54Z</time></trkpt><trkpt lat="44.36381022139391" lon="7.3354112454046145"><ele>1513.4</ele><time>2026-05-03T13:54:55Z</time></trkpt><trkpt lat="44.3637482001092" lon="7.335442850281248"><ele>1520.1999999999998</ele><time>2026-05-03T13:54:56Z</time></trkpt><trkpt lat="44.363618342006944" lon="7.335502316281899"><ele>1527.0</ele><time>2026-05-03T13:54:58Z</time></trkpt><trkpt lat="44.3635353372323" lon="7.335536427675521"><ele>1523.3333333333333</ele><time>2026-05-03T13:54:59Z</time></trkpt><trkpt lat="44.36346538873244" lon="7.335571100150225"><ele>1519.6666666666667</ele><time>2026-05-03T13:55:00Z</time></trkpt><trkpt lat="44.36339840530401" lon="7.335619804710943"><ele>1516.0</ele><time>2026-05-03T13:55:01Z</time></trkpt><trkpt lat="44.36332869730956" lon="7.335661386030398"><ele>1512.3333333333335</ele><time>2026-05-03T13:55:02Z</time></trkpt><trkpt lat="44.36325730330803" lon="7.335699553442145"><ele>1508.6666666666667</ele><time>2026-05-03T13:55:03Z</time></trkpt><trkpt lat="44.363184045090264" lon="7.335733881579311"><ele>1505.0</ele><time>2026-05-03T13:55:04Z</time></trkpt><trkpt lat="44.36311310442264" lon="7.335793262091709"><ele>1505.0</ele><time>2026-05-03T13:55:05Z</time></trkpt><trkpt lat="44.36305319686135" lon="7.335843412508555"><ele>1505.0</ele><time>2026-05-03T13:55:06Z</time></trkpt><trkpt lat="44.36296535227742" lon="7.335967975844451"><ele>1505.0</ele><time>2026-05-03T13:55:08Z</time></trkpt><trkpt lat="44.36291453615307" lon="7.336034189776779"><ele>1505.0</ele><time>2026-05-03T13:55:09Z</time></trkpt><trkpt lat="44.362789523833634" lon="7.336121639836342"><ele>1505.0</ele><time>2026-05-03T13:55:11Z</time></trkpt><trkpt lat="44.36272575817062" lon="7.3361696744414555"><ele>1506.5714285714287</ele><time>2026-05-03T13:55:12Z</time></trkpt><trkpt lat="44.3626550610675" lon="7.336197698545101"><ele>1508.142857142857</ele><time>2026-05-03T13:55:13Z</time></trkpt><trkpt lat="44.362587932911076" lon="7.3362107416970455"><ele>1509.7142857142858</ele><time>2026-05-03T13:55:14Z</time></trkpt><trkpt lat="44.362519553921246" lon="7.336253539466712"><ele>1511.2857142857142</ele><time>2026-05-03T13:55:15Z</time></trkpt><trkpt lat="44.362459938923905" lon="7.336288679448794"><ele>1512.857142857143</ele><time>2026-05-03T13:55:16Z</time></trkpt><trkpt lat="44.362396116922895" lon="7.336303410835874"><ele>1514.4285714285716</ele><time>2026-05-03T13:55:17Z</time></trkpt><trkpt lat="44.36232396927053" lon="7.336321490140323"><ele>1516.0</ele><time>2026-05-03T13:55:18Z</time></trkpt><trkpt lat="44.362251557167056" lon="7.336336007519815"><ele>1517.0</ele><time>2026-05-03T13:55:19Z</time></trkpt><trkpt lat="44.36217912991128" lon="7.336342760191982"><ele>1518.0</ele><time>2026-05-03T13:55:20Z</time></trkpt><trkpt lat="44.36210950694719" lon="7.336325218976251"><ele>1519.0</ele><time>2026-05-03T13:55:21Z</time></trkpt><trkpt lat="44.362045763061346" lon="7.336309867737627"><ele>1520.0</ele><time>2026-05-03T13:55:22Z</time></trkpt><trkpt lat="44.361966540229375" lon="7.3362712945768696"><ele>1521.0</ele><time>2026-05-03T13:55:24Z</time></trkpt><trkpt lat="44.36191272894969" lon="7.3361970260521305"><ele>1522.0</ele><time>2026-05-03T13:55:25.999Z</time></trkpt><trkpt lat="44.36186148790826" lon="7.3360373539823245"><ele>1522.0</ele><time>2026-05-03T13:55:27.999Z</time></trkpt><trkpt lat="44.361825672878474" lon="7.335893614204841"><ele>1522.0</ele><time>2026-05-03T13:55:29.999Z</time></trkpt><trkpt lat="44.36176359336952" lon="7.335857315450672"><ele>1522.0</ele><time>2026-05-03T13:55:30.999Z</time></trkpt><trkpt lat="44.36167471073555" lon="7.335853952202199"><ele>1522.0</ele><time>2026-05-03T13:55:31.999Z</time></trkpt><trkpt lat="44.36159500576077" lon="7.335864077550325"><ele>1522.0</ele><time>2026-05-03T13:55:32.999Z</time></trkpt><trkpt lat="44.361527983923565" lon="7.335862006667766"><ele>1522.0</ele><time>2026-05-03T13:55:33.999Z</time></trkpt><trkpt lat="44.361464343882346" lon="7.335845581685645"><ele>1524.5</ele><time>2026-05-03T13:55:34.999Z</time></trkpt><trkpt lat="44.36135233886047" lon="7.3357639662453575"><ele>1527.0</ele><time>2026-05-03T13:55:36.999Z</time></trkpt><trkpt lat="44.36129538503274" lon="7.33571279625774"><ele>1529.5</ele><time>2026-05-03T13:55:37.999Z</time></trkpt><trkpt lat="44.36123619167252" lon="7.335674087421001"><ele>1532.0</ele><time>2026-05-03T13:55:38.999Z</time></trkpt><trkpt lat="44.36117160459272" lon="7.335656894198703"><ele>1534.5000000000002</ele><time>2026-05-03T13:55:39.999Z</time></trkpt><trkpt lat="44.36109538112737" lon="7.335654543457977"><ele>1537.0</ele><time>2026-05-03T13:55:40.999Z</time></trkpt><trkpt lat="44.361012834109026" lon="7.335656108644817"><ele>1537.0000000000002</ele><time>2026-05-03T13:55:41.999Z</time></trkpt><trkpt lat="44.36092327425223" lon="7.335655755085665"><ele>1537.0</ele><time>2026-05-03T13:55:42.999Z</time></trkpt><trkpt lat="44.360836417554715" lon="7.335666755089947"><ele>1537.0</ele><time>2026-05-03T13:55:43.999Z</time></trkpt><trkpt lat="44.36075478231435" lon="7.33567833740321"><ele>1537.0</ele><time>2026-05-03T13:55:44.999Z</time></trkpt><trkpt lat="44.36068665673023" lon="7.335700784830227"><ele>1537.0000000000002</ele><time>2026-05-03T13:55:45.999Z</time></trkpt><trkpt lat="44.36062015962029" lon="7.33572372491873"><ele>1537.0</ele><time>2026-05-03T13:55:46.999Z</time></trkpt><trkpt lat="44.36054902307045" lon="7.335737079678455"><ele>1539.0000000000002</ele><time>2026-05-03T13:55:47.999Z</time></trkpt><trkpt lat="44.36047973710048" lon="7.335730069879352"><ele>1541.0</ele><time>2026-05-03T13:55:48.999Z</time></trkpt><trkpt lat="44.360371044504134" lon="7.335636681214033"><ele>1543.0</ele><time>2026-05-03T13:55:50.999Z</time></trkpt><trkpt lat="44.360261271580896" lon="7.33562388763333"><ele>1545.0</ele><time>2026-05-03T13:55:52.999Z</time></trkpt><trkpt lat="44.36019031243557" lon="7.335633363238163"><ele>1547.0000000000002</ele><time>2026-05-03T13:55:54.999Z</time></trkpt><trkpt lat="44.36013060905171" lon="7.335665822265808"><ele>1549.0</ele><time>2026-05-03T13:55:56.999Z</time></trkpt><trkpt lat="44.36005859432066" lon="7.335746680752155"><ele>1549.0000000000002</ele><time>2026-05-03T13:56:44Z</time></trkpt><trkpt lat="44.35998657291716" lon="7.335776923846394"><ele>1549.0</ele><time>2026-05-03T13:56:46Z</time></trkpt><trkpt lat="44.359892612041214" lon="7.33578137827308"><ele>1549.0</ele><time>2026-05-03T13:56:48Z</time></trkpt><trkpt lat="44.35979694152282" lon="7.3357737039946755"><ele>1549.0</ele><time>2026-05-03T13:56:50Z</time></trkpt><trkpt lat="44.359684391384185" lon="7.335767147652261"><ele>1549.0000000000002</ele><time>2026-05-03T13:56:52Z</time></trkpt><trkpt lat="44.359619561211666" lon="7.335753530736024"><ele>1549.0</ele><time>2026-05-03T13:56:53Z</time></trkpt><trkpt lat="44.35955518561417" lon="7.335737381484448"><ele>1547.0000000000002</ele><time>2026-05-03T13:56:54Z</time></trkpt><trkpt lat="44.359482137747776" lon="7.335746653511135"><ele>1545.0</ele><time>2026-05-03T13:56:55Z</time></trkpt><trkpt lat="44.359404777751074" lon="7.335753274066071"><ele>1543.0</ele><time>2026-05-03T13:56:56Z</time></trkpt><trkpt lat="44.35932062480188" lon="7.335758233669374"><ele>1541.0</ele><time>2026-05-03T13:56:57Z</time></trkpt><trkpt lat="44.35924824258999" lon="7.3357621964872575"><ele>1539.0000000000002</ele><time>2026-05-03T13:56:58Z</time></trkpt><trkpt lat="44.359169432431536" lon="7.335760981150204"><ele>1537.0</ele><time>2026-05-03T13:56:59Z</time></trkpt><trkpt lat="44.359086292948604" lon="7.335748303478635"><ele>1537.0000000000002</ele><time>2026-05-03T13:57:00Z</time></trkpt><trkpt lat="44.35900571844216" lon="7.335724857166699"><ele>1537.0</ele><time>2026-05-03T13:57:01Z</time></trkpt><trkpt lat="44.35891495810456" lon="7.335705746290264"><ele>1537.0</ele><time>2026-05-03T13:57:02Z</time></trkpt><trkpt lat="44.35882134715257" lon="7.335709061352898"><ele>1537.0</ele><time>2026-05-03T13:57:03Z</time></trkpt><trkpt lat="44.35873453251638" lon="7.335725564482591"><ele>1537.0000000000002</ele><time>2026-05-03T13:57:04Z</time></trkpt><trkpt lat="44.35864935430829" lon="7.3357342216478925"><ele>1537.0</ele><time>2026-05-03T13:57:05Z</time></trkpt><trkpt lat="44.3585699013726" lon="7.335752244155962"><ele>1535.8333333333335</ele><time>2026-05-03T13:57:06Z</time></trkpt><trkpt lat="44.35851185557942" lon="7.33580229014387"><ele>1534.6666666666667</ele><time>2026-05-03T13:57:07Z</time></trkpt><trkpt lat="44.35839989869844" lon="7.335848090280127"><ele>1533.5</ele><time>2026-05-03T13:57:09Z</time></trkpt><trkpt lat="44.358273899271076" lon="7.335890445564138"><ele>1532.3333333333335</ele><time>2026-05-03T13:57:11Z</time></trkpt><trkpt lat="44.35821045114453" lon="7.335919654469014"><ele>1531.1666666666667</ele><time>2026-05-03T13:57:12Z</time></trkpt><trkpt lat="44.35814412388179" lon="7.335926637728246"><ele>1530.0</ele><time>2026-05-03T13:57:13Z</time></trkpt><trkpt lat="44.35803167609696" lon="7.335922337262421"><ele>1528.8333333333333</ele><time>2026-05-03T13:57:15Z</time></trkpt><trkpt lat="44.357902922795326" lon="7.335949428421429"><ele>1527.6666666666667</ele><time>2026-05-03T13:57:17Z</time></trkpt><trkpt lat="44.35782863319343" lon="7.3359667648551365"><ele>1526.5</ele><time>2026-05-03T13:57:18Z</time></trkpt><trkpt lat="44.35775699986037" lon="7.336000216113604"><ele>1525.3333333333335</ele><time>2026-05-03T13:57:19Z</time></trkpt><trkpt lat="44.35768658938407" lon="7.336030661143078"><ele>1524.1666666666667</ele><time>2026-05-03T13:57:20Z</time></trkpt><trkpt lat="44.35762022058314" lon="7.336048662621532"><ele>1523.0</ele><time>2026-05-03T13:57:21Z</time></trkpt><trkpt lat="44.357556413894464" lon="7.336056318165742"><ele>1523.0</ele><time>2026-05-03T13:57:22Z</time></trkpt><trkpt lat="44.357492720550354" lon="7.336063896612226"><ele>1523.0</ele><time>2026-05-03T13:57:23Z</time></trkpt><trkpt lat="44.3573683328269" lon="7.336045535914395"><ele>1523.0</ele><time>2026-05-03T13:57:25Z</time></trkpt><trkpt lat="44.35722560843248" lon="7.336064615223677"><ele>1523.0</ele><time>2026-05-03T13:57:27Z</time></trkpt><trkpt lat="44.35710272409918" lon="7.3360927648906795"><ele>1522.1428571428573</ele><time>2026-05-03T13:57:28.999Z</time></trkpt><trkpt lat="44.35704577490387" lon="7.3361455376765985"><ele>1521.2857142857142</ele><time>2026-05-03T13:57:29.999Z</time></trkpt><trkpt lat="44.3569901603726" lon="7.336213820347866"><ele>1520.4285714285716</ele><time>2026-05-03T13:57:30.999Z</time></trkpt><trkpt lat="44.35693419384094" lon="7.336268863146046"><ele>1519.5714285714287</ele><time>2026-05-03T13:57:31.999Z</time></trkpt><trkpt lat="44.35687515596376" lon="7.3363319075465805"><ele>1518.7142857142858</ele><time>2026-05-03T13:57:32.999Z</time></trkpt><trkpt lat="44.35682130061669" lon="7.33639848347022"><ele>1517.857142857143</ele><time>2026-05-03T13:57:33.999Z</time></trkpt><trkpt lat="44.35676912847063" lon="7.33645491041525"><ele>1517.0</ele><time>2026-05-03T13:57:34.999Z</time></trkpt><trkpt lat="44.35671921353162" lon="7.3365115587633305"><ele>1516.8333333333335</ele><time>2026-05-03T13:57:35.999Z</time></trkpt><trkpt lat="44.35663784927889" lon="7.336648454911177"><ele>1516.6666666666667</ele><time>2026-05-03T13:57:37.999Z</time></trkpt><trkpt lat="44.35659946353182" lon="7.336725638393749"><ele>1516.5</ele><time>2026-05-03T13:57:38.999Z</time></trkpt><trkpt lat="44.356555371380786" lon="7.3368201458639035"><ele>1516.3333333333333</ele><time>2026-05-03T13:57:39.999Z</time></trkpt><trkpt lat="44.35652311890578" lon="7.3369235217431426"><ele>1516.1666666666665</ele><time>2026-05-03T13:57:40.999Z</time></trkpt><trkpt lat="44.35650129706955" lon="7.337028303181085"><ele>1516.0</ele><time>2026-05-03T13:57:41.999Z</time></trkpt><trkpt lat="44.35648517387679" lon="7.337130784250624"><ele>1515.857142857143</ele><time>2026-05-03T13:57:42.999Z</time></trkpt><trkpt lat="44.35645721429762" lon="7.337222022049899"><ele>1515.7142857142858</ele><time>2026-05-03T13:57:43.999Z</time></trkpt><trkpt lat="44.35642906572493" lon="7.337306049236718"><ele>1515.5714285714284</ele><time>2026-05-03T13:57:44.999Z</time></trkpt><trkpt lat="44.35640952183434" lon="7.337410746554671"><ele>1515.4285714285716</ele><time>2026-05-03T13:57:45.999Z</time></trkpt><trkpt lat="44.356394795977685" lon="7.337501028797449"><ele>1515.2857142857142</ele><time>2026-05-03T13:57:46.999Z</time></trkpt><trkpt lat="44.356374238526556" lon="7.337610926307626"><ele>1515.142857142857</ele><time>2026-05-03T13:57:47.999Z</time></trkpt><trkpt lat="44.35635495704905" lon="7.337704902770257"><ele>1515.0</ele><time>2026-05-03T13:57:48.999Z</time></trkpt><trkpt lat="44.3563304413144" lon="7.337802048551038"><ele>1516.4</ele><time>2026-05-03T13:57:49.999Z</time></trkpt><trkpt lat="44.35630221736876" lon="7.337974486190106"><ele>1517.8</ele><time>2026-05-03T13:57:51.999Z</time></trkpt><trkpt lat="44.35628851159872" lon="7.338073545369236"><ele>1519.1999999999998</ele><time>2026-05-03T13:57:52.999Z</time></trkpt><trkpt lat="44.35627794446626" lon="7.338178136033376"><ele>1520.6</ele><time>2026-05-03T13:57:53.999Z</time></trkpt><trkpt lat="44.35625192935901" lon="7.338270820054573"><ele>1522.0</ele><time>2026-05-03T13:57:54.999Z</time></trkpt><trkpt lat="44.356201312867086" lon="7.338430205782645"><ele>1522.0</ele><time>2026-05-03T13:57:56.999Z</time></trkpt><trkpt lat="44.3561387014403" lon="7.338552715945889"><ele>1522.0</ele><time>2026-05-03T13:57:58.999Z</time></trkpt><trkpt lat="44.356066640998655" lon="7.338657606718683"><ele>1522.0</ele><time>2026-05-03T13:58:00.999Z</time></trkpt><trkpt lat="44.35604620239767" lon="7.338753553895289"><ele>1522.0</ele><time>2026-05-03T13:58:02.999Z</time></trkpt><trkpt lat="44.356071813767564" lon="7.33885464861851"><ele>1522.0</ele><time>2026-05-03T13:58:04.999Z</time></trkpt><trkpt lat="44.355994957334374" lon="7.338842786095591"><ele>1522.0</ele><time>2026-05-03T13:58:07.999Z</time></trkpt><trkpt lat="44.35595368438525" lon="7.338754219969025"><ele>1522.0</ele><time>2026-05-03T13:58:09.999Z</time></trkpt><trkpt lat="44.35589095643008" lon="7.338865267275646"><ele>1522.0</ele><time>2026-05-03T13:58:11.999Z</time></trkpt><trkpt lat="44.35585686526187" lon="7.3389763374363906"><ele>1522.0</ele><time>2026-05-03T13:58:13.999Z</time></trkpt><trkpt lat="44.355821751582404" lon="7.339052631112644"><ele>1522.0</ele><time>2026-05-03T13:58:15.999Z</time></trkpt><trkpt lat="44.355773658778766" lon="7.33911357253525"><ele>1522.0</ele><time>2026-05-03T13:58:17.999Z</time></trkpt><trkpt lat="44.35572516649673" lon="7.339215566195928"><ele>1522.0</ele><time>2026-05-03T13:58:19.999Z</time></trkpt><trkpt lat="44.35565531041498" lon="7.339353267287146"><ele>1519.3333333333333</ele><time>2026-05-03T13:58:21.998Z</time></trkpt><trkpt lat="44.355565018503114" lon="7.339491256788731"><ele>1516.6666666666665</ele><time>2026-05-03T13:58:23.998Z</time></trkpt><trkpt lat="44.355508124132236" lon="7.339559463514807"><ele>1514.0</ele><time>2026-05-03T13:58:24.998Z</time></trkpt><trkpt lat="44.355466172035854" lon="7.339640474222719"><ele>1511.3333333333333</ele><time>2026-05-03T13:58:25.998Z</time></trkpt><trkpt lat="44.35543767313899" lon="7.339726153511148"><ele>1508.6666666666667</ele><time>2026-05-03T13:58:26.998Z</time></trkpt><trkpt lat="44.35542113138218" lon="7.339826914057969"><ele>1506.0</ele><time>2026-05-03T13:58:27.998Z</time></trkpt><trkpt lat="44.35540269665991" lon="7.339919503393637"><ele>1515.4</ele><time>2026-05-03T13:58:29Z</time></trkpt><trkpt lat="44.35539032019886" lon="7.340013046010706"><ele>1524.8</ele><time>2026-05-03T13:58:30Z</time></trkpt><trkpt lat="44.35536578674334" lon="7.340196425736124"><ele>1534.2</ele><time>2026-05-03T13:58:32Z</time></trkpt><trkpt lat="44.35533878984953" lon="7.34029574499198"><ele>1543.6000000000001</ele><time>2026-05-03T13:58:33Z</time></trkpt><trkpt lat="44.35525705942655" lon="7.340428867147322"><ele>1553.0</ele><time>2026-05-03T13:58:35Z</time></trkpt><trkpt lat="44.355203561042295" lon="7.340581819396035"><ele>1552.9999999999998</ele><time>2026-05-03T13:58:37Z</time></trkpt><trkpt lat="44.355174346029294" lon="7.340711389383042"><ele>1553.0</ele><time>2026-05-03T13:58:39Z</time></trkpt><trkpt lat="44.35511490969285" lon="7.3407928109973755"><ele>1553.0</ele><time>2026-05-03T13:58:44Z</time></trkpt><trkpt lat="44.35507459965918" lon="7.340869562719506"><ele>1553.0</ele><time>2026-05-03T13:58:47Z</time></trkpt><trkpt lat="44.35501396376643" lon="7.340953802803296"><ele>1552.9999999999998</ele><time>2026-05-03T13:58:50Z</time></trkpt><trkpt lat="44.35496790883188" lon="7.341046885152248"><ele>1553.0</ele><time>2026-05-03T13:58:54Z</time></trkpt><trkpt lat="44.35492353976469" lon="7.341111773627371"><ele>1553.0</ele><time>2026-05-03T13:58:56Z</time></trkpt><trkpt lat="44.35483948335841" lon="7.341197962378005"><ele>1553.0</ele><time>2026-05-03T13:58:58Z</time></trkpt><trkpt lat="44.35474470172642" lon="7.341235012770818"><ele>1553.0</ele><time>2026-05-03T13:59:01Z</time></trkpt><trkpt lat="44.3546616904453" lon="7.3412857661138995"><ele>1553.0</ele><time>2026-05-03T13:59:02Z</time></trkpt><trkpt lat="44.3545290396834" lon="7.341392435196447"><ele>1553.0</ele><time>2026-05-03T13:59:04Z</time></trkpt><trkpt lat="44.354443749314235" lon="7.341423216457577"><ele>1554.1666666666665</ele><time>2026-05-03T13:59:06Z</time></trkpt><trkpt lat="44.354368369196315" lon="7.341456334765554"><ele>1555.3333333333333</ele><time>2026-05-03T13:59:09Z</time></trkpt><trkpt lat="44.35430646667323" lon="7.341515178994348"><ele>1556.5</ele><time>2026-05-03T13:59:27Z</time></trkpt><trkpt lat="44.35424576525749" lon="7.341543862571629"><ele>1557.6666666666665</ele><time>2026-05-03T13:59:28Z</time></trkpt><trkpt lat="44.354167655633674" lon="7.34156643110091"><ele>1558.8333333333333</ele><time>2026-05-03T13:59:29Z</time></trkpt><trkpt lat="44.354082805662244" lon="7.341608962799326"><ele>1560.0</ele><time>2026-05-03T13:59:30Z</time></trkpt><trkpt lat="44.35400766578931" lon="7.341664317178721"><ele>1560.0</ele><time>2026-05-03T13:59:31Z</time></trkpt><trkpt lat="44.3539468348267" lon="7.341719540508211"><ele>1560.0</ele><time>2026-05-03T13:59:32Z</time></trkpt><trkpt lat="44.3538836385796" lon="7.341772496539941"><ele>1560.0</ele><time>2026-05-03T13:59:33Z</time></trkpt><trkpt lat="44.35381533374055" lon="7.341806017755159"><ele>1560.0</ele><time>2026-05-03T13:59:34Z</time></trkpt><trkpt lat="44.353754883688374" lon="7.341848204442133"><ele>1560.0</ele><time>2026-05-03T13:59:34.999Z</time></trkpt><trkpt lat="44.3536858874844" lon="7.341893523584711"><ele>1560.0</ele><time>2026-05-03T13:59:35.999Z</time></trkpt><trkpt lat="44.35361749114626" lon="7.341945952021195"><ele>1560.0</ele><time>2026-05-03T13:59:36.999Z</time></trkpt><trkpt lat="44.35354366814222" lon="7.341987845478528"><ele>1561.3333333333333</ele><time>2026-05-03T13:59:37.999Z</time></trkpt><trkpt lat="44.353463917174" lon="7.342033892295537"><ele>1562.6666666666665</ele><time>2026-05-03T13:59:38.999Z</time></trkpt><trkpt lat="44.35339039349453" lon="7.342061307552157"><ele>1564.0</ele><time>2026-05-03T13:59:39.999Z</time></trkpt><trkpt lat="44.35331573212969" lon="7.342087456276165"><ele>1565.3333333333333</ele><time>2026-05-03T13:59:40.999Z</time></trkpt><trkpt lat="44.35323999072145" lon="7.342117133906152"><ele>1566.6666666666665</ele><time>2026-05-03T13:59:41.999Z</time></trkpt><trkpt lat="44.35317176236977" lon="7.342169171553189"><ele>1568.0</ele><time>2026-05-03T13:59:42.999Z</time></trkpt><trkpt lat="44.35311630200204" lon="7.342228579879867"><ele>1566.9999999999998</ele><time>2026-05-03T13:59:43.999Z</time></trkpt><trkpt lat="44.35304900769099" lon="7.34226633505077"><ele>1566.0</ele><time>2026-05-03T13:59:44.999Z</time></trkpt><trkpt lat="44.35298247589218" lon="7.34230457699463"><ele>1565.0</ele><time>2026-05-03T13:59:45.999Z</time></trkpt><trkpt lat="44.352914283776556" lon="7.3423438515124015"><ele>1564.0</ele><time>2026-05-03T13:59:46.999Z</time></trkpt><trkpt lat="44.352841224846" lon="7.342382323088072"><ele>1562.9999999999998</ele><time>2026-05-03T13:59:47.999Z</time></trkpt><trkpt lat="44.35277362502667" lon="7.342424275418601"><ele>1562.0</ele><time>2026-05-03T13:59:48.999Z</time></trkpt><trkpt lat="44.35266930067722" lon="7.342513891789318"><ele>1561.9999999999998</ele><time>2026-05-03T13:59:50.999Z</time></trkpt><trkpt lat="44.3526029317484" lon="7.34252517039329"><ele>1562.0</ele><time>2026-05-03T13:59:51.999Z</time></trkpt><trkpt lat="44.35248516300585" lon="7.3425265219214815"><ele>1562.0</ele><time>2026-05-03T13:59:53.999Z</time></trkpt><trkpt lat="44.35241910035754" lon="7.342562586367963"><ele>1562.0</ele><time>2026-05-03T13:59:54.999Z</time></trkpt><trkpt lat="44.35237149794445" lon="7.3426267488752"><ele>1561.9999999999998</ele><time>2026-05-03T13:59:55.999Z</time></trkpt><trkpt lat="44.352348472587096" lon="7.342716358670726"><ele>1562.0</ele><time>2026-05-03T13:59:56.999Z</time></trkpt><trkpt lat="44.352311749051665" lon="7.342850873116308"><ele>1561.9999999999998</ele><time>2026-05-03T13:59:58.999Z</time></trkpt><trkpt lat="44.35224322136466" lon="7.342953594995917"><ele>1562.0</ele><time>2026-05-03T14:00:00.999Z</time></trkpt><trkpt lat="44.35219317319856" lon="7.343017706151808"><ele>1562.0</ele><time>2026-05-03T14:00:01.999Z</time></trkpt><trkpt lat="44.352147055854125" lon="7.343091816821518"><ele>1562.0</ele><time>2026-05-03T14:00:02.999Z</time></trkpt><trkpt lat="44.3521071906007" lon="7.343167004029804"><ele>1561.9999999999998</ele><time>2026-05-03T14:00:03.999Z</time></trkpt><trkpt lat="44.35206493913474" lon="7.343233958916582"><ele>1562.0</ele><time>2026-05-03T14:00:04.999Z</time></trkpt><trkpt lat="44.35199139966988" lon="7.343357341587973"><ele>1566.5</ele><time>2026-05-03T14:00:06.999Z</time></trkpt><trkpt lat="44.35191175140834" lon="7.343475730876702"><ele>1571.0</ele><time>2026-05-03T14:00:08.999Z</time></trkpt><trkpt lat="44.35182954570254" lon="7.3435754427659585"><ele>1575.5</ele><time>2026-05-03T14:00:10.999Z</time></trkpt><trkpt lat="44.35172001393769" lon="7.343614499320766"><ele>1580.0</ele><time>2026-05-03T14:00:12.999Z</time></trkpt><trkpt lat="44.351625005985014" lon="7.343706937554058"><ele>1580.0</ele><time>2026-05-03T14:00:14.999Z</time></trkpt><trkpt lat="44.351524297084815" lon="7.343773361371339"><ele>1580.0</ele><time>2026-05-03T14:00:16.999Z</time></trkpt><trkpt lat="44.35141149189522" lon="7.343765675825702"><ele>1580.0</ele><time>2026-05-03T14:00:18.999Z</time></trkpt><trkpt lat="44.351341944952146" lon="7.343795455405657"><ele>1580.0</ele><time>2026-05-03T14:00:20.999Z</time></trkpt><trkpt lat="44.35136427066932" lon="7.343913264033502"><ele>1580.0</ele><time>2026-05-03T14:00:24.999Z</time></trkpt><trkpt lat="44.351358570365" lon="7.344052783676026"><ele>1583.6666666666665</ele><time>2026-05-03T14:00:26.999Z</time></trkpt><trkpt lat="44.351295920332944" lon="7.343999269973008"><ele>1587.3333333333333</ele><time>2026-05-03T14:00:28.999Z</time></trkpt><trkpt lat="44.35121936292706" lon="7.3440143647214065"><ele>1591.0</ele><time>2026-05-03T14:00:31.998Z</time></trkpt><trkpt lat="44.35125181910804" lon="7.344114781817998"><ele>1594.6666666666665</ele><time>2026-05-03T14:00:43Z</time></trkpt><trkpt lat="44.35124424572437" lon="7.344215271271403"><ele>1598.3333333333333</ele><time>2026-05-03T14:00:51Z</time></trkpt><trkpt lat="44.35117148868433" lon="7.344193323558772"><ele>1602.0</ele><time>2026-05-03T14:00:57Z</time></trkpt><trkpt lat="44.35109112730813" lon="7.344199632373319"><ele>1602.0</ele><time>2026-05-03T14:01:00Z</time></trkpt><trkpt lat="44.351037097030634" lon="7.344272371541539"><ele>1602.0</ele><time>2026-05-03T14:01:02Z</time></trkpt><trkpt lat="44.35098761720164" lon="7.344357290793889"><ele>1602.0</ele><time>2026-05-03T14:01:04Z</time></trkpt><trkpt lat="44.350945250013254" lon="7.344439152106546"><ele>1602.0</ele><time>2026-05-03T14:01:06Z</time></trkpt><trkpt lat="44.35091003281973" lon="7.344516456789608"><ele>1602.0</ele><time>2026-05-03T14:01:09Z</time></trkpt><trkpt lat="44.35082786817759" lon="7.34458302119925"><ele>1602.0</ele><time>2026-05-03T14:01:11Z</time></trkpt><trkpt lat="44.35078689636962" lon="7.34466179255492"><ele>1604.6</ele><time>2026-05-03T14:01:12Z</time></trkpt><trkpt lat="44.350703233089575" lon="7.344769560414946"><ele>1607.1999999999998</ele><time>2026-05-03T14:01:14Z</time></trkpt><trkpt lat="44.35061397433155" lon="7.344843092410409"><ele>1609.8</ele><time>2026-05-03T14:01:16Z</time></trkpt><trkpt lat="44.35054146221393" lon="7.344946798153802"><ele>1612.4</ele><time>2026-05-03T14:01:18Z</time></trkpt><trkpt lat="44.35047267461042" lon="7.345020761455242"><ele>1615.0</ele><time>2026-05-03T14:01:20Z</time></trkpt><trkpt lat="44.350394226173535" lon="7.34502554879664"><ele>1615.0</ele><time>2026-05-03T14:01:22Z</time></trkpt><trkpt lat="44.350453967612694" lon="7.344992774526492"><ele>1615.0</ele><time>2026-05-03T14:02:57Z</time></trkpt><trkpt lat="44.35051132376325" lon="7.344950419552097"><ele>1615.0</ele><time>2026-05-03T14:03:04Z</time></trkpt><trkpt lat="44.350567643767924" lon="7.344900150513983"><ele>1615.0</ele><time>2026-05-03T14:03:16Z</time></trkpt><trkpt lat="44.35061997887156" lon="7.34484833620336"><ele>1615.0</ele><time>2026-05-03T14:03:32Z</time></trkpt><trkpt lat="44.35069569051502" lon="7.34482341407027"><ele>1615.0</ele><time>2026-05-03T14:03:37.999Z</time></trkpt><trkpt lat="44.3507497861618" lon="7.344746358544398"><ele>1615.0</ele><time>2026-05-03T14:03:42.999Z</time></trkpt><trkpt lat="44.350787468426915" lon="7.344665055470367"><ele>1613.142857142857</ele><time>2026-05-03T14:03:47.999Z</time></trkpt><trkpt lat="44.350821721967506" lon="7.344588673620407"><ele>1611.2857142857144</ele><time>2026-05-03T14:03:53.999Z</time></trkpt><trkpt lat="44.35088665490003" lon="7.344540823091126"><ele>1609.4285714285716</ele><time>2026-05-03T14:03:59.999Z</time></trkpt><trkpt lat="44.35093645822743" lon="7.3444647887979455"><ele>1607.5714285714284</ele><time>2026-05-03T14:04:04.999Z</time></trkpt><trkpt lat="44.35099201749853" lon="7.34440473633749"><ele>1605.7142857142858</ele><time>2026-05-03T14:04:08.999Z</time></trkpt><trkpt lat="44.35104729759061" lon="7.344358937938146"><ele>1603.857142857143</ele><time>2026-05-03T14:04:12.999Z</time></trkpt><trkpt lat="44.35108288851028" lon="7.344273368455729"><ele>1602.0</ele><time>2026-05-03T14:04:19.999Z</time></trkpt><trkpt lat="44.35113898288845" lon="7.344222223647056"><ele>1602.0</ele><time>2026-05-03T14:04:24.999Z</time></trkpt><trkpt lat="44.351177082662424" lon="7.34414622091713"><ele>1602.0</ele><time>2026-05-03T14:04:30.998Z</time></trkpt><trkpt lat="44.35121957141723" lon="7.344065905277509"><ele>1602.0</ele><time>2026-05-03T14:04:38.998Z</time></trkpt><trkpt lat="44.3512693269679" lon="7.344008430818169"><ele>1602.0</ele><time>2026-05-03T14:08:55.998Z</time></trkpt><trkpt lat="44.351237847712014" lon="7.344104792228145"><ele>1602.0</ele><time>2026-05-03T14:09:43Z</time></trkpt><trkpt lat="44.35124306120606" lon="7.344203690410435"><ele>1602.0</ele><time>2026-05-03T14:09:59Z</time></trkpt><trkpt lat="44.35117335369802" lon="7.344179086598566"><ele>1602.0</ele><time>2026-05-03T14:10:11.999Z</time></trkpt><trkpt lat="44.351109821227" lon="7.3441894515895365"><ele>1602.0</ele><time>2026-05-03T14:10:18.999Z</time></trkpt><trkpt lat="44.351057031707455" lon="7.34424284198715"><ele>1602.0</ele><time>2026-05-03T14:10:28.999Z</time></trkpt><trkpt lat="44.35101510999311" lon="7.3443141162384356"><ele>1602.0</ele><time>2026-05-03T14:10:36.999Z</time></trkpt><trkpt lat="44.350968880875" lon="7.344390750899426"><ele>1602.0</ele><time>2026-05-03T14:10:45.999Z</time></trkpt><trkpt lat="44.3509473594296" lon="7.34447410730778"><ele>1602.0</ele><time>2026-05-03T14:10:54.999Z</time></trkpt><trkpt lat="44.350900946102016" lon="7.344541377639195"><ele>1602.0</ele><time>2026-05-03T14:11:05.001Z</time></trkpt><trkpt lat="44.3508346168415" lon="7.344587811469215"><ele>1602.0</ele><time>2026-05-03T14:11:11.001Z</time></trkpt><trkpt lat="44.35078574219661" lon="7.344656244827079"><ele>1603.857142857143</ele><time>2026-05-03T14:11:19Z</time></trkpt><trkpt lat="44.35073845172527" lon="7.344717301725325"><ele>1605.7142857142858</ele><time>2026-05-03T14:11:27Z</time></trkpt><trkpt lat="44.35068170358548" lon="7.344777540741351"><ele>1607.5714285714284</ele><time>2026-05-03T14:11:44Z</time></trkpt><trkpt lat="44.350615328969646" lon="7.344807338393292"><ele>1609.4285714285716</ele><time>2026-05-03T14:11:50Z</time></trkpt><trkpt lat="44.35057328940125" lon="7.344880004233994"><ele>1611.2857142857144</ele><time>2026-05-03T14:12:00Z</time></trkpt><trkpt lat="44.35051882144855" lon="7.344953699749979"><ele>1613.142857142857</ele><time>2026-05-03T14:12:08Z</time></trkpt><trkpt lat="44.35044905891123" lon="7.344963794658807"><ele>1615.0</ele><time>2026-05-03T14:12:14.999Z</time></trkpt><trkpt lat="44.35038625182234" lon="7.34499374800042"><ele>1615.0000000000002</ele><time>2026-05-03T14:12:21.999Z</time></trkpt><trkpt lat="44.35043722294521" lon="7.345065944390076"><ele>1615.0</ele><time>2026-05-03T14:13:26Z</time></trkpt><trkpt lat="44.350373523137335" lon="7.3450246814502655"><ele>1615.0</ele><time>2026-05-03T14:17:13.999Z</time></trkpt><trkpt lat="44.35043475034101" lon="7.34496403097121"><ele>1615.0</ele><time>2026-05-03T14:37:58.998Z</time></trkpt><trkpt lat="44.350515996264946" lon="7.344934379698973"><ele>1615.0000000000002</ele><time>2026-05-03T14:38:02.998Z</time></trkpt><trkpt lat="44.35057312479449" lon="7.344871124162088"><ele>1615.0</ele><time>2026-05-03T14:38:05.998Z</time></trkpt><trkpt lat="44.350624180111744" lon="7.344789675183133"><ele>1616.1666666666667</ele><time>2026-05-03T14:38:08.998Z</time></trkpt><trkpt lat="44.35069504972357" lon="7.344751374558993"><ele>1617.3333333333335</ele><time>2026-05-03T14:38:10.998Z</time></trkpt><trkpt lat="44.35074881930349" lon="7.3446992845367465"><ele>1618.5</ele><time>2026-05-03T14:38:12.998Z</time></trkpt><trkpt lat="44.350809062276056" lon="7.344619140854052"><ele>1619.6666666666665</ele><time>2026-05-03T14:38:15.998Z</time></trkpt><trkpt lat="44.35086294922552" lon="7.3445530858302615"><ele>1620.8333333333333</ele><time>2026-05-03T14:38:18Z</time></trkpt><trkpt lat="44.35094643902573" lon="7.344493170176059"><ele>1622.0</ele><time>2026-05-03T14:38:20Z</time></trkpt><trkpt lat="44.35100424005675" lon="7.344404427214314"><ele>1618.6666666666665</ele><time>2026-05-03T14:38:23Z</time></trkpt><trkpt lat="44.351028589438904" lon="7.344317629039165"><ele>1615.3333333333333</ele><time>2026-05-03T14:38:38Z</time></trkpt><trkpt lat="44.351071855651426" lon="7.344222301729903"><ele>1612.0</ele><time>2026-05-03T14:38:43Z</time></trkpt><trkpt lat="44.35114441828057" lon="7.344176576561421"><ele>1608.6666666666665</ele><time>2026-05-03T14:38:47Z</time></trkpt><trkpt lat="44.35122493623043" lon="7.344242747934326"><ele>1605.3333333333333</ele><time>2026-05-03T14:38:50Z</time></trkpt><trkpt lat="44.35124497221454" lon="7.3441485717737445"><ele>1602.0</ele><time>2026-05-03T14:38:55Z</time></trkpt><trkpt lat="44.35124152828508" lon="7.344058422404015"><ele>1602.0</ele><time>2026-05-03T14:39:06.999Z</time></trkpt><trkpt lat="44.35129034715312" lon="7.343999445076324"><ele>1602.0</ele><time>2026-05-03T14:39:15.999Z</time></trkpt><trkpt lat="44.351376264209485" lon="7.34403441176791"><ele>1602.0</ele><time>2026-05-03T14:39:19.999Z</time></trkpt><trkpt lat="44.3513898648411" lon="7.343905051133845"><ele>1602.0</ele><time>2026-05-03T14:39:22.999Z</time></trkpt><trkpt lat="44.35142595725099" lon="7.34380241420588"><ele>1602.0</ele><time>2026-05-03T14:39:25.999Z</time></trkpt><trkpt lat="44.35148811624377" lon="7.343767746545422"><ele>1602.0</ele><time>2026-05-03T14:40:48Z</time></trkpt><trkpt lat="44.351561321415055" lon="7.343755924159765"><ele>1598.3333333333333</ele><time>2026-05-03T14:41:03.999Z</time></trkpt><trkpt lat="44.35165368415739" lon="7.343706225979319"><ele>1594.6666666666665</ele><time>2026-05-03T14:41:05.999Z</time></trkpt><trkpt lat="44.35174140903003" lon="7.343612312802465"><ele>1591.0</ele><time>2026-05-03T14:41:07.999Z</time></trkpt><trkpt lat="44.351817787579485" lon="7.343574185969351"><ele>1587.3333333333333</ele><time>2026-05-03T14:41:09.999Z</time></trkpt><trkpt lat="44.35187809868474" lon="7.343539489405891"><ele>1583.6666666666665</ele><time>2026-05-03T14:41:11.999Z</time></trkpt><trkpt lat="44.35192941422784" lon="7.343482116728487"><ele>1580.0</ele><time>2026-05-03T14:41:12.999Z</time></trkpt><trkpt lat="44.35197460442517" lon="7.343410890135577"><ele>1579.9999999999998</ele><time>2026-05-03T14:41:13.999Z</time></trkpt><trkpt lat="44.352020120940146" lon="7.343334473494051"><ele>1580.0</ele><time>2026-05-03T14:41:14.999Z</time></trkpt><trkpt lat="44.35207055137815" lon="7.34324918979736"><ele>1580.0</ele><time>2026-05-03T14:41:15.999Z</time></trkpt><trkpt lat="44.35212843437156" lon="7.3431608528638135"><ele>1580.0</ele><time>2026-05-03T14:41:16.999Z</time></trkpt><trkpt lat="44.3521784474885" lon="7.343077219209839"><ele>1579.9999999999998</ele><time>2026-05-03T14:41:17.999Z</time></trkpt><trkpt lat="44.35222703292878" lon="7.34297961249826"><ele>1580.0</ele><time>2026-05-03T14:41:18.999Z</time></trkpt><trkpt lat="44.3522845468501" lon="7.342894260475863"><ele>1576.9999999999998</ele><time>2026-05-03T14:41:19.999Z</time></trkpt><trkpt lat="44.352337791773344" lon="7.342823586536306"><ele>1574.0</ele><time>2026-05-03T14:41:20.999Z</time></trkpt><trkpt lat="44.35238872019144" lon="7.342697337031418"><ele>1571.0</ele><time>2026-05-03T14:41:22.999Z</time></trkpt><trkpt lat="44.35241453691089" lon="7.342601022854493"><ele>1568.0</ele><time>2026-05-03T14:41:23.999Z</time></trkpt><trkpt lat="44.352471146205914" lon="7.342514036105165"><ele>1564.9999999999998</ele><time>2026-05-03T14:41:24.999Z</time></trkpt><trkpt lat="44.352546072307305" lon="7.342490201134048"><ele>1562.0</ele><time>2026-05-03T14:41:25.999Z</time></trkpt><trkpt lat="44.3526113846478" lon="7.342500454050671"><ele>1562.0</ele><time>2026-05-03T14:41:26.999Z</time></trkpt><trkpt lat="44.352678984667335" lon="7.342507779741119"><ele>1562.0</ele><time>2026-05-03T14:41:27.999Z</time></trkpt><trkpt lat="44.352746877473905" lon="7.342494877235217"><ele>1562.0</ele><time>2026-05-03T14:41:28.999Z</time></trkpt><trkpt lat="44.35281619438203" lon="7.342448262650167"><ele>1562.0</ele><time>2026-05-03T14:41:29.999Z</time></trkpt><trkpt lat="44.35288039946938" lon="7.342373311362786"><ele>1562.0</ele><time>2026-05-03T14:41:30.999Z</time></trkpt><trkpt lat="44.352945396423564" lon="7.342332201093774"><ele>1562.0</ele><time>2026-05-03T14:41:31.999Z</time></trkpt><trkpt lat="44.353018982279494" lon="7.342293654389823"><ele>1562.0</ele><time>2026-05-03T14:41:32.999Z</time></trkpt><trkpt lat="44.35309065237873" lon="7.34225141375419"><ele>1562.9999999999998</ele><time>2026-05-03T14:41:33.999Z</time></trkpt><trkpt lat="44.35316229909836" lon="7.342201673812962"><ele>1564.0</ele><time>2026-05-03T14:41:34.999Z</time></trkpt><trkpt lat="44.35323206090707" lon="7.342154328070161"><ele>1565.0</ele><time>2026-05-03T14:41:35.999Z</time></trkpt><trkpt lat="44.35330324307113" lon="7.342090790890367"><ele>1566.0</ele><time>2026-05-03T14:41:36.999Z</time></trkpt><trkpt lat="44.353378391987896" lon="7.342047037026641"><ele>1566.9999999999998</ele><time>2026-05-03T14:41:37.999Z</time></trkpt><trkpt lat="44.35346126351255" lon="7.3420211677983565"><ele>1568.0</ele><time>2026-05-03T14:41:38.999Z</time></trkpt><trkpt lat="44.35353044168046" lon="7.341994702450955"><ele>1568.0</ele><time>2026-05-03T14:41:39.999Z</time></trkpt><trkpt lat="44.35359790412084" lon="7.341954303947921"><ele>1568.0</ele><time>2026-05-03T14:41:40.999Z</time></trkpt><trkpt lat="44.35369751770359" lon="7.34188794874935"><ele>1568.0</ele><time>2026-05-03T14:41:42.999Z</time></trkpt><trkpt lat="44.353785426720044" lon="7.34181796962925"><ele>1568.0</ele><time>2026-05-03T14:41:44.999Z</time></trkpt><trkpt lat="44.35388137862874" lon="7.341761904562789"><ele>1568.0</ele><time>2026-05-03T14:41:46.999Z</time></trkpt><trkpt lat="44.353988871296075" lon="7.341682454784788"><ele>1566.857142857143</ele><time>2026-05-03T14:41:48.999Z</time></trkpt><trkpt lat="44.35404647429679" lon="7.3416379415629285"><ele>1565.7142857142858</ele><time>2026-05-03T14:41:49.999Z</time></trkpt><trkpt lat="44.35409875194011" lon="7.341587900270941"><ele>1564.5714285714284</ele><time>2026-05-03T14:41:50.999Z</time></trkpt><trkpt lat="44.35416437121779" lon="7.341544207943603"><ele>1563.4285714285716</ele><time>2026-05-03T14:41:51.999Z</time></trkpt><trkpt lat="44.354245551797774" lon="7.341515021936876"><ele>1562.2857142857142</ele><time>2026-05-03T14:41:52.999Z</time></trkpt><trkpt lat="44.35432652129093" lon="7.341494363687027"><ele>1561.142857142857</ele><time>2026-05-03T14:41:53.999Z</time></trkpt><trkpt lat="44.3543951387388" lon="7.341470212173116"><ele>1560.0</ele><time>2026-05-03T14:41:54.999Z</time></trkpt><trkpt lat="44.35445578191517" lon="7.3414282800393655"><ele>1560.0</ele><time>2026-05-03T14:41:55.999Z</time></trkpt><trkpt lat="44.35452463837188" lon="7.3413974120666"><ele>1560.0</ele><time>2026-05-03T14:41:56.999Z</time></trkpt><trkpt lat="44.35458429582691" lon="7.341365715728839"><ele>1560.0</ele><time>2026-05-03T14:41:57.999Z</time></trkpt><trkpt lat="44.35464303904594" lon="7.341315596740916"><ele>1560.0</ele><time>2026-05-03T14:41:58.999Z</time></trkpt><trkpt lat="44.35471355441708" lon="7.341273800255348"><ele>1560.0</ele><time>2026-05-03T14:41:59.999Z</time></trkpt><trkpt lat="44.35478077236655" lon="7.341238588766108"><ele>1560.0</ele><time>2026-05-03T14:42:00.999Z</time></trkpt><trkpt lat="44.354883946835585" lon="7.341165938082873"><ele>1559.0</ele><time>2026-05-03T14:42:02.998Z</time></trkpt><trkpt lat="44.354936232641265" lon="7.341114192913712"><ele>1558.0</ele><time>2026-05-03T14:42:03.998Z</time></trkpt><trkpt lat="44.354988882068284" lon="7.340997230260912"><ele>1557.0</ele><time>2026-05-03T14:42:05.998Z</time></trkpt><trkpt lat="44.35503769826864" lon="7.3409319982320955"><ele>1556.0</ele><time>2026-05-03T14:42:07.998Z</time></trkpt><trkpt lat="44.355084882110894" lon="7.340856425208553"><ele>1555.0</ele><time>2026-05-03T14:42:09.998Z</time></trkpt><trkpt lat="44.35512090554968" lon="7.340770359602661"><ele>1554.0</ele><time>2026-05-03T14:42:12.998Z</time></trkpt><trkpt lat="44.35517179799802" lon="7.340716511809556"><ele>1553.0</ele><time>2026-05-03T14:42:15.998Z</time></trkpt><trkpt lat="44.3552256942415" lon="7.340581478331465"><ele>1554.25</ele><time>2026-05-03T14:42:19.998Z</time></trkpt><trkpt lat="44.35537272839578" lon="7.3403111332550095"><ele>1555.5</ele><time>2026-05-03T14:42:23.998Z</time></trkpt><trkpt lat="44.355424215834844" lon="7.340200894619288"><ele>1556.75</ele><time>2026-05-03T14:42:25.998Z</time></trkpt><trkpt lat="44.35545417741854" lon="7.3400610571435525"><ele>1558.0</ele><time>2026-05-03T14:42:28Z</time></trkpt><trkpt lat="44.35546257412616" lon="7.339967670281025"><ele>1558.0</ele><time>2026-05-03T14:42:29Z</time></trkpt><trkpt lat="44.35547143939901" lon="7.339879792160124"><ele>1558.0</ele><time>2026-05-03T14:42:30Z</time></trkpt><trkpt lat="44.355488624443524" lon="7.339724131975435"><ele>1558.0</ele><time>2026-05-03T14:42:32Z</time></trkpt><trkpt lat="44.35553073566122" lon="7.339569079030488"><ele>1558.0</ele><time>2026-05-03T14:42:34Z</time></trkpt><trkpt lat="44.35559086744433" lon="7.339436128741207"><ele>1558.0</ele><time>2026-05-03T14:42:36Z</time></trkpt><trkpt lat="44.3556558371479" lon="7.33934180424166"><ele>1549.0</ele><time>2026-05-03T14:42:38Z</time></trkpt><trkpt lat="44.35573021458689" lon="7.3392138080798945"><ele>1540.0</ele><time>2026-05-03T14:42:40Z</time></trkpt><trkpt lat="44.355790792093494" lon="7.339083955634868"><ele>1531.0</ele><time>2026-05-03T14:42:42Z</time></trkpt><trkpt lat="44.35586623978021" lon="7.339002097920416"><ele>1522.0</ele><time>2026-05-03T14:42:44Z</time></trkpt><trkpt lat="44.3559295922407" lon="7.338798929645526"><ele>1522.0</ele><time>2026-05-03T14:42:48Z</time></trkpt><trkpt lat="44.356005238851985" lon="7.338738288596439"><ele>1522.0</ele><time>2026-05-03T14:42:50Z</time></trkpt><trkpt lat="44.35607211808132" lon="7.338786033331371"><ele>1522.0</ele><time>2026-05-03T14:42:52Z</time></trkpt><trkpt lat="44.35616184909925" lon="7.3387645717950045"><ele>1522.0</ele><time>2026-05-03T14:42:54Z</time></trkpt><trkpt lat="44.35620941734237" lon="7.338701651995053"><ele>1522.0</ele><time>2026-05-03T14:42:56Z</time></trkpt><trkpt lat="44.356223767778985" lon="7.338597459997745"><ele>1522.0</ele><time>2026-05-03T14:43:02Z</time></trkpt><trkpt lat="44.35621898658354" lon="7.338483454818615"><ele>1522.0</ele><time>2026-05-03T14:43:06Z</time></trkpt><trkpt lat="44.35624636520966" lon="7.338344912191965"><ele>1522.0</ele><time>2026-05-03T14:43:26.999Z</time></trkpt><trkpt lat="44.35628468293772" lon="7.338158205316144"><ele>1522.0</ele><time>2026-05-03T14:43:28.999Z</time></trkpt><trkpt lat="44.356303914722" lon="7.338044524322607"><ele>1522.0</ele><time>2026-05-03T14:43:29.999Z</time></trkpt><trkpt lat="44.35632210552551" lon="7.337918909655991"><ele>1522.0</ele><time>2026-05-03T14:43:30.999Z</time></trkpt><trkpt lat="44.35634779643926" lon="7.33779509403917"><ele>1521.0</ele><time>2026-05-03T14:43:31.999Z</time></trkpt><trkpt lat="44.35637358396771" lon="7.337679307099244"><ele>1520.0</ele><time>2026-05-03T14:43:32.999Z</time></trkpt><trkpt lat="44.35638896847126" lon="7.33758320322556"><ele>1519.0</ele><time>2026-05-03T14:43:33.999Z</time></trkpt><trkpt lat="44.3564073545484" lon="7.337486324957609"><ele>1518.0</ele><time>2026-05-03T14:43:34.999Z</time></trkpt><trkpt lat="44.35643399951762" lon="7.337373459394775"><ele>1517.0</ele><time>2026-05-03T14:43:35.999Z</time></trkpt><trkpt lat="44.356454713348455" lon="7.337265380392935"><ele>1516.0</ele><time>2026-05-03T14:43:36.999Z</time></trkpt><trkpt lat="44.3564780691971" lon="7.337168743158528"><ele>1516.0000000000002</ele><time>2026-05-03T14:43:37.999Z</time></trkpt><trkpt lat="44.35650307863739" lon="7.337062819948876"><ele>1516.0</ele><time>2026-05-03T14:43:38.999Z</time></trkpt><trkpt lat="44.35653428838821" lon="7.336966410880345"><ele>1516.0</ele><time>2026-05-03T14:43:39.999Z</time></trkpt><trkpt lat="44.3565575859143" lon="7.336867656375933"><ele>1516.0</ele><time>2026-05-03T14:43:40.999Z</time></trkpt><trkpt lat="44.35658337472649" lon="7.33676683398366"><ele>1516.0</ele><time>2026-05-03T14:43:41.999Z</time></trkpt><trkpt lat="44.3566187377401" lon="7.336683554531628"><ele>1516.0000000000002</ele><time>2026-05-03T14:43:42.999Z</time></trkpt><trkpt lat="44.35666509213418" lon="7.336611163332796"><ele>1516.0</ele><time>2026-05-03T14:43:43.999Z</time></trkpt><trkpt lat="44.356713248332426" lon="7.336526234383939"><ele>1516.0000000000002</ele><time>2026-05-03T14:43:44.999Z</time></trkpt><trkpt lat="44.35676021493359" lon="7.336453097308134"><ele>1516.0</ele><time>2026-05-03T14:43:45.999Z</time></trkpt><trkpt lat="44.356809453893014" lon="7.336394432006527"><ele>1516.0</ele><time>2026-05-03T14:43:46.999Z</time></trkpt><trkpt lat="44.35686676065972" lon="7.33634080955434"><ele>1516.0</ele><time>2026-05-03T14:43:47.999Z</time></trkpt><trkpt lat="44.356929434221875" lon="7.336283924019219"><ele>1516.0</ele><time>2026-05-03T14:43:48.999Z</time></trkpt><trkpt lat="44.35698461698799" lon="7.336211182985889"><ele>1516.0000000000002</ele><time>2026-05-03T14:43:49.999Z</time></trkpt><trkpt lat="44.35703914891293" lon="7.336156824481834"><ele>1516.0</ele><time>2026-05-03T14:43:50.999Z</time></trkpt><trkpt lat="44.35709548891669" lon="7.336109440455561"><ele>1516.1666666666665</ele><time>2026-05-03T14:43:51.999Z</time></trkpt><trkpt lat="44.35715513260822" lon="7.336061639190967"><ele>1516.3333333333333</ele><time>2026-05-03T14:43:52.999Z</time></trkpt><trkpt lat="44.35722458772655" lon="7.336019430943056"><ele>1516.5</ele><time>2026-05-03T14:43:53.999Z</time></trkpt><trkpt lat="44.35730235963106" lon="7.336000503510688"><ele>1516.6666666666667</ele><time>2026-05-03T14:43:54.999Z</time></trkpt><trkpt lat="44.35736951741049" lon="7.336017320059097"><ele>1516.8333333333335</ele><time>2026-05-03T14:43:55.999Z</time></trkpt><trkpt lat="44.35748100816918" lon="7.336035662201705"><ele>1517.0</ele><time>2026-05-03T14:43:57.999Z</time></trkpt><trkpt lat="44.3575538439425" lon="7.3359910284298975"><ele>1518.1999999999998</ele><time>2026-05-03T14:43:59.999Z</time></trkpt><trkpt lat="44.35760742065551" lon="7.3359152416272995"><ele>1519.4</ele><time>2026-05-03T14:44:00.999Z</time></trkpt><trkpt lat="44.35764850461151" lon="7.33583568800481"><ele>1520.6</ele><time>2026-05-03T14:44:01.999Z</time></trkpt><trkpt lat="44.35769814939692" lon="7.335673663408722"><ele>1521.8000000000002</ele><time>2026-05-03T14:44:03.999Z</time></trkpt><trkpt lat="44.35770721262066" lon="7.335583436006971"><ele>1523.0</ele><time>2026-05-03T14:44:04.999Z</time></trkpt><trkpt lat="44.35761836392528" lon="7.3354694051902"><ele>1527.0</ele><time>2026-05-03T14:44:06.998Z</time></trkpt><trkpt lat="44.3575237106791" lon="7.335385476744884"><ele>1531.0</ele><time>2026-05-03T14:44:08.998Z</time></trkpt><trkpt lat="44.35748627546706" lon="7.335295477755426"><ele>1535.0</ele><time>2026-05-03T14:44:09.998Z</time></trkpt><trkpt lat="44.35743609760937" lon="7.335225166544478"><ele>1539.0</ele><time>2026-05-03T14:44:10.998Z</time></trkpt><trkpt lat="44.35737042284317" lon="7.335154037170439"><ele>1542.9999999999998</ele><time>2026-05-03T14:44:11.998Z</time></trkpt><trkpt lat="44.35731052910953" lon="7.33508223440427"><ele>1547.0</ele><time>2026-05-03T14:44:12.998Z</time></trkpt><trkpt lat="44.35725123074754" lon="7.335015273735726"><ele>1548.4999999999998</ele><time>2026-05-03T14:44:13.998Z</time></trkpt><trkpt lat="44.35719503375713" lon="7.334957585014995"><ele>1550.0</ele><time>2026-05-03T14:44:14.998Z</time></trkpt><trkpt lat="44.35713521668505" lon="7.334901333786539"><ele>1551.5</ele><time>2026-05-03T14:44:15.998Z</time></trkpt><trkpt lat="44.357066274023175" lon="7.334848595671469"><ele>1553.0</ele><time>2026-05-03T14:44:16.998Z</time></trkpt><trkpt lat="44.3570141916492" lon="7.334767711494393"><ele>1554.4999999999998</ele><time>2026-05-03T14:44:17.998Z</time></trkpt><trkpt lat="44.356946950609704" lon="7.334701186755846"><ele>1556.0</ele><time>2026-05-03T14:44:18.998Z</time></trkpt><trkpt lat="44.35688454511184" lon="7.334629521991382"><ele>1555.9999999999998</ele><time>2026-05-03T14:44:19.998Z</time></trkpt><trkpt lat="44.35682262654833" lon="7.33453996134083"><ele>1556.0</ele><time>2026-05-03T14:44:20.998Z</time></trkpt><trkpt lat="44.356767906609704" lon="7.33444499935155"><ele>1556.0</ele><time>2026-05-03T14:44:21.998Z</time></trkpt><trkpt lat="44.35672272508853" lon="7.334355954078509"><ele>1556.0</ele><time>2026-05-03T14:44:22.998Z</time></trkpt><trkpt lat="44.35667063463369" lon="7.33426499531996"><ele>1555.9999999999998</ele><time>2026-05-03T14:44:23.998Z</time></trkpt><trkpt lat="44.356616681055776" lon="7.334177742790633"><ele>1556.0</ele><time>2026-05-03T14:44:24.998Z</time></trkpt><trkpt lat="44.35655900553388" lon="7.334092419152967"><ele>1556.0</ele><time>2026-05-03T14:44:25.998Z</time></trkpt><trkpt lat="44.35650562294172" lon="7.334018545081945"><ele>1556.0</ele><time>2026-05-03T14:44:26.998Z</time></trkpt><trkpt lat="44.35646019827227" lon="7.3339519778957145"><ele>1556.0</ele><time>2026-05-03T14:44:27.998Z</time></trkpt><trkpt lat="44.356446078986174" lon="7.33382815520795"><ele>1556.0</ele><time>2026-05-03T14:44:29.998Z</time></trkpt><trkpt lat="44.35646280216545" lon="7.333673442555604"><ele>1556.0</ele><time>2026-05-03T14:44:31.998Z</time></trkpt><trkpt lat="44.35639675251775" lon="7.333545137362404"><ele>1559.4999999999998</ele><time>2026-05-03T14:44:34Z</time></trkpt><trkpt lat="44.35633780714723" lon="7.3335102783512"><ele>1563.0</ele><time>2026-05-03T14:44:35Z</time></trkpt><trkpt lat="44.35628522134363" lon="7.333458978598048"><ele>1566.5</ele><time>2026-05-03T14:44:36Z</time></trkpt><trkpt lat="44.35622840894074" lon="7.333409817304536"><ele>1570.0</ele><time>2026-05-03T14:44:37Z</time></trkpt><trkpt lat="44.35612614839955" lon="7.333459056954483"><ele>1573.4999999999998</ele><time>2026-05-03T14:44:39Z</time></trkpt><trkpt lat="44.35601607216046" lon="7.333474121360121"><ele>1577.0</ele><time>2026-05-03T14:44:41Z</time></trkpt><trkpt lat="44.35594520141613" lon="7.333435869271656"><ele>1577.0</ele><time>2026-05-03T14:44:42Z</time></trkpt><trkpt lat="44.355865623836124" lon="7.333401211902108"><ele>1577.0</ele><time>2026-05-03T14:44:43Z</time></trkpt><trkpt lat="44.355785386619786" lon="7.333375816239899"><ele>1577.0</ele><time>2026-05-03T14:44:44Z</time></trkpt><trkpt lat="44.35571428260883" lon="7.333396924633717"><ele>1577.0</ele><time>2026-05-03T14:44:45Z</time></trkpt><trkpt lat="44.355608341124984" lon="7.333479309876235"><ele>1577.0</ele><time>2026-05-03T14:44:47Z</time></trkpt><trkpt lat="44.355492514380956" lon="7.33352155553226"><ele>1576.9999999999998</ele><time>2026-05-03T14:44:49Z</time></trkpt><trkpt lat="44.35543179369737" lon="7.333484619133297"><ele>1577.0</ele><time>2026-05-03T14:44:52Z</time></trkpt><trkpt lat="44.355462832321386" lon="7.333391694171405"><ele>1577.0</ele><time>2026-05-03T14:44:55Z</time></trkpt><trkpt lat="44.35552766954038" lon="7.33326445847829"><ele>1577.0</ele><time>2026-05-03T14:44:57Z</time></trkpt><trkpt lat="44.355599509885046" lon="7.333116637268615"><ele>1576.9999999999998</ele><time>2026-05-03T14:44:59Z</time></trkpt><trkpt lat="44.355644778871195" lon="7.333047049254003"><ele>1577.0</ele><time>2026-05-03T14:45:00Z</time></trkpt><trkpt lat="44.35568691567762" lon="7.332975286769522"><ele>1579.4999999999998</ele><time>2026-05-03T14:45:01Z</time></trkpt><trkpt lat="44.35573505790305" lon="7.332904314210395"><ele>1582.0</ele><time>2026-05-03T14:45:02Z</time></trkpt><trkpt lat="44.355776919810985" lon="7.332825226977854"><ele>1584.5</ele><time>2026-05-03T14:45:03Z</time></trkpt><trkpt lat="44.35581043972069" lon="7.332750598657426"><ele>1587.0</ele><time>2026-05-03T14:45:04Z</time></trkpt><trkpt lat="44.35585080429602" lon="7.33267781669707"><ele>1589.4999999999998</ele><time>2026-05-03T14:45:05Z</time></trkpt><trkpt lat="44.35593084590808" lon="7.33253174028901"><ele>1592.0</ele><time>2026-05-03T14:45:07Z</time></trkpt><trkpt lat="44.356011913527794" lon="7.332413865697724"><ele>1591.9999999999998</ele><time>2026-05-03T14:45:09Z</time></trkpt><trkpt lat="44.35601038764606" lon="7.332296898728387"><ele>1592.0</ele><time>2026-05-03T14:45:11Z</time></trkpt><trkpt lat="44.35600674298727" lon="7.332207738652062"><ele>1592.0</ele><time>2026-05-03T14:45:12Z</time></trkpt><trkpt lat="44.35601459430717" lon="7.332115167429072"><ele>1592.0</ele><time>2026-05-03T14:45:13Z</time></trkpt><trkpt lat="44.35602241464043" lon="7.331958318325159"><ele>1591.9999999999998</ele><time>2026-05-03T14:45:14.999Z</time></trkpt><trkpt lat="44.35602260424098" lon="7.331869930695869"><ele>1592.0</ele><time>2026-05-03T14:45:15.999Z</time></trkpt><trkpt lat="44.356021908470986" lon="7.331768579308459"><ele>1593.9999999999998</ele><time>2026-05-03T14:45:16.999Z</time></trkpt><trkpt lat="44.356035148588944" lon="7.331669526048508"><ele>1596.0</ele><time>2026-05-03T14:45:17.999Z</time></trkpt><trkpt lat="44.356047269312185" lon="7.331561711500442"><ele>1598.0</ele><time>2026-05-03T14:45:18.999Z</time></trkpt><trkpt lat="44.35605564655798" lon="7.3314501550841"><ele>1600.0</ele><time>2026-05-03T14:45:19.999Z</time></trkpt><trkpt lat="44.35605871657688" lon="7.331332006334293"><ele>1601.9999999999998</ele><time>2026-05-03T14:45:20.999Z</time></trkpt><trkpt lat="44.356081407925515" lon="7.331203469073278"><ele>1604.0</ele><time>2026-05-03T14:45:21.999Z</time></trkpt><trkpt lat="44.35610227536101" lon="7.331068950741109"><ele>1607.1666666666665</ele><time>2026-05-03T14:45:22.999Z</time></trkpt><trkpt lat="44.35612638185823" lon="7.330948673414348"><ele>1610.3333333333333</ele><time>2026-05-03T14:45:23.999Z</time></trkpt><trkpt lat="44.35615713219053" lon="7.330832455865799"><ele>1613.5</ele><time>2026-05-03T14:45:24.999Z</time></trkpt><trkpt lat="44.35618298056299" lon="7.330731866896992"><ele>1616.6666666666665</ele><time>2026-05-03T14:45:25.999Z</time></trkpt><trkpt lat="44.356190625495714" lon="7.330623868780016"><ele>1619.8333333333333</ele><time>2026-05-03T14:45:27.999Z</time></trkpt><trkpt lat="44.35624096792895" lon="7.33068119239839"><ele>1623.0</ele><time>2026-05-03T14:45:32.999Z</time></trkpt><trkpt lat="44.35630232262414" lon="7.330910914763993"><ele>1623.0</ele><time>2026-05-03T14:45:34.999Z</time></trkpt><trkpt lat="44.35633321939581" lon="7.331003855912773"><ele>1623.0</ele><time>2026-05-03T14:45:35.999Z</time></trkpt><trkpt lat="44.3563772063576" lon="7.331129390757292"><ele>1623.0</ele><time>2026-05-03T14:45:36.999Z</time></trkpt><trkpt lat="44.3564217628861" lon="7.331255374954276"><ele>1623.0</ele><time>2026-05-03T14:45:37.999Z</time></trkpt><trkpt lat="44.35646563290291" lon="7.331338470499793"><ele>1623.0</ele><time>2026-05-03T14:45:38.999Z</time></trkpt><trkpt lat="44.356520996832046" lon="7.331422038808173"><ele>1623.0</ele><time>2026-05-03T14:45:39.999Z</time></trkpt><trkpt lat="44.35657575548227" lon="7.3314976790063815"><ele>1626.1666666666667</ele><time>2026-05-03T14:45:40.999Z</time></trkpt><trkpt lat="44.35665017530418" lon="7.331580871482158"><ele>1629.3333333333335</ele><time>2026-05-03T14:45:42.999Z</time></trkpt><trkpt lat="44.35666267964243" lon="7.331487863537705"><ele>1632.5</ele><time>2026-05-03T14:45:44.999Z</time></trkpt><trkpt lat="44.356631768334495" lon="7.331364764102117"><ele>1635.6666666666667</ele><time>2026-05-03T14:45:46.999Z</time></trkpt><trkpt lat="44.35662649053724" lon="7.3312638299258115"><ele>1638.8333333333335</ele><time>2026-05-03T14:45:47.999Z</time></trkpt><trkpt lat="44.3566168901271" lon="7.331145429266109"><ele>1642.0</ele><time>2026-05-03T14:45:48.999Z</time></trkpt><trkpt lat="44.356599123363786" lon="7.331038324067214"><ele>1646.8</ele><time>2026-05-03T14:45:49.999Z</time></trkpt><trkpt lat="44.35658046996357" lon="7.330936954026391"><ele>1651.6</ele><time>2026-05-03T14:45:50.999Z</time></trkpt><trkpt lat="44.356567155472426" lon="7.330846349928255"><ele>1656.3999999999999</ele><time>2026-05-03T14:45:51.999Z</time></trkpt><trkpt lat="44.35658886649095" lon="7.330701192391656"><ele>1661.1999999999998</ele><time>2026-05-03T14:45:53.999Z</time></trkpt><trkpt lat="44.35656807973215" lon="7.330608397062438"><ele>1666.0</ele><time>2026-05-03T14:45:54.999Z</time></trkpt><trkpt lat="44.356555695829236" lon="7.330391007868284"><ele>1668.4</ele><time>2026-05-03T14:45:56.999Z</time></trkpt><trkpt lat="44.35654401427689" lon="7.33026378915717"><ele>1670.8</ele><time>2026-05-03T14:45:57.999Z</time></trkpt><trkpt lat="44.35652408192795" lon="7.33013786337346"><ele>1673.2</ele><time>2026-05-03T14:45:58.999Z</time></trkpt><trkpt lat="44.356485063795496" lon="7.330014965437987"><ele>1675.6000000000001</ele><time>2026-05-03T14:45:59.999Z</time></trkpt><trkpt lat="44.35644137784791" lon="7.329898786689642"><ele>1678.0</ele><time>2026-05-03T14:46:00.999Z</time></trkpt><trkpt lat="44.356407464395026" lon="7.329796189532012"><ele>1678.3333333333335</ele><time>2026-05-03T14:46:01.999Z</time></trkpt><trkpt lat="44.35637359442145" lon="7.329680872622806"><ele>1678.6666666666667</ele><time>2026-05-03T14:46:02.999Z</time></trkpt><trkpt lat="44.35634022944904" lon="7.329566969982468"><ele>1679.0</ele><time>2026-05-03T14:46:03.999Z</time></trkpt><trkpt lat="44.356305636812344" lon="7.329450040841235"><ele>1679.3333333333335</ele><time>2026-05-03T14:46:04.999Z</time></trkpt><trkpt lat="44.356276430367345" lon="7.329359362985978"><ele>1679.6666666666667</ele><time>2026-05-03T14:46:05.999Z</time></trkpt><trkpt lat="44.35623571947194" lon="7.3292816548751265"><ele>1680.0</ele><time>2026-05-03T14:46:06.999Z</time></trkpt><trkpt lat="44.35615123087364" lon="7.329167982553505"><ele>1680.0</ele><time>2026-05-03T14:46:08.999Z</time></trkpt><trkpt lat="44.35606543510656" lon="7.329031227303608"><ele>1680.0</ele><time>2026-05-03T14:46:10.998Z</time></trkpt><trkpt lat="44.35601496247791" lon="7.3289589575855585"><ele>1680.0</ele><time>2026-05-03T14:46:11.998Z</time></trkpt><trkpt lat="44.35596598739041" lon="7.328899620111682"><ele>1680.0</ele><time>2026-05-03T14:46:12.998Z</time></trkpt><trkpt lat="44.3559121161979" lon="7.328844312532658"><ele>1680.0</ele><time>2026-05-03T14:46:13.998Z</time></trkpt><trkpt lat="44.35583934524071" lon="7.328810984884444"><ele>1680.0</ele><time>2026-05-03T14:46:14.998Z</time></trkpt><trkpt lat="44.35576097347159" lon="7.328709728943093"><ele>1680.6</ele><time>2026-05-03T14:46:16.998Z</time></trkpt><trkpt lat="44.355710504861506" lon="7.328646954882728"><ele>1681.2</ele><time>2026-05-03T14:46:24.998Z</time></trkpt><trkpt lat="44.355634884224784" lon="7.328553025148534"><ele>1681.8000000000002</ele><time>2026-05-03T14:46:26.998Z</time></trkpt><trkpt lat="44.35554157883497" lon="7.328452176610186"><ele>1682.4</ele><time>2026-05-03T14:46:28.998Z</time></trkpt><trkpt lat="44.355497752981215" lon="7.3283008139286645"><ele>1683.0</ele><time>2026-05-03T14:46:30.998Z</time></trkpt><trkpt lat="44.35549876408522" lon="7.328206948871316"><ele>1688.6000000000001</ele><time>2026-05-03T14:46:31.998Z</time></trkpt><trkpt lat="44.35554409701103" lon="7.32806432610496"><ele>1694.2</ele><time>2026-05-03T14:46:33.998Z</time></trkpt><trkpt lat="44.35559954207694" lon="7.327946328632123"><ele>1699.8</ele><time>2026-05-03T14:46:35.998Z</time></trkpt><trkpt lat="44.3556195761807" lon="7.327769214196483"><ele>1705.4</ele><time>2026-05-03T14:46:37.998Z</time></trkpt><trkpt lat="44.35564595178818" lon="7.327647462332448"><ele>1711.0</ele><time>2026-05-03T14:46:39Z</time></trkpt><trkpt lat="44.35565013522887" lon="7.327555300709051"><ele>1712.1999999999998</ele><time>2026-05-03T14:46:40Z</time></trkpt><trkpt lat="44.355664861963646" lon="7.327465727521939"><ele>1713.3999999999999</ele><time>2026-05-03T14:46:41Z</time></trkpt><trkpt lat="44.355692112073484" lon="7.327327905601442"><ele>1714.6</ele><time>2026-05-03T14:46:43Z</time></trkpt><trkpt lat="44.35568889554942" lon="7.3271875726427265"><ele>1715.8</ele><time>2026-05-03T14:46:46Z</time></trkpt><trkpt lat="44.35576453074182" lon="7.3270426591068665"><ele>1717.0</ele><time>2026-05-03T14:46:49Z</time></trkpt><trkpt lat="44.35584360050386" lon="7.326958726341367"><ele>1714.6666666666667</ele><time>2026-05-03T14:46:51Z</time></trkpt><trkpt lat="44.355895335239865" lon="7.32690548260373"><ele>1712.3333333333335</ele><time>2026-05-03T14:46:52Z</time></trkpt><trkpt lat="44.35596342084694" lon="7.326839194941359"><ele>1710.0</ele><time>2026-05-03T14:46:53Z</time></trkpt><trkpt lat="44.35601879570625" lon="7.326760247068297"><ele>1707.6666666666665</ele><time>2026-05-03T14:46:54Z</time></trkpt><trkpt lat="44.356088411202826" lon="7.326644762559603"><ele>1705.3333333333333</ele><time>2026-05-03T14:46:55Z</time></trkpt><trkpt lat="44.35614546142914" lon="7.326545033843029"><ele>1703.0</ele><time>2026-05-03T14:46:56Z</time></trkpt><trkpt lat="44.356192329613954" lon="7.326454320805277"><ele>1702.2857142857144</ele><time>2026-05-03T14:46:57Z</time></trkpt><trkpt lat="44.356221569282575" lon="7.32635522950602"><ele>1701.5714285714284</ele><time>2026-05-03T14:46:58Z</time></trkpt><trkpt lat="44.35625044930932" lon="7.326258577283703"><ele>1700.857142857143</ele><time>2026-05-03T14:46:59Z</time></trkpt><trkpt lat="44.356273473636506" lon="7.326160028535107"><ele>1700.1428571428573</ele><time>2026-05-03T14:47:00Z</time></trkpt><trkpt lat="44.35627008164098" lon="7.326057120863809"><ele>1699.4285714285716</ele><time>2026-05-03T14:47:01Z</time></trkpt><trkpt lat="44.35625005791206" lon="7.32596224837988"><ele>1698.7142857142858</ele><time>2026-05-03T14:47:02Z</time></trkpt><trkpt lat="44.356219662548476" lon="7.325873549527999"><ele>1698.0</ele><time>2026-05-03T14:47:03Z</time></trkpt><trkpt lat="44.35619430153152" lon="7.325717405021964"><ele>1698.0</ele><time>2026-05-03T14:47:05Z</time></trkpt><trkpt lat="44.356280545841564" lon="7.325598248251943"><ele>1698.0</ele><time>2026-05-03T14:47:07Z</time></trkpt><trkpt lat="44.356284045648515" lon="7.325492792596041"><ele>1698.0</ele><time>2026-05-03T14:47:08Z</time></trkpt><trkpt lat="44.356294146044526" lon="7.325352532675672"><ele>1698.0</ele><time>2026-05-03T14:47:09Z</time></trkpt><trkpt lat="44.35631546859028" lon="7.325257996305187"><ele>1698.0</ele><time>2026-05-03T14:47:10Z</time></trkpt><trkpt lat="44.35632144329862" lon="7.325126950653238"><ele>1699.5</ele><time>2026-05-03T14:47:12Z</time></trkpt><trkpt lat="44.35637430225222" lon="7.324996111061695"><ele>1701.0</ele><time>2026-05-03T14:47:14Z</time></trkpt><trkpt lat="44.35636149800534" lon="7.324858411256239"><ele>1702.5</ele><time>2026-05-03T14:47:16Z</time></trkpt><trkpt lat="44.35636205087775" lon="7.324762115057766"><ele>1704.0</ele><time>2026-05-03T14:47:17Z</time></trkpt><trkpt lat="44.35634919382055" lon="7.324649790825252"><ele>1705.5</ele><time>2026-05-03T14:47:17.999Z</time></trkpt><trkpt lat="44.35635517743401" lon="7.324536942531194"><ele>1707.0</ele><time>2026-05-03T14:47:18.999Z</time></trkpt><trkpt lat="44.3562715957745" lon="7.324418897747441"><ele>1711.1999999999998</ele><time>2026-05-03T14:47:20.999Z</time></trkpt><trkpt lat="44.356196546315616" lon="7.324282291568051"><ele>1715.3999999999999</ele><time>2026-05-03T14:47:22.999Z</time></trkpt><trkpt lat="44.35618065314591" lon="7.324161382290697"><ele>1719.6000000000001</ele><time>2026-05-03T14:47:24.999Z</time></trkpt><trkpt lat="44.35620976319764" lon="7.324053157809936"><ele>1723.8000000000002</ele><time>2026-05-03T14:47:26.999Z</time></trkpt><trkpt lat="44.35620836290272" lon="7.323846859048143"><ele>1728.0</ele><time>2026-05-03T14:47:30.999Z</time></trkpt><trkpt lat="44.35616727694138" lon="7.323706710008022"><ele>1731.2</ele><time>2026-05-03T14:47:32.999Z</time></trkpt><trkpt lat="44.356126858566384" lon="7.323594529838845"><ele>1734.4</ele><time>2026-05-03T14:47:34.999Z</time></trkpt><trkpt lat="44.35611609599039" lon="7.323498943292549"><ele>1737.6000000000001</ele><time>2026-05-03T14:47:37.999Z</time></trkpt><trkpt lat="44.35608714388774" lon="7.323388078799105"><ele>1740.8000000000002</ele><time>2026-05-03T14:48:35.998Z</time></trkpt><trkpt lat="44.356018964050236" lon="7.323230806818049"><ele>1744.0</ele><time>2026-05-03T14:48:37.998Z</time></trkpt><trkpt lat="44.35597215014357" lon="7.323132968879089"><ele>1745.6</ele><time>2026-05-03T14:48:38.998Z</time></trkpt><trkpt lat="44.355929636724035" lon="7.323017054744102"><ele>1747.2</ele><time>2026-05-03T14:48:39.998Z</time></trkpt><trkpt lat="44.3559118331723" lon="7.322897041895144"><ele>1748.7999999999997</ele><time>2026-05-03T14:48:40.998Z</time></trkpt><trkpt lat="44.35589274458385" lon="7.322765607435306"><ele>1750.3999999999999</ele><time>2026-05-03T14:48:41.998Z</time></trkpt><trkpt lat="44.355877655388845" lon="7.322624079450617"><ele>1752.0</ele><time>2026-05-03T14:48:42.998Z</time></trkpt><trkpt lat="44.355859050001776" lon="7.322462686340681"><ele>1752.0</ele><time>2026-05-03T14:48:43.998Z</time></trkpt><trkpt lat="44.355838548576855" lon="7.32231667129814"><ele>1751.9999999999998</ele><time>2026-05-03T14:48:45Z</time></trkpt><trkpt lat="44.35582209637743" lon="7.3221909847031945"><ele>1751.9999999999998</ele><time>2026-05-03T14:48:46Z</time></trkpt><trkpt lat="44.35580578950624" lon="7.322079147868958"><ele>1752.0</ele><time>2026-05-03T14:48:47Z</time></trkpt><trkpt lat="44.355777743313766" lon="7.321931529420365"><ele>1752.0</ele><time>2026-05-03T14:48:49Z</time></trkpt><trkpt lat="44.355732156025184" lon="7.321790216669649"><ele>1753.6</ele><time>2026-05-03T14:48:51Z</time></trkpt><trkpt lat="44.3557378293542" lon="7.321615141783311"><ele>1755.1999999999998</ele><time>2026-05-03T14:48:53Z</time></trkpt><trkpt lat="44.35573278231708" lon="7.321452888537638"><ele>1756.8</ele><time>2026-05-03T14:48:55Z</time></trkpt><trkpt lat="44.35570078726745" lon="7.32134665307845"><ele>1758.4</ele><time>2026-05-03T14:48:57Z</time></trkpt><trkpt lat="44.35565432558577" lon="7.3212801491466815"><ele>1760.0</ele><time>2026-05-03T14:49:02Z</time></trkpt><trkpt lat="44.35566725498118" lon="7.321169992356125"><ele>1761.8333333333333</ele><time>2026-05-03T14:49:04Z</time></trkpt><trkpt lat="44.355695178048194" lon="7.321067275419527"><ele>1763.6666666666665</ele><time>2026-05-03T14:49:07Z</time></trkpt><trkpt lat="44.35566779380316" lon="7.320978873654731"><ele>1765.5</ele><time>2026-05-03T14:49:09Z</time></trkpt><trkpt lat="44.35565956158963" lon="7.320887747042585"><ele>1767.3333333333335</ele><time>2026-05-03T14:49:11Z</time></trkpt><trkpt lat="44.35567467132078" lon="7.320755266326052"><ele>1769.1666666666667</ele><time>2026-05-03T14:49:13Z</time></trkpt><trkpt lat="44.35568221662665" lon="7.320663060125364"><ele>1771.0</ele><time>2026-05-03T14:49:16Z</time></trkpt><trkpt lat="44.355676269150315" lon="7.320517460863673"><ele>1773.5000000000002</ele><time>2026-05-03T14:49:19Z</time></trkpt><trkpt lat="44.3556411199447" lon="7.320443451050797"><ele>1776.0</ele><time>2026-05-03T14:49:21Z</time></trkpt><trkpt lat="44.355577988714415" lon="7.320455246401194"><ele>1778.5</ele><time>2026-05-03T14:49:24Z</time></trkpt><trkpt lat="44.35549167326856" lon="7.320424958714373"><ele>1781.0</ele><time>2026-05-03T14:49:28.999Z</time></trkpt><trkpt lat="44.35551192375443" lon="7.3202982430688195"><ele>1783.5000000000002</ele><time>2026-05-03T14:51:36.999Z</time></trkpt><trkpt lat="44.355470610620074" lon="7.320145597841663"><ele>1786.0</ele><time>2026-05-03T14:51:38.999Z</time></trkpt><trkpt lat="44.35543843644231" lon="7.320040553903052"><ele>1786.6666666666667</ele><time>2026-05-03T14:51:40.999Z</time></trkpt><trkpt lat="44.35540712771249" lon="7.319933882330776"><ele>1787.3333333333335</ele><time>2026-05-03T14:51:43.999Z</time></trkpt><trkpt lat="44.355492427862465" lon="7.319927050670239"><ele>1788.0</ele><time>2026-05-03T14:51:46.999Z</time></trkpt><trkpt lat="44.35551340201336" lon="7.319833985983973"><ele>1788.6666666666665</ele><time>2026-05-03T14:51:49.999Z</time></trkpt><trkpt lat="44.355466813670475" lon="7.319766160825026"><ele>1789.3333333333333</ele><time>2026-05-03T14:51:51.999Z</time></trkpt><trkpt lat="44.355417596393586" lon="7.319654754897517"><ele>1790.0</ele><time>2026-05-03T14:51:53.999Z</time></trkpt><trkpt lat="44.35540515446956" lon="7.319560840953805"><ele>1793.4999999999998</ele><time>2026-05-03T14:51:55.999Z</time></trkpt><trkpt lat="44.35536178405508" lon="7.319459069976128"><ele>1797.0</ele><time>2026-05-03T14:52:01.999Z</time></trkpt><trkpt lat="44.355327745197435" lon="7.31936886518716"><ele>1800.5</ele><time>2026-05-03T14:52:03.999Z</time></trkpt><trkpt lat="44.35527795480643" lon="7.3193009088363254"><ele>1804.0</ele><time>2026-05-03T14:52:05.999Z</time></trkpt><trkpt lat="44.35525859841714" lon="7.319189611427474"><ele>1807.4999999999998</ele><time>2026-05-03T14:52:07.999Z</time></trkpt><trkpt lat="44.35526829898367" lon="7.319093513993106"><ele>1811.0</ele><time>2026-05-03T14:52:38.998Z</time></trkpt><trkpt lat="44.35529896924654" lon="7.318956209848884"><ele>1809.75</ele><time>2026-05-03T14:52:40.998Z</time></trkpt><trkpt lat="44.35534728123609" lon="7.318813809905952"><ele>1808.5</ele><time>2026-05-03T14:52:42.998Z</time></trkpt><trkpt lat="44.35538011439997" lon="7.31866858985313"><ele>1807.25</ele><time>2026-05-03T14:52:44.998Z</time></trkpt><trkpt lat="44.3554318296219" lon="7.3184971092466995"><ele>1806.0</ele><time>2026-05-03T14:52:46.998Z</time></trkpt><trkpt lat="44.35543284887315" lon="7.3183350907782705"><ele>1806.0</ele><time>2026-05-03T14:52:48.998Z</time></trkpt><trkpt lat="44.35545053934175" lon="7.31816502509833"><ele>1806.0</ele><time>2026-05-03T14:52:50.998Z</time></trkpt><trkpt lat="44.355463128141714" lon="7.318002143055865"><ele>1806.0</ele><time>2026-05-03T14:52:52.998Z</time></trkpt><trkpt lat="44.35547503087519" lon="7.317906081001565"><ele>1806.0</ele><time>2026-05-03T14:52:54.998Z</time></trkpt><trkpt lat="44.3554790654149" lon="7.317768755367769"><ele>1806.0</ele><time>2026-05-03T14:52:57Z</time></trkpt><trkpt lat="44.355457968340545" lon="7.317673630490669"><ele>1804.1666666666667</ele><time>2026-05-03T14:52:58Z</time></trkpt><trkpt lat="44.355431734635" lon="7.317583427379466"><ele>1802.3333333333335</ele><time>2026-05-03T14:52:59Z</time></trkpt><trkpt lat="44.355417625455225" lon="7.317421939863139"><ele>1800.5</ele><time>2026-05-03T14:53:01Z</time></trkpt><trkpt lat="44.355409952318155" lon="7.317301605515209"><ele>1798.6666666666667</ele><time>2026-05-03T14:53:03Z</time></trkpt><trkpt lat="44.355416161323404" lon="7.317194339344263"><ele>1796.8333333333335</ele><time>2026-05-03T14:53:05Z</time></trkpt><trkpt lat="44.3554169055346" lon="7.3170748644038035"><ele>1795.0</ele><time>2026-05-03T14:53:09Z</time></trkpt><trkpt lat="44.35541940710473" lon="7.31697560269539"><ele>1794.6666666666667</ele><time>2026-05-03T14:53:12Z</time></trkpt><trkpt lat="44.355370435695946" lon="7.316910219119035"><ele>1794.3333333333335</ele><time>2026-05-03T14:53:17Z</time></trkpt><trkpt lat="44.355318614668555" lon="7.316829956611805"><ele>1794.0</ele><time>2026-05-03T14:53:20Z</time></trkpt><trkpt lat="44.355322260992246" lon="7.316725306035824"><ele>1793.6666666666665</ele><time>2026-05-03T14:53:22Z</time></trkpt><trkpt lat="44.355329101336885" lon="7.316595425455284"><ele>1793.3333333333333</ele><time>2026-05-03T14:53:24Z</time></trkpt><trkpt lat="44.3553481484844" lon="7.316447602576039"><ele>1793.0</ele><time>2026-05-03T14:53:26Z</time></trkpt><trkpt lat="44.35535814873996" lon="7.316291821781296"><ele>1793.0</ele><time>2026-05-03T14:53:28Z</time></trkpt><trkpt lat="44.35534647544811" lon="7.316186194354041"><ele>1793.0000000000002</ele><time>2026-05-03T14:53:30Z</time></trkpt><trkpt lat="44.35534511669142" lon="7.316068917743981"><ele>1793.0000000000002</ele><time>2026-05-03T14:53:33Z</time></trkpt><trkpt lat="44.35529539517487" lon="7.315964512478127"><ele>1793.0</ele><time>2026-05-03T14:53:35Z</time></trkpt><trkpt lat="44.355276088817554" lon="7.31579880721429"><ele>1793.0</ele><time>2026-05-03T14:53:36.999Z</time></trkpt><trkpt lat="44.3552527323589" lon="7.315687490859783"><ele>1795.6666666666665</ele><time>2026-05-03T14:53:37.999Z</time></trkpt><trkpt lat="44.355238787825" lon="7.315568806553907"><ele>1798.3333333333333</ele><time>2026-05-03T14:53:38.999Z</time></trkpt><trkpt lat="44.35521930490123" lon="7.3154568487563205"><ele>1801.0</ele><time>2026-05-03T14:53:39.999Z</time></trkpt><trkpt lat="44.35520521348563" lon="7.3153643107499695"><ele>1803.6666666666665</ele><time>2026-05-03T14:53:40.999Z</time></trkpt><trkpt lat="44.3552001555071" lon="7.315271577044464"><ele>1806.3333333333333</ele><time>2026-05-03T14:53:41.999Z</time></trkpt><trkpt lat="44.35517790213595" lon="7.31516298272674"><ele>1809.0</ele><time>2026-05-03T14:53:43.999Z</time></trkpt><trkpt lat="44.35517867143794" lon="7.315056222415714"><ele>1809.0</ele><time>2026-05-03T14:53:46.999Z</time></trkpt><trkpt lat="44.355195087964994" lon="7.314970481841954"><ele>1809.0</ele><time>2026-05-03T14:53:51.999Z</time></trkpt><trkpt lat="44.35517227309894" lon="7.314875547591"><ele>1809.0</ele><time>2026-05-03T14:53:54.999Z</time></trkpt><trkpt lat="44.35515734511004" lon="7.314725980388939"><ele>1809.0</ele><time>2026-05-03T14:54:29.999Z</time></trkpt><trkpt lat="44.35514832403441" lon="7.314538248753957"><ele>1809.0</ele><time>2026-05-03T14:54:31.998Z</time></trkpt><trkpt lat="44.35514528675777" lon="7.314425774490222"><ele>1811.1666666666667</ele><time>2026-05-03T14:54:32.998Z</time></trkpt><trkpt lat="44.35514325784397" lon="7.314310895324253"><ele>1813.3333333333335</ele><time>2026-05-03T14:54:33.998Z</time></trkpt><trkpt lat="44.35512613184108" lon="7.314209565337517"><ele>1815.5</ele><time>2026-05-03T14:54:34.998Z</time></trkpt><trkpt lat="44.35510547886254" lon="7.314121716070836"><ele>1817.6666666666667</ele><time>2026-05-03T14:54:35.998Z</time></trkpt><trkpt lat="44.35502568931609" lon="7.314113990069268"><ele>1819.8333333333335</ele><time>2026-05-03T14:54:37.998Z</time></trkpt><trkpt lat="44.355014807316536" lon="7.313985525399588"><ele>1822.0</ele><time>2026-05-03T14:54:39.998Z</time></trkpt><trkpt lat="44.35496327758258" lon="7.313902703931631"><ele>1824.5000000000002</ele><time>2026-05-03T14:54:41.998Z</time></trkpt><trkpt lat="44.354912731230925" lon="7.313804243842688"><ele>1827.0</ele><time>2026-05-03T14:54:43.998Z</time></trkpt><trkpt lat="44.35489364151878" lon="7.313717233182964"><ele>1829.5</ele><time>2026-05-03T14:54:45.998Z</time></trkpt><trkpt lat="44.354850657189075" lon="7.313629017951442"><ele>1832.0</ele><time>2026-05-03T14:54:48.998Z</time></trkpt><trkpt lat="44.354790989270725" lon="7.313537919194239"><ele>1834.5000000000002</ele><time>2026-05-03T14:54:50.998Z</time></trkpt><trkpt lat="44.35476520067045" lon="7.313385242184813"><ele>1837.0</ele><time>2026-05-03T14:54:52.998Z</time></trkpt><trkpt lat="44.354726776955935" lon="7.313225961103693"><ele>1839.8</ele><time>2026-05-03T14:54:54.998Z</time></trkpt><trkpt lat="44.35471831901092" lon="7.313052285075019"><ele>1842.6</ele><time>2026-05-03T14:54:56.998Z</time></trkpt><trkpt lat="44.354716761877164" lon="7.312942030516116"><ele>1845.3999999999999</ele><time>2026-05-03T14:54:57.998Z</time></trkpt><trkpt lat="44.354704344448265" lon="7.312836184712754"><ele>1848.1999999999998</ele><time>2026-05-03T14:54:58.998Z</time></trkpt><trkpt lat="44.354704647104896" lon="7.312718067946883"><ele>1851.0</ele><time>2026-05-03T14:54:59.998Z</time></trkpt><trkpt lat="44.35472090725807" lon="7.312588246941752"><ele>1851.0</ele><time>2026-05-03T14:55:00.998Z</time></trkpt><trkpt lat="44.354749207705204" lon="7.312460821074916"><ele>1851.0</ele><time>2026-05-03T14:55:02Z</time></trkpt><trkpt lat="44.35475626080706" lon="7.312329144972775"><ele>1851.0</ele><time>2026-05-03T14:55:03Z</time></trkpt><trkpt lat="44.35474540482354" lon="7.312193107361921"><ele>1851.0</ele><time>2026-05-03T14:55:04Z</time></trkpt><trkpt lat="44.35473545483395" lon="7.312062543101699"><ele>1851.0</ele><time>2026-05-03T14:55:05Z</time></trkpt><trkpt lat="44.35470892811115" lon="7.311974193585014"><ele>1848.2857142857144</ele><time>2026-05-03T14:55:06Z</time></trkpt><trkpt lat="44.3546621341437" lon="7.311883201631065"><ele>1845.571428571429</ele><time>2026-05-03T14:55:08Z</time></trkpt><trkpt lat="44.354589827431965" lon="7.311836626506094"><ele>1842.857142857143</ele><time>2026-05-03T14:55:11Z</time></trkpt><trkpt lat="44.35459185120471" lon="7.311736683765671"><ele>1840.1428571428573</ele><time>2026-05-03T14:55:15Z</time></trkpt><trkpt lat="44.35457638328404" lon="7.311649494320265"><ele>1837.4285714285716</ele><time>2026-05-03T14:55:18Z</time></trkpt><trkpt lat="44.35453869952682" lon="7.311558042164387"><ele>1834.7142857142858</ele><time>2026-05-03T14:55:21Z</time></trkpt><trkpt lat="44.354503422109865" lon="7.311483051138899"><ele>1832.0</ele><time>2026-05-03T14:55:24Z</time></trkpt><trkpt lat="44.354460594135794" lon="7.311376894324573"><ele>1831.9999999999998</ele><time>2026-05-03T14:55:37Z</time></trkpt><trkpt lat="44.35440142378273" lon="7.311327223633299"><ele>1832.0</ele><time>2026-05-03T14:56:00.999Z</time></trkpt><trkpt lat="44.354357289886664" lon="7.311261692002131"><ele>1832.0</ele><time>2026-05-03T14:56:08.999Z</time></trkpt><trkpt lat="44.35429831971956" lon="7.311213482189293"><ele>1832.0</ele><time>2026-05-03T14:56:11.999Z</time></trkpt><trkpt lat="44.354332431253425" lon="7.311102278529355"><ele>1831.9999999999998</ele><time>2026-05-03T14:56:15.999Z</time></trkpt><trkpt lat="44.354284680815034" lon="7.311165895979179"><ele>1832.0</ele><time>2026-05-03T14:58:12.999Z</time></trkpt><trkpt lat="44.35428897478458" lon="7.311018195598903"><ele>1831.9999999999998</ele><time>2026-05-03T14:59:28Z</time></trkpt><trkpt lat="44.35431284357905" lon="7.310936562589699"><ele>1832.0</ele><time>2026-05-03T14:59:30Z</time></trkpt><trkpt lat="44.35431912148197" lon="7.310802235852796"><ele>1832.0</ele><time>2026-05-03T14:59:32Z</time></trkpt><trkpt lat="44.35433974620001" lon="7.3106806343668564"><ele>1832.0</ele><time>2026-05-03T14:59:34Z</time></trkpt><trkpt lat="44.354365332678654" lon="7.310541175348676"><ele>1831.9999999999998</ele><time>2026-05-03T14:59:36Z</time></trkpt><trkpt lat="44.354388031894786" lon="7.310443177093013"><ele>1832.0</ele><time>2026-05-03T14:59:37Z</time></trkpt><trkpt lat="44.35440834117522" lon="7.31035102070171"><ele>1832.0</ele><time>2026-05-03T14:59:38Z</time></trkpt><trkpt lat="44.35440841304742" lon="7.310147901421926"><ele>1831.9999999999998</ele><time>2026-05-03T14:59:40Z</time></trkpt><trkpt lat="44.354413457001264" lon="7.310047896436196"><ele>1831.9999999999998</ele><time>2026-05-03T14:59:41Z</time></trkpt><trkpt lat="44.3543908303208" lon="7.309908875089672"><ele>1832.0</ele><time>2026-05-03T14:59:43Z</time></trkpt><trkpt lat="44.35438098499055" lon="7.309821168615489"><ele>1832.0</ele><time>2026-05-03T14:59:45Z</time></trkpt><trkpt lat="44.354342405697736" lon="7.309690907878463"><ele>1834.1666666666665</ele><time>2026-05-03T14:59:48Z</time></trkpt><trkpt lat="44.35426630804907" lon="7.309592640384812"><ele>1836.3333333333333</ele><time>2026-05-03T14:59:50.999Z</time></trkpt><trkpt lat="44.354217361008416" lon="7.30953060592101"><ele>1838.5</ele><time>2026-05-03T14:59:52.999Z</time></trkpt><trkpt lat="44.35415635981433" lon="7.309448386081591"><ele>1840.6666666666665</ele><time>2026-05-03T14:59:54.999Z</time></trkpt><trkpt lat="44.35410767348764" lon="7.309372948884884"><ele>1842.8333333333333</ele><time>2026-05-03T14:59:56.999Z</time></trkpt><trkpt lat="44.354072324658404" lon="7.3092986054446065"><ele>1845.0</ele><time>2026-05-03T14:59:57.999Z</time></trkpt><trkpt lat="44.35400205352145" lon="7.309242293958308"><ele>1845.0</ele><time>2026-05-03T15:00:00.999Z</time></trkpt><trkpt lat="44.35393452709999" lon="7.309186658694328"><ele>1845.0</ele><time>2026-05-03T15:00:01.999Z</time></trkpt><trkpt lat="44.353888251262426" lon="7.309049232997259"><ele>1845.0</ele><time>2026-05-03T15:00:03.999Z</time></trkpt><trkpt lat="44.35382028939586" lon="7.308946333758941"><ele>1845.0</ele><time>2026-05-03T15:00:04.999Z</time></trkpt><trkpt lat="44.35378904185568" lon="7.3087691614438"><ele>1845.0</ele><time>2026-05-03T15:00:06.999Z</time></trkpt><trkpt lat="44.35379128943526" lon="7.3086657984371195"><ele>1845.0</ele><time>2026-05-03T15:00:07.999Z</time></trkpt><trkpt lat="44.35379865180326" lon="7.308513328367771"><ele>1845.0</ele><time>2026-05-03T15:00:09.999Z</time></trkpt><trkpt lat="44.35382947102558" lon="7.308372858727878"><ele>1845.0</ele><time>2026-05-03T15:00:11.999Z</time></trkpt><trkpt lat="44.3538310534991" lon="7.308261011644405"><ele>1845.0</ele><time>2026-05-03T15:00:13.999Z</time></trkpt><trkpt lat="44.353878538877304" lon="7.308146401685152"><ele>1845.0</ele><time>2026-05-03T15:00:15.999Z</time></trkpt><trkpt lat="44.35397401103868" lon="7.308057607445097"><ele>1845.0</ele><time>2026-05-03T15:00:17.999Z</time></trkpt><trkpt lat="44.3540007290763" lon="7.3079574053150695"><ele>1845.0</ele><time>2026-05-03T15:00:19.999Z</time></trkpt><trkpt lat="44.3539582465219" lon="7.307851781720538"><ele>1845.0</ele><time>2026-05-03T15:00:21.999Z</time></trkpt><trkpt lat="44.35394366381116" lon="7.307723706757875"><ele>1845.0</ele><time>2026-05-03T15:00:22.999Z</time></trkpt><trkpt lat="44.3539214139206" lon="7.307635904437805"><ele>1845.0</ele><time>2026-05-03T15:00:23.999Z</time></trkpt><trkpt lat="44.3538981618865" lon="7.307523695787759"><ele>1845.0</ele><time>2026-05-03T15:00:24.999Z</time></trkpt><trkpt lat="44.35382518070425" lon="7.307377440092309"><ele>1840.8571428571427</ele><time>2026-05-03T15:00:26.999Z</time></trkpt><trkpt lat="44.35381725240353" lon="7.3072870095186095"><ele>1836.7142857142856</ele><time>2026-05-03T15:00:27.999Z</time></trkpt><trkpt lat="44.35380933856545" lon="7.307199557185944"><ele>1832.5714285714284</ele><time>2026-05-03T15:00:28.999Z</time></trkpt><trkpt lat="44.353795919043044" lon="7.307089330711509"><ele>1828.4285714285716</ele><time>2026-05-03T15:00:29.999Z</time></trkpt><trkpt lat="44.35379680759219" lon="7.30698926504554"><ele>1824.2857142857144</ele><time>2026-05-03T15:00:30.999Z</time></trkpt><trkpt lat="44.35381800391483" lon="7.306886774662976"><ele>1820.1428571428573</ele><time>2026-05-03T15:00:31.999Z</time></trkpt><trkpt lat="44.35382912927465" lon="7.306774766771702"><ele>1816.0</ele><time>2026-05-03T15:00:32.999Z</time></trkpt><trkpt lat="44.3538411456676" lon="7.306670667512607"><ele>1816.0</ele><time>2026-05-03T15:00:33.999Z</time></trkpt><trkpt lat="44.35384482807998" lon="7.30654449278525"><ele>1816.0</ele><time>2026-05-03T15:00:34.999Z</time></trkpt><trkpt lat="44.35386068919812" lon="7.306416286433156"><ele>1816.0</ele><time>2026-05-03T15:00:35.999Z</time></trkpt><trkpt lat="44.35387627906303" lon="7.306293320255798"><ele>1816.0</ele><time>2026-05-03T15:00:36.999Z</time></trkpt><trkpt lat="44.353887270317884" lon="7.306158882868571"><ele>1816.0</ele><time>2026-05-03T15:00:37.999Z</time></trkpt><trkpt lat="44.353897291481225" lon="7.306041495607238"><ele>1817.0000000000002</ele><time>2026-05-03T15:00:38.999Z</time></trkpt><trkpt lat="44.353912377292275" lon="7.30592628437065"><ele>1818.0</ele><time>2026-05-03T15:00:39.999Z</time></trkpt><trkpt lat="44.35392525157807" lon="7.305819352733871"><ele>1819.0</ele><time>2026-05-03T15:00:40.999Z</time></trkpt><trkpt lat="44.353943581468975" lon="7.305705729570899"><ele>1820.0</ele><time>2026-05-03T15:00:41.999Z</time></trkpt><trkpt lat="44.35397741575453" lon="7.305586430155295"><ele>1821.0000000000002</ele><time>2026-05-03T15:00:42.999Z</time></trkpt><trkpt lat="44.35399930599095" lon="7.305473899595062"><ele>1822.0</ele><time>2026-05-03T15:00:43.999Z</time></trkpt><trkpt lat="44.35400575917845" lon="7.305360521784697"><ele>1822.0</ele><time>2026-05-03T15:00:44.998Z</time></trkpt><trkpt lat="44.35399316514618" lon="7.3052488581400645"><ele>1821.9999999999998</ele><time>2026-05-03T15:00:45.998Z</time></trkpt><trkpt lat="44.35397768545761" lon="7.305163087852498"><ele>1821.9999999999998</ele><time>2026-05-03T15:00:46.998Z</time></trkpt><trkpt lat="44.35406393658173" lon="7.305044444418172"><ele>1822.0</ele><time>2026-05-03T15:00:48.998Z</time></trkpt><trkpt lat="44.35414607086635" lon="7.304954059107985"><ele>1822.0</ele><time>2026-05-03T15:00:50.998Z</time></trkpt><trkpt lat="44.354229205430926" lon="7.304858961077984"><ele>1822.0000000000002</ele><time>2026-05-03T15:00:52.998Z</time></trkpt><trkpt lat="44.35429951283827" lon="7.304847660820339"><ele>1822.0</ele><time>2026-05-03T15:00:54.998Z</time></trkpt><trkpt lat="44.3543780020873" lon="7.30483448983607"><ele>1822.0</ele><time>2026-05-03T15:00:56.998Z</time></trkpt><trkpt lat="44.35446053811991" lon="7.304801609724184"><ele>1822.0</ele><time>2026-05-03T15:00:59.998Z</time></trkpt><trkpt lat="44.35453767023198" lon="7.304753002025254"><ele>1822.0000000000002</ele><time>2026-05-03T15:01:13.998Z</time></trkpt><trkpt lat="44.35460681748298" lon="7.304738038295346"><ele>1822.0</ele><time>2026-05-03T15:01:21Z</time></trkpt><trkpt lat="44.35468661238024" lon="7.30472856634921"><ele>1820.8333333333335</ele><time>2026-05-03T15:01:25Z</time></trkpt><trkpt lat="44.35475216494577" lon="7.304675879868701"><ele>1819.6666666666667</ele><time>2026-05-03T15:01:30Z</time></trkpt><trkpt lat="44.35481997325765" lon="7.304611850953344"><ele>1818.5</ele><time>2026-05-03T15:01:34Z</time></trkpt><trkpt lat="44.354892309715595" lon="7.304533878489974"><ele>1817.3333333333335</ele><time>2026-05-03T15:01:36Z</time></trkpt><trkpt lat="44.354955648826355" lon="7.3044583669956165"><ele>1816.1666666666667</ele><time>2026-05-03T15:01:38Z</time></trkpt><trkpt lat="44.35501195001315" lon="7.30438155569253"><ele>1815.0</ele><time>2026-05-03T15:01:40Z</time></trkpt><trkpt lat="44.35506538635931" lon="7.304268311594227"><ele>1815.0</ele><time>2026-05-03T15:01:42Z</time></trkpt><trkpt lat="44.35512475873168" lon="7.304124855319155"><ele>1815.0</ele><time>2026-05-03T15:01:44Z</time></trkpt><trkpt lat="44.35518863800733" lon="7.303997657321974"><ele>1815.0</ele><time>2026-05-03T15:01:46Z</time></trkpt><trkpt lat="44.35525445273055" lon="7.303860249433257"><ele>1815.0</ele><time>2026-05-03T15:01:48Z</time></trkpt><trkpt lat="44.35530417930383" lon="7.303763251611141"><ele>1815.0</ele><time>2026-05-03T15:01:50Z</time></trkpt><trkpt lat="44.35536046338147" lon="7.303677969417814"><ele>1813.5714285714287</ele><time>2026-05-03T15:02:01.999Z</time></trkpt><trkpt lat="44.35544200920874" lon="7.30360831912952"><ele>1812.1428571428569</ele><time>2026-05-03T15:02:03.999Z</time></trkpt><trkpt lat="44.35550347833634" lon="7.30356855855666"><ele>1810.7142857142856</ele><time>2026-05-03T15:02:05.999Z</time></trkpt><trkpt lat="44.35556046924149" lon="7.303474223599627"><ele>1809.2857142857142</ele><time>2026-05-03T15:02:07.999Z</time></trkpt><trkpt lat="44.35560658249797" lon="7.303409958619907"><ele>1807.8571428571427</ele><time>2026-05-03T15:02:08.999Z</time></trkpt><trkpt lat="44.35565460419552" lon="7.303347613576852"><ele>1806.428571428571</ele><time>2026-05-03T15:02:09.999Z</time></trkpt><trkpt lat="44.35569907360651" lon="7.303278914210808"><ele>1804.9999999999998</ele><time>2026-05-03T15:02:10.999Z</time></trkpt><trkpt lat="44.35579359478665" lon="7.303195202879548"><ele>1804.9999999999998</ele><time>2026-05-03T15:02:12.999Z</time></trkpt><trkpt lat="44.35585112297475" lon="7.303149191072696"><ele>1805.0</ele><time>2026-05-03T15:02:14.999Z</time></trkpt><trkpt lat="44.35595390914642" lon="7.303149227127517"><ele>1805.0</ele><time>2026-05-03T15:02:17.999Z</time></trkpt><trkpt lat="44.356013134344266" lon="7.303116368605741"><ele>1805.0</ele><time>2026-05-03T15:02:19.999Z</time></trkpt><trkpt lat="44.35608592356323" lon="7.303016442679804"><ele>1804.9999999999998</ele><time>2026-05-03T15:02:21.999Z</time></trkpt><trkpt lat="44.35618452750397" lon="7.302948971747995"><ele>1805.0</ele><time>2026-05-03T15:02:23.999Z</time></trkpt><trkpt lat="44.35627832619839" lon="7.302876656790424"><ele>1805.3333333333333</ele><time>2026-05-03T15:02:25.999Z</time></trkpt><trkpt lat="44.35633857741983" lon="7.302810157858483"><ele>1805.6666666666665</ele><time>2026-05-03T15:02:26.999Z</time></trkpt><trkpt lat="44.35639811569626" lon="7.302718790878698"><ele>1806.0</ele><time>2026-05-03T15:02:27.999Z</time></trkpt><trkpt lat="44.35646480347181" lon="7.302629807566625"><ele>1806.3333333333335</ele><time>2026-05-03T15:02:28.999Z</time></trkpt><trkpt lat="44.35652090692403" lon="7.302554894518143"><ele>1806.6666666666667</ele><time>2026-05-03T15:02:29.999Z</time></trkpt><trkpt lat="44.356579966825834" lon="7.302483860960442"><ele>1807.0</ele><time>2026-05-03T15:02:30.999Z</time></trkpt><trkpt lat="44.35664104975717" lon="7.302412631262465"><ele>1807.0000000000002</ele><time>2026-05-03T15:02:31.999Z</time></trkpt><trkpt lat="44.356695196938674" lon="7.302332512022212"><ele>1807.0</ele><time>2026-05-03T15:02:32.999Z</time></trkpt><trkpt lat="44.35675172657882" lon="7.302246442850987"><ele>1807.0</ele><time>2026-05-03T15:02:33.999Z</time></trkpt><trkpt lat="44.35680501275224" lon="7.302148772138581"><ele>1807.0</ele><time>2026-05-03T15:02:34.999Z</time></trkpt><trkpt lat="44.35685747358345" lon="7.302059564697823"><ele>1807.0000000000002</ele><time>2026-05-03T15:02:35.999Z</time></trkpt><trkpt lat="44.35689504464032" lon="7.3019653096389385"><ele>1807.0</ele><time>2026-05-03T15:02:36.999Z</time></trkpt><trkpt lat="44.356936645489" lon="7.301868167756795"><ele>1804.1666666666667</ele><time>2026-05-03T15:02:37.999Z</time></trkpt><trkpt lat="44.356975475448635" lon="7.301777123969305"><ele>1801.3333333333335</ele><time>2026-05-03T15:02:38.999Z</time></trkpt><trkpt lat="44.356996061694446" lon="7.301678483487085"><ele>1798.5</ele><time>2026-05-03T15:02:39.999Z</time></trkpt><trkpt lat="44.357019422350334" lon="7.301574867673125"><ele>1795.6666666666665</ele><time>2026-05-03T15:02:40.999Z</time></trkpt><trkpt lat="44.35703641631925" lon="7.301453846423295"><ele>1792.8333333333333</ele><time>2026-05-03T15:02:41.999Z</time></trkpt><trkpt lat="44.35704839634596" lon="7.301350014640913"><ele>1790.0</ele><time>2026-05-03T15:02:42.999Z</time></trkpt><trkpt lat="44.35708194897464" lon="7.301175026850522"><ele>1787.8333333333333</ele><time>2026-05-03T15:02:44.999Z</time></trkpt><trkpt lat="44.35710296399645" lon="7.301075560348666"><ele>1785.6666666666665</ele><time>2026-05-03T15:02:45.999Z</time></trkpt><trkpt lat="44.357115092036146" lon="7.300969328191145"><ele>1783.5</ele><time>2026-05-03T15:02:46.999Z</time></trkpt><trkpt lat="44.35712443080262" lon="7.300870677377829"><ele>1781.3333333333335</ele><time>2026-05-03T15:02:47.998Z</time></trkpt><trkpt lat="44.35713524982156" lon="7.300718736234351"><ele>1779.1666666666667</ele><time>2026-05-03T15:02:49.998Z</time></trkpt><trkpt lat="44.35718216774557" lon="7.300589184248613"><ele>1777.0</ele><time>2026-05-03T15:02:51.998Z</time></trkpt><trkpt lat="44.357204412333104" lon="7.300493085521754"><ele>1782.6</ele><time>2026-05-03T15:02:53.998Z</time></trkpt><trkpt lat="44.35722024664562" lon="7.300342945318895"><ele>1788.1999999999998</ele><time>2026-05-03T15:02:56.998Z</time></trkpt><trkpt lat="44.357221558436805" lon="7.300189108682247"><ele>1793.8</ele><time>2026-05-03T15:02:58.998Z</time></trkpt><trkpt lat="44.35722714606346" lon="7.300084770679605"><ele>1799.4</ele><time>2026-05-03T15:02:59.998Z</time></trkpt><trkpt lat="44.357229192884326" lon="7.29998904770087"><ele>1805.0</ele><time>2026-05-03T15:03:00.998Z</time></trkpt><trkpt lat="44.35724673946935" lon="7.299865410191029"><ele>1799.4</ele><time>2026-05-03T15:03:02.998Z</time></trkpt><trkpt lat="44.35719825394075" lon="7.299710349009541"><ele>1793.8</ele><time>2026-05-03T15:03:04.998Z</time></trkpt><trkpt lat="44.35719570430549" lon="7.299611157793544"><ele>1788.1999999999998</ele><time>2026-05-03T15:03:05.998Z</time></trkpt><trkpt lat="44.35718955793917" lon="7.299515493483679"><ele>1782.6</ele><time>2026-05-03T15:03:06.998Z</time></trkpt><trkpt lat="44.357184458635835" lon="7.299340948726562"><ele>1777.0</ele><time>2026-05-03T15:03:08.998Z</time></trkpt><trkpt lat="44.35719061183727" lon="7.299227901107637"><ele>1778.5000000000002</ele><time>2026-05-03T15:03:09.998Z</time></trkpt><trkpt lat="44.35720462967098" lon="7.2991355189183516"><ele>1780.0</ele><time>2026-05-03T15:03:10.998Z</time></trkpt><trkpt lat="44.35721920438366" lon="7.299038804965725"><ele>1781.5</ele><time>2026-05-03T15:03:11.998Z</time></trkpt><trkpt lat="44.35721535844336" lon="7.298853249647189"><ele>1783.0</ele><time>2026-05-03T15:03:13.998Z</time></trkpt><trkpt lat="44.35721640717167" lon="7.298761307263959"><ele>1784.5000000000002</ele><time>2026-05-03T15:03:14.998Z</time></trkpt><trkpt lat="44.35723407119435" lon="7.298670504486549"><ele>1786.0</ele><time>2026-05-03T15:03:15.998Z</time></trkpt><trkpt lat="44.35721530078168" lon="7.298518962640216"><ele>1786.0000000000002</ele><time>2026-05-03T15:03:17.998Z</time></trkpt><trkpt lat="44.35721233381964" lon="7.298430284077354"><ele>1786.0</ele><time>2026-05-03T15:03:18.998Z</time></trkpt><trkpt lat="44.35719954726759" lon="7.298305002733112"><ele>1786.0</ele><time>2026-05-03T15:03:20.998Z</time></trkpt><trkpt lat="44.3571523234596" lon="7.298230993092005"><ele>1786.0</ele><time>2026-05-03T15:03:25Z</time></trkpt><trkpt lat="44.357083336696384" lon="7.298206905932594"><ele>1786.0000000000002</ele><time>2026-05-03T15:03:28Z</time></trkpt><trkpt lat="44.35711120970497" lon="7.298303226866601"><ele>1786.0</ele><time>2026-05-03T15:03:40Z</time></trkpt><trkpt lat="44.35712770538647" lon="7.298412264856793"><ele>1786.0</ele><time>2026-05-03T15:03:42Z</time></trkpt><trkpt lat="44.357149301915335" lon="7.298531753296425"><ele>1786.0</ele><time>2026-05-03T15:03:46Z</time></trkpt><trkpt lat="44.357209516364726" lon="7.298571834043434"><ele>1786.0</ele><time>2026-05-03T15:03:51Z</time></trkpt><trkpt lat="44.357223268086926" lon="7.298673934635512"><ele>1786.0</ele><time>2026-05-03T15:03:54Z</time></trkpt><trkpt lat="44.35728594948259" lon="7.2987330948020634"><ele>1786.0</ele><time>2026-05-03T15:03:57.999Z</time></trkpt><trkpt lat="44.35722178952964" lon="7.298708844248612"><ele>1786.0</ele><time>2026-05-03T15:04:46.999Z</time></trkpt><trkpt lat="44.35721906440106" lon="7.298809663666125"><ele>1786.0</ele><time>2026-05-03T15:04:49.998Z</time></trkpt><trkpt lat="44.357198198738146" lon="7.298903651142472"><ele>1786.0</ele><time>2026-05-03T15:04:55.998Z</time></trkpt><trkpt lat="44.35723821356973" lon="7.298769309547161"><ele>1786.0</ele><time>2026-05-03T15:05:07.998Z</time></trkpt><trkpt lat="44.35722274628471" lon="7.298589131890771"><ele>1786.0</ele><time>2026-05-03T15:05:08.998Z</time></trkpt><trkpt lat="44.357211576504454" lon="7.298484260421033"><ele>1786.0</ele><time>2026-05-03T15:05:09.998Z</time></trkpt><trkpt lat="44.35720091243925" lon="7.2983708856995655"><ele>1786.0</ele><time>2026-05-03T15:05:10.998Z</time></trkpt><trkpt lat="44.35718719637696" lon="7.298258879125022"><ele>1785.3333333333335</ele><time>2026-05-03T15:05:11.998Z</time></trkpt><trkpt lat="44.35718422117978" lon="7.298136690661718"><ele>1784.6666666666667</ele><time>2026-05-03T15:05:13.998Z</time></trkpt><trkpt lat="44.357142681366824" lon="7.298058566006296"><ele>1784.0</ele><time>2026-05-03T15:05:21.998Z</time></trkpt><trkpt lat="44.3571444502344" lon="7.297968867000635"><ele>1783.3333333333335</ele><time>2026-05-03T15:05:31Z</time></trkpt><trkpt lat="44.35710812396902" lon="7.2978638375958615"><ele>1782.6666666666667</ele><time>2026-05-03T15:05:48Z</time></trkpt><trkpt lat="44.35707510378224" lon="7.297766248136887"><ele>1782.0</ele><time>2026-05-03T15:05:52Z</time></trkpt><trkpt lat="44.35705416396079" lon="7.297675966771224"><ele>1783.5</ele><time>2026-05-03T15:05:54Z</time></trkpt><trkpt lat="44.356990044622336" lon="7.297545031709546"><ele>1785.0</ele><time>2026-05-03T15:05:56Z</time></trkpt><trkpt lat="44.35695738101952" lon="7.297453219554371"><ele>1786.5</ele><time>2026-05-03T15:05:58Z</time></trkpt><trkpt lat="44.356928321593614" lon="7.2973672114452075"><ele>1788.0</ele><time>2026-05-03T15:06:01Z</time></trkpt><trkpt lat="44.3569510243122" lon="7.297241700888811"><ele>1789.5</ele><time>2026-05-03T15:06:03.999Z</time></trkpt><trkpt lat="44.35691461983851" lon="7.297141295542071"><ele>1791.0</ele><time>2026-05-03T15:06:05.999Z</time></trkpt><trkpt lat="44.35688908942611" lon="7.297054389699044"><ele>1791.4285714285713</ele><time>2026-05-03T15:06:07.999Z</time></trkpt><trkpt lat="44.35683455443297" lon="7.296992017121162"><ele>1791.8571428571427</ele><time>2026-05-03T15:06:09.999Z</time></trkpt><trkpt lat="44.356800348554465" lon="7.296887450881207"><ele>1792.2857142857142</ele><time>2026-05-03T15:06:11.999Z</time></trkpt><trkpt lat="44.356777316438105" lon="7.296795518781059"><ele>1792.7142857142858</ele><time>2026-05-03T15:06:13.999Z</time></trkpt><trkpt lat="44.356754502868604" lon="7.296704018963187"><ele>1793.142857142857</ele><time>2026-05-03T15:06:15.999Z</time></trkpt><trkpt lat="44.35672877762292" lon="7.296616287463204"><ele>1793.5714285714287</ele><time>2026-05-03T15:06:19.999Z</time></trkpt><trkpt lat="44.35673254942617" lon="7.29651979652369"><ele>1794.0</ele><time>2026-05-03T15:06:34.999Z</time></trkpt><trkpt lat="44.35673650413709" lon="7.2964271482901415"><ele>1793.6666666666667</ele><time>2026-05-03T15:06:37.999Z</time></trkpt><trkpt lat="44.35675066555833" lon="7.296339853584851"><ele>1793.3333333333335</ele><time>2026-05-03T15:06:39.999Z</time></trkpt><trkpt lat="44.356770192206675" lon="7.296240475535609"><ele>1793.0</ele><time>2026-05-03T15:06:41.999Z</time></trkpt><trkpt lat="44.356798897702404" lon="7.296161025661525"><ele>1792.6666666666667</ele><time>2026-05-03T15:06:44.999Z</time></trkpt><trkpt lat="44.35684483455215" lon="7.296047701371335"><ele>1792.3333333333335</ele><time>2026-05-03T15:06:47.999Z</time></trkpt><trkpt lat="44.356898124529366" lon="7.295952015213305"><ele>1792.0</ele><time>2026-05-03T15:06:51.999Z</time></trkpt><trkpt lat="44.35694657533641" lon="7.295874140835333"><ele>1792.0000000000002</ele><time>2026-05-03T15:06:55.999Z</time></trkpt><trkpt lat="44.35694787068345" lon="7.2957586311362395"><ele>1792.0</ele><time>2026-05-03T15:06:59.998Z</time></trkpt><trkpt lat="44.356966058435624" lon="7.295647072487485"><ele>1792.0</ele><time>2026-05-03T15:07:04.998Z</time></trkpt><trkpt lat="44.356967898383836" lon="7.29555559511387"><ele>1792.0</ele><time>2026-05-03T15:07:07.998Z</time></trkpt><trkpt lat="44.35690247861169" lon="7.295501876233048"><ele>1792.0000000000002</ele><time>2026-05-03T15:07:10.998Z</time></trkpt><trkpt lat="44.356834867362494" lon="7.2954537451517805"><ele>1792.0</ele><time>2026-05-03T15:07:12.998Z</time></trkpt><trkpt lat="44.35678811766337" lon="7.295365465394591"><ele>1789.8</ele><time>2026-05-03T15:07:15.998Z</time></trkpt><trkpt lat="44.35675227179713" lon="7.295259800668691"><ele>1787.6</ele><time>2026-05-03T15:07:17.998Z</time></trkpt><trkpt lat="44.356720406293526" lon="7.295155576886268"><ele>1785.3999999999999</ele><time>2026-05-03T15:07:20.998Z</time></trkpt><trkpt lat="44.35664043883296" lon="7.2950089865652465"><ele>1783.1999999999998</ele><time>2026-05-03T15:07:22.998Z</time></trkpt><trkpt lat="44.35657453753103" lon="7.294905996880283"><ele>1781.0</ele><time>2026-05-03T15:07:25.998Z</time></trkpt><trkpt lat="44.35650861215242" lon="7.294801801937834"><ele>1778.4</ele><time>2026-05-03T15:07:27.998Z</time></trkpt><trkpt lat="44.35646077008628" lon="7.294657736164793"><ele>1775.8</ele><time>2026-05-03T15:07:29.998Z</time></trkpt><trkpt lat="44.35644091833591" lon="7.294573486761523"><ele>1773.2000000000003</ele><time>2026-05-03T15:07:30.998Z</time></trkpt><trkpt lat="44.35640516782518" lon="7.294430677875632"><ele>1770.6000000000001</ele><time>2026-05-03T15:07:32.998Z</time></trkpt><trkpt lat="44.35637639550788" lon="7.294311384022309"><ele>1768.0</ele><time>2026-05-03T15:07:34.998Z</time></trkpt><trkpt lat="44.35632654844067" lon="7.294217280559735"><ele>1768.0000000000002</ele><time>2026-05-03T15:07:37Z</time></trkpt><trkpt lat="44.35625940794149" lon="7.294149174453198"><ele>1768.0</ele><time>2026-05-03T15:07:40Z</time></trkpt><trkpt lat="44.356203276429994" lon="7.294079877637839"><ele>1768.0</ele><time>2026-05-03T15:08:20.999Z</time></trkpt><trkpt lat="44.35614737998578" lon="7.29401220930892"><ele>1768.0</ele><time>2026-05-03T15:08:21.999Z</time></trkpt><trkpt lat="44.35606650890646" lon="7.293948903657914"><ele>1768.0000000000002</ele><time>2026-05-03T15:08:23.999Z</time></trkpt><trkpt lat="44.355982416770544" lon="7.293966191950034"><ele>1768.0</ele><time>2026-05-03T15:08:25.999Z</time></trkpt><trkpt lat="44.35595850267976" lon="7.294048900873611"><ele>1768.0</ele><time>2026-05-03T15:08:41.999Z</time></trkpt><trkpt lat="44.355905312934254" lon="7.294140331537409"><ele>1768.0000000000002</ele><time>2026-05-03T15:08:44.999Z</time></trkpt><trkpt lat="44.35583597396844" lon="7.294226840542816"><ele>1768.0000000000002</ele><time>2026-05-03T15:08:46.999Z</time></trkpt><trkpt lat="44.35578533884247" lon="7.294339447210848"><ele>1768.0</ele><time>2026-05-03T15:08:48.999Z</time></trkpt><trkpt lat="44.355735245762034" lon="7.294481424207943"><ele>1768.0</ele><time>2026-05-03T15:08:50.999Z</time></trkpt><trkpt lat="44.35569672293449" lon="7.294560058767378"><ele>1768.0000000000002</ele><time>2026-05-03T15:08:51.999Z</time></trkpt><trkpt lat="44.35566069742504" lon="7.294656322736285"><ele>1768.0</ele><time>2026-05-03T15:08:52.999Z</time></trkpt><trkpt lat="44.355619992068696" lon="7.29475146648919"><ele>1768.0</ele><time>2026-05-03T15:08:53.999Z</time></trkpt><trkpt lat="44.35556963146883" lon="7.294820271568244"><ele>1768.0</ele><time>2026-05-03T15:08:54.999Z</time></trkpt><trkpt lat="44.35550856558546" lon="7.294851832872469"><ele>1768.0</ele><time>2026-05-03T15:08:56.999Z</time></trkpt><trkpt lat="44.35545115754999" lon="7.294907136940336"><ele>1768.0000000000002</ele><time>2026-05-03T15:08:59.998Z</time></trkpt><trkpt lat="44.3553883392965" lon="7.294951581999647"><ele>1768.0</ele><time>2026-05-03T15:09:05.998Z</time></trkpt><trkpt lat="44.35533144587391" lon="7.294999018732036"><ele>1764.1666666666667</ele><time>2026-05-03T15:09:07.998Z</time></trkpt><trkpt lat="44.35529827348575" lon="7.295117462884165"><ele>1760.3333333333335</ele><time>2026-05-03T15:09:10.998Z</time></trkpt><trkpt lat="44.35522870392157" lon="7.295168932110679"><ele>1756.5</ele><time>2026-05-03T15:09:12.998Z</time></trkpt><trkpt lat="44.355199969970464" lon="7.295254716749491"><ele>1752.6666666666665</ele><time>2026-05-03T15:09:14.998Z</time></trkpt><trkpt lat="44.35515965783667" lon="7.2953341890986305"><ele>1748.8333333333333</ele><time>2026-05-03T15:09:16.998Z</time></trkpt><trkpt lat="44.35510149584639" lon="7.29545938456243"><ele>1745.0</ele><time>2026-05-03T15:09:18.998Z</time></trkpt><trkpt lat="44.355016716906654" lon="7.295519296960285"><ele>1744.9999999999998</ele><time>2026-05-03T15:09:20.998Z</time></trkpt><trkpt lat="44.35494557287349" lon="7.295585241578441"><ele>1745.0</ele><time>2026-05-03T15:09:22.998Z</time></trkpt><trkpt lat="44.354884379223144" lon="7.295649629409246"><ele>1745.0</ele><time>2026-05-03T15:09:24.998Z</time></trkpt><trkpt lat="44.35481927210331" lon="7.295735571015418"><ele>1745.0</ele><time>2026-05-03T15:09:26.998Z</time></trkpt><trkpt lat="44.354763751187754" lon="7.295813906701676"><ele>1744.9999999999998</ele><time>2026-05-03T15:09:28.998Z</time></trkpt><trkpt lat="44.35469038717834" lon="7.295898182710755"><ele>1745.0</ele><time>2026-05-03T15:09:30.998Z</time></trkpt><trkpt lat="44.354616998444456" lon="7.295996123761612"><ele>1739.8</ele><time>2026-05-03T15:09:32.998Z</time></trkpt><trkpt lat="44.35459143675798" lon="7.2960966492575405"><ele>1734.6</ele><time>2026-05-03T15:09:34.998Z</time></trkpt><trkpt lat="44.35458081209146" lon="7.296230745559478"><ele>1729.4</ele><time>2026-05-03T15:09:36.998Z</time></trkpt><trkpt lat="44.354577281480346" lon="7.296328619903717"><ele>1724.2</ele><time>2026-05-03T15:09:38.998Z</time></trkpt><trkpt lat="44.35455940294719" lon="7.296562895313068"><ele>1719.0</ele><time>2026-05-03T15:09:40.998Z</time></trkpt><trkpt lat="44.354583404223916" lon="7.296659322176591"><ele>1718.8333333333333</ele><time>2026-05-03T15:09:43Z</time></trkpt><trkpt lat="44.35461301225748" lon="7.296774674967225"><ele>1718.6666666666665</ele><time>2026-05-03T15:09:45Z</time></trkpt><trkpt lat="44.35462440189497" lon="7.296864414320519"><ele>1718.5</ele><time>2026-05-03T15:09:47Z</time></trkpt><trkpt lat="44.354637112966536" lon="7.296959322577729"><ele>1718.3333333333333</ele><time>2026-05-03T15:09:50Z</time></trkpt><trkpt lat="44.35462459742019" lon="7.297088044397368"><ele>1718.1666666666665</ele><time>2026-05-03T15:09:52Z</time></trkpt><trkpt lat="44.354615405486584" lon="7.297195426321896"><ele>1718.0</ele><time>2026-05-03T15:09:53Z</time></trkpt><trkpt lat="44.35462462906895" lon="7.297298437661061"><ele>1717.4</ele><time>2026-05-03T15:09:54Z</time></trkpt><trkpt lat="44.35464535020472" lon="7.2973951617952615"><ele>1716.8000000000002</ele><time>2026-05-03T15:09:55Z</time></trkpt><trkpt lat="44.35468222563511" lon="7.297529697534942"><ele>1716.2</ele><time>2026-05-03T15:09:56Z</time></trkpt><trkpt lat="44.35472579982509" lon="7.297686161735167"><ele>1715.6</ele><time>2026-05-03T15:09:57Z</time></trkpt><trkpt lat="44.354761413064416" lon="7.2978323153310445"><ele>1715.0</ele><time>2026-05-03T15:09:58Z</time></trkpt><trkpt lat="44.354783269204795" lon="7.297928395322588"><ele>1718.142857142857</ele><time>2026-05-03T15:09:59Z</time></trkpt><trkpt lat="44.35482855617592" lon="7.298025324582939"><ele>1721.2857142857142</ele><time>2026-05-03T15:10:00Z</time></trkpt><trkpt lat="44.3548801869477" lon="7.298113790399674"><ele>1724.4285714285716</ele><time>2026-05-03T15:10:01Z</time></trkpt><trkpt lat="44.35492294976484" lon="7.298203736111097"><ele>1727.5714285714284</ele><time>2026-05-03T15:10:02Z</time></trkpt><trkpt lat="44.35492948424443" lon="7.298295562816558"><ele>1730.7142857142858</ele><time>2026-05-03T15:10:03Z</time></trkpt><trkpt lat="44.35485712416189" lon="7.298288934485654"><ele>1733.857142857143</ele><time>2026-05-03T15:10:04Z</time></trkpt><trkpt lat="44.35479184187579" lon="7.29830366246228"><ele>1737.0</ele><time>2026-05-03T15:10:05Z</time></trkpt><trkpt lat="44.35472934546441" lon="7.298274731824513"><ele>1733.3333333333333</ele><time>2026-05-03T15:10:06Z</time></trkpt><trkpt lat="44.35465631541397" lon="7.298343850650376"><ele>1729.6666666666665</ele><time>2026-05-03T15:10:08Z</time></trkpt><trkpt lat="44.354620929411055" lon="7.298418891498027"><ele>1726.0</ele><time>2026-05-03T15:10:09Z</time></trkpt><trkpt lat="44.3545885297679" lon="7.298544317007051"><ele>1722.3333333333333</ele><time>2026-05-03T15:10:10.999Z</time></trkpt><trkpt lat="44.354560784193126" lon="7.298671104105366"><ele>1718.6666666666665</ele><time>2026-05-03T15:10:11.999Z</time></trkpt><trkpt lat="44.35452055216578" lon="7.298757761130583"><ele>1715.0</ele><time>2026-05-03T15:10:12.999Z</time></trkpt><trkpt lat="44.354463381068186" lon="7.298824417153943"><ele>1714.4999999999998</ele><time>2026-05-03T15:10:14.999Z</time></trkpt><trkpt lat="44.35443942348983" lon="7.298933869924448"><ele>1714.0</ele><time>2026-05-03T15:10:16.999Z</time></trkpt><trkpt lat="44.35443481167802" lon="7.299058519429646"><ele>1713.5</ele><time>2026-05-03T15:10:18.999Z</time></trkpt><trkpt lat="44.35444350347784" lon="7.2991586550318335"><ele>1713.0</ele><time>2026-05-03T15:10:22.999Z</time></trkpt><trkpt lat="44.35448745807985" lon="7.299236452846569"><ele>1712.4999999999998</ele><time>2026-05-03T15:10:34.999Z</time></trkpt><trkpt lat="44.354539780927254" lon="7.299292955481132"><ele>1712.0</ele><time>2026-05-03T15:10:38.999Z</time></trkpt><trkpt lat="44.35457786491927" lon="7.299378593526223"><ele>1712.0000000000002</ele><time>2026-05-03T15:10:42.999Z</time></trkpt><trkpt lat="44.354617722120494" lon="7.2994550754745235"><ele>1712.0</ele><time>2026-05-03T15:10:46.999Z</time></trkpt><trkpt lat="44.35463303224336" lon="7.299562368579534"><ele>1712.0</ele><time>2026-05-03T15:10:49.999Z</time></trkpt><trkpt lat="44.35461963070254" lon="7.299668938305288"><ele>1712.0</ele><time>2026-05-03T15:10:53.999Z</time></trkpt><trkpt lat="44.35458360614224" lon="7.299752811506757"><ele>1712.0</ele><time>2026-05-03T15:10:56.999Z</time></trkpt><trkpt lat="44.35452846128477" lon="7.299803761211304"><ele>1712.0000000000002</ele><time>2026-05-03T15:10:58.999Z</time></trkpt><trkpt lat="44.35446823381297" lon="7.299852272982192"><ele>1712.0</ele><time>2026-05-03T15:11:01.999Z</time></trkpt><trkpt lat="44.35440378304775" lon="7.299922640341156"><ele>1711.857142857143</ele><time>2026-05-03T15:11:05.998Z</time></trkpt><trkpt lat="44.35436558158357" lon="7.299993750587943"><ele>1711.7142857142858</ele><time>2026-05-03T15:11:08.998Z</time></trkpt><trkpt lat="44.35430458466611" lon="7.300038390176821"><ele>1711.5714285714284</ele><time>2026-05-03T15:11:14.998Z</time></trkpt><trkpt lat="44.35423043479477" lon="7.300056629827632"><ele>1711.4285714285716</ele><time>2026-05-03T15:11:18.998Z</time></trkpt><trkpt lat="44.354199332936815" lon="7.300143025180327"><ele>1711.2857142857142</ele><time>2026-05-03T15:11:21.998Z</time></trkpt><trkpt lat="44.354158845945165" lon="7.300217506954754"><ele>1711.142857142857</ele><time>2026-05-03T15:11:24.998Z</time></trkpt><trkpt lat="44.35410781277784" lon="7.300270208166446"><ele>1711.0</ele><time>2026-05-03T15:11:27.998Z</time></trkpt><trkpt lat="44.35403146387592" lon="7.300268564131955"><ele>1711.0000000000002</ele><time>2026-05-03T15:11:31.998Z</time></trkpt><trkpt lat="44.353957979534094" lon="7.300308213568305"><ele>1711.0</ele><time>2026-05-03T15:11:34.998Z</time></trkpt><trkpt lat="44.35388673049561" lon="7.30035347033014"><ele>1711.0</ele><time>2026-05-03T15:11:38.998Z</time></trkpt><trkpt lat="44.353813156327135" lon="7.3004103532665185"><ele>1711.0</ele><time>2026-05-03T15:11:41.998Z</time></trkpt><trkpt lat="44.35373287654731" lon="7.300458361386123"><ele>1711.0000000000002</ele><time>2026-05-03T15:11:43.998Z</time></trkpt><trkpt lat="44.353670017095794" lon="7.300440416767051"><ele>1711.0</ele><time>2026-05-03T15:11:45.998Z</time></trkpt><trkpt lat="44.353600882918215" lon="7.300455166486384"><ele>1711.4285714285713</ele><time>2026-05-03T15:11:48Z</time></trkpt><trkpt lat="44.35353193030853" lon="7.300483698059473"><ele>1711.857142857143</ele><time>2026-05-03T15:11:50Z</time></trkpt><trkpt lat="44.35346681525224" lon="7.300483289812179"><ele>1712.2857142857142</ele><time>2026-05-03T15:11:52Z</time></trkpt><trkpt lat="44.35340030246649" lon="7.300494214950866"><ele>1712.7142857142858</ele><time>2026-05-03T15:11:54Z</time></trkpt><trkpt lat="44.353324799276706" lon="7.300516372448291"><ele>1713.142857142857</ele><time>2026-05-03T15:11:57Z</time></trkpt><trkpt lat="44.353259301338966" lon="7.300582216545961"><ele>1713.5714285714284</ele><time>2026-05-03T15:12:00Z</time></trkpt><trkpt lat="44.3531788069508" lon="7.3005986054120875"><ele>1714.0</ele><time>2026-05-03T15:12:03Z</time></trkpt><trkpt lat="44.35310055724176" lon="7.300617168804823"><ele>1711.1666666666667</ele><time>2026-05-03T15:12:06Z</time></trkpt><trkpt lat="44.35303413664698" lon="7.300638215941207"><ele>1708.3333333333335</ele><time>2026-05-03T15:12:45.999Z</time></trkpt><trkpt lat="44.3529610350837" lon="7.300664760985255"><ele>1705.5</ele><time>2026-05-03T15:12:48.999Z</time></trkpt><trkpt lat="44.35287442722764" lon="7.300680324290965"><ele>1702.6666666666665</ele><time>2026-05-03T15:12:50.999Z</time></trkpt><trkpt lat="44.352778438165615" lon="7.300705024006117"><ele>1699.8333333333333</ele><time>2026-05-03T15:12:52.999Z</time></trkpt><trkpt lat="44.35268033233261" lon="7.3007867502778465"><ele>1697.0</ele><time>2026-05-03T15:12:54.999Z</time></trkpt><trkpt lat="44.35263957871973" lon="7.300857983589513"><ele>1696.9999999999998</ele><time>2026-05-03T15:12:55.999Z</time></trkpt><trkpt lat="44.352590999167454" lon="7.300922819096728"><ele>1697.0</ele><time>2026-05-03T15:12:56.999Z</time></trkpt><trkpt lat="44.352520578662684" lon="7.301045927225839"><ele>1697.0</ele><time>2026-05-03T15:12:58.999Z</time></trkpt><trkpt lat="44.35245395186613" lon="7.301085006800738"><ele>1697.0</ele><time>2026-05-03T15:12:59.999Z</time></trkpt><trkpt lat="44.35238645197582" lon="7.301127932731765"><ele>1696.9999999999998</ele><time>2026-05-03T15:13:00.999Z</time></trkpt><trkpt lat="44.35228434781132" lon="7.301196028214081"><ele>1697.0</ele><time>2026-05-03T15:13:02.999Z</time></trkpt><trkpt lat="44.35223774068811" lon="7.301263125396246"><ele>1696.9999999999998</ele><time>2026-05-03T15:13:03.999Z</time></trkpt><trkpt lat="44.35220800887003" lon="7.301350789701676"><ele>1697.0</ele><time>2026-05-03T15:13:04.999Z</time></trkpt><trkpt lat="44.352165958512266" lon="7.301453375321521"><ele>1697.0</ele><time>2026-05-03T15:13:05.998Z</time></trkpt><trkpt lat="44.352122566003445" lon="7.301569764346936"><ele>1697.0</ele><time>2026-05-03T15:13:06.998Z</time></trkpt><trkpt lat="44.35208531237151" lon="7.301686965876104"><ele>1696.9999999999998</ele><time>2026-05-03T15:13:07.998Z</time></trkpt><trkpt lat="44.352057754530584" lon="7.301792397319422"><ele>1697.0</ele><time>2026-05-03T15:13:08.998Z</time></trkpt><trkpt lat="44.352028236487705" lon="7.30189073603714"><ele>1695.6666666666665</ele><time>2026-05-03T15:13:09.998Z</time></trkpt><trkpt lat="44.351987397877195" lon="7.30199884639767"><ele>1694.3333333333333</ele><time>2026-05-03T15:13:11.998Z</time></trkpt><trkpt lat="44.351986190305645" lon="7.302130123575425"><ele>1693.0</ele><time>2026-05-03T15:13:29.998Z</time></trkpt><trkpt lat="44.35192905538192" lon="7.302192007773698"><ele>1691.6666666666665</ele><time>2026-05-03T15:13:38.998Z</time></trkpt><trkpt lat="44.3518536459499" lon="7.302205845598767"><ele>1690.3333333333333</ele><time>2026-05-03T15:13:41.998Z</time></trkpt><trkpt lat="44.35180962803379" lon="7.3022885817881855"><ele>1689.0</ele><time>2026-05-03T15:13:43.998Z</time></trkpt><trkpt lat="44.35175501955349" lon="7.302358998678731"><ele>1689.0</ele><time>2026-05-03T15:13:45.998Z</time></trkpt><trkpt lat="44.35171512819554" lon="7.302435842912614"><ele>1689.0</ele><time>2026-05-03T15:13:47.998Z</time></trkpt><trkpt lat="44.35168495750331" lon="7.302521479285394"><ele>1689.0</ele><time>2026-05-03T15:13:49.998Z</time></trkpt><trkpt lat="44.35159681491479" lon="7.302559969273967"><ele>1689.0</ele><time>2026-05-03T15:13:54Z</time></trkpt><trkpt lat="44.35152095004885" lon="7.302608364659791"><ele>1689.0</ele><time>2026-05-03T15:13:57Z</time></trkpt><trkpt lat="44.351444010218806" lon="7.302692159411297"><ele>1689.0</ele><time>2026-05-03T15:14:00Z</time></trkpt><trkpt lat="44.35135840541278" lon="7.30280254747765"><ele>1686.0</ele><time>2026-05-03T15:14:02Z</time></trkpt><trkpt lat="44.35125237987396" lon="7.302893226770884"><ele>1683.0</ele><time>2026-05-03T15:14:04Z</time></trkpt><trkpt lat="44.35115423417963" lon="7.30300159273685"><ele>1680.0</ele><time>2026-05-03T15:14:06Z</time></trkpt><trkpt lat="44.35106809449052" lon="7.30310204975384"><ele>1677.0</ele><time>2026-05-03T15:14:08Z</time></trkpt><trkpt lat="44.35102549754306" lon="7.3031809967113395"><ele>1674.0</ele><time>2026-05-03T15:14:09Z</time></trkpt><trkpt lat="44.35099340604069" lon="7.303295450112563"><ele>1674.0</ele><time>2026-05-03T15:14:10Z</time></trkpt><trkpt lat="44.35094067023182" lon="7.303369376056044"><ele>1674.0</ele><time>2026-05-03T15:14:11Z</time></trkpt><trkpt lat="44.350874477138106" lon="7.30351256424955"><ele>1674.0</ele><time>2026-05-03T15:14:13Z</time></trkpt><trkpt lat="44.35079872681448" lon="7.303629649014974"><ele>1674.0</ele><time>2026-05-03T15:14:15Z</time></trkpt><trkpt lat="44.35071507997072" lon="7.303702757364347"><ele>1674.0</ele><time>2026-05-03T15:14:17Z</time></trkpt><trkpt lat="44.35065380381694" lon="7.303742469233463"><ele>1674.0</ele><time>2026-05-03T15:14:18Z</time></trkpt><trkpt lat="44.350586321113354" lon="7.303824281419495"><ele>1674.0</ele><time>2026-05-03T15:14:19.999Z</time></trkpt><trkpt lat="44.350501298046595" lon="7.303943050664188"><ele>1674.0</ele><time>2026-05-03T15:14:21.999Z</time></trkpt><trkpt lat="44.35040775613931" lon="7.3040294833810595"><ele>1674.0</ele><time>2026-05-03T15:14:23.999Z</time></trkpt><trkpt lat="44.35034433945144" lon="7.304065741713704"><ele>1674.0</ele><time>2026-05-03T15:14:25.999Z</time></trkpt><trkpt lat="44.350279896453685" lon="7.304128068144063"><ele>1672.2</ele><time>2026-05-03T15:14:29.999Z</time></trkpt><trkpt lat="44.350195106120005" lon="7.304069989109714"><ele>1670.4</ele><time>2026-05-03T15:14:35.999Z</time></trkpt><trkpt lat="44.35009132875806" lon="7.303976855878092"><ele>1668.6</ele><time>2026-05-03T15:14:37.999Z</time></trkpt><trkpt lat="44.35006304496994" lon="7.303872440989208"><ele>1666.8</ele><time>2026-05-03T15:14:38.999Z</time></trkpt><trkpt lat="44.35005460843343" lon="7.303761336209997"><ele>1665.0</ele><time>2026-05-03T15:14:39.999Z</time></trkpt><trkpt lat="44.35004050916502" lon="7.303638453910092"><ele>1664.0</ele><time>2026-05-03T15:14:40.999Z</time></trkpt><trkpt lat="44.350028867441566" lon="7.3035481982020505"><ele>1663.0</ele><time>2026-05-03T15:14:41.999Z</time></trkpt><trkpt lat="44.35001459600047" lon="7.303456500303732"><ele>1662.0</ele><time>2026-05-03T15:14:42.999Z</time></trkpt><trkpt lat="44.349991482432834" lon="7.303318312186316"><ele>1661.0</ele><time>2026-05-03T15:14:44.999Z</time></trkpt><trkpt lat="44.34996412423956" lon="7.30322899477967"><ele>1660.0</ele><time>2026-05-03T15:14:45.999Z</time></trkpt><trkpt lat="44.349928157243575" lon="7.303136903389249"><ele>1659.0</ele><time>2026-05-03T15:14:46.999Z</time></trkpt><trkpt lat="44.34989781434108" lon="7.303041253634952"><ele>1656.6666666666667</ele><time>2026-05-03T15:14:47.999Z</time></trkpt><trkpt lat="44.34986006291047" lon="7.302949940594915"><ele>1654.3333333333335</ele><time>2026-05-03T15:14:48.999Z</time></trkpt><trkpt lat="44.34981535118692" lon="7.302838059888427"><ele>1652.0</ele><time>2026-05-03T15:14:49.999Z</time></trkpt><trkpt lat="44.34978638469809" lon="7.302747917811522"><ele>1649.6666666666667</ele><time>2026-05-03T15:14:50.999Z</time></trkpt><trkpt lat="44.34970573635234" lon="7.302628743294636"><ele>1647.3333333333335</ele><time>2026-05-03T15:14:52.999Z</time></trkpt><trkpt lat="44.34965261793128" lon="7.302578958205837"><ele>1645.0</ele><time>2026-05-03T15:14:53.999Z</time></trkpt><trkpt lat="44.34958118163496" lon="7.302528892337421"><ele>1643.5000000000002</ele><time>2026-05-03T15:14:54.999Z</time></trkpt><trkpt lat="44.34949678320669" lon="7.3025207475475"><ele>1642.0</ele><time>2026-05-03T15:14:55.999Z</time></trkpt><trkpt lat="44.34940844304939" lon="7.302528113217666"><ele>1640.5</ele><time>2026-05-03T15:14:56.999Z</time></trkpt><trkpt lat="44.34933467146128" lon="7.30253940100058"><ele>1639.0</ele><time>2026-05-03T15:14:57.999Z</time></trkpt><trkpt lat="44.349270559489085" lon="7.302546525056287"><ele>1637.5000000000002</ele><time>2026-05-03T15:14:58.999Z</time></trkpt><trkpt lat="44.3491840798939" lon="7.302557737343318"><ele>1636.0</ele><time>2026-05-03T15:14:59.999Z</time></trkpt><trkpt lat="44.349116780913356" lon="7.302568991182255"><ele>1636.0</ele><time>2026-05-03T15:15:00.999Z</time></trkpt><trkpt lat="44.34905188838976" lon="7.302597917596364"><ele>1636.0</ele><time>2026-05-03T15:15:01.999Z</time></trkpt><trkpt lat="44.348988101275296" lon="7.302613185602896"><ele>1636.0</ele><time>2026-05-03T15:15:02.999Z</time></trkpt><trkpt lat="44.348922493792074" lon="7.302648424014393"><ele>1636.0</ele><time>2026-05-03T15:15:03.999Z</time></trkpt><trkpt lat="44.348866600471574" lon="7.3027013951719555"><ele>1636.0</ele><time>2026-05-03T15:15:04.999Z</time></trkpt><trkpt lat="44.34881183574243" lon="7.302797172149096"><ele>1636.0</ele><time>2026-05-03T15:15:05.999Z</time></trkpt><trkpt lat="44.34875001325892" lon="7.302875720431537"><ele>1636.0</ele><time>2026-05-03T15:15:06.999Z</time></trkpt><trkpt lat="44.34870902566226" lon="7.302972677363357"><ele>1633.0</ele><time>2026-05-03T15:15:07.999Z</time></trkpt><trkpt lat="44.348680638890265" lon="7.303084112624452"><ele>1630.0</ele><time>2026-05-03T15:15:08.999Z</time></trkpt><trkpt lat="44.34864452028501" lon="7.3031992049204195"><ele>1627.0</ele><time>2026-05-03T15:15:09.999Z</time></trkpt><trkpt lat="44.34860000026414" lon="7.3033425381060155"><ele>1624.0</ele><time>2026-05-03T15:15:10.999Z</time></trkpt><trkpt lat="44.34854134901536" lon="7.303458510738948"><ele>1621.0</ele><time>2026-05-03T15:15:11.999Z</time></trkpt><trkpt lat="44.34849264848374" lon="7.303563309401898"><ele>1621.0000000000002</ele><time>2026-05-03T15:15:12.998Z</time></trkpt><trkpt lat="44.348444760944" lon="7.30364644148202"><ele>1621.0</ele><time>2026-05-03T15:15:13.998Z</time></trkpt><trkpt lat="44.34838870399217" lon="7.303746172770051"><ele>1621.0</ele><time>2026-05-03T15:15:15.998Z</time></trkpt><trkpt lat="44.34834795581417" lon="7.303837071985414"><ele>1621.0</ele><time>2026-05-03T15:15:17.998Z</time></trkpt><trkpt lat="44.34829905881458" lon="7.303906087142779"><ele>1621.0</ele><time>2026-05-03T15:15:20.998Z</time></trkpt><trkpt lat="44.34827169133825" lon="7.3039919090570145"><ele>1621.0000000000002</ele><time>2026-05-03T15:15:32.998Z</time></trkpt><trkpt lat="44.34822778070841" lon="7.304060785320133"><ele>1621.0</ele><time>2026-05-03T15:15:35.998Z</time></trkpt><trkpt lat="44.34814208878138" lon="7.304048178355299"><ele>1622.4</ele><time>2026-05-03T15:15:38.998Z</time></trkpt><trkpt lat="44.34805478713167" lon="7.3039965819449275"><ele>1623.8</ele><time>2026-05-03T15:15:40.998Z</time></trkpt><trkpt lat="44.347933126298074" lon="7.303985688872629"><ele>1625.2</ele><time>2026-05-03T15:15:42.998Z</time></trkpt><trkpt lat="44.34781235179559" lon="7.3039616110969865"><ele>1626.6000000000001</ele><time>2026-05-03T15:15:44.998Z</time></trkpt><trkpt lat="44.3477440897158" lon="7.3039568276911"><ele>1628.0</ele><time>2026-05-03T15:15:45.998Z</time></trkpt><trkpt lat="44.34767901040716" lon="7.303951330979527"><ele>1625.4999999999998</ele><time>2026-05-03T15:15:46.998Z</time></trkpt><trkpt lat="44.34753523814963" lon="7.303966639605217"><ele>1623.0</ele><time>2026-05-03T15:15:48.998Z</time></trkpt><trkpt lat="44.347461206041324" lon="7.303965115633914"><ele>1620.5</ele><time>2026-05-03T15:15:49.998Z</time></trkpt><trkpt lat="44.34739324256257" lon="7.303959817220231"><ele>1618.0</ele><time>2026-05-03T15:15:50.998Z</time></trkpt><trkpt lat="44.34732141964766" lon="7.303939673720033"><ele>1615.4999999999998</ele><time>2026-05-03T15:15:51.998Z</time></trkpt><trkpt lat="44.34725167602977" lon="7.303919606154148"><ele>1613.0</ele><time>2026-05-03T15:15:52.998Z</time></trkpt><trkpt lat="44.34718301714166" lon="7.303875269793837"><ele>1612.1666666666665</ele><time>2026-05-03T15:15:53.998Z</time></trkpt><trkpt lat="44.347076584526555" lon="7.303821107403917"><ele>1611.3333333333333</ele><time>2026-05-03T15:15:55.998Z</time></trkpt><trkpt lat="44.34703986458339" lon="7.3039024589599215"><ele>1610.5</ele><time>2026-05-03T15:17:43.998Z</time></trkpt><trkpt lat="44.34702802865309" lon="7.303998835923117"><ele>1609.6666666666665</ele><time>2026-05-03T15:17:49.998Z</time></trkpt><trkpt lat="44.3470363501971" lon="7.304093442103096"><ele>1608.8333333333333</ele><time>2026-05-03T15:31:21.999Z</time></trkpt><trkpt lat="44.34706474427442" lon="7.304196754654751"><ele>1608.0</ele><time>2026-05-03T15:31:23.999Z</time></trkpt><trkpt lat="44.34707678361673" lon="7.304304973387269"><ele>1606.8000000000002</ele><time>2026-05-03T15:31:25.999Z</time></trkpt><trkpt lat="44.347083249140155" lon="7.304417341319944"><ele>1605.6</ele><time>2026-05-03T15:31:27.999Z</time></trkpt><trkpt lat="44.34708272906773" lon="7.304541791122597"><ele>1604.4</ele><time>2026-05-03T15:31:29.999Z</time></trkpt><trkpt lat="44.34709292419064" lon="7.304673557775473"><ele>1603.1999999999998</ele><time>2026-05-03T15:31:31.999Z</time></trkpt><trkpt lat="44.34709318482807" lon="7.3048149013549555"><ele>1602.0</ele><time>2026-05-03T15:31:33.999Z</time></trkpt><trkpt lat="44.347127814070916" lon="7.304944809705991"><ele>1601.3999999999999</ele><time>2026-05-03T15:31:35.999Z</time></trkpt><trkpt lat="44.347147264768466" lon="7.305054044586842"><ele>1600.8</ele><time>2026-05-03T15:31:36.999Z</time></trkpt><trkpt lat="44.34717170067112" lon="7.305187640970814"><ele>1600.2</ele><time>2026-05-03T15:31:37.999Z</time></trkpt><trkpt lat="44.347189584886" lon="7.3053188381676515"><ele>1599.6</ele><time>2026-05-03T15:31:38.999Z</time></trkpt><trkpt lat="44.34720165962711" lon="7.305438666192097"><ele>1599.0</ele><time>2026-05-03T15:31:39.999Z</time></trkpt><trkpt lat="44.347232873650675" lon="7.305608414172625"><ele>1599.0</ele><time>2026-05-03T15:31:41.999Z</time></trkpt><trkpt lat="44.347327092089095" lon="7.305718301797691"><ele>1599.0</ele><time>2026-05-03T15:31:43.999Z</time></trkpt><trkpt lat="44.34737977153052" lon="7.305782658154554"><ele>1599.0</ele><time>2026-05-03T15:31:44.999Z</time></trkpt><trkpt lat="44.34743065979621" lon="7.305856710520323"><ele>1599.0</ele><time>2026-05-03T15:31:45.999Z</time></trkpt><trkpt lat="44.34746325161371" lon="7.305967484077329"><ele>1599.0</ele><time>2026-05-03T15:31:46.999Z</time></trkpt><trkpt lat="44.34748065843631" lon="7.306083738654255"><ele>1599.0</ele><time>2026-05-03T15:31:47.999Z</time></trkpt><trkpt lat="44.347501919637885" lon="7.306207305721594"><ele>1599.0</ele><time>2026-05-03T15:31:48.999Z</time></trkpt><trkpt lat="44.3475296264473" lon="7.306315184919632"><ele>1599.0</ele><time>2026-05-03T15:31:49.999Z</time></trkpt><trkpt lat="44.34752748423749" lon="7.306434972103668"><ele>1599.0</ele><time>2026-05-03T15:31:50.999Z</time></trkpt><trkpt lat="44.347487831525484" lon="7.306560722177517"><ele>1599.0</ele><time>2026-05-03T15:31:51.999Z</time></trkpt><trkpt lat="44.347446396299844" lon="7.30668405176639"><ele>1599.0</ele><time>2026-05-03T15:31:52.999Z</time></trkpt><trkpt lat="44.347421975761485" lon="7.306791722286441"><ele>1599.0</ele><time>2026-05-03T15:31:53.998Z</time></trkpt><trkpt lat="44.34740738142305" lon="7.306887845608228"><ele>1596.8333333333333</ele><time>2026-05-03T15:31:54.998Z</time></trkpt><trkpt lat="44.34740452114942" lon="7.306978473976079"><ele>1594.6666666666665</ele><time>2026-05-03T15:31:55.998Z</time></trkpt><trkpt lat="44.34741632308296" lon="7.307072600544293"><ele>1592.5</ele><time>2026-05-03T15:31:56.998Z</time></trkpt><trkpt lat="44.3474404200203" lon="7.307161634538165"><ele>1590.3333333333333</ele><time>2026-05-03T15:31:57.998Z</time></trkpt><trkpt lat="44.347524433367106" lon="7.307221820994902"><ele>1588.1666666666665</ele><time>2026-05-03T15:31:59.998Z</time></trkpt><trkpt lat="44.34760471624963" lon="7.307204690215899"><ele>1586.0</ele><time>2026-05-03T15:32:00.998Z</time></trkpt><trkpt lat="44.34770896740606" lon="7.307222762039636"><ele>1584.8</ele><time>2026-05-03T15:32:02.998Z</time></trkpt><trkpt lat="44.34772933673101" lon="7.307335595528065"><ele>1583.6</ele><time>2026-05-03T15:32:03.998Z</time></trkpt><trkpt lat="44.34768663595635" lon="7.3074914181366575"><ele>1582.4</ele><time>2026-05-03T15:32:06.998Z</time></trkpt><trkpt lat="44.347629391048635" lon="7.307551269162261"><ele>1581.2</ele><time>2026-05-03T15:32:07.998Z</time></trkpt><trkpt lat="44.34754881122382" lon="7.307581512174896"><ele>1580.0</ele><time>2026-05-03T15:32:09.998Z</time></trkpt><trkpt lat="44.347474064072" lon="7.3077321690349315"><ele>1580.0</ele><time>2026-05-03T15:32:11.998Z</time></trkpt><trkpt lat="44.347441067424946" lon="7.307925928557836"><ele>1580.0</ele><time>2026-05-03T15:32:13.998Z</time></trkpt><trkpt lat="44.34741172556989" lon="7.3080616471017965"><ele>1580.0</ele><time>2026-05-03T15:32:14.998Z</time></trkpt><trkpt lat="44.347379673394286" lon="7.308189348254746"><ele>1580.0</ele><time>2026-05-03T15:32:15.998Z</time></trkpt><trkpt lat="44.34734287725853" lon="7.308298681067777"><ele>1580.0</ele><time>2026-05-03T15:32:16.998Z</time></trkpt><trkpt lat="44.34730585321236" lon="7.308405998610218"><ele>1580.2</ele><time>2026-05-03T15:32:17.998Z</time></trkpt><trkpt lat="44.34725091195363" lon="7.30851640763473"><ele>1580.4</ele><time>2026-05-03T15:32:18.998Z</time></trkpt><trkpt lat="44.34717662288624" lon="7.308660704657662"><ele>1580.6</ele><time>2026-05-03T15:32:19.998Z</time></trkpt><trkpt lat="44.34711022248298" lon="7.308786656086595"><ele>1580.8</ele><time>2026-05-03T15:32:20.998Z</time></trkpt><trkpt lat="44.34705006789381" lon="7.308900362886434"><ele>1581.0</ele><time>2026-05-03T15:32:21.998Z</time></trkpt><trkpt lat="44.34699314273126" lon="7.309014805876521"><ele>1578.1999999999998</ele><time>2026-05-03T15:32:22.998Z</time></trkpt><trkpt lat="44.34694087861912" lon="7.309131662877755"><ele>1575.3999999999999</ele><time>2026-05-03T15:32:23.998Z</time></trkpt><trkpt lat="44.34687575131666" lon="7.309242903026162"><ele>1572.6</ele><time>2026-05-03T15:32:24.998Z</time></trkpt><trkpt lat="44.34681444490895" lon="7.309350864631502"><ele>1569.8</ele><time>2026-05-03T15:32:25.998Z</time></trkpt><trkpt lat="44.34675679633811" lon="7.309443376534173"><ele>1567.0</ele><time>2026-05-03T15:32:26.998Z</time></trkpt><trkpt lat="44.346691862228646" lon="7.309530096874391"><ele>1567.0000000000002</ele><time>2026-05-03T15:32:27.998Z</time></trkpt><trkpt lat="44.34664822082374" lon="7.309596864970973"><ele>1567.0</ele><time>2026-05-03T15:32:28.998Z</time></trkpt><trkpt lat="44.34658215093714" lon="7.309623361876121"><ele>1567.0</ele><time>2026-05-03T15:32:29.998Z</time></trkpt><trkpt lat="44.346488981541995" lon="7.309607095553593"><ele>1567.0</ele><time>2026-05-03T15:32:31.998Z</time></trkpt><trkpt lat="44.3464206308652" lon="7.30959586851613"><ele>1567.0000000000002</ele><time>2026-05-03T15:32:32.998Z</time></trkpt><trkpt lat="44.3463032108828" lon="7.30959077125903"><ele>1567.0</ele><time>2026-05-03T15:32:33.998Z</time></trkpt><trkpt lat="44.3462049860033" lon="7.309605018463097"><ele>1566.0000000000002</ele><time>2026-05-03T15:32:34.998Z</time></trkpt><trkpt lat="44.346125733046534" lon="7.309630588154328"><ele>1565.0</ele><time>2026-05-03T15:32:35.998Z</time></trkpt><trkpt lat="44.346024000049894" lon="7.309635090684638"><ele>1564.0</ele><time>2026-05-03T15:32:36.998Z</time></trkpt><trkpt lat="44.3459429017858" lon="7.309627210575653"><ele>1563.0</ele><time>2026-05-03T15:32:37.998Z</time></trkpt><trkpt lat="44.345850791585676" lon="7.309635734314866"><ele>1562.0000000000002</ele><time>2026-05-03T15:32:39.998Z</time></trkpt><trkpt lat="44.345807000866564" lon="7.309703965356842"><ele>1561.0</ele><time>2026-05-03T15:32:40.998Z</time></trkpt><trkpt lat="44.345753307215865" lon="7.309794116403084"><ele>1561.0</ele><time>2026-05-03T15:32:41.998Z</time></trkpt><trkpt lat="44.345735041531576" lon="7.309896653581505"><ele>1561.0</ele><time>2026-05-03T15:32:42.998Z</time></trkpt><trkpt lat="44.34573601652407" lon="7.310064980773866"><ele>1561.0</ele><time>2026-05-03T15:32:43.998Z</time></trkpt><trkpt lat="44.34573574180366" lon="7.310240343786212"><ele>1561.0</ele><time>2026-05-03T15:32:44.998Z</time></trkpt><trkpt lat="44.34570617294476" lon="7.310395069070106"><ele>1561.0</ele><time>2026-05-03T15:32:45.997Z</time></trkpt><trkpt lat="44.34566203699279" lon="7.310527113432551"><ele>1561.0</ele><time>2026-05-03T15:32:47Z</time></trkpt><trkpt lat="44.3456439550156" lon="7.310634763139971"><ele>1561.0</ele><time>2026-05-03T15:32:48Z</time></trkpt><trkpt lat="44.345617651213516" lon="7.3107328349921685"><ele>1561.0</ele><time>2026-05-03T15:32:49Z</time></trkpt><trkpt lat="44.34559640847812" lon="7.310852366172258"><ele>1561.0</ele><time>2026-05-03T15:32:50Z</time></trkpt><trkpt lat="44.345578130999144" lon="7.3109781936366405"><ele>1561.0</ele><time>2026-05-03T15:32:51Z</time></trkpt><trkpt lat="44.34558630242451" lon="7.311148035621208"><ele>1561.0000000000002</ele><time>2026-05-03T15:32:53Z</time></trkpt><trkpt lat="44.34556793070098" lon="7.311250623195257"><ele>1561.0</ele><time>2026-05-03T15:32:54Z</time></trkpt><trkpt lat="44.34552989279004" lon="7.311329381071135"><ele>1561.0</ele><time>2026-05-03T15:32:55Z</time></trkpt><trkpt lat="44.34547604104954" lon="7.311412995943399"><ele>1561.0</ele><time>2026-05-03T15:32:56Z</time></trkpt><trkpt lat="44.34541559269839" lon="7.311528167020715"><ele>1561.0000000000002</ele><time>2026-05-03T15:32:57Z</time></trkpt><trkpt lat="44.345374312593165" lon="7.311659570730041"><ele>1561.0</ele><time>2026-05-03T15:32:58Z</time></trkpt><trkpt lat="44.34535426420561" lon="7.311769607306034"><ele>1557.0</ele><time>2026-05-03T15:32:59Z</time></trkpt><trkpt lat="44.34532129410389" lon="7.3118934775746025"><ele>1553.0</ele><time>2026-05-03T15:33:00Z</time></trkpt><trkpt lat="44.34527759749545" lon="7.312028323382502"><ele>1549.0</ele><time>2026-05-03T15:33:01Z</time></trkpt><trkpt lat="44.34524832949161" lon="7.312133860660674"><ele>1545.0</ele><time>2026-05-03T15:33:02Z</time></trkpt><trkpt lat="44.34520371443374" lon="7.312236681454341"><ele>1541.0</ele><time>2026-05-03T15:33:03Z</time></trkpt><trkpt lat="44.34513491346433" lon="7.312329104931898"><ele>1540.0</ele><time>2026-05-03T15:33:04Z</time></trkpt><trkpt lat="44.34504890933536" lon="7.312430714446032"><ele>1539.0</ele><time>2026-05-03T15:33:05Z</time></trkpt><trkpt lat="44.34496569330254" lon="7.312535137814107"><ele>1538.0</ele><time>2026-05-03T15:33:05.999Z</time></trkpt><trkpt lat="44.34487839544871" lon="7.312633709793253"><ele>1537.0</ele><time>2026-05-03T15:33:06.999Z</time></trkpt><trkpt lat="44.34480405442326" lon="7.312723050152668"><ele>1536.0</ele><time>2026-05-03T15:33:07.999Z</time></trkpt><trkpt lat="44.34474836681965" lon="7.3128164374897375"><ele>1536.0</ele><time>2026-05-03T15:33:08.999Z</time></trkpt><trkpt lat="44.34468346015989" lon="7.312915043700263"><ele>1536.0</ele><time>2026-05-03T15:33:09.999Z</time></trkpt><trkpt lat="44.34460993120008" lon="7.313003731417461"><ele>1536.0</ele><time>2026-05-03T15:33:10.999Z</time></trkpt><trkpt lat="44.34454342327456" lon="7.313097367650007"><ele>1536.0</ele><time>2026-05-03T15:33:11.999Z</time></trkpt><trkpt lat="44.344512977363046" lon="7.313210225121525"><ele>1536.0</ele><time>2026-05-03T15:33:12.999Z</time></trkpt><trkpt lat="44.34451577938026" lon="7.313350287973595"><ele>1535.6</ele><time>2026-05-03T15:33:13.999Z</time></trkpt><trkpt lat="44.34451435429875" lon="7.3135007894915915"><ele>1535.1999999999998</ele><time>2026-05-03T15:33:14.999Z</time></trkpt><trkpt lat="44.344505591981964" lon="7.31364131792264"><ele>1534.8000000000002</ele><time>2026-05-03T15:33:15.999Z</time></trkpt><trkpt lat="44.34447873756677" lon="7.31377775591284"><ele>1534.4</ele><time>2026-05-03T15:33:16.999Z</time></trkpt><trkpt lat="44.344435140514754" lon="7.313893445021225"><ele>1534.0</ele><time>2026-05-03T15:33:17.999Z</time></trkpt><trkpt lat="44.344379745934674" lon="7.314021682907635"><ele>1532.8000000000002</ele><time>2026-05-03T15:33:18.999Z</time></trkpt><trkpt lat="44.34431876688259" lon="7.3141291312443295"><ele>1531.6000000000001</ele><time>2026-05-03T15:33:19.999Z</time></trkpt><trkpt lat="44.34426958889529" lon="7.314259386437916"><ele>1530.4</ele><time>2026-05-03T15:33:20.999Z</time></trkpt><trkpt lat="44.34422030611409" lon="7.31436947494218"><ele>1529.2</ele><time>2026-05-03T15:33:21.999Z</time></trkpt><trkpt lat="44.34415814814586" lon="7.314473488786908"><ele>1528.0</ele><time>2026-05-03T15:33:22.999Z</time></trkpt><trkpt lat="44.34408134065046" lon="7.314553481052687"><ele>1528.0</ele><time>2026-05-03T15:33:23.999Z</time></trkpt><trkpt lat="44.343991925813086" lon="7.31463369413261"><ele>1528.0</ele><time>2026-05-03T15:33:24.999Z</time></trkpt><trkpt lat="44.34389682016211" lon="7.314724594252379"><ele>1528.0</ele><time>2026-05-03T15:33:25.999Z</time></trkpt><trkpt lat="44.34381580828068" lon="7.314825564643192"><ele>1528.0</ele><time>2026-05-03T15:33:26.999Z</time></trkpt><trkpt lat="44.34377013712555" lon="7.31493094657202"><ele>1528.0</ele><time>2026-05-03T15:33:27.999Z</time></trkpt><trkpt lat="44.34370257521899" lon="7.315045181805952"><ele>1529.25</ele><time>2026-05-03T15:33:28.999Z</time></trkpt><trkpt lat="44.34361854683216" lon="7.315163574356885"><ele>1530.5</ele><time>2026-05-03T15:33:29.999Z</time></trkpt><trkpt lat="44.34354890949102" lon="7.315304702115794"><ele>1531.75</ele><time>2026-05-03T15:33:30.999Z</time></trkpt><trkpt lat="44.343486662283915" lon="7.315438407394235"><ele>1533.0</ele><time>2026-05-03T15:33:31.999Z</time></trkpt><trkpt lat="44.34342431159251" lon="7.315569720552976"><ele>1528.8000000000002</ele><time>2026-05-03T15:33:32.999Z</time></trkpt><trkpt lat="44.3433694162953" lon="7.315710158315187"><ele>1524.6</ele><time>2026-05-03T15:33:33.999Z</time></trkpt><trkpt lat="44.343315584150815" lon="7.315849209768131"><ele>1520.4</ele><time>2026-05-03T15:33:34.999Z</time></trkpt><trkpt lat="44.343265267001605" lon="7.315980314077264"><ele>1516.1999999999998</ele><time>2026-05-03T15:33:35.999Z</time></trkpt><trkpt lat="44.34320549541785" lon="7.316107818010962"><ele>1512.0</ele><time>2026-05-03T15:33:36.999Z</time></trkpt><trkpt lat="44.343136709604714" lon="7.316237594968088"><ele>1512.0</ele><time>2026-05-03T15:33:37.999Z</time></trkpt><trkpt lat="44.34308890976701" lon="7.316349557484132"><ele>1512.0</ele><time>2026-05-03T15:33:38.999Z</time></trkpt><trkpt lat="44.34305366108328" lon="7.316475923331473"><ele>1512.0</ele><time>2026-05-03T15:33:39.999Z</time></trkpt><trkpt lat="44.34304234585787" lon="7.316617445937093"><ele>1512.0</ele><time>2026-05-03T15:33:40.999Z</time></trkpt><trkpt lat="44.3430275254375" lon="7.3167829610307376"><ele>1512.0</ele><time>2026-05-03T15:33:41.999Z</time></trkpt><trkpt lat="44.343010621689075" lon="7.316919588679075"><ele>1514.1999999999998</ele><time>2026-05-03T15:33:42.999Z</time></trkpt><trkpt lat="44.343000117037406" lon="7.317072554546341"><ele>1516.4</ele><time>2026-05-03T15:33:43.999Z</time></trkpt><trkpt lat="44.34298857088216" lon="7.317223614538713"><ele>1518.6</ele><time>2026-05-03T15:33:44.999Z</time></trkpt><trkpt lat="44.342971817414885" lon="7.317359276891004"><ele>1520.8000000000002</ele><time>2026-05-03T15:33:45.999Z</time></trkpt><trkpt lat="44.34295166166797" lon="7.317473826328415"><ele>1523.0</ele><time>2026-05-03T15:33:46.999Z</time></trkpt><trkpt lat="44.34291485667424" lon="7.317562359507241"><ele>1519.1666666666667</ele><time>2026-05-03T15:33:47.999Z</time></trkpt><trkpt lat="44.34284841232051" lon="7.317627022901401"><ele>1515.3333333333335</ele><time>2026-05-03T15:33:48.999Z</time></trkpt><trkpt lat="44.34276484770815" lon="7.317720516160567"><ele>1511.5</ele><time>2026-05-03T15:33:49.999Z</time></trkpt><trkpt lat="44.34270294515114" lon="7.3178267063376445"><ele>1507.6666666666667</ele><time>2026-05-03T15:33:50.999Z</time></trkpt><trkpt lat="44.34266868828554" lon="7.317932604042054"><ele>1503.8333333333333</ele><time>2026-05-03T15:33:51.999Z</time></trkpt><trkpt lat="44.34262355918618" lon="7.318010874003447"><ele>1500.0</ele><time>2026-05-03T15:33:52.999Z</time></trkpt><trkpt lat="44.342570339923505" lon="7.318076219629519"><ele>1498.0</ele><time>2026-05-03T15:33:53.999Z</time></trkpt><trkpt lat="44.34249613731077" lon="7.3181124412179965"><ele>1496.0</ele><time>2026-05-03T15:33:54.999Z</time></trkpt><trkpt lat="44.34239406176985" lon="7.3181156852349805"><ele>1494.0</ele><time>2026-05-03T15:33:55.999Z</time></trkpt><trkpt lat="44.34231114322607" lon="7.318145189208799"><ele>1492.0</ele><time>2026-05-03T15:33:56.998Z</time></trkpt><trkpt lat="44.342213730360285" lon="7.318214317107653"><ele>1490.0</ele><time>2026-05-03T15:33:57.998Z</time></trkpt><trkpt lat="44.34213321771281" lon="7.318299471317889"><ele>1490.0</ele><time>2026-05-03T15:33:58.998Z</time></trkpt><trkpt lat="44.34204619209824" lon="7.318365118354754"><ele>1490.0</ele><time>2026-05-03T15:33:59.998Z</time></trkpt><trkpt lat="44.34195685300234" lon="7.318422732570088"><ele>1490.0</ele><time>2026-05-03T15:34:00.998Z</time></trkpt><trkpt lat="44.341862737614385" lon="7.3184739525819476"><ele>1490.0</ele><time>2026-05-03T15:34:01.998Z</time></trkpt><trkpt lat="44.34176985078896" lon="7.318523069527001"><ele>1490.0</ele><time>2026-05-03T15:34:02.998Z</time></trkpt><trkpt lat="44.341676378037285" lon="7.3185936311262445"><ele>1490.0</ele><time>2026-05-03T15:34:03.998Z</time></trkpt><trkpt lat="44.341598646839536" lon="7.318662168512288"><ele>1490.0</ele><time>2026-05-03T15:34:04.998Z</time></trkpt><trkpt lat="44.34152754035678" lon="7.318730750978528"><ele>1490.0</ele><time>2026-05-03T15:34:05.998Z</time></trkpt><trkpt lat="44.341481515165235" lon="7.318822239114154"><ele>1490.0</ele><time>2026-05-03T15:34:06.998Z</time></trkpt><trkpt lat="44.341468243193944" lon="7.31896800142809"><ele>1490.0</ele><time>2026-05-03T15:34:07.998Z</time></trkpt><trkpt lat="44.34146920370953" lon="7.319131447952563"><ele>1484.25</ele><time>2026-05-03T15:34:08.998Z</time></trkpt><trkpt lat="44.34147326334726" lon="7.3193204546867365"><ele>1478.5</ele><time>2026-05-03T15:34:09.998Z</time></trkpt><trkpt lat="44.341461743382375" lon="7.319491166123183"><ele>1472.75</ele><time>2026-05-03T15:34:10.998Z</time></trkpt><trkpt lat="44.34143753610082" lon="7.319641873974432"><ele>1467.0</ele><time>2026-05-03T15:34:11.998Z</time></trkpt><trkpt lat="44.34140114944532" lon="7.319793054734441"><ele>1469.8</ele><time>2026-05-03T15:34:12.998Z</time></trkpt><trkpt lat="44.34135810145071" lon="7.3199519480282484"><ele>1472.6</ele><time>2026-05-03T15:34:13.998Z</time></trkpt><trkpt lat="44.34130843404867" lon="7.320105049238071"><ele>1475.3999999999999</ele><time>2026-05-03T15:34:14.998Z</time></trkpt><trkpt lat="44.341249630591044" lon="7.320230090101456"><ele>1478.1999999999998</ele><time>2026-05-03T15:34:15.998Z</time></trkpt><trkpt lat="44.34119921614049" lon="7.320351057621316"><ele>1481.0</ele><time>2026-05-03T15:34:16.998Z</time></trkpt><trkpt lat="44.341152794306936" lon="7.320476407155686"><ele>1477.6</ele><time>2026-05-03T15:34:17.998Z</time></trkpt><trkpt lat="44.34111616777611" lon="7.320574552330674"><ele>1474.1999999999998</ele><time>2026-05-03T15:34:18.998Z</time></trkpt><trkpt lat="44.34107347055885" lon="7.320672100091668"><ele>1470.8000000000002</ele><time>2026-05-03T15:34:19.998Z</time></trkpt><trkpt lat="44.341016763439136" lon="7.320769928412745"><ele>1467.4</ele><time>2026-05-03T15:34:20.998Z</time></trkpt><trkpt lat="44.34095453460147" lon="7.32088606974023"><ele>1464.0</ele><time>2026-05-03T15:34:21.998Z</time></trkpt><trkpt lat="44.340933743243696" lon="7.321017341501484"><ele>1464.0</ele><time>2026-05-03T15:34:22.998Z</time></trkpt><trkpt lat="44.34093762782261" lon="7.321143920064294"><ele>1464.0</ele><time>2026-05-03T15:34:23.998Z</time></trkpt><trkpt lat="44.34091808985053" lon="7.321282821519189"><ele>1464.0</ele><time>2026-05-03T15:34:24.998Z</time></trkpt><trkpt lat="44.340883891265165" lon="7.321432214644425"><ele>1464.0</ele><time>2026-05-03T15:34:25.998Z</time></trkpt><trkpt lat="44.34084814797743" lon="7.321581539903993"><ele>1464.0</ele><time>2026-05-03T15:34:26.998Z</time></trkpt><trkpt lat="44.34081606836858" lon="7.321735734755571"><ele>1460.8000000000002</ele><time>2026-05-03T15:34:27.998Z</time></trkpt><trkpt lat="44.34080677456796" lon="7.321887269484366"><ele>1457.6000000000001</ele><time>2026-05-03T15:34:28.998Z</time></trkpt><trkpt lat="44.340763481556145" lon="7.32202919429026"><ele>1454.4</ele><time>2026-05-03T15:34:29.998Z</time></trkpt><trkpt lat="44.34072059017369" lon="7.322125309059435"><ele>1451.2</ele><time>2026-05-03T15:34:30.998Z</time></trkpt><trkpt lat="44.34066621948124" lon="7.322210029742217"><ele>1448.0</ele><time>2026-05-03T15:34:31.998Z</time></trkpt><trkpt lat="44.34060547807966" lon="7.322265719787554"><ele>1447.6666666666667</ele><time>2026-05-03T15:34:32.998Z</time></trkpt><trkpt lat="44.34053778601269" lon="7.322296158675771"><ele>1447.3333333333335</ele><time>2026-05-03T15:34:33.998Z</time></trkpt><trkpt lat="44.340458834405936" lon="7.322313248191162"><ele>1447.0</ele><time>2026-05-03T15:34:34.998Z</time></trkpt><trkpt lat="44.340374976848054" lon="7.322310236059751"><ele>1446.6666666666667</ele><time>2026-05-03T15:34:35.998Z</time></trkpt><trkpt lat="44.34027484380913" lon="7.322290227820302"><ele>1446.3333333333333</ele><time>2026-05-03T15:34:36.998Z</time></trkpt><trkpt lat="44.340181723607046" lon="7.322261405574206"><ele>1446.0</ele><time>2026-05-03T15:34:37.998Z</time></trkpt><trkpt lat="44.34008763900801" lon="7.322229712986264"><ele>1446.0</ele><time>2026-05-03T15:34:38.998Z</time></trkpt><trkpt lat="44.33999638545953" lon="7.322207833606745"><ele>1446.0</ele><time>2026-05-03T15:34:39.998Z</time></trkpt><trkpt lat="44.33992356671403" lon="7.322201987797377"><ele>1446.0</ele><time>2026-05-03T15:34:40.998Z</time></trkpt><trkpt lat="44.33986192235359" lon="7.3222395469273795"><ele>1446.0</ele><time>2026-05-03T15:34:41.998Z</time></trkpt><trkpt lat="44.33981506791087" lon="7.322330151695358"><ele>1446.0</ele><time>2026-05-03T15:34:42.998Z</time></trkpt><trkpt lat="44.339793967865795" lon="7.3224345247365346"><ele>1446.0</ele><time>2026-05-03T15:34:43.998Z</time></trkpt><trkpt lat="44.33979897951542" lon="7.322526903625562"><ele>1442.8333333333333</ele><time>2026-05-03T15:34:44.998Z</time></trkpt><trkpt lat="44.33985094329208" lon="7.3226147989149"><ele>1439.6666666666667</ele><time>2026-05-03T15:34:45.998Z</time></trkpt><trkpt lat="44.339898042634644" lon="7.322695634281599"><ele>1436.5</ele><time>2026-05-03T15:34:46.998Z</time></trkpt><trkpt lat="44.33993559882601" lon="7.322793759677128"><ele>1433.3333333333335</ele><time>2026-05-03T15:34:47.998Z</time></trkpt><trkpt lat="44.33996868600962" lon="7.322900961659534"><ele>1430.1666666666667</ele><time>2026-05-03T15:34:48.998Z</time></trkpt><trkpt lat="44.340016993889684" lon="7.323001822149624"><ele>1427.0</ele><time>2026-05-03T15:34:49.997Z</time></trkpt><trkpt lat="44.340066579114236" lon="7.323120154232294"><ele>1424.0</ele><time>2026-05-03T15:34:50.997Z</time></trkpt><trkpt lat="44.340117056730115" lon="7.3232289594494375"><ele>1421.0</ele><time>2026-05-03T15:34:51.997Z</time></trkpt><trkpt lat="44.34013561616581" lon="7.32335273774082"><ele>1418.0</ele><time>2026-05-03T15:34:53Z</time></trkpt><trkpt lat="44.340173012335086" lon="7.323445985399433"><ele>1415.0</ele><time>2026-05-03T15:34:54Z</time></trkpt><trkpt lat="44.34021729145138" lon="7.3235328371376625"><ele>1412.0</ele><time>2026-05-03T15:34:55Z</time></trkpt><trkpt lat="44.34030979908505" lon="7.323630317715326"><ele>1412.0</ele><time>2026-05-03T15:34:57Z</time></trkpt><trkpt lat="44.34042030325302" lon="7.323616015609315"><ele>1412.0</ele><time>2026-05-03T15:34:59Z</time></trkpt><trkpt lat="44.340488583514656" lon="7.32358729097215"><ele>1412.0</ele><time>2026-05-03T15:35:00Z</time></trkpt><trkpt lat="44.34062411091444" lon="7.323528598680287"><ele>1412.0</ele><time>2026-05-03T15:35:02Z</time></trkpt><trkpt lat="44.34071566565752" lon="7.3234816546207115"><ele>1412.0</ele><time>2026-05-03T15:35:04Z</time></trkpt><trkpt lat="44.34070202932166" lon="7.323593939835206"><ele>1411.5</ele><time>2026-05-03T15:35:06Z</time></trkpt><trkpt lat="44.34069696271842" lon="7.323684035277441"><ele>1411.0</ele><time>2026-05-03T15:35:09Z</time></trkpt><trkpt lat="44.340646908862794" lon="7.32386434761154"><ele>1410.5</ele><time>2026-05-03T15:35:10.999Z</time></trkpt><trkpt lat="44.34058728162424" lon="7.323910462156556"><ele>1410.0</ele><time>2026-05-03T15:35:12.999Z</time></trkpt><trkpt lat="44.34050858242662" lon="7.323949399611843"><ele>1409.5</ele><time>2026-05-03T15:35:15.999Z</time></trkpt><trkpt lat="44.3404180016665" lon="7.3239410760443455"><ele>1409.0</ele><time>2026-05-03T15:35:18.999Z</time></trkpt><trkpt lat="44.34033471938208" lon="7.323954168842763"><ele>1409.6</ele><time>2026-05-03T15:35:20.999Z</time></trkpt><trkpt lat="44.34023942894252" lon="7.323967061920613"><ele>1410.2</ele><time>2026-05-03T15:35:22.999Z</time></trkpt><trkpt lat="44.34011300087046" lon="7.323976617337338"><ele>1410.8</ele><time>2026-05-03T15:35:24.999Z</time></trkpt><trkpt lat="44.34004174997184" lon="7.323964626291168"><ele>1411.3999999999999</ele><time>2026-05-03T15:35:25.999Z</time></trkpt><trkpt lat="44.33996972036913" lon="7.323917132768475"><ele>1412.0</ele><time>2026-05-03T15:35:26.999Z</time></trkpt><trkpt lat="44.33988965559414" lon="7.32386654558284"><ele>1412.0</ele><time>2026-05-03T15:35:27.999Z</time></trkpt><trkpt lat="44.33978373983044" lon="7.32381285503194"><ele>1412.0</ele><time>2026-05-03T15:35:28.999Z</time></trkpt><trkpt lat="44.339624141442826" lon="7.32382717731683"><ele>1412.0</ele><time>2026-05-03T15:35:29.999Z</time></trkpt><trkpt lat="44.33953554915952" lon="7.323782416174661"><ele>1412.0</ele><time>2026-05-03T15:35:30.999Z</time></trkpt><trkpt lat="44.33945666183953" lon="7.323740921496307"><ele>1407.0</ele><time>2026-05-03T15:35:31.999Z</time></trkpt><trkpt lat="44.33937429883507" lon="7.323698595981793"><ele>1402.0</ele><time>2026-05-03T15:35:32.999Z</time></trkpt><trkpt lat="44.33931945557538" lon="7.32364642346156"><ele>1397.0</ele><time>2026-05-03T15:35:33.999Z</time></trkpt><trkpt lat="44.339248736010624" lon="7.323497741177924"><ele>1392.0</ele><time>2026-05-03T15:35:35.999Z</time></trkpt><trkpt lat="44.33918579426635" lon="7.323383199725014"><ele>1387.0</ele><time>2026-05-03T15:35:36.999Z</time></trkpt><trkpt lat="44.339119428645674" lon="7.323262427490417"><ele>1387.0</ele><time>2026-05-03T15:35:37.999Z</time></trkpt><trkpt lat="44.33903926963695" lon="7.323175883241436"><ele>1387.0</ele><time>2026-05-03T15:35:38.999Z</time></trkpt><trkpt lat="44.338949885078286" lon="7.323132009940821"><ele>1387.0</ele><time>2026-05-03T15:35:39.999Z</time></trkpt><trkpt lat="44.33886334574961" lon="7.323062178763872"><ele>1387.0</ele><time>2026-05-03T15:35:40.999Z</time></trkpt><trkpt lat="44.338768994267056" lon="7.32303703290917"><ele>1387.0</ele><time>2026-05-03T15:35:41.999Z</time></trkpt><trkpt lat="44.33867982745119" lon="7.323007028960133"><ele>1388.1666666666665</ele><time>2026-05-03T15:35:42.999Z</time></trkpt><trkpt lat="44.33861931526741" lon="7.322938924784221"><ele>1389.3333333333333</ele><time>2026-05-03T15:35:43.999Z</time></trkpt><trkpt lat="44.338566872384284" lon="7.322842502412012"><ele>1390.5</ele><time>2026-05-03T15:35:44.999Z</time></trkpt><trkpt lat="44.33849014675145" lon="7.322767865455483"><ele>1391.6666666666667</ele><time>2026-05-03T15:35:45.999Z</time></trkpt><trkpt lat="44.338416281582845" lon="7.322742187133272"><ele>1392.8333333333335</ele><time>2026-05-03T15:35:46.999Z</time></trkpt><trkpt lat="44.3383409432549" lon="7.322726006543482"><ele>1394.0</ele><time>2026-05-03T15:35:47.999Z</time></trkpt><trkpt lat="44.338274550301705" lon="7.322766946425109"><ele>1394.0</ele><time>2026-05-03T15:35:48.999Z</time></trkpt><trkpt lat="44.33820785153224" lon="7.322832446301857"><ele>1394.0</ele><time>2026-05-03T15:35:49.999Z</time></trkpt><trkpt lat="44.3381105272971" lon="7.322947397599186"><ele>1394.0</ele><time>2026-05-03T15:35:50.999Z</time></trkpt><trkpt lat="44.3380334433409" lon="7.323078060351997"><ele>1394.0</ele><time>2026-05-03T15:35:51.999Z</time></trkpt><trkpt lat="44.33796288397467" lon="7.323172989678755"><ele>1394.0</ele><time>2026-05-03T15:35:52.999Z</time></trkpt><trkpt lat="44.33790178653503" lon="7.323232968522133"><ele>1389.0</ele><time>2026-05-03T15:35:53.999Z</time></trkpt><trkpt lat="44.33783484561039" lon="7.323290249632354"><ele>1384.0</ele><time>2026-05-03T15:35:54.999Z</time></trkpt><trkpt lat="44.33775842800152" lon="7.32334154153954"><ele>1379.0</ele><time>2026-05-03T15:35:55.999Z</time></trkpt><trkpt lat="44.337690945473085" lon="7.323386046914466"><ele>1374.0</ele><time>2026-05-03T15:35:56.999Z</time></trkpt><trkpt lat="44.337539175655465" lon="7.3233760593398545"><ele>1369.0</ele><time>2026-05-03T15:35:58.999Z</time></trkpt><trkpt lat="44.33741626666378" lon="7.323376412667976"><ele>1369.0</ele><time>2026-05-03T15:35:59.999Z</time></trkpt><trkpt lat="44.33728799827224" lon="7.32336745224015"><ele>1369.0</ele><time>2026-05-03T15:36:00.998Z</time></trkpt><trkpt lat="44.337162419752865" lon="7.32335704231955"><ele>1369.0</ele><time>2026-05-03T15:36:01.998Z</time></trkpt><trkpt lat="44.3370540536488" lon="7.323359256696036"><ele>1369.0</ele><time>2026-05-03T15:36:02.998Z</time></trkpt><trkpt lat="44.33695145658526" lon="7.32337271683997"><ele>1367.6</ele><time>2026-05-03T15:36:03.998Z</time></trkpt><trkpt lat="44.336856640587605" lon="7.32340420233264"><ele>1366.2</ele><time>2026-05-03T15:36:04.998Z</time></trkpt><trkpt lat="44.33677784909395" lon="7.3234011140637625"><ele>1364.8</ele><time>2026-05-03T15:36:05.998Z</time></trkpt><trkpt lat="44.33666771749644" lon="7.323405193644414"><ele>1363.3999999999999</ele><time>2026-05-03T15:36:06.998Z</time></trkpt><trkpt lat="44.336574586525096" lon="7.323409947459478"><ele>1362.0</ele><time>2026-05-03T15:36:07.998Z</time></trkpt><trkpt lat="44.336495436449404" lon="7.323481750222497"><ele>1362.0</ele><time>2026-05-03T15:36:08.998Z</time></trkpt><trkpt lat="44.33641608371535" lon="7.323565792222162"><ele>1362.0</ele><time>2026-05-03T15:36:09.998Z</time></trkpt><trkpt lat="44.33632331541244" lon="7.3236462372110065"><ele>1362.0</ele><time>2026-05-03T15:36:10.998Z</time></trkpt><trkpt lat="44.33623527658116" lon="7.323754393451782"><ele>1362.0</ele><time>2026-05-03T15:36:11.998Z</time></trkpt><trkpt lat="44.336196656606674" lon="7.323866118208501"><ele>1362.0</ele><time>2026-05-03T15:36:12.998Z</time></trkpt><trkpt lat="44.336171899558956" lon="7.323979196752044"><ele>1361.8</ele><time>2026-05-03T15:36:13.998Z</time></trkpt><trkpt lat="44.33613432702133" lon="7.324082176528094"><ele>1361.6</ele><time>2026-05-03T15:36:14.998Z</time></trkpt><trkpt lat="44.33609901751752" lon="7.324204427805849"><ele>1361.3999999999999</ele><time>2026-05-03T15:36:15.998Z</time></trkpt><trkpt lat="44.336076469251516" lon="7.324363993417403"><ele>1361.1999999999998</ele><time>2026-05-03T15:36:16.998Z</time></trkpt><trkpt lat="44.3360620557816" lon="7.32450553503466"><ele>1361.0</ele><time>2026-05-03T15:36:17.998Z</time></trkpt><trkpt lat="44.33601997423088" lon="7.3246411198784935"><ele>1356.6</ele><time>2026-05-03T15:36:18.998Z</time></trkpt><trkpt lat="44.33599325724525" lon="7.324738105482979"><ele>1352.1999999999998</ele><time>2026-05-03T15:36:19.998Z</time></trkpt><trkpt lat="44.33590993038748" lon="7.324840748995101"><ele>1347.8000000000002</ele><time>2026-05-03T15:36:21.998Z</time></trkpt><trkpt lat="44.33583902168217" lon="7.324922661230527"><ele>1343.4</ele><time>2026-05-03T15:36:22.998Z</time></trkpt><trkpt lat="44.33576080510098" lon="7.325008299111334"><ele>1339.0</ele><time>2026-05-03T15:36:23.998Z</time></trkpt><trkpt lat="44.33567655685723" lon="7.325120379531177"><ele>1339.0</ele><time>2026-05-03T15:36:24.998Z</time></trkpt><trkpt lat="44.33558082690367" lon="7.325206046807191"><ele>1339.0</ele><time>2026-05-03T15:36:25.998Z</time></trkpt><trkpt lat="44.33552679463687" lon="7.325362379457594"><ele>1339.0</ele><time>2026-05-03T15:36:26.998Z</time></trkpt><trkpt lat="44.33548618867348" lon="7.325518886375883"><ele>1339.0</ele><time>2026-05-03T15:36:27.998Z</time></trkpt><trkpt lat="44.33544820030787" lon="7.325661318702536"><ele>1341.6</ele><time>2026-05-03T15:36:28.998Z</time></trkpt><trkpt lat="44.3354082504435" lon="7.325797855771267"><ele>1344.2</ele><time>2026-05-03T15:36:29.998Z</time></trkpt><trkpt lat="44.33537190691042" lon="7.325926873978462"><ele>1346.8</ele><time>2026-05-03T15:36:30.998Z</time></trkpt><trkpt lat="44.335338282632804" lon="7.326053555156859"><ele>1349.3999999999999</ele><time>2026-05-03T15:36:31.998Z</time></trkpt><trkpt lat="44.33531575132936" lon="7.3261991915939895"><ele>1352.0</ele><time>2026-05-03T15:36:32.998Z</time></trkpt><trkpt lat="44.33531094419479" lon="7.326344689818815"><ele>1349.6666666666667</ele><time>2026-05-03T15:36:33.998Z</time></trkpt><trkpt lat="44.33529893942915" lon="7.326483068769064"><ele>1347.3333333333335</ele><time>2026-05-03T15:36:34.998Z</time></trkpt><trkpt lat="44.335320614703335" lon="7.326603181037902"><ele>1345.0</ele><time>2026-05-03T15:36:35.998Z</time></trkpt><trkpt lat="44.33534303475212" lon="7.326719156901553"><ele>1342.6666666666667</ele><time>2026-05-03T15:36:36.998Z</time></trkpt><trkpt lat="44.33534815901752" lon="7.326826266527923"><ele>1340.3333333333333</ele><time>2026-05-03T15:36:37.998Z</time></trkpt><trkpt lat="44.3353756192422" lon="7.326941510067758"><ele>1338.0</ele><time>2026-05-03T15:36:38.998Z</time></trkpt><trkpt lat="44.335412738879114" lon="7.32703764292161"><ele>1338.0</ele><time>2026-05-03T15:36:39.998Z</time></trkpt><trkpt lat="44.33544394938836" lon="7.327117563541988"><ele>1338.0</ele><time>2026-05-03T15:36:40.998Z</time></trkpt><trkpt lat="44.335515947983446" lon="7.326948293912154"><ele>1338.0</ele><time>2026-05-03T15:36:46.998Z</time></trkpt><trkpt lat="44.33554025856452" lon="7.326818633903908"><ele>1338.0</ele><time>2026-05-03T15:36:47.998Z</time></trkpt><trkpt lat="44.335563754598866" lon="7.326674742580541"><ele>1338.0</ele><time>2026-05-03T15:36:48.998Z</time></trkpt><trkpt lat="44.33559206044517" lon="7.326520432719516"><ele>1338.0</ele><time>2026-05-03T15:36:49.998Z</time></trkpt><trkpt lat="44.335620662218545" lon="7.3264046224368755"><ele>1338.0</ele><time>2026-05-03T15:36:50.998Z</time></trkpt><trkpt lat="44.33564299252412" lon="7.3263127799131755"><ele>1338.0</ele><time>2026-05-03T15:36:51.998Z</time></trkpt><trkpt lat="44.33564662981783" lon="7.326432402995105"><ele>1338.0</ele><time>2026-05-03T15:36:53.997Z</time></trkpt><trkpt lat="44.335544164806024" lon="7.326407332979816"><ele>1338.0</ele><time>2026-05-03T15:36:54.997Z</time></trkpt><trkpt lat="44.33560692763681" lon="7.326439307085201"><ele>1338.0</ele><time>2026-05-03T15:36:56.997Z</time></trkpt><trkpt lat="44.3356425053061" lon="7.326553461187434"><ele>1331.8000000000002</ele><time>2026-05-03T15:36:57.997Z</time></trkpt><trkpt lat="44.33567100724527" lon="7.3267014732104645"><ele>1325.6</ele><time>2026-05-03T15:36:59Z</time></trkpt><trkpt lat="44.33568511125763" lon="7.326841647251638"><ele>1319.4</ele><time>2026-05-03T15:37:00Z</time></trkpt><trkpt lat="44.33569195063965" lon="7.326998583799207"><ele>1313.1999999999998</ele><time>2026-05-03T15:37:01Z</time></trkpt><trkpt lat="44.33568894130931" lon="7.327157744330407"><ele>1307.0</ele><time>2026-05-03T15:37:02Z</time></trkpt><trkpt lat="44.33567589210109" lon="7.32732493979297"><ele>1304.3999999999999</ele><time>2026-05-03T15:37:03Z</time></trkpt><trkpt lat="44.335652201216405" lon="7.327477218150978"><ele>1301.8</ele><time>2026-05-03T15:37:04Z</time></trkpt><trkpt lat="44.335618962173875" lon="7.3276327061540965"><ele>1299.2</ele><time>2026-05-03T15:37:05Z</time></trkpt><trkpt lat="44.33558821956037" lon="7.3277501568276335"><ele>1296.6</ele><time>2026-05-03T15:37:06Z</time></trkpt><trkpt lat="44.33556727184178" lon="7.327876402685032"><ele>1294.0</ele><time>2026-05-03T15:37:07Z</time></trkpt><trkpt lat="44.335467314672385" lon="7.327995201767094"><ele>1298.75</ele><time>2026-05-03T15:37:08Z</time></trkpt><trkpt lat="44.335357218831206" lon="7.328122827200385"><ele>1303.5</ele><time>2026-05-03T15:37:09Z</time></trkpt><trkpt lat="44.3352846714144" lon="7.3282724736035245"><ele>1308.25</ele><time>2026-05-03T15:37:10Z</time></trkpt><trkpt lat="44.335245720017355" lon="7.328426469466841"><ele>1313.0</ele><time>2026-05-03T15:37:11Z</time></trkpt><trkpt lat="44.33522998647429" lon="7.3285769162617616"><ele>1313.0</ele><time>2026-05-03T15:37:12Z</time></trkpt><trkpt lat="44.3352302304443" lon="7.3287453883320595"><ele>1313.0</ele><time>2026-05-03T15:37:13Z</time></trkpt><trkpt lat="44.33524148392631" lon="7.328919596532464"><ele>1313.0</ele><time>2026-05-03T15:37:14Z</time></trkpt><trkpt lat="44.335258242136355" lon="7.329083445340184"><ele>1313.0</ele><time>2026-05-03T15:37:15Z</time></trkpt><trkpt lat="44.33529972652024" lon="7.329270495388664"><ele>1309.25</ele><time>2026-05-03T15:37:16Z</time></trkpt><trkpt lat="44.33532508444411" lon="7.329455439149702"><ele>1305.5</ele><time>2026-05-03T15:37:16.999Z</time></trkpt><trkpt lat="44.33535285738372" lon="7.3296169602602355"><ele>1301.75</ele><time>2026-05-03T15:37:17.999Z</time></trkpt><trkpt lat="44.33537386894635" lon="7.329784349556421"><ele>1298.0</ele><time>2026-05-03T15:37:18.999Z</time></trkpt><trkpt lat="44.3353899648784" lon="7.329947904313811"><ele>1294.6000000000001</ele><time>2026-05-03T15:37:19.999Z</time></trkpt><trkpt lat="44.33540053601308" lon="7.330116273609743"><ele>1291.2</ele><time>2026-05-03T15:37:20.999Z</time></trkpt><trkpt lat="44.33540952206882" lon="7.330258186190944"><ele>1287.8</ele><time>2026-05-03T15:37:21.999Z</time></trkpt><trkpt lat="44.33538717509204" lon="7.330367429315821"><ele>1284.4</ele><time>2026-05-03T15:37:22.999Z</time></trkpt><trkpt lat="44.335333608087424" lon="7.330502706213065"><ele>1281.0</ele><time>2026-05-03T15:37:24.999Z</time></trkpt><trkpt lat="44.33520368067815" lon="7.330513187025593"><ele>1281.0</ele><time>2026-05-03T15:37:26.999Z</time></trkpt><trkpt lat="44.335082579564414" lon="7.330507309164961"><ele>1281.0</ele><time>2026-05-03T15:37:27.999Z</time></trkpt><trkpt lat="44.33495289865364" lon="7.330525175641634"><ele>1281.0</ele><time>2026-05-03T15:37:28.999Z</time></trkpt><trkpt lat="44.33482262172987" lon="7.330516266749895"><ele>1281.0</ele><time>2026-05-03T15:37:29.999Z</time></trkpt><trkpt lat="44.334708596063685" lon="7.330534264816646"><ele>1284.0</ele><time>2026-05-03T15:37:30.999Z</time></trkpt><trkpt lat="44.3345964944558" lon="7.330549519544788"><ele>1287.0</ele><time>2026-05-03T15:37:31.999Z</time></trkpt><trkpt lat="44.3344954762754" lon="7.330622019037355"><ele>1290.0</ele><time>2026-05-03T15:37:32.999Z</time></trkpt><trkpt lat="44.33439926436806" lon="7.33065776554447"><ele>1293.0</ele><time>2026-05-03T15:37:33.999Z</time></trkpt><trkpt lat="44.334303092542186" lon="7.330724436161967"><ele>1296.0</ele><time>2026-05-03T15:37:34.999Z</time></trkpt><trkpt lat="44.33422466037206" lon="7.3307992300372025"><ele>1294.4</ele><time>2026-05-03T15:37:35.999Z</time></trkpt><trkpt lat="44.33415956501764" lon="7.330871111516233"><ele>1292.8</ele><time>2026-05-03T15:37:36.999Z</time></trkpt><trkpt lat="44.33408875423767" lon="7.330954661830762"><ele>1291.2</ele><time>2026-05-03T15:37:37.999Z</time></trkpt><trkpt lat="44.334014607640064" lon="7.331048959201516"><ele>1289.6000000000001</ele><time>2026-05-03T15:37:38.999Z</time></trkpt><trkpt lat="44.333930692267" lon="7.331159641703346"><ele>1288.0</ele><time>2026-05-03T15:37:39.999Z</time></trkpt><trkpt lat="44.333857938038655" lon="7.331262232973112"><ele>1282.0</ele><time>2026-05-03T15:37:40.999Z</time></trkpt><trkpt lat="44.333770204507495" lon="7.331394136196601"><ele>1276.0</ele><time>2026-05-03T15:37:41.999Z</time></trkpt><trkpt lat="44.33369849957983" lon="7.331516855715063"><ele>1270.0</ele><time>2026-05-03T15:37:42.999Z</time></trkpt><trkpt lat="44.333655248215706" lon="7.331625510114149"><ele>1264.0</ele><time>2026-05-03T15:37:43.999Z</time></trkpt><trkpt lat="44.33358247225035" lon="7.331716698510836"><ele>1258.0</ele><time>2026-05-03T15:37:44.999Z</time></trkpt><trkpt lat="44.33353526845028" lon="7.331824258242118"><ele>1258.0</ele><time>2026-05-03T15:37:45.999Z</time></trkpt><trkpt lat="44.33347146597699" lon="7.3319567173076186"><ele>1258.0</ele><time>2026-05-03T15:37:46.999Z</time></trkpt><trkpt lat="44.33341865253746" lon="7.332073593451925"><ele>1258.0</ele><time>2026-05-03T15:37:47.999Z</time></trkpt><trkpt lat="44.333377944456345" lon="7.332153936542866"><ele>1258.0</ele><time>2026-05-03T15:37:48.999Z</time></trkpt><trkpt lat="44.33331951069971" lon="7.332261410606702"><ele>1258.0</ele><time>2026-05-03T15:37:49.999Z</time></trkpt><trkpt lat="44.3332408763123" lon="7.3324081430718255"><ele>1257.5</ele><time>2026-05-03T15:37:50.999Z</time></trkpt><trkpt lat="44.333140355603405" lon="7.332549972242374"><ele>1257.0</ele><time>2026-05-03T15:37:51.999Z</time></trkpt><trkpt lat="44.333055691735865" lon="7.332667179466568"><ele>1256.5</ele><time>2026-05-03T15:37:52.999Z</time></trkpt><trkpt lat="44.33297308693623" lon="7.332782150523159"><ele>1256.0</ele><time>2026-05-03T15:37:53.999Z</time></trkpt><trkpt lat="44.332884592611144" lon="7.332907517385996"><ele>1256.0</ele><time>2026-05-03T15:37:54.999Z</time></trkpt><trkpt lat="44.33280119847459" lon="7.333036534654645"><ele>1256.0</ele><time>2026-05-03T15:37:55.999Z</time></trkpt><trkpt lat="44.332725035248714" lon="7.333174849055936"><ele>1256.0</ele><time>2026-05-03T15:37:56.999Z</time></trkpt><trkpt lat="44.3326603342757" lon="7.333312562258102"><ele>1256.0</ele><time>2026-05-03T15:37:57.999Z</time></trkpt><trkpt lat="44.33260504014694" lon="7.333472918615702"><ele>1252.2</ele><time>2026-05-03T15:37:58.999Z</time></trkpt><trkpt lat="44.33254353119429" lon="7.333589883533616"><ele>1248.3999999999999</ele><time>2026-05-03T15:37:59.999Z</time></trkpt><trkpt lat="44.33249101164804" lon="7.333735275708577"><ele>1244.6</ele><time>2026-05-03T15:38:00.999Z</time></trkpt><trkpt lat="44.33247884211904" lon="7.333891490369342"><ele>1240.8</ele><time>2026-05-03T15:38:01.999Z</time></trkpt><trkpt lat="44.332475156602875" lon="7.334046760013593"><ele>1237.0</ele><time>2026-05-03T15:38:02.999Z</time></trkpt><trkpt lat="44.332439446882596" lon="7.334215761093733"><ele>1233.2</ele><time>2026-05-03T15:38:03.999Z</time></trkpt><trkpt lat="44.33240121959221" lon="7.334370555982417"><ele>1229.4</ele><time>2026-05-03T15:38:04.999Z</time></trkpt><trkpt lat="44.33235845635693" lon="7.334467786040784"><ele>1225.6</ele><time>2026-05-03T15:38:05.999Z</time></trkpt><trkpt lat="44.33230693818475" lon="7.334585758414114"><ele>1221.8</ele><time>2026-05-03T15:38:06.999Z</time></trkpt><trkpt lat="44.33225343494123" lon="7.33469349417116"><ele>1218.0</ele><time>2026-05-03T15:38:07.999Z</time></trkpt><trkpt lat="44.33219445878662" lon="7.3348138484669745"><ele>1217.4</ele><time>2026-05-03T15:38:08.999Z</time></trkpt><trkpt lat="44.332143607990204" lon="7.334917621344234"><ele>1216.8</ele><time>2026-05-03T15:38:09.999Z</time></trkpt><trkpt lat="44.332092005959545" lon="7.335022927288525"><ele>1216.2</ele><time>2026-05-03T15:38:10.998Z</time></trkpt><trkpt lat="44.332059481708775" lon="7.335161141154849"><ele>1215.6</ele><time>2026-05-03T15:38:11.998Z</time></trkpt><trkpt lat="44.33196651962001" lon="7.335255579660389"><ele>1215.0</ele><time>2026-05-03T15:38:12.998Z</time></trkpt><trkpt lat="44.33189295864019" lon="7.335332107438848"><ele>1215.0</ele><time>2026-05-03T15:38:13.998Z</time></trkpt><trkpt lat="44.33181997552852" lon="7.335411648519753"><ele>1215.0</ele><time>2026-05-03T15:38:14.998Z</time></trkpt><trkpt lat="44.33174473773899" lon="7.335504088544278"><ele>1215.0</ele><time>2026-05-03T15:38:16.998Z</time></trkpt><trkpt lat="44.33180121869767" lon="7.335618342866175"><ele>1215.0</ele><time>2026-05-03T15:38:19.998Z</time></trkpt><trkpt lat="44.33188673937597" lon="7.3356442699086895"><ele>1215.0</ele><time>2026-05-03T15:38:21.998Z</time></trkpt><trkpt lat="44.33194536248431" lon="7.335576095814084"><ele>1215.0</ele><time>2026-05-03T15:38:23.998Z</time></trkpt><trkpt lat="44.33199549581062" lon="7.335496438625307"><ele>1215.0</ele><time>2026-05-03T15:38:25.998Z</time></trkpt><trkpt lat="44.33209803805019" lon="7.335464549142138"><ele>1215.0</ele><time>2026-05-03T15:40:32.998Z</time></trkpt><trkpt lat="44.3321644326778" lon="7.335438477753114"><ele>1215.0</ele><time>2026-05-03T15:40:36.998Z</time></trkpt><trkpt lat="44.33223087766249" lon="7.335397627643199"><ele>1215.0</ele><time>2026-05-03T15:40:40.998Z</time></trkpt><trkpt lat="44.332318111106176" lon="7.335376765287016"><ele>1215.0</ele><time>2026-05-03T15:40:44.998Z</time></trkpt><trkpt lat="44.33239047604585" lon="7.335333644266568"><ele>1212.0</ele><time>2026-05-03T15:40:49.998Z</time></trkpt><trkpt lat="44.33247476570067" lon="7.33526710873442"><ele>1209.0</ele><time>2026-05-03T15:40:52.998Z</time></trkpt><trkpt lat="44.33253045110972" lon="7.335198378580066"><ele>1206.0</ele><time>2026-05-03T15:40:54.998Z</time></trkpt><trkpt lat="44.33254761260597" lon="7.335087083651462"><ele>1203.0</ele><time>2026-05-03T15:40:56.998Z</time></trkpt><trkpt lat="44.332576263612054" lon="7.334973080264279"><ele>1200.0</ele><time>2026-05-03T15:40:58.998Z</time></trkpt><trkpt lat="44.33270006794224" lon="7.334809845802585"><ele>1200.0</ele><time>2026-05-03T15:41:00.998Z</time></trkpt><trkpt lat="44.33268937966981" lon="7.334923111502096"><ele>1200.0</ele><time>2026-05-03T15:41:01.998Z</time></trkpt><trkpt lat="44.33278730321185" lon="7.334768548873015"><ele>1200.0</ele><time>2026-05-03T15:41:03.997Z</time></trkpt><trkpt lat="44.33284251142637" lon="7.33470667273841"><ele>1200.0</ele><time>2026-05-03T15:41:05.997Z</time></trkpt><trkpt lat="44.33290698869452" lon="7.334743781640765"><ele>1200.0</ele><time>2026-05-03T15:41:08.997Z</time></trkpt><trkpt lat="44.33285403169471" lon="7.334795532675396"><ele>1200.0</ele><time>2026-05-03T15:41:10.999Z</time></trkpt><trkpt lat="44.33277801703259" lon="7.334897448448923"><ele>1200.0</ele><time>2026-05-03T15:41:12.999Z</time></trkpt><trkpt lat="44.332732051701356" lon="7.335027368140027"><ele>1200.0</ele><time>2026-05-03T15:41:15Z</time></trkpt><trkpt lat="44.332701893408505" lon="7.33518849762418"><ele>1200.0</ele><time>2026-05-03T15:41:16.999Z</time></trkpt><trkpt lat="44.33268421787954" lon="7.335375298489516"><ele>1200.0</ele><time>2026-05-03T15:41:18.999Z</time></trkpt><trkpt lat="44.332657737112854" lon="7.335483720881619"><ele>1200.0</ele><time>2026-05-03T15:41:20Z</time></trkpt><trkpt lat="44.33261295018048" lon="7.335579509377225"><ele>1196.8333333333333</ele><time>2026-05-03T15:41:21Z</time></trkpt><trkpt lat="44.33255479655714" lon="7.335672625309105"><ele>1193.6666666666667</ele><time>2026-05-03T15:41:21.999Z</time></trkpt><trkpt lat="44.33248292405613" lon="7.33574153332008"><ele>1190.5</ele><time>2026-05-03T15:41:23Z</time></trkpt><trkpt lat="44.332424596056974" lon="7.335835382371914"><ele>1187.3333333333335</ele><time>2026-05-03T15:41:24Z</time></trkpt><trkpt lat="44.3323972042403" lon="7.3359473909317305"><ele>1184.1666666666667</ele><time>2026-05-03T15:41:24.999Z</time></trkpt><trkpt lat="44.332383686250104" lon="7.336079189301901"><ele>1181.0</ele><time>2026-05-03T15:41:25.999Z</time></trkpt><trkpt lat="44.33237025626873" lon="7.336211035918348"><ele>1181.0</ele><time>2026-05-03T15:41:26.999Z</time></trkpt><trkpt lat="44.332352611887444" lon="7.336331277197699"><ele>1181.0</ele><time>2026-05-03T15:41:27.999Z</time></trkpt><trkpt lat="44.33234402303642" lon="7.3364569756121885"><ele>1181.0</ele><time>2026-05-03T15:41:28.999Z</time></trkpt><trkpt lat="44.33234423622556" lon="7.336593543300228"><ele>1181.0</ele><time>2026-05-03T15:41:29.999Z</time></trkpt><trkpt lat="44.33233871716883" lon="7.33671373278893"><ele>1181.0</ele><time>2026-05-03T15:41:30.999Z</time></trkpt><trkpt lat="44.33233179849261" lon="7.336838678884564"><ele>1178.5</ele><time>2026-05-03T15:41:31.999Z</time></trkpt><trkpt lat="44.33232525905451" lon="7.3369594224354255"><ele>1176.0</ele><time>2026-05-03T15:41:32.999Z</time></trkpt><trkpt lat="44.332313773623845" lon="7.3370797058642925"><ele>1173.5</ele><time>2026-05-03T15:41:33.999Z</time></trkpt><trkpt lat="44.332307171495884" lon="7.337189429896377"><ele>1171.0</ele><time>2026-05-03T15:41:34.999Z</time></trkpt><trkpt lat="44.33229331858249" lon="7.33728379004626"><ele>1168.5</ele><time>2026-05-03T15:41:35.999Z</time></trkpt><trkpt lat="44.332226507392626" lon="7.337428143853069"><ele>1166.0</ele><time>2026-05-03T15:41:37.999Z</time></trkpt><trkpt lat="44.33216363524353" lon="7.337442080683072"><ele>1162.0</ele><time>2026-05-03T15:41:38.999Z</time></trkpt><trkpt lat="44.33210352472839" lon="7.337482581736134"><ele>1158.0</ele><time>2026-05-03T15:41:40.999Z</time></trkpt><trkpt lat="44.332146500111925" lon="7.337568551869725"><ele>1154.0</ele><time>2026-05-03T15:41:42.999Z</time></trkpt><trkpt lat="44.33223135513259" lon="7.337628119185323"><ele>1150.0</ele><time>2026-05-03T15:41:45.999Z</time></trkpt><trkpt lat="44.332433299395646" lon="7.337490017537455"><ele>1150.0</ele><time>2026-05-03T15:41:48.999Z</time></trkpt><trkpt lat="44.33249094761857" lon="7.337412414555423"><ele>1150.0</ele><time>2026-05-03T15:41:49.999Z</time></trkpt><trkpt lat="44.332551812751326" lon="7.337365215189864"><ele>1150.0</ele><time>2026-05-03T15:41:50.999Z</time></trkpt><trkpt lat="44.33261623570151" lon="7.337317339363227"><ele>1150.0</ele><time>2026-05-03T15:42:16.999Z</time></trkpt><trkpt lat="44.33268746414267" lon="7.3372440843959925"><ele>1150.0</ele><time>2026-05-03T15:42:22.998Z</time></trkpt><trkpt lat="44.3327679405269" lon="7.337204355912413"><ele>1150.0</ele><time>2026-05-03T15:42:24.998Z</time></trkpt><trkpt lat="44.33283462165832" lon="7.337123950074304"><ele>1148.6666666666665</ele><time>2026-05-03T15:42:26.998Z</time></trkpt><trkpt lat="44.33294021091498" lon="7.337050572702815"><ele>1147.3333333333333</ele><time>2026-05-03T15:42:28.998Z</time></trkpt><trkpt lat="44.332999798002625" lon="7.33700607991944"><ele>1146.0</ele><time>2026-05-03T15:42:29.998Z</time></trkpt><trkpt lat="44.33306037107803" lon="7.33695735515459"><ele>1144.6666666666667</ele><time>2026-05-03T15:42:30.998Z</time></trkpt><trkpt lat="44.33311077051913" lon="7.336900614705365"><ele>1143.3333333333335</ele><time>2026-05-03T15:42:31.998Z</time></trkpt><trkpt lat="44.333159902750445" lon="7.336833271654343"><ele>1142.0</ele><time>2026-05-03T15:42:32.998Z</time></trkpt><trkpt lat="44.33326230863801" lon="7.336681946954041"><ele>1142.0</ele><time>2026-05-03T15:42:33.998Z</time></trkpt><trkpt lat="44.33331386926871" lon="7.336623449691498"><ele>1142.0</ele><time>2026-05-03T15:42:34.998Z</time></trkpt><trkpt lat="44.33346676042447" lon="7.336510257897726"><ele>1142.0</ele><time>2026-05-03T15:42:36.998Z</time></trkpt><trkpt lat="44.33354265354184" lon="7.336457259711851"><ele>1142.0</ele><time>2026-05-03T15:42:37.998Z</time></trkpt><trkpt lat="44.33360475450481" lon="7.336440921616904"><ele>1142.0</ele><time>2026-05-03T15:42:38.998Z</time></trkpt><trkpt lat="44.333688678425794" lon="7.336417694982862"><ele>1142.0</ele><time>2026-05-03T15:42:39.998Z</time></trkpt><trkpt lat="44.33376961564152" lon="7.336401552480749"><ele>1142.0</ele><time>2026-05-03T15:42:40.998Z</time></trkpt><trkpt lat="44.33385046109801" lon="7.336391125608556"><ele>1142.0</ele><time>2026-05-03T15:42:41.998Z</time></trkpt><trkpt lat="44.33392707147716" lon="7.336381848701152"><ele>1142.0</ele><time>2026-05-03T15:42:42.998Z</time></trkpt><trkpt lat="44.3340061918988" lon="7.336367681877856"><ele>1142.0</ele><time>2026-05-03T15:42:43.998Z</time></trkpt><trkpt lat="44.33416591876055" lon="7.336290153308861"><ele>1142.0</ele><time>2026-05-03T15:42:44.998Z</time></trkpt><trkpt lat="44.334243489339066" lon="7.3362657963085525"><ele>1142.0</ele><time>2026-05-03T15:42:45.998Z</time></trkpt><trkpt lat="44.33431982021809" lon="7.336221751819795"><ele>1142.0</ele><time>2026-05-03T15:42:46.998Z</time></trkpt><trkpt lat="44.33440034964611" lon="7.336182977433638"><ele>1142.0</ele><time>2026-05-03T15:42:47.998Z</time></trkpt><trkpt lat="44.33447859506973" lon="7.336147642352164"><ele>1142.0</ele><time>2026-05-03T15:42:48.998Z</time></trkpt><trkpt lat="44.33456530745579" lon="7.336120289435438"><ele>1142.0</ele><time>2026-05-03T15:42:49.998Z</time></trkpt><trkpt lat="44.33467995347882" lon="7.335949033112668"><ele>1138.5</ele><time>2026-05-03T15:42:50.998Z</time></trkpt><trkpt lat="44.334765912167036" lon="7.335903270989862"><ele>1135.0</ele><time>2026-05-03T15:42:51.998Z</time></trkpt><trkpt lat="44.33482806259359" lon="7.335848893797515"><ele>1131.5</ele><time>2026-05-03T15:42:52.998Z</time></trkpt><trkpt lat="44.334853553577126" lon="7.3357570540294645"><ele>1128.0</ele><time>2026-05-03T15:42:54.998Z</time></trkpt><trkpt lat="44.33486642841421" lon="7.335891300914048"><ele>1124.5</ele><time>2026-05-03T15:42:59.998Z</time></trkpt><trkpt lat="44.334834981532566" lon="7.336021093233979"><ele>1121.0</ele><time>2026-05-03T15:43:01.998Z</time></trkpt><trkpt lat="44.33481800109558" lon="7.336179201653302"><ele>1121.0</ele><time>2026-05-03T15:43:03.998Z</time></trkpt><trkpt lat="44.33480599407528" lon="7.336358287405059"><ele>1121.0</ele><time>2026-05-03T15:43:05.998Z</time></trkpt><trkpt lat="44.33475075956636" lon="7.3365152473529855"><ele>1121.0</ele><time>2026-05-03T15:43:07.998Z</time></trkpt><trkpt lat="44.33467221455146" lon="7.336567973662138"><ele>1121.0</ele><time>2026-05-03T15:43:08.998Z</time></trkpt><trkpt lat="44.33460766549318" lon="7.336648651027521"><ele>1121.0</ele><time>2026-05-03T15:43:09.997Z</time></trkpt><trkpt lat="44.33454539199756" lon="7.336764085765365"><ele>1121.6666666666667</ele><time>2026-05-03T15:43:10.997Z</time></trkpt><trkpt lat="44.33447935408877" lon="7.3368597664183275"><ele>1122.3333333333335</ele><time>2026-05-03T15:43:11.997Z</time></trkpt><trkpt lat="44.3344241229826" lon="7.336967816188696"><ele>1123.0</ele><time>2026-05-03T15:43:12.997Z</time></trkpt><trkpt lat="44.334388404302224" lon="7.337078111484352"><ele>1123.6666666666667</ele><time>2026-05-03T15:43:13.997Z</time></trkpt><trkpt lat="44.33436783743646" lon="7.3371761499428825"><ele>1124.3333333333333</ele><time>2026-05-03T15:43:14.997Z</time></trkpt><trkpt lat="44.33436884809986" lon="7.337289551264283"><ele>1125.0</ele><time>2026-05-03T15:43:15.997Z</time></trkpt><trkpt lat="44.33437241893939" lon="7.337388689043393"><ele>1122.2</ele><time>2026-05-03T15:43:17Z</time></trkpt><trkpt lat="44.33434340168409" lon="7.3375035054976205"><ele>1119.4</ele><time>2026-05-03T15:43:18Z</time></trkpt><trkpt lat="44.33427886316279" lon="7.33762010987623"><ele>1116.6</ele><time>2026-05-03T15:43:19Z</time></trkpt><trkpt lat="44.33423147078432" lon="7.3377179315838035"><ele>1113.8</ele><time>2026-05-03T15:43:20Z</time></trkpt><trkpt lat="44.33417574514201" lon="7.337810599779601"><ele>1111.0</ele><time>2026-05-03T15:43:21Z</time></trkpt><trkpt lat="44.33411637499902" lon="7.337969559094932"><ele>1108.2</ele><time>2026-05-03T15:43:22Z</time></trkpt><trkpt lat="44.334076557929286" lon="7.338108400016226"><ele>1105.3999999999999</ele><time>2026-05-03T15:43:23Z</time></trkpt><trkpt lat="44.3340571720897" lon="7.33824597553972"><ele>1102.6</ele><time>2026-05-03T15:43:24Z</time></trkpt><trkpt lat="44.334047338225304" lon="7.338392384955625"><ele>1099.8</ele><time>2026-05-03T15:43:25Z</time></trkpt><trkpt lat="44.334042127653206" lon="7.338524434137799"><ele>1097.0</ele><time>2026-05-03T15:43:26Z</time></trkpt><trkpt lat="44.334044272353765" lon="7.338648449037212"><ele>1097.0</ele><time>2026-05-03T15:43:27Z</time></trkpt><trkpt lat="44.3340538187791" lon="7.338745261049676"><ele>1097.0</ele><time>2026-05-03T15:43:28Z</time></trkpt><trkpt lat="44.3340537649835" lon="7.338852501835735"><ele>1097.0</ele><time>2026-05-03T15:43:29Z</time></trkpt><trkpt lat="44.33402138240402" lon="7.3389946413911735"><ele>1097.0</ele><time>2026-05-03T15:43:31Z</time></trkpt><trkpt lat="44.33392421524576" lon="7.3389674345003675"><ele>1097.0</ele><time>2026-05-03T15:43:32.999Z</time></trkpt><trkpt lat="44.333902066151055" lon="7.339075046849227"><ele>1097.0</ele><time>2026-05-03T15:43:35.999Z</time></trkpt><trkpt lat="44.33399346671422" lon="7.339135116870614"><ele>1093.8</ele><time>2026-05-03T15:43:37.999Z</time></trkpt><trkpt lat="44.33409291895561" lon="7.339191940344527"><ele>1090.6</ele><time>2026-05-03T15:43:39.999Z</time></trkpt><trkpt lat="44.334197526232735" lon="7.339275226869079"><ele>1087.3999999999999</ele><time>2026-05-03T15:43:41.999Z</time></trkpt><trkpt lat="44.33426586000712" lon="7.339370896393945"><ele>1084.2</ele><time>2026-05-03T15:43:42.999Z</time></trkpt><trkpt lat="44.33432426783997" lon="7.339463383011635"><ele>1081.0</ele><time>2026-05-03T15:43:43.999Z</time></trkpt><trkpt lat="44.33437058036229" lon="7.339549355076861"><ele>1081.0</ele><time>2026-05-03T15:43:44.999Z</time></trkpt><trkpt lat="44.334467528818784" lon="7.339632923269509"><ele>1081.0</ele><time>2026-05-03T15:43:46.999Z</time></trkpt><trkpt lat="44.334551243504535" lon="7.339605215692302"><ele>1081.0</ele><time>2026-05-03T15:43:48.999Z</time></trkpt><trkpt lat="44.33456323016949" lon="7.339721420816675"><ele>1081.0</ele><time>2026-05-03T15:44:10.999Z</time></trkpt><trkpt lat="44.334543241689076" lon="7.339829322380675"><ele>1081.0</ele><time>2026-05-03T15:44:13.999Z</time></trkpt><trkpt lat="44.33457155586857" lon="7.339942295856474"><ele>1081.0</ele><time>2026-05-03T15:44:24.998Z</time></trkpt><trkpt lat="44.33460821266392" lon="7.340026754659916"><ele>1075.8</ele><time>2026-05-03T15:44:28.998Z</time></trkpt><trkpt lat="44.33454610869329" lon="7.340057426972195"><ele>1070.6</ele><time>2026-05-03T15:44:34.998Z</time></trkpt><trkpt lat="44.334469653774775" lon="7.339985523854527"><ele>1065.4</ele><time>2026-05-03T15:44:37.998Z</time></trkpt><trkpt lat="44.33451066894172" lon="7.340089629899689"><ele>1060.2</ele><time>2026-05-03T15:44:42.998Z</time></trkpt><trkpt lat="44.334568200272386" lon="7.340188089995742"><ele>1055.0</ele><time>2026-05-03T15:44:44.998Z</time></trkpt><trkpt lat="44.33459419061644" lon="7.340391323979608"><ele>1055.0</ele><time>2026-05-03T15:44:45.998Z</time></trkpt><trkpt lat="44.334632384142814" lon="7.340474522769881"><ele>1055.0</ele><time>2026-05-03T15:44:47.998Z</time></trkpt><trkpt lat="44.33469039541291" lon="7.34055306261714"><ele>1055.0</ele><time>2026-05-03T15:44:50.998Z</time></trkpt><trkpt lat="44.334751523921206" lon="7.340590253873287"><ele>1055.0</ele><time>2026-05-03T15:44:53.998Z</time></trkpt><trkpt lat="44.33470585912132" lon="7.340666216734567"><ele>1055.0</ele><time>2026-05-03T15:45:04.998Z</time></trkpt><trkpt lat="44.33464583940051" lon="7.340617129075512"><ele>1055.0</ele><time>2026-05-03T15:45:08.998Z</time></trkpt><trkpt lat="44.33459446431828" lon="7.340561689014455"><ele>1055.0</ele><time>2026-05-03T15:45:12.998Z</time></trkpt><trkpt lat="44.334530866710764" lon="7.340568962343823"><ele>1055.0</ele><time>2026-05-03T15:45:26Z</time></trkpt><trkpt lat="44.334465565797316" lon="7.340546182929331"><ele>1055.0</ele><time>2026-05-03T15:45:34Z</time></trkpt><trkpt lat="44.33442160358797" lon="7.340480840853046"><ele>1055.0</ele><time>2026-05-03T15:45:40Z</time></trkpt><trkpt lat="44.33434775784442" lon="7.3404226484008355"><ele>1055.0</ele><time>2026-05-03T15:45:45Z</time></trkpt><trkpt lat="44.33428640697703" lon="7.340345815103716"><ele>1055.0</ele><time>2026-05-03T15:45:50Z</time></trkpt><trkpt lat="44.334115661330586" lon="7.340238456182708"><ele>1055.0</ele><time>2026-05-03T15:45:58Z</time></trkpt><trkpt lat="44.334006002145216" lon="7.3401976419095325"><ele>1055.0</ele><time>2026-05-03T15:46:00Z</time></trkpt><trkpt lat="44.33389748869233" lon="7.340138662907356"><ele>1055.0</ele><time>2026-05-03T15:46:02Z</time></trkpt><trkpt lat="44.33377921644051" lon="7.34009025382306"><ele>1055.0</ele><time>2026-05-03T15:46:04Z</time></trkpt><trkpt lat="44.33371144661341" lon="7.34010415792357"><ele>1055.0</ele><time>2026-05-03T15:46:05Z</time></trkpt><trkpt lat="44.33363964375006" lon="7.340126934763905"><ele>1054.1666666666667</ele><time>2026-05-03T15:46:06Z</time></trkpt><trkpt lat="44.33356571824575" lon="7.340153171816271"><ele>1053.3333333333335</ele><time>2026-05-03T15:46:07Z</time></trkpt><trkpt lat="44.33348639313735" lon="7.3401751124237045"><ele>1052.5</ele><time>2026-05-03T15:46:08Z</time></trkpt><trkpt lat="44.33340501093797" lon="7.340185680647469"><ele>1051.6666666666667</ele><time>2026-05-03T15:46:09Z</time></trkpt><trkpt lat="44.333339772411406" lon="7.34017906890388"><ele>1050.8333333333333</ele><time>2026-05-03T15:46:10Z</time></trkpt><trkpt lat="44.33326759674705" lon="7.34021528583485"><ele>1050.0</ele><time>2026-05-03T15:46:12Z</time></trkpt><trkpt lat="44.33327578138455" lon="7.340315438968232"><ele>1050.0</ele><time>2026-05-03T15:46:14Z</time></trkpt><trkpt lat="44.33336263541371" lon="7.340356469384824"><ele>1050.0</ele><time>2026-05-03T15:46:16Z</time></trkpt><trkpt lat="44.33343308405389" lon="7.340349341715851"><ele>1050.0</ele><time>2026-05-03T15:46:18Z</time></trkpt><trkpt lat="44.333502658928595" lon="7.340361070252761"><ele>1050.0</ele><time>2026-05-03T15:46:19Z</time></trkpt><trkpt lat="44.33357981749698" lon="7.340387513934228"><ele>1050.0</ele><time>2026-05-03T15:46:20Z</time></trkpt><trkpt lat="44.33365375690171" lon="7.340400472264047"><ele>1050.0</ele><time>2026-05-03T15:46:21Z</time></trkpt><trkpt lat="44.333736573601236" lon="7.340422027797275"><ele>1050.0</ele><time>2026-05-03T15:46:22Z</time></trkpt><trkpt lat="44.333826083988484" lon="7.340432392654265"><ele>1050.0</ele><time>2026-05-03T15:46:23Z</time></trkpt><trkpt lat="44.3339093212473" lon="7.340453651640167"><ele>1050.0</ele><time>2026-05-03T15:46:24Z</time></trkpt><trkpt lat="44.33399057003631" lon="7.340484468180032"><ele>1050.0</ele><time>2026-05-03T15:46:25Z</time></trkpt><trkpt lat="44.334067950510814" lon="7.340565193820841"><ele>1050.0</ele><time>2026-05-03T15:46:26Z</time></trkpt><trkpt lat="44.334132462679435" lon="7.340647946627845"><ele>1050.0</ele><time>2026-05-03T15:46:26.999Z</time></trkpt><trkpt lat="44.33419260445894" lon="7.340742243342678"><ele>1045.6</ele><time>2026-05-03T15:46:27.999Z</time></trkpt><trkpt lat="44.334241263355054" lon="7.340849826844096"><ele>1041.2</ele><time>2026-05-03T15:46:28.999Z</time></trkpt><trkpt lat="44.33429537127092" lon="7.340961685867881"><ele>1036.8</ele><time>2026-05-03T15:46:29.999Z</time></trkpt><trkpt lat="44.33435889689065" lon="7.341056431420634"><ele>1032.4</ele><time>2026-05-03T15:46:30.999Z</time></trkpt><trkpt lat="44.3344310312238" lon="7.341147035893068"><ele>1028.0</ele><time>2026-05-03T15:46:31.999Z</time></trkpt><trkpt lat="44.33451054545462" lon="7.341252799733603"><ele>1028.0</ele><time>2026-05-03T15:46:32.999Z</time></trkpt><trkpt lat="44.33458059091694" lon="7.3413655670349165"><ele>1028.0</ele><time>2026-05-03T15:46:33.999Z</time></trkpt><trkpt lat="44.33464524377201" lon="7.341471000603231"><ele>1028.0</ele><time>2026-05-03T15:46:34.999Z</time></trkpt><trkpt lat="44.3347062592274" lon="7.341555583680957"><ele>1028.0</ele><time>2026-05-03T15:46:35.999Z</time></trkpt><trkpt lat="44.33478257270394" lon="7.341648966410375"><ele>1028.0</ele><time>2026-05-03T15:46:36.999Z</time></trkpt><trkpt lat="44.33487244598988" lon="7.341677197891464"><ele>1025.2</ele><time>2026-05-03T15:46:37.999Z</time></trkpt><trkpt lat="44.334966745096594" lon="7.341703724227059"><ele>1022.4</ele><time>2026-05-03T15:46:38.999Z</time></trkpt><trkpt lat="44.335058765558294" lon="7.3417450244210105"><ele>1019.6000000000001</ele><time>2026-05-03T15:46:39.999Z</time></trkpt><trkpt lat="44.33513303498982" lon="7.341825228596373"><ele>1016.8000000000001</ele><time>2026-05-03T15:46:40.999Z</time></trkpt><trkpt lat="44.33520101512481" lon="7.341904740133046"><ele>1014.0</ele><time>2026-05-03T15:46:41.999Z</time></trkpt><trkpt lat="44.3352514909984" lon="7.342040373897542"><ele>1014.0</ele><time>2026-05-03T15:46:42.999Z</time></trkpt><trkpt lat="44.33527786703983" lon="7.342146577150279"><ele>1014.0000000000001</ele><time>2026-05-03T15:46:43.999Z</time></trkpt><trkpt lat="44.33530227687099" lon="7.342236956649795"><ele>1014.0000000000001</ele><time>2026-05-03T15:46:44.999Z</time></trkpt><trkpt lat="44.3353635577339" lon="7.342323537354647"><ele>1014.0</ele><time>2026-05-03T15:46:46.999Z</time></trkpt><trkpt lat="44.33547604217076" lon="7.342308246931706"><ele>1014.0</ele><time>2026-05-03T15:46:48.999Z</time></trkpt><trkpt lat="44.3355970219359" lon="7.342255845683448"><ele>1009.2</ele><time>2026-05-03T15:46:50.999Z</time></trkpt><trkpt lat="44.33567084769445" lon="7.342248597703419"><ele>1004.4000000000001</ele><time>2026-05-03T15:46:51.999Z</time></trkpt><trkpt lat="44.33580380186283" lon="7.342278756529455"><ele>999.6</ele><time>2026-05-03T15:46:53.999Z</time></trkpt><trkpt lat="44.33590245691529" lon="7.342321259627661"><ele>994.8</ele><time>2026-05-03T15:46:54.999Z</time></trkpt><trkpt lat="44.335973666322026" lon="7.34240599543569"><ele>990.0</ele><time>2026-05-03T15:46:55.999Z</time></trkpt><trkpt lat="44.33605112004782" lon="7.342467273391009"><ele>990.0</ele><time>2026-05-03T15:46:56.999Z</time></trkpt><trkpt lat="44.33613287375739" lon="7.34252770506319"><ele>990.0</ele><time>2026-05-03T15:46:57.999Z</time></trkpt><trkpt lat="44.336218559200994" lon="7.342582659823541"><ele>990.0</ele><time>2026-05-03T15:46:58.999Z</time></trkpt><trkpt lat="44.33629525413597" lon="7.342661268313947"><ele>990.0</ele><time>2026-05-03T15:46:59.999Z</time></trkpt><trkpt lat="44.33635388322364" lon="7.342745556751772"><ele>990.0</ele><time>2026-05-03T15:47:00.999Z</time></trkpt><trkpt lat="44.33643256662959" lon="7.342824853421656"><ele>986.4</ele><time>2026-05-03T15:47:02.999Z</time></trkpt><trkpt lat="44.33657486104233" lon="7.342747671752372"><ele>982.8</ele><time>2026-05-03T15:47:05.999Z</time></trkpt><trkpt lat="44.33659095563253" lon="7.342652542445224"><ele>979.2</ele><time>2026-05-03T15:47:06.999Z</time></trkpt><trkpt lat="44.33660455587481" lon="7.342555027690121"><ele>975.6</ele><time>2026-05-03T15:47:07.999Z</time></trkpt><trkpt lat="44.33662569485206" lon="7.342454329400132"><ele>972.0</ele><time>2026-05-03T15:47:08.999Z</time></trkpt><trkpt lat="44.33663273343009" lon="7.342292984038523"><ele>972.0</ele><time>2026-05-03T15:47:10.999Z</time></trkpt><trkpt lat="44.33669398010331" lon="7.342330007769715"><ele>972.0</ele><time>2026-05-03T15:47:14.999Z</time></trkpt><trkpt lat="44.33669054777971" lon="7.342490738991849"><ele>972.0</ele><time>2026-05-03T15:47:16.999Z</time></trkpt><trkpt lat="44.33667587661943" lon="7.342652710195489"><ele>972.0</ele><time>2026-05-03T15:47:18.999Z</time></trkpt><trkpt lat="44.33666118351208" lon="7.342817309690304"><ele>972.0</ele><time>2026-05-03T15:47:20.999Z</time></trkpt><trkpt lat="44.33664071688768" lon="7.342906204161951"><ele>972.0</ele><time>2026-05-03T15:47:21.998Z</time></trkpt><trkpt lat="44.33662791139856" lon="7.343001761344358"><ele>972.0</ele><time>2026-05-03T15:47:22.998Z</time></trkpt><trkpt lat="44.3366163442357" lon="7.34309364093541"><ele>972.0</ele><time>2026-05-03T15:47:23.998Z</time></trkpt><trkpt lat="44.33658040785705" lon="7.343166822731396"><ele>972.0</ele><time>2026-05-03T15:47:24.998Z</time></trkpt><trkpt lat="44.33649502628627" lon="7.34330245509292"><ele>972.0</ele><time>2026-05-03T15:47:26.998Z</time></trkpt><trkpt lat="44.336426033828126" lon="7.343208977864288"><ele>972.0</ele><time>2026-05-03T15:47:27.998Z</time></trkpt><trkpt lat="44.336360318441336" lon="7.343142041060501"><ele>974.6666666666666</ele><time>2026-05-03T15:47:29.001Z</time></trkpt><trkpt lat="44.33628709680919" lon="7.343082849409435"><ele>977.3333333333333</ele><time>2026-05-03T15:47:30.001Z</time></trkpt><trkpt lat="44.33620429129611" lon="7.3430357191531295"><ele>980.0</ele><time>2026-05-03T15:47:31.001Z</time></trkpt><trkpt lat="44.33614487578885" lon="7.343005537307472"><ele>982.6666666666666</ele><time>2026-05-03T15:47:32.001Z</time></trkpt><trkpt lat="44.33607673440022" lon="7.343032957230469"><ele>985.3333333333333</ele><time>2026-05-03T15:47:34Z</time></trkpt><trkpt lat="44.33610500584647" lon="7.343138755580386"><ele>988.0</ele><time>2026-05-03T15:47:36.001Z</time></trkpt><trkpt lat="44.3363028926848" lon="7.343196512004966"><ele>987.9999999999999</ele><time>2026-05-03T15:47:39.001Z</time></trkpt><trkpt lat="44.3363692867168" lon="7.343221980003522"><ele>988.0</ele><time>2026-05-03T15:47:40Z</time></trkpt><trkpt lat="44.33643147288002" lon="7.343256363524579"><ele>988.0</ele><time>2026-05-03T15:47:41.001Z</time></trkpt><trkpt lat="44.336498422253186" lon="7.343299368188783"><ele>988.0</ele><time>2026-05-03T15:47:42.001Z</time></trkpt><trkpt lat="44.33657525852574" lon="7.34334103591856"><ele>987.9999999999999</ele><time>2026-05-03T15:47:43Z</time></trkpt><trkpt lat="44.336663139914585" lon="7.3433439767757696"><ele>988.0</ele><time>2026-05-03T15:47:44Z</time></trkpt><trkpt lat="44.33674180742888" lon="7.343342610533587"><ele>982.4</ele><time>2026-05-03T15:47:45Z</time></trkpt><trkpt lat="44.336830016423185" lon="7.343360046626399"><ele>976.8</ele><time>2026-05-03T15:47:46Z</time></trkpt><trkpt lat="44.336914534897616" lon="7.343407885994111"><ele>971.2</ele><time>2026-05-03T15:47:47Z</time></trkpt><trkpt lat="44.337015938157535" lon="7.343453984063638"><ele>965.6</ele><time>2026-05-03T15:47:48Z</time></trkpt><trkpt lat="44.337102409906116" lon="7.343504021321192"><ele>960.0</ele><time>2026-05-03T15:47:49Z</time></trkpt><trkpt lat="44.33719369417849" lon="7.343506936638067"><ele>956.8</ele><time>2026-05-03T15:47:51Z</time></trkpt><trkpt lat="44.33726750069854" lon="7.343377152009088"><ele>953.6</ele><time>2026-05-03T15:47:53Z</time></trkpt><trkpt lat="44.337281487448834" lon="7.343289505426919"><ele>950.4000000000001</ele><time>2026-05-03T15:47:54Z</time></trkpt><trkpt lat="44.337314244868146" lon="7.343171716691967"><ele>947.2</ele><time>2026-05-03T15:47:56Z</time></trkpt><trkpt lat="44.337358806880125" lon="7.343274988621638"><ele>944.0</ele><time>2026-05-03T15:48:00Z</time></trkpt><trkpt lat="44.33731146232098" lon="7.343397488436881"><ele>944.0</ele><time>2026-05-03T15:48:02Z</time></trkpt><trkpt lat="44.337270703957515" lon="7.343542585944235"><ele>944.0000000000001</ele><time>2026-05-03T15:48:04Z</time></trkpt><trkpt lat="44.33724974393924" lon="7.343694456668938"><ele>944.0000000000001</ele><time>2026-05-03T15:48:06Z</time></trkpt><trkpt lat="44.33724199882847" lon="7.343784356707347"><ele>944.0</ele><time>2026-05-03T15:48:07Z</time></trkpt><trkpt lat="44.3372226956793" lon="7.343952288016024"><ele>944.0</ele><time>2026-05-03T15:48:09Z</time></trkpt><trkpt lat="44.33714319963491" lon="7.3440372818825175"><ele>948.0</ele><time>2026-05-03T15:48:10Z</time></trkpt><trkpt lat="44.33710932263683" lon="7.344156429023445"><ele>952.0000000000001</ele><time>2026-05-03T15:48:11Z</time></trkpt><trkpt lat="44.33707955700602" lon="7.344280700064516"><ele>956.0000000000001</ele><time>2026-05-03T15:48:12Z</time></trkpt><trkpt lat="44.33705136186133" lon="7.344406313110686"><ele>960.0</ele><time>2026-05-03T15:48:13Z</time></trkpt><trkpt lat="44.33702396374744" lon="7.344534946705882"><ele>964.0</ele><time>2026-05-03T15:48:14Z</time></trkpt><trkpt lat="44.33699882223591" lon="7.344652985617017"><ele>963.6</ele><time>2026-05-03T15:48:15Z</time></trkpt><trkpt lat="44.336971214112" lon="7.344789196645937"><ele>963.2</ele><time>2026-05-03T15:48:16Z</time></trkpt><trkpt lat="44.33695826328634" lon="7.344933593829588"><ele>962.8000000000001</ele><time>2026-05-03T15:48:17Z</time></trkpt><trkpt lat="44.33696383751841" lon="7.345082439895697"><ele>962.4000000000001</ele><time>2026-05-03T15:48:18Z</time></trkpt><trkpt lat="44.336989671223044" lon="7.345231352221467"><ele>962.0</ele><time>2026-05-03T15:48:19Z</time></trkpt><trkpt lat="44.337008396793664" lon="7.345374012937847"><ele>962.0</ele><time>2026-05-03T15:48:20Z</time></trkpt><trkpt lat="44.33699852872933" lon="7.345508476240087"><ele>962.0</ele><time>2026-05-03T15:48:21Z</time></trkpt><trkpt lat="44.336964089367044" lon="7.3456322123099485"><ele>962.0</ele><time>2026-05-03T15:48:22Z</time></trkpt><trkpt lat="44.33694770962665" lon="7.345762636764752"><ele>962.0</ele><time>2026-05-03T15:48:23Z</time></trkpt><trkpt lat="44.336966348422365" lon="7.345892288022528"><ele>962.0</ele><time>2026-05-03T15:48:24Z</time></trkpt><trkpt lat="44.33699258803277" lon="7.346009472145955"><ele>960.8571428571427</ele><time>2026-05-03T15:48:25Z</time></trkpt><trkpt lat="44.33703750017372" lon="7.346105472843881"><ele>959.7142857142857</ele><time>2026-05-03T15:48:26Z</time></trkpt><trkpt lat="44.337090447757724" lon="7.3461834170326155"><ele>958.5714285714284</ele><time>2026-05-03T15:48:27Z</time></trkpt><trkpt lat="44.337133110986926" lon="7.346266274669427"><ele>957.4285714285713</ele><time>2026-05-03T15:48:28Z</time></trkpt><trkpt lat="44.337133725376255" lon="7.346365546550077"><ele>956.2857142857142</ele><time>2026-05-03T15:48:29Z</time></trkpt><trkpt lat="44.33714184942086" lon="7.346463933370944"><ele>955.1428571428571</ele><time>2026-05-03T15:48:30Z</time></trkpt><trkpt lat="44.33716567216005" lon="7.346560372632216"><ele>954.0</ele><time>2026-05-03T15:48:31Z</time></trkpt><trkpt lat="44.337184353174635" lon="7.346657914539568"><ele>953.0</ele><time>2026-05-03T15:48:32Z</time></trkpt><trkpt lat="44.33721282343461" lon="7.3467488850031595"><ele>952.0</ele><time>2026-05-03T15:48:33Z</time></trkpt><trkpt lat="44.33725015973152" lon="7.346845435343358"><ele>951.0</ele><time>2026-05-03T15:48:33.999Z</time></trkpt><trkpt lat="44.33724923987463" lon="7.346955095091474"><ele>950.0</ele><time>2026-05-03T15:48:34.999Z</time></trkpt><trkpt lat="44.33723832102278" lon="7.3470668783671504"><ele>949.0</ele><time>2026-05-03T15:48:35.999Z</time></trkpt><trkpt lat="44.33723862242811" lon="7.347188781764976"><ele>948.0</ele><time>2026-05-03T15:48:36.999Z</time></trkpt><trkpt lat="44.337251126845054" lon="7.347313491204533"><ele>942.2</ele><time>2026-05-03T15:48:37.999Z</time></trkpt><trkpt lat="44.33727622277007" lon="7.347436063405925"><ele>936.4</ele><time>2026-05-03T15:48:38.999Z</time></trkpt><trkpt lat="44.33730703482739" lon="7.347553937469066"><ele>930.6000000000001</ele><time>2026-05-03T15:48:39.999Z</time></trkpt><trkpt lat="44.33733216628997" lon="7.347669305759663"><ele>924.8000000000001</ele><time>2026-05-03T15:48:40.999Z</time></trkpt><trkpt lat="44.337265176251236" lon="7.347773117204131"><ele>919.0</ele><time>2026-05-03T15:48:41.999Z</time></trkpt><trkpt lat="44.33723201056583" lon="7.347901996737231"><ele>924.0</ele><time>2026-05-03T15:48:42.999Z</time></trkpt><trkpt lat="44.33720620369126" lon="7.348031606909712"><ele>929.0000000000001</ele><time>2026-05-03T15:48:43.999Z</time></trkpt><trkpt lat="44.33719589386312" lon="7.348175086693283"><ele>934.0000000000001</ele><time>2026-05-03T15:48:44.999Z</time></trkpt><trkpt lat="44.33717962043314" lon="7.348317570661711"><ele>939.0</ele><time>2026-05-03T15:48:45.999Z</time></trkpt><trkpt lat="44.337161406433694" lon="7.348455680275735"><ele>944.0</ele><time>2026-05-03T15:48:46.999Z</time></trkpt><trkpt lat="44.33714082436998" lon="7.348595063790055"><ele>944.0</ele><time>2026-05-03T15:48:47.999Z</time></trkpt><trkpt lat="44.337124428656814" lon="7.348735911827092"><ele>944.0000000000001</ele><time>2026-05-03T15:48:48.999Z</time></trkpt><trkpt lat="44.33712977417413" lon="7.348898911986018"><ele>944.0000000000001</ele><time>2026-05-03T15:48:49.999Z</time></trkpt><trkpt lat="44.337154767377086" lon="7.349044212067476"><ele>944.0</ele><time>2026-05-03T15:48:50.999Z</time></trkpt><trkpt lat="44.33715248015794" lon="7.3491918841575075"><ele>944.0</ele><time>2026-05-03T15:48:51.999Z</time></trkpt><trkpt lat="44.33717927757319" lon="7.349335210357699"><ele>937.6</ele><time>2026-05-03T15:48:52.999Z</time></trkpt><trkpt lat="44.33721966278713" lon="7.34947321054959"><ele>931.2</ele><time>2026-05-03T15:48:53.999Z</time></trkpt><trkpt lat="44.33727256392455" lon="7.3495961191323165"><ele>924.8000000000001</ele><time>2026-05-03T15:48:54.999Z</time></trkpt><trkpt lat="44.33730476618272" lon="7.3497276806369936"><ele>918.4000000000001</ele><time>2026-05-03T15:48:55.999Z</time></trkpt><trkpt lat="44.33733614206059" lon="7.349856499161004"><ele>912.0</ele><time>2026-05-03T15:48:56.999Z</time></trkpt><trkpt lat="44.33736475715708" lon="7.3499838710047625"><ele>910.4000000000001</ele><time>2026-05-03T15:48:57.999Z</time></trkpt><trkpt lat="44.33738835716818" lon="7.3501098274052525"><ele>908.8000000000001</ele><time>2026-05-03T15:48:58.999Z</time></trkpt><trkpt lat="44.337409720948855" lon="7.350234299437952"><ele>907.2</ele><time>2026-05-03T15:48:59.999Z</time></trkpt><trkpt lat="44.33743577891246" lon="7.350358549771584"><ele>905.6</ele><time>2026-05-03T15:49:00.999Z</time></trkpt><trkpt lat="44.33746281971964" lon="7.350480922359561"><ele>904.0</ele><time>2026-05-03T15:49:01.999Z</time></trkpt><trkpt lat="44.33748100755526" lon="7.350603678924669"><ele>903.1666666666666</ele><time>2026-05-03T15:49:02.999Z</time></trkpt><trkpt lat="44.33748721365516" lon="7.350723319149734"><ele>902.3333333333333</ele><time>2026-05-03T15:49:03.999Z</time></trkpt><trkpt lat="44.33745796023511" lon="7.350833235366383"><ele>901.5</ele><time>2026-05-03T15:49:04.999Z</time></trkpt><trkpt lat="44.33744319749165" lon="7.350950063288238"><ele>900.6666666666667</ele><time>2026-05-03T15:49:05.999Z</time></trkpt><trkpt lat="44.33743954173104" lon="7.351048444698315"><ele>899.8333333333334</ele><time>2026-05-03T15:49:06.999Z</time></trkpt><trkpt lat="44.33745392425559" lon="7.351157742577395"><ele>899.0</ele><time>2026-05-03T15:49:07.999Z</time></trkpt><trkpt lat="44.337455266437104" lon="7.351255619077731"><ele>899.0000000000001</ele><time>2026-05-03T15:49:08.999Z</time></trkpt><trkpt lat="44.337459927735935" lon="7.351350881417096"><ele>899.0</ele><time>2026-05-03T15:49:09.999Z</time></trkpt><trkpt lat="44.337469122971136" lon="7.351439615452864"><ele>899.0</ele><time>2026-05-03T15:49:10.999Z</time></trkpt><trkpt lat="44.337482605572106" lon="7.351604813663421"><ele>899.0</ele><time>2026-05-03T15:49:12.999Z</time></trkpt><trkpt lat="44.3374901507078" lon="7.351761012844219"><ele>899.0000000000001</ele><time>2026-05-03T15:49:14.999Z</time></trkpt><trkpt lat="44.33748755790693" lon="7.351848989162768"><ele>899.0</ele><time>2026-05-03T15:49:15.999Z</time></trkpt><trkpt lat="44.33747850052107" lon="7.351959537893044"><ele>898.6</ele><time>2026-05-03T15:49:16.999Z</time></trkpt><trkpt lat="44.33744730936229" lon="7.352062842896812"><ele>898.2</ele><time>2026-05-03T15:49:17.999Z</time></trkpt><trkpt lat="44.337407309193814" lon="7.352201185082083"><ele>897.8000000000001</ele><time>2026-05-03T15:49:18.999Z</time></trkpt><trkpt lat="44.337352661138205" lon="7.352332267462789"><ele>897.4000000000001</ele><time>2026-05-03T15:49:19.999Z</time></trkpt><trkpt lat="44.33727697642269" lon="7.3524417109006075"><ele>897.0</ele><time>2026-05-03T15:49:20.999Z</time></trkpt><trkpt lat="44.33719348572086" lon="7.352562958707273"><ele>896.5</ele><time>2026-05-03T15:49:21.999Z</time></trkpt><trkpt lat="44.33712472053198" lon="7.352685705628513"><ele>896.0</ele><time>2026-05-03T15:49:22.999Z</time></trkpt><trkpt lat="44.33707092755444" lon="7.352827663441306"><ele>895.5</ele><time>2026-05-03T15:49:23.999Z</time></trkpt><trkpt lat="44.33705861524736" lon="7.353025996690848"><ele>895.0</ele><time>2026-05-03T15:49:24.999Z</time></trkpt><trkpt lat="44.33704331500791" lon="7.353239652608772"><ele>894.25</ele><time>2026-05-03T15:49:25.998Z</time></trkpt><trkpt lat="44.33703490646251" lon="7.353459437317049"><ele>893.5</ele><time>2026-05-03T15:49:26.998Z</time></trkpt><trkpt lat="44.337018797219706" lon="7.353660835151214"><ele>892.75</ele><time>2026-05-03T15:49:27.998Z</time></trkpt><trkpt lat="44.3370055846584" lon="7.35384496689026"><ele>892.0</ele><time>2026-05-03T15:49:28.998Z</time></trkpt><trkpt lat="44.33700341444265" lon="7.354010105956113"><ele>892.0</ele><time>2026-05-03T15:49:29.998Z</time></trkpt><trkpt lat="44.337016444976236" lon="7.354169958172169"><ele>892.0</ele><time>2026-05-03T15:49:30.998Z</time></trkpt><trkpt lat="44.33705832922679" lon="7.35434472532207"><ele>892.0</ele><time>2026-05-03T15:49:31.998Z</time></trkpt><trkpt lat="44.33712571147658" lon="7.354529556430099"><ele>892.0</ele><time>2026-05-03T15:49:32.998Z</time></trkpt><trkpt lat="44.337197224800036" lon="7.354710656681345"><ele>891.25</ele><time>2026-05-03T15:49:33.998Z</time></trkpt><trkpt lat="44.337262335980334" lon="7.354889212399232"><ele>890.5</ele><time>2026-05-03T15:49:35Z</time></trkpt><trkpt lat="44.33731412652187" lon="7.355067896400221"><ele>889.75</ele><time>2026-05-03T15:49:36Z</time></trkpt><trkpt lat="44.33735667875168" lon="7.355257720710553"><ele>889.0</ele><time>2026-05-03T15:49:37Z</time></trkpt><trkpt lat="44.3373499218668" lon="7.355468975971717"><ele>888.0</ele><time>2026-05-03T15:49:38Z</time></trkpt><trkpt lat="44.33734114031589" lon="7.355679834108052"><ele>887.0</ele><time>2026-05-03T15:49:39Z</time></trkpt><trkpt lat="44.33734863433038" lon="7.355886265986034"><ele>886.0</ele><time>2026-05-03T15:49:40Z</time></trkpt><trkpt lat="44.337325537052294" lon="7.356083159066567"><ele>885.0</ele><time>2026-05-03T15:49:41Z</time></trkpt><trkpt lat="44.337273318641316" lon="7.356282192967406"><ele>887.6666666666667</ele><time>2026-05-03T15:49:42Z</time></trkpt><trkpt lat="44.33723766735247" lon="7.35646469160546"><ele>890.3333333333334</ele><time>2026-05-03T15:49:43Z</time></trkpt><trkpt lat="44.33720665922844" lon="7.356675411266205"><ele>893.0</ele><time>2026-05-03T15:49:44Z</time></trkpt><trkpt lat="44.33717776674343" lon="7.3568976207081995"><ele>893.0</ele><time>2026-05-03T15:49:45Z</time></trkpt><trkpt lat="44.33716673426549" lon="7.357089828601334"><ele>893.0</ele><time>2026-05-03T15:49:46Z</time></trkpt><trkpt lat="44.33714084789739" lon="7.357250771875576"><ele>893.0</ele><time>2026-05-03T15:49:47Z</time></trkpt><trkpt lat="44.33712821407909" lon="7.3574209663907"><ele>893.0</ele><time>2026-05-03T15:49:48Z</time></trkpt><trkpt lat="44.33713965036516" lon="7.357601996435393"><ele>893.3333333333334</ele><time>2026-05-03T15:49:49Z</time></trkpt><trkpt lat="44.337177372913104" lon="7.357791140661062"><ele>893.6666666666667</ele><time>2026-05-03T15:49:50Z</time></trkpt><trkpt lat="44.33724941459083" lon="7.357986407074431"><ele>894.0</ele><time>2026-05-03T15:49:51Z</time></trkpt><trkpt lat="44.337328360130996" lon="7.358190308236016"><ele>888.0</ele><time>2026-05-03T15:49:52Z</time></trkpt><trkpt lat="44.337394028189344" lon="7.358387856607189"><ele>882.0</ele><time>2026-05-03T15:49:53Z</time></trkpt><trkpt lat="44.33745381108791" lon="7.358599986377752"><ele>876.0</ele><time>2026-05-03T15:49:54Z</time></trkpt><trkpt lat="44.33750379138959" lon="7.35879715439614"><ele>873.25</ele><time>2026-05-03T15:49:55Z</time></trkpt><trkpt lat="44.33753710060213" lon="7.358980299197151"><ele>870.5</ele><time>2026-05-03T15:49:56Z</time></trkpt><trkpt lat="44.33752983525196" lon="7.359165486578036"><ele>867.75</ele><time>2026-05-03T15:49:57Z</time></trkpt><trkpt lat="44.337506994195024" lon="7.359358975523067"><ele>865.0</ele><time>2026-05-03T15:49:58Z</time></trkpt><trkpt lat="44.33745937763955" lon="7.359558860516956"><ele>864.6666666666666</ele><time>2026-05-03T15:49:59Z</time></trkpt><trkpt lat="44.33740738052617" lon="7.359755312386595"><ele>864.3333333333333</ele><time>2026-05-03T15:50:00Z</time></trkpt><trkpt lat="44.33738021257808" lon="7.359946445003674"><ele>864.0</ele><time>2026-05-03T15:50:01Z</time></trkpt><trkpt lat="44.3373818776033" lon="7.360170754333101"><ele>864.0</ele><time>2026-05-03T15:50:02Z</time></trkpt><trkpt lat="44.337376856520414" lon="7.360421075464487"><ele>864.0</ele><time>2026-05-03T15:50:03Z</time></trkpt><trkpt lat="44.33736102895958" lon="7.360662773067296"><ele>864.0</ele><time>2026-05-03T15:50:04Z</time></trkpt><trkpt lat="44.33734506912621" lon="7.360894943230971"><ele>862.0</ele><time>2026-05-03T15:50:05Z</time></trkpt><trkpt lat="44.337323680383044" lon="7.361120314889967"><ele>860.0</ele><time>2026-05-03T15:50:06Z</time></trkpt><trkpt lat="44.33730358539616" lon="7.361347297419848"><ele>858.0</ele><time>2026-05-03T15:50:07Z</time></trkpt><trkpt lat="44.33729243236768" lon="7.361569151025202"><ele>855.6666666666667</ele><time>2026-05-03T15:50:08Z</time></trkpt><trkpt lat="44.33727245209656" lon="7.361787873695576"><ele>853.3333333333334</ele><time>2026-05-03T15:50:09Z</time></trkpt><trkpt lat="44.33724682121365" lon="7.3619997697663315"><ele>851.0</ele><time>2026-05-03T15:50:10Z</time></trkpt><trkpt lat="44.33722357243228" lon="7.3621986178895735"><ele>849.0</ele><time>2026-05-03T15:50:11Z</time></trkpt><trkpt lat="44.33719394116581" lon="7.362388870918936"><ele>847.0</ele><time>2026-05-03T15:50:12Z</time></trkpt><trkpt lat="44.33718959455181" lon="7.362570295258712"><ele>845.0</ele><time>2026-05-03T15:50:13Z</time></trkpt><trkpt lat="44.33722411474945" lon="7.362756637940314"><ele>843.0</ele><time>2026-05-03T15:50:14Z</time></trkpt><trkpt lat="44.337305742461" lon="7.362943264080572"><ele>840.6666666666667</ele><time>2026-05-03T15:50:15Z</time></trkpt><trkpt lat="44.33739045126141" lon="7.363127651063469"><ele>838.3333333333334</ele><time>2026-05-03T15:50:16Z</time></trkpt><trkpt lat="44.33744030390579" lon="7.363324150341162"><ele>836.0</ele><time>2026-05-03T15:50:17Z</time></trkpt><trkpt lat="44.33743418891258" lon="7.3635369643915976"><ele>836.0</ele><time>2026-05-03T15:50:18Z</time></trkpt><trkpt lat="44.33740969615057" lon="7.363754765483896"><ele>836.0</ele><time>2026-05-03T15:50:19Z</time></trkpt><trkpt lat="44.33739204396533" lon="7.363963875307618"><ele>836.0</ele><time>2026-05-03T15:50:20Z</time></trkpt><trkpt lat="44.33737826685003" lon="7.364156112328005"><ele>836.0</ele><time>2026-05-03T15:50:21Z</time></trkpt><trkpt lat="44.33741122961257" lon="7.364329717900613"><ele>835.0</ele><time>2026-05-03T15:50:22Z</time></trkpt><trkpt lat="44.33751750929295" lon="7.364486179818009"><ele>834.0</ele><time>2026-05-03T15:50:23Z</time></trkpt><trkpt lat="44.33759447329339" lon="7.364662526812806"><ele>833.0</ele><time>2026-05-03T15:50:24Z</time></trkpt><trkpt lat="44.337646564194074" lon="7.364799437318782"><ele>832.0</ele><time>2026-05-03T15:50:25Z</time></trkpt><trkpt lat="44.337609608188764" lon="7.364971193830584"><ele>831.25</ele><time>2026-05-03T15:50:26Z</time></trkpt><trkpt lat="44.33754128897702" lon="7.365139407502839"><ele>830.5</ele><time>2026-05-03T15:50:27Z</time></trkpt><trkpt lat="44.337475000962534" lon="7.365328623030334"><ele>829.75</ele><time>2026-05-03T15:50:28Z</time></trkpt><trkpt lat="44.337424489908535" lon="7.3655106406857795"><ele>829.0</ele><time>2026-05-03T15:50:29Z</time></trkpt><trkpt lat="44.337402549077076" lon="7.365690717139559"><ele>827.75</ele><time>2026-05-03T15:50:30Z</time></trkpt><trkpt lat="44.33741224189693" lon="7.3658532991228425"><ele>826.5</ele><time>2026-05-03T15:50:31Z</time></trkpt><trkpt lat="44.337461217959515" lon="7.366012352895896"><ele>825.25</ele><time>2026-05-03T15:50:32Z</time></trkpt><trkpt lat="44.337548449870425" lon="7.366184283802545"><ele>824.0</ele><time>2026-05-03T15:50:33Z</time></trkpt><trkpt lat="44.337643357547286" lon="7.366352124538713"><ele>823.3333333333334</ele><time>2026-05-03T15:50:34Z</time></trkpt><trkpt lat="44.33774111872024" lon="7.36653469002436"><ele>822.6666666666667</ele><time>2026-05-03T15:50:35Z</time></trkpt><trkpt lat="44.33782090142349" lon="7.366719186981605"><ele>822.0</ele><time>2026-05-03T15:50:36Z</time></trkpt><trkpt lat="44.337890122600356" lon="7.36689455594968"><ele>822.0</ele><time>2026-05-03T15:50:37Z</time></trkpt><trkpt lat="44.33794951815261" lon="7.367055039834123"><ele>822.0</ele><time>2026-05-03T15:50:38Z</time></trkpt><trkpt lat="44.33798270342394" lon="7.367213568859202"><ele>822.0</ele><time>2026-05-03T15:50:38.999Z</time></trkpt><trkpt lat="44.33794409893424" lon="7.367374460601435"><ele>822.0</ele><time>2026-05-03T15:50:39.999Z</time></trkpt><trkpt lat="44.337898305677584" lon="7.367567937180158"><ele>822.0</ele><time>2026-05-03T15:50:40.999Z</time></trkpt><trkpt lat="44.337857135494176" lon="7.3677770310692"><ele>822.0</ele><time>2026-05-03T15:50:41.999Z</time></trkpt><trkpt lat="44.337824304170425" lon="7.367957429395907"><ele>822.0</ele><time>2026-05-03T15:50:42.999Z</time></trkpt><trkpt lat="44.33780789196978" lon="7.368113891132004"><ele>822.0</ele><time>2026-05-03T15:50:43.999Z</time></trkpt><trkpt lat="44.337815852597785" lon="7.36826479236906"><ele>821.8</ele><time>2026-05-03T15:50:44.999Z</time></trkpt><trkpt lat="44.33785396314889" lon="7.368420713768861"><ele>821.6</ele><time>2026-05-03T15:50:45.999Z</time></trkpt><trkpt lat="44.33791873986199" lon="7.368581323784941"><ele>821.4</ele><time>2026-05-03T15:50:46.999Z</time></trkpt><trkpt lat="44.337973387289914" lon="7.368711339922853"><ele>821.1999999999999</ele><time>2026-05-03T15:50:47.999Z</time></trkpt><trkpt lat="44.338009288080215" lon="7.368812639738621"><ele>821.0</ele><time>2026-05-03T15:50:48.999Z</time></trkpt><trkpt lat="44.33802922832453" lon="7.368902978383068"><ele>819.5999999999999</ele><time>2026-05-03T15:50:49.999Z</time></trkpt><trkpt lat="44.3380156073052" lon="7.3690129292438975"><ele>818.2</ele><time>2026-05-03T15:50:50.999Z</time></trkpt><trkpt lat="44.33793207342728" lon="7.369088905915258"><ele>816.8</ele><time>2026-05-03T15:50:51.999Z</time></trkpt><trkpt lat="44.33786341572849" lon="7.369222810371196"><ele>815.4000000000001</ele><time>2026-05-03T15:50:52.999Z</time></trkpt><trkpt lat="44.337806086456574" lon="7.369386794309931"><ele>814.0</ele><time>2026-05-03T15:50:53.999Z</time></trkpt><trkpt lat="44.337757185371245" lon="7.369568265743201"><ele>812.6666666666666</ele><time>2026-05-03T15:50:54.999Z</time></trkpt><trkpt lat="44.33772546655403" lon="7.369760695833711"><ele>811.3333333333333</ele><time>2026-05-03T15:50:55.999Z</time></trkpt><trkpt lat="44.33769618198607" lon="7.369985904840145"><ele>810.0</ele><time>2026-05-03T15:50:56.999Z</time></trkpt><trkpt lat="44.337668300088986" lon="7.370209247926979"><ele>810.0</ele><time>2026-05-03T15:50:57.999Z</time></trkpt><trkpt lat="44.337648646047825" lon="7.370420030431201"><ele>810.0</ele><time>2026-05-03T15:50:58.999Z</time></trkpt><trkpt lat="44.337645445236305" lon="7.370625683718505"><ele>810.0</ele><time>2026-05-03T15:50:59.999Z</time></trkpt><trkpt lat="44.337664059573434" lon="7.3708332442563425"><ele>810.0</ele><time>2026-05-03T15:51:00.999Z</time></trkpt><trkpt lat="44.3377017618641" lon="7.371065830053284"><ele>809.0</ele><time>2026-05-03T15:51:01.999Z</time></trkpt><trkpt lat="44.33773520810892" lon="7.371288005350457"><ele>808.0</ele><time>2026-05-03T15:51:02.999Z</time></trkpt><trkpt lat="44.33776602472448" lon="7.371497183606483"><ele>807.0</ele><time>2026-05-03T15:51:03.999Z</time></trkpt><trkpt lat="44.337796423664095" lon="7.371700653001195"><ele>806.5</ele><time>2026-05-03T15:51:04.999Z</time></trkpt><trkpt lat="44.33782143433415" lon="7.371895806242697"><ele>806.0</ele><time>2026-05-03T15:51:05.999Z</time></trkpt><trkpt lat="44.33783780895761" lon="7.372091984615249"><ele>805.5</ele><time>2026-05-03T15:51:06.999Z</time></trkpt><trkpt lat="44.33784460724207" lon="7.372287097107064"><ele>805.0</ele><time>2026-05-03T15:51:07.999Z</time></trkpt><trkpt lat="44.33784177518166" lon="7.372485906420546"><ele>803.75</ele><time>2026-05-03T15:51:08.999Z</time></trkpt><trkpt lat="44.33783927000761" lon="7.3726822770737845"><ele>802.5</ele><time>2026-05-03T15:51:09.999Z</time></trkpt><trkpt lat="44.33784762372761" lon="7.372871693776282"><ele>801.25</ele><time>2026-05-03T15:51:10.999Z</time></trkpt><trkpt lat="44.337873528895976" lon="7.373072611982903"><ele>800.0</ele><time>2026-05-03T15:51:11.999Z</time></trkpt><trkpt lat="44.337912585043206" lon="7.373288032297768"><ele>796.6666666666667</ele><time>2026-05-03T15:51:12.999Z</time></trkpt><trkpt lat="44.337961403094496" lon="7.373508253137128"><ele>793.3333333333333</ele><time>2026-05-03T15:51:13.999Z</time></trkpt><trkpt lat="44.337993331671335" lon="7.3737178145653175"><ele>790.0</ele><time>2026-05-03T15:51:14.999Z</time></trkpt><trkpt lat="44.33801788250561" lon="7.373922359723484"><ele>788.3333333333333</ele><time>2026-05-03T15:51:15.999Z</time></trkpt><trkpt lat="44.338042070098616" lon="7.374126563738051"><ele>786.6666666666667</ele><time>2026-05-03T15:51:16.999Z</time></trkpt><trkpt lat="44.33805496255225" lon="7.374330576028663"><ele>785.0</ele><time>2026-05-03T15:51:17.999Z</time></trkpt><trkpt lat="44.33803939349623" lon="7.374550527626858"><ele>784.0</ele><time>2026-05-03T15:51:18.999Z</time></trkpt><trkpt lat="44.33799761730834" lon="7.374782358826769"><ele>783.0</ele><time>2026-05-03T15:51:19.999Z</time></trkpt><trkpt lat="44.337956603457016" lon="7.375029472121013"><ele>782.0</ele><time>2026-05-03T15:51:20.999Z</time></trkpt><trkpt lat="44.33793532773791" lon="7.375253173891531"><ele>782.0</ele><time>2026-05-03T15:51:21.999Z</time></trkpt><trkpt lat="44.33789887972273" lon="7.375467342578024"><ele>782.0</ele><time>2026-05-03T15:51:22.999Z</time></trkpt><trkpt lat="44.33788354796849" lon="7.375638902484404"><ele>782.0</ele><time>2026-05-03T15:51:23.999Z</time></trkpt><trkpt lat="44.33785478108634" lon="7.375784225844493"><ele>782.0</ele><time>2026-05-03T15:51:24.999Z</time></trkpt><trkpt lat="44.337799794992854" lon="7.37589354177741"><ele>782.0</ele><time>2026-05-03T15:51:25.999Z</time></trkpt><trkpt lat="44.33773129436777" lon="7.375937350534078"><ele>782.0</ele><time>2026-05-03T15:51:26.999Z</time></trkpt><trkpt lat="44.33761211219122" lon="7.3759126186857955"><ele>782.0</ele><time>2026-05-03T15:51:27.999Z</time></trkpt><trkpt lat="44.33752920687333" lon="7.375984800374487"><ele>782.0</ele><time>2026-05-03T15:51:28.999Z</time></trkpt><trkpt lat="44.33746346750315" lon="7.37619017626907"><ele>781.75</ele><time>2026-05-03T15:51:29.998Z</time></trkpt><trkpt lat="44.33745355490383" lon="7.376371150641391"><ele>781.5</ele><time>2026-05-03T15:51:30.998Z</time></trkpt><trkpt lat="44.33742981809852" lon="7.376569477005432"><ele>781.25</ele><time>2026-05-03T15:51:31.998Z</time></trkpt><trkpt lat="44.33743500814492" lon="7.376782715578881"><ele>781.0</ele><time>2026-05-03T15:51:32.998Z</time></trkpt><trkpt lat="44.33738811774369" lon="7.377001200769303"><ele>781.0</ele><time>2026-05-03T15:51:33.998Z</time></trkpt><trkpt lat="44.337331847776866" lon="7.3771821804290525"><ele>781.0</ele><time>2026-05-03T15:51:34.998Z</time></trkpt><trkpt lat="44.337242794060266" lon="7.377320536013564"><ele>781.0</ele><time>2026-05-03T15:51:35.998Z</time></trkpt><trkpt lat="44.337146143456025" lon="7.377464216435538"><ele>781.0</ele><time>2026-05-03T15:51:36.998Z</time></trkpt><trkpt lat="44.337002641553944" lon="7.37747359507322"><ele>781.25</ele><time>2026-05-03T15:51:37.998Z</time></trkpt><trkpt lat="44.3368609894436" lon="7.377508697821504"><ele>781.5</ele><time>2026-05-03T15:51:38.998Z</time></trkpt><trkpt lat="44.33672277381173" lon="7.3775560407535306"><ele>781.75</ele><time>2026-05-03T15:51:40Z</time></trkpt><trkpt lat="44.33658415115976" lon="7.377661412750526"><ele>782.0</ele><time>2026-05-03T15:51:41Z</time></trkpt><trkpt lat="44.33646249152068" lon="7.377761469089638"><ele>782.0</ele><time>2026-05-03T15:51:42Z</time></trkpt><trkpt lat="44.33640322417369" lon="7.3779357788071405"><ele>782.0</ele><time>2026-05-03T15:51:43Z</time></trkpt><trkpt lat="44.33634951563856" lon="7.3781160441417875"><ele>782.0</ele><time>2026-05-03T15:51:44Z</time></trkpt><trkpt lat="44.33631000839041" lon="7.378303410139964"><ele>782.0</ele><time>2026-05-03T15:51:45Z</time></trkpt><trkpt lat="44.33631645636634" lon="7.378518502280881"><ele>787.0</ele><time>2026-05-03T15:51:46Z</time></trkpt><trkpt lat="44.33634776022758" lon="7.378737246881238"><ele>792.0</ele><time>2026-05-03T15:51:47Z</time></trkpt><trkpt lat="44.33636957795916" lon="7.378979163183564"><ele>797.0</ele><time>2026-05-03T15:51:48Z</time></trkpt><trkpt lat="44.33638519084793" lon="7.379216869380156"><ele>792.3333333333334</ele><time>2026-05-03T15:51:49Z</time></trkpt><trkpt lat="44.336396427428966" lon="7.3794350528218535"><ele>787.6666666666667</ele><time>2026-05-03T15:51:50Z</time></trkpt><trkpt lat="44.33642649598476" lon="7.379679637556432"><ele>783.0</ele><time>2026-05-03T15:51:51Z</time></trkpt><trkpt lat="44.336495651854484" lon="7.379863380055009"><ele>783.0</ele><time>2026-05-03T15:51:52Z</time></trkpt><trkpt lat="44.33660225886326" lon="7.380033531977029"><ele>783.0</ele><time>2026-05-03T15:51:53Z</time></trkpt><trkpt lat="44.33672777117919" lon="7.380160106926804"><ele>783.0</ele><time>2026-05-03T15:51:54Z</time></trkpt><trkpt lat="44.336762682712994" lon="7.380308381947523"><ele>783.0</ele><time>2026-05-03T15:51:55Z</time></trkpt><trkpt lat="44.33678895299384" lon="7.380478900625262"><ele>783.25</ele><time>2026-05-03T15:51:56Z</time></trkpt><trkpt lat="44.33675380212285" lon="7.38064667238484"><ele>783.5</ele><time>2026-05-03T15:51:57Z</time></trkpt><trkpt lat="44.33675934336748" lon="7.380823374940744"><ele>783.75</ele><time>2026-05-03T15:51:58Z</time></trkpt><trkpt lat="44.336741122229945" lon="7.380974984363424"><ele>784.0</ele><time>2026-05-03T15:51:59Z</time></trkpt><trkpt lat="44.33670450936814" lon="7.381087732519142"><ele>784.0</ele><time>2026-05-03T15:52:00Z</time></trkpt><trkpt lat="44.33664951412343" lon="7.381147940416265"><ele>784.0</ele><time>2026-05-03T15:52:01Z</time></trkpt><trkpt lat="44.33657170766698" lon="7.381212446613073"><ele>784.0</ele><time>2026-05-03T15:52:02Z</time></trkpt><trkpt lat="44.33647158210334" lon="7.381264640694046"><ele>784.0</ele><time>2026-05-03T15:52:03Z</time></trkpt><trkpt lat="44.33634219777721" lon="7.3813281115025955"><ele>784.0</ele><time>2026-05-03T15:52:04Z</time></trkpt><trkpt lat="44.336205059558125" lon="7.381394454491025"><ele>781.0</ele><time>2026-05-03T15:52:05Z</time></trkpt><trkpt lat="44.33607355414469" lon="7.381455895129914"><ele>778.0</ele><time>2026-05-03T15:52:06Z</time></trkpt><trkpt lat="44.33594734220758" lon="7.381512753788557"><ele>775.0</ele><time>2026-05-03T15:52:07Z</time></trkpt><trkpt lat="44.335830403541095" lon="7.381571499960085"><ele>772.0</ele><time>2026-05-03T15:52:08Z</time></trkpt><trkpt lat="44.33573284320778" lon="7.381651653599952"><ele>772.0</ele><time>2026-05-03T15:52:09Z</time></trkpt><trkpt lat="44.33565531119728" lon="7.381745268520667"><ele>772.0</ele><time>2026-05-03T15:52:10Z</time></trkpt><trkpt lat="44.335594292487684" lon="7.381902289755525"><ele>772.0</ele><time>2026-05-03T15:52:11Z</time></trkpt><trkpt lat="44.33556449168559" lon="7.3820890200783476"><ele>772.0</ele><time>2026-05-03T15:52:12Z</time></trkpt><trkpt lat="44.33551008359883" lon="7.382290604168259"><ele>779.0</ele><time>2026-05-03T15:52:13Z</time></trkpt><trkpt lat="44.335466722739675" lon="7.382510819357184"><ele>786.0</ele><time>2026-05-03T15:52:14Z</time></trkpt><trkpt lat="44.335453673953396" lon="7.382752992289584"><ele>793.0</ele><time>2026-05-03T15:52:15Z</time></trkpt><trkpt lat="44.335439996533765" lon="7.382981703969179"><ele>790.3333333333333</ele><time>2026-05-03T15:52:16Z</time></trkpt><trkpt lat="44.335448553149774" lon="7.383211212485992"><ele>787.6666666666667</ele><time>2026-05-03T15:52:17Z</time></trkpt><trkpt lat="44.33545152163022" lon="7.38344904086865"><ele>785.0</ele><time>2026-05-03T15:52:18Z</time></trkpt><trkpt lat="44.33544997999573" lon="7.383678088517828"><ele>783.0</ele><time>2026-05-03T15:52:19Z</time></trkpt><trkpt lat="44.33544953582869" lon="7.383918981566546"><ele>781.0</ele><time>2026-05-03T15:52:20Z</time></trkpt><trkpt lat="44.3354468993441" lon="7.384151933272591"><ele>779.0</ele><time>2026-05-03T15:52:21Z</time></trkpt><trkpt lat="44.33544595513689" lon="7.384366344251717"><ele>779.0</ele><time>2026-05-03T15:52:22Z</time></trkpt><trkpt lat="44.33543388616659" lon="7.384567818662478"><ele>779.0</ele><time>2026-05-03T15:52:23Z</time></trkpt><trkpt lat="44.335423883021285" lon="7.384750065682041"><ele>779.0</ele><time>2026-05-03T15:52:24Z</time></trkpt><trkpt lat="44.335397015497925" lon="7.384914784620008"><ele>779.0</ele><time>2026-05-03T15:52:25Z</time></trkpt><trkpt lat="44.33533655800456" lon="7.385065403774949"><ele>778.25</ele><time>2026-05-03T15:52:26Z</time></trkpt><trkpt lat="44.33524459688847" lon="7.3851789429753545"><ele>777.5</ele><time>2026-05-03T15:52:27Z</time></trkpt><trkpt lat="44.33511990663067" lon="7.385290324062955"><ele>776.75</ele><time>2026-05-03T15:52:28Z</time></trkpt><trkpt lat="44.334971867004064" lon="7.3853960454427945"><ele>776.0</ele><time>2026-05-03T15:52:29Z</time></trkpt><trkpt lat="44.33480844671509" lon="7.38551362523908"><ele>772.0</ele><time>2026-05-03T15:52:30Z</time></trkpt><trkpt lat="44.334649296456135" lon="7.385631826736949"><ele>768.0</ele><time>2026-05-03T15:52:31Z</time></trkpt><trkpt lat="44.334501752392676" lon="7.3857432514570345"><ele>764.0</ele><time>2026-05-03T15:52:32Z</time></trkpt><trkpt lat="44.334358943238016" lon="7.385851100529224"><ele>764.0</ele><time>2026-05-03T15:52:33Z</time></trkpt><trkpt lat="44.33423791824803" lon="7.385940666627415"><ele>764.0</ele><time>2026-05-03T15:52:34Z</time></trkpt><trkpt lat="44.334120443354045" lon="7.386013002824074"><ele>764.0</ele><time>2026-05-03T15:52:35Z</time></trkpt><trkpt lat="44.33400400852748" lon="7.386045342936469"><ele>764.0</ele><time>2026-05-03T15:52:36Z</time></trkpt><trkpt lat="44.33388817017708" lon="7.38601781696228"><ele>764.6</ele><time>2026-05-03T15:52:37Z</time></trkpt><trkpt lat="44.333781762288176" lon="7.3860034183038"><ele>765.2</ele><time>2026-05-03T15:52:38Z</time></trkpt><trkpt lat="44.33369699270431" lon="7.3860016062505585"><ele>765.8000000000001</ele><time>2026-05-03T15:52:39Z</time></trkpt><trkpt lat="44.33362505692663" lon="7.38602548615414"><ele>766.4000000000001</ele><time>2026-05-03T15:52:40Z</time></trkpt><trkpt lat="44.333571627233475" lon="7.3861496211241295"><ele>767.0</ele><time>2026-05-03T15:52:41Z</time></trkpt><trkpt lat="44.333566880897266" lon="7.386283705719746"><ele>762.75</ele><time>2026-05-03T15:52:41.999Z</time></trkpt><trkpt lat="44.333650691804685" lon="7.386413951421626"><ele>758.5</ele><time>2026-05-03T15:52:42.999Z</time></trkpt><trkpt lat="44.33376851150397" lon="7.386449188515029"><ele>754.25</ele><time>2026-05-03T15:52:43.999Z</time></trkpt><trkpt lat="44.33389811228146" lon="7.386431413000917"><ele>750.0</ele><time>2026-05-03T15:52:44.999Z</time></trkpt><trkpt lat="44.33404674050559" lon="7.386450527430221"><ele>749.3333333333334</ele><time>2026-05-03T15:52:45.999Z</time></trkpt><trkpt lat="44.33420741059418" lon="7.386431642574755"><ele>748.6666666666667</ele><time>2026-05-03T15:52:46.999Z</time></trkpt><trkpt lat="44.33438033893385" lon="7.386429804711913"><ele>748.0</ele><time>2026-05-03T15:52:47.999Z</time></trkpt><trkpt lat="44.33455509371812" lon="7.386431762712335"><ele>748.0</ele><time>2026-05-03T15:52:48.999Z</time></trkpt><trkpt lat="44.334715864704656" lon="7.386433933547244"><ele>748.0</ele><time>2026-05-03T15:52:49.999Z</time></trkpt><trkpt lat="44.33485124067871" lon="7.386441297321033"><ele>748.0</ele><time>2026-05-03T15:52:50.999Z</time></trkpt><trkpt lat="44.3349827595522" lon="7.386472723460623"><ele>748.0</ele><time>2026-05-03T15:52:51.999Z</time></trkpt><trkpt lat="44.335093481041035" lon="7.386550913812365"><ele>748.0</ele><time>2026-05-03T15:52:52.999Z</time></trkpt><trkpt lat="44.33516407116228" lon="7.386692490549915"><ele>748.0</ele><time>2026-05-03T15:52:53.999Z</time></trkpt><trkpt lat="44.33520176766854" lon="7.38685410466493"><ele>748.0</ele><time>2026-05-03T15:52:54.999Z</time></trkpt><trkpt lat="44.33520185309167" lon="7.3870146413280215"><ele>748.0</ele><time>2026-05-03T15:52:55.999Z</time></trkpt><trkpt lat="44.33516342999445" lon="7.387158871153192"><ele>746.75</ele><time>2026-05-03T15:52:56.999Z</time></trkpt><trkpt lat="44.3350973348467" lon="7.387283807273368"><ele>745.5</ele><time>2026-05-03T15:52:57.999Z</time></trkpt><trkpt lat="44.33500171281015" lon="7.387381507941689"><ele>744.25</ele><time>2026-05-03T15:52:58.999Z</time></trkpt><trkpt lat="44.33487973033884" lon="7.3874159958002705"><ele>743.0</ele><time>2026-05-03T15:52:59.999Z</time></trkpt><trkpt lat="44.33472556769634" lon="7.387436109358563"><ele>743.3333333333333</ele><time>2026-05-03T15:53:00.999Z</time></trkpt><trkpt lat="44.33455403713944" lon="7.387439332881024"><ele>743.6666666666666</ele><time>2026-05-03T15:53:01.999Z</time></trkpt><trkpt lat="44.33437832865707" lon="7.387446640613322"><ele>744.0</ele><time>2026-05-03T15:53:02.999Z</time></trkpt><trkpt lat="44.33420399230564" lon="7.3874754870503825"><ele>744.0</ele><time>2026-05-03T15:53:03.999Z</time></trkpt><trkpt lat="44.33401851324517" lon="7.387556420176489"><ele>744.0</ele><time>2026-05-03T15:53:04.999Z</time></trkpt><trkpt lat="44.33386147888527" lon="7.387656045534884"><ele>744.0</ele><time>2026-05-03T15:53:05.999Z</time></trkpt><trkpt lat="44.333711943136535" lon="7.3877519405673056"><ele>744.0</ele><time>2026-05-03T15:53:06.999Z</time></trkpt><trkpt lat="44.333569021361825" lon="7.387844509890477"><ele>744.0</ele><time>2026-05-03T15:53:07.999Z</time></trkpt><trkpt lat="44.33343200642796" lon="7.387938212152304"><ele>744.0</ele><time>2026-05-03T15:53:08.999Z</time></trkpt><trkpt lat="44.333298671895186" lon="7.388057309176287"><ele>744.0</ele><time>2026-05-03T15:53:09.999Z</time></trkpt><trkpt lat="44.33318627505938" lon="7.388218471547008"><ele>744.0</ele><time>2026-05-03T15:53:10.999Z</time></trkpt><trkpt lat="44.333101651472404" lon="7.388408507107034"><ele>744.0</ele><time>2026-05-03T15:53:11.999Z</time></trkpt><trkpt lat="44.33306634262077" lon="7.38862521601962"><ele>745.3333333333334</ele><time>2026-05-03T15:53:12.999Z</time></trkpt><trkpt lat="44.333080484785924" lon="7.388847644082114"><ele>746.6666666666667</ele><time>2026-05-03T15:53:13.999Z</time></trkpt><trkpt lat="44.33311017688292" lon="7.38908442998784"><ele>748.0</ele><time>2026-05-03T15:53:14.999Z</time></trkpt><trkpt lat="44.33314960991025" lon="7.389320173212308"><ele>748.0</ele><time>2026-05-03T15:53:15.999Z</time></trkpt><trkpt lat="44.33311083253768" lon="7.389542041557029"><ele>748.0</ele><time>2026-05-03T15:53:16.999Z</time></trkpt><trkpt lat="44.33306383241329" lon="7.389781072545246"><ele>748.0</ele><time>2026-05-03T15:53:17.999Z</time></trkpt><trkpt lat="44.33300313939875" lon="7.3900438022306005"><ele>742.0</ele><time>2026-05-03T15:53:18.999Z</time></trkpt><trkpt lat="44.332951360210245" lon="7.390288634008224"><ele>736.0</ele><time>2026-05-03T15:53:19.999Z</time></trkpt><trkpt lat="44.332903729777776" lon="7.390506385974496"><ele>730.0</ele><time>2026-05-03T15:53:20.999Z</time></trkpt><trkpt lat="44.33285376212641" lon="7.390725134317086"><ele>730.0</ele><time>2026-05-03T15:53:21.999Z</time></trkpt><trkpt lat="44.33280073725545" lon="7.390944462592087"><ele>730.0</ele><time>2026-05-03T15:53:22.999Z</time></trkpt><trkpt lat="44.33273859638507" lon="7.391157039843174"><ele>730.0</ele><time>2026-05-03T15:53:23.999Z</time></trkpt><trkpt lat="44.33267532058178" lon="7.391357367136841"><ele>731.0</ele><time>2026-05-03T15:53:24.999Z</time></trkpt><trkpt lat="44.33262319793555" lon="7.391566487307655"><ele>732.0</ele><time>2026-05-03T15:53:25.999Z</time></trkpt><trkpt lat="44.33258542550496" lon="7.3918030397880825"><ele>733.0</ele><time>2026-05-03T15:53:26.999Z</time></trkpt><trkpt lat="44.33257709886387" lon="7.392070502547242"><ele>731.6666666666667</ele><time>2026-05-03T15:53:27.999Z</time></trkpt><trkpt lat="44.332604049407216" lon="7.3923298463518785"><ele>730.3333333333334</ele><time>2026-05-03T15:53:28.999Z</time></trkpt><trkpt lat="44.332611850206206" lon="7.392570581830186"><ele>729.0</ele><time>2026-05-03T15:53:29.999Z</time></trkpt><trkpt lat="44.332644433316716" lon="7.392788875656699"><ele>729.0</ele><time>2026-05-03T15:53:30.999Z</time></trkpt><trkpt lat="44.33265003979851" lon="7.392982184766254"><ele>729.0</ele><time>2026-05-03T15:53:31.999Z</time></trkpt><trkpt lat="44.33266919613701" lon="7.393153818213215"><ele>729.0</ele><time>2026-05-03T15:53:32.998Z</time></trkpt><trkpt lat="44.33272126187893" lon="7.393297026667263"><ele>729.0</ele><time>2026-05-03T15:53:33.998Z</time></trkpt><trkpt lat="44.332823243762675" lon="7.393416899658808"><ele>728.2</ele><time>2026-05-03T15:53:34.998Z</time></trkpt><trkpt lat="44.33292626333467" lon="7.393512087526383"><ele>727.4000000000001</ele><time>2026-05-03T15:53:35.998Z</time></trkpt><trkpt lat="44.3329935435822" lon="7.393589903552753"><ele>726.6</ele><time>2026-05-03T15:53:36.998Z</time></trkpt><trkpt lat="44.33300709579887" lon="7.393711455016846"><ele>725.8</ele><time>2026-05-03T15:53:37.998Z</time></trkpt><trkpt lat="44.3329511168084" lon="7.393854633474269"><ele>725.0</ele><time>2026-05-03T15:53:38.998Z</time></trkpt><trkpt lat="44.332845401287855" lon="7.393974578436852"><ele>723.6666666666666</ele><time>2026-05-03T15:53:39.998Z</time></trkpt><trkpt lat="44.3327568393408" lon="7.394154290736076"><ele>722.3333333333334</ele><time>2026-05-03T15:53:40.998Z</time></trkpt><trkpt lat="44.33269428340833" lon="7.394325180682983"><ele>721.0</ele><time>2026-05-03T15:53:41.998Z</time></trkpt><trkpt lat="44.33267921150864" lon="7.394547076013897"><ele>721.3333333333334</ele><time>2026-05-03T15:53:42.998Z</time></trkpt><trkpt lat="44.33267733393207" lon="7.39478484259246"><ele>721.6666666666666</ele><time>2026-05-03T15:53:43.998Z</time></trkpt><trkpt lat="44.33265443159337" lon="7.395039157458967"><ele>722.0</ele><time>2026-05-03T15:53:44.998Z</time></trkpt><trkpt lat="44.332644847581555" lon="7.395309027609313"><ele>722.0</ele><time>2026-05-03T15:53:46Z</time></trkpt><trkpt lat="44.33263929895385" lon="7.395574874696121"><ele>722.0</ele><time>2026-05-03T15:53:47Z</time></trkpt><trkpt lat="44.332639159054125" lon="7.395820355348976"><ele>722.0</ele><time>2026-05-03T15:53:48Z</time></trkpt><trkpt lat="44.33263111039793" lon="7.396052799148415"><ele>722.0</ele><time>2026-05-03T15:53:49Z</time></trkpt><trkpt lat="44.33261784403654" lon="7.396284400307504"><ele>722.0</ele><time>2026-05-03T15:53:50Z</time></trkpt><trkpt lat="44.33259988724795" lon="7.396538997821879"><ele>722.0</ele><time>2026-05-03T15:53:51Z</time></trkpt><trkpt lat="44.332582317262705" lon="7.396809151620263"><ele>720.6666666666666</ele><time>2026-05-03T15:53:52Z</time></trkpt><trkpt lat="44.33256693120452" lon="7.397065398591014"><ele>719.3333333333334</ele><time>2026-05-03T15:53:53Z</time></trkpt><trkpt lat="44.33255564451102" lon="7.3973022902802965"><ele>718.0</ele><time>2026-05-03T15:53:54Z</time></trkpt><trkpt lat="44.33252464615213" lon="7.397529742568701"><ele>717.3333333333334</ele><time>2026-05-03T15:53:55Z</time></trkpt><trkpt lat="44.33250790452567" lon="7.397750724429836"><ele>716.6666666666666</ele><time>2026-05-03T15:53:56Z</time></trkpt><trkpt lat="44.3325087197098" lon="7.397971126638925"><ele>716.0</ele><time>2026-05-03T15:53:57Z</time></trkpt><trkpt lat="44.33248013300429" lon="7.398178830841824"><ele>715.8</ele><time>2026-05-03T15:53:58Z</time></trkpt><trkpt lat="44.33246990996009" lon="7.398376663732272"><ele>715.5999999999999</ele><time>2026-05-03T15:53:59Z</time></trkpt><trkpt lat="44.3324593069854" lon="7.398543304527668"><ele>715.4</ele><time>2026-05-03T15:54:00Z</time></trkpt><trkpt lat="44.3324485035541" lon="7.39868279884324"><ele>715.2</ele><time>2026-05-03T15:54:01Z</time></trkpt><trkpt lat="44.332447337985485" lon="7.398800407856178"><ele>715.0</ele><time>2026-05-03T15:54:02Z</time></trkpt><trkpt lat="44.33242669810527" lon="7.398892059660064"><ele>714.1666666666667</ele><time>2026-05-03T15:54:03Z</time></trkpt><trkpt lat="44.33237312109819" lon="7.398986734128905"><ele>713.3333333333334</ele><time>2026-05-03T15:54:05Z</time></trkpt><trkpt lat="44.332366956501524" lon="7.39910851305681"><ele>712.5</ele><time>2026-05-03T15:54:07Z</time></trkpt><trkpt lat="44.332351908811845" lon="7.399203275734849"><ele>711.6666666666666</ele><time>2026-05-03T15:54:08Z</time></trkpt><trkpt lat="44.33232901570386" lon="7.399292266287474"><ele>710.8333333333333</ele><time>2026-05-03T15:54:09Z</time></trkpt><trkpt lat="44.332359148792676" lon="7.399428788415388"><ele>710.0</ele><time>2026-05-03T15:54:10Z</time></trkpt><trkpt lat="44.332380702644286" lon="7.399586290766154"><ele>709.25</ele><time>2026-05-03T15:54:11Z</time></trkpt><trkpt lat="44.33240245087539" lon="7.399762580348777"><ele>708.5</ele><time>2026-05-03T15:54:12Z</time></trkpt><trkpt lat="44.332433555002396" lon="7.399949446538534"><ele>707.75</ele><time>2026-05-03T15:54:13Z</time></trkpt><trkpt lat="44.33246450183477" lon="7.400152620681458"><ele>707.0</ele><time>2026-05-03T15:54:14Z</time></trkpt><trkpt lat="44.33249314674672" lon="7.400363809492573"><ele>706.0</ele><time>2026-05-03T15:54:15Z</time></trkpt><trkpt lat="44.33252166897565" lon="7.400565547126087"><ele>705.0</ele><time>2026-05-03T15:54:16Z</time></trkpt><trkpt lat="44.33255559014204" lon="7.400770459920459"><ele>704.0</ele><time>2026-05-03T15:54:17Z</time></trkpt><trkpt lat="44.332590306316085" lon="7.4009936517510875"><ele>704.0</ele><time>2026-05-03T15:54:18Z</time></trkpt><trkpt lat="44.33262700450499" lon="7.401219912165335"><ele>704.0</ele><time>2026-05-03T15:54:19Z</time></trkpt><trkpt lat="44.332664134425556" lon="7.4014444102250305"><ele>704.0</ele><time>2026-05-03T15:54:20Z</time></trkpt><trkpt lat="44.332696267867256" lon="7.401666525630063"><ele>703.3333333333333</ele><time>2026-05-03T15:54:21Z</time></trkpt><trkpt lat="44.33272787049538" lon="7.401893703554654"><ele>702.6666666666666</ele><time>2026-05-03T15:54:22Z</time></trkpt><trkpt lat="44.332764256718036" lon="7.402116517752148"><ele>702.0</ele><time>2026-05-03T15:54:23Z</time></trkpt><trkpt lat="44.332798992035976" lon="7.402334478692235"><ele>701.0</ele><time>2026-05-03T15:54:24Z</time></trkpt><trkpt lat="44.332830447858306" lon="7.402558475470258"><ele>700.0</ele><time>2026-05-03T15:54:25Z</time></trkpt><trkpt lat="44.332861363459294" lon="7.402782776033312"><ele>699.0</ele><time>2026-05-03T15:54:26Z</time></trkpt><trkpt lat="44.33289938125092" lon="7.403013972354349"><ele>699.0</ele><time>2026-05-03T15:54:27Z</time></trkpt><trkpt lat="44.33293614970981" lon="7.403238647100499"><ele>699.0</ele><time>2026-05-03T15:54:28Z</time></trkpt><trkpt lat="44.33297104970667" lon="7.403461280460337"><ele>699.0</ele><time>2026-05-03T15:54:29Z</time></trkpt><trkpt lat="44.333002159407506" lon="7.40368144322683"><ele>699.0</ele><time>2026-05-03T15:54:30Z</time></trkpt><trkpt lat="44.33303814060303" lon="7.403917478913156"><ele>699.0</ele><time>2026-05-03T15:54:31Z</time></trkpt><trkpt lat="44.333077063262216" lon="7.404160709522624"><ele>699.0</ele><time>2026-05-03T15:54:32Z</time></trkpt><trkpt lat="44.33311635946079" lon="7.404402822527729"><ele>699.3333333333334</ele><time>2026-05-03T15:54:33Z</time></trkpt><trkpt lat="44.333152457024816" lon="7.404641173856095"><ele>699.6666666666667</ele><time>2026-05-03T15:54:34Z</time></trkpt><trkpt lat="44.33318514113215" lon="7.404875156560405"><ele>700.0</ele><time>2026-05-03T15:54:35Z</time></trkpt><trkpt lat="44.33321828958751" lon="7.405114971140711"><ele>699.6666666666667</ele><time>2026-05-03T15:54:36Z</time></trkpt><trkpt lat="44.3332514552118" lon="7.405341416713593"><ele>699.3333333333334</ele><time>2026-05-03T15:54:37Z</time></trkpt><trkpt lat="44.33328395402581" lon="7.405568546645189"><ele>699.0</ele><time>2026-05-03T15:54:38Z</time></trkpt><trkpt lat="44.33332411828284" lon="7.405804888614796"><ele>699.0</ele><time>2026-05-03T15:54:39Z</time></trkpt><trkpt lat="44.33337216763547" lon="7.406033081166451"><ele>699.0</ele><time>2026-05-03T15:54:40Z</time></trkpt><trkpt lat="44.33343333824261" lon="7.4062479683451325"><ele>699.0</ele><time>2026-05-03T15:54:41Z</time></trkpt><trkpt lat="44.333505405484274" lon="7.4064482269661465"><ele>698.3333333333334</ele><time>2026-05-03T15:54:42Z</time></trkpt><trkpt lat="44.333596008619885" lon="7.406644856706269"><ele>697.6666666666667</ele><time>2026-05-03T15:54:43Z</time></trkpt><trkpt lat="44.33370519785015" lon="7.4068490611825615"><ele>697.0</ele><time>2026-05-03T15:54:44Z</time></trkpt><trkpt lat="44.33383058220382" lon="7.407057170385305"><ele>696.3333333333334</ele><time>2026-05-03T15:54:45Z</time></trkpt><trkpt lat="44.33396391618905" lon="7.407266078459885"><ele>695.6666666666666</ele><time>2026-05-03T15:54:46Z</time></trkpt><trkpt lat="44.33408632245554" lon="7.407458388126111"><ele>695.0</ele><time>2026-05-03T15:54:47Z</time></trkpt><trkpt lat="44.33420456509084" lon="7.407637528429873"><ele>695.0</ele><time>2026-05-03T15:54:47.999Z</time></trkpt><trkpt lat="44.33431955116152" lon="7.40780632385194"><ele>695.0</ele><time>2026-05-03T15:54:48.999Z</time></trkpt><trkpt lat="44.33443215736993" lon="7.407966779264764"><ele>695.0</ele><time>2026-05-03T15:54:49.999Z</time></trkpt><trkpt lat="44.3345467132814" lon="7.408127555485933"><ele>695.0</ele><time>2026-05-03T15:54:50.999Z</time></trkpt><trkpt lat="44.33466149190095" lon="7.408297132697099"><ele>695.0</ele><time>2026-05-03T15:54:51.999Z</time></trkpt><trkpt lat="44.334772112186656" lon="7.408454722820124"><ele>695.0</ele><time>2026-05-03T15:54:52.999Z</time></trkpt><trkpt lat="44.33488538060681" lon="7.408613256352945"><ele>694.3333333333333</ele><time>2026-05-03T15:54:53.999Z</time></trkpt><trkpt lat="44.335004695502974" lon="7.408775444819282"><ele>693.6666666666666</ele><time>2026-05-03T15:54:54.999Z</time></trkpt><trkpt lat="44.335114026901635" lon="7.408936849128315"><ele>693.0</ele><time>2026-05-03T15:54:55.999Z</time></trkpt><trkpt lat="44.33522029450874" lon="7.409088172568495"><ele>693.0</ele><time>2026-05-03T15:54:56.999Z</time></trkpt><trkpt lat="44.335324778005806" lon="7.409234512332096"><ele>693.0</ele><time>2026-05-03T15:54:57.999Z</time></trkpt><trkpt lat="44.33542744411463" lon="7.409382459486803"><ele>693.0</ele><time>2026-05-03T15:54:58.999Z</time></trkpt><trkpt lat="44.335528771435094" lon="7.409526441623539"><ele>693.0</ele><time>2026-05-03T15:54:59.999Z</time></trkpt><trkpt lat="44.335624391122636" lon="7.40966772888682"><ele>692.3333333333334</ele><time>2026-05-03T15:55:00.999Z</time></trkpt><trkpt lat="44.33571495360541" lon="7.409816376014181"><ele>691.6666666666667</ele><time>2026-05-03T15:55:01.999Z</time></trkpt><trkpt lat="44.335810141021845" lon="7.4099894095251715"><ele>691.0</ele><time>2026-05-03T15:55:02.999Z</time></trkpt><trkpt lat="44.3358842088267" lon="7.410192864489392"><ele>691.0</ele><time>2026-05-03T15:55:03.999Z</time></trkpt><trkpt lat="44.33596609307923" lon="7.41041507516318"><ele>691.0</ele><time>2026-05-03T15:55:04.999Z</time></trkpt><trkpt lat="44.33605362775276" lon="7.410652619503817"><ele>691.0</ele><time>2026-05-03T15:55:05.999Z</time></trkpt><trkpt lat="44.33615628362668" lon="7.410894250243377"><ele>690.0</ele><time>2026-05-03T15:55:06.999Z</time></trkpt><trkpt lat="44.33624504553706" lon="7.411167809948366"><ele>689.0</ele><time>2026-05-03T15:55:07.999Z</time></trkpt><trkpt lat="44.336342453116224" lon="7.411453818846299"><ele>688.0</ele><time>2026-05-03T15:55:08.999Z</time></trkpt><trkpt lat="44.336435647299574" lon="7.411712933560242"><ele>687.6666666666667</ele><time>2026-05-03T15:55:09.999Z</time></trkpt><trkpt lat="44.336524886341714" lon="7.411957440304487"><ele>687.3333333333334</ele><time>2026-05-03T15:55:10.999Z</time></trkpt><trkpt lat="44.336608294215466" lon="7.412192189004574"><ele>687.0</ele><time>2026-05-03T15:55:11.999Z</time></trkpt><trkpt lat="44.33669353611861" lon="7.412412065205449"><ele>686.3333333333334</ele><time>2026-05-03T15:55:12.999Z</time></trkpt><trkpt lat="44.336777476040496" lon="7.41262850348828"><ele>685.6666666666667</ele><time>2026-05-03T15:55:13.999Z</time></trkpt><trkpt lat="44.336858799425094" lon="7.412837143577355"><ele>685.0</ele><time>2026-05-03T15:55:14.999Z</time></trkpt><trkpt lat="44.336932144026775" lon="7.413050346713122"><ele>684.3333333333334</ele><time>2026-05-03T15:55:15.999Z</time></trkpt><trkpt lat="44.33701319576176" lon="7.413262641997603"><ele>683.6666666666666</ele><time>2026-05-03T15:55:16.999Z</time></trkpt><trkpt lat="44.337095844541494" lon="7.413471322891265"><ele>683.0</ele><time>2026-05-03T15:55:17.999Z</time></trkpt><trkpt lat="44.3371690367418" lon="7.4136849753660385"><ele>683.0</ele><time>2026-05-03T15:55:18.999Z</time></trkpt><trkpt lat="44.33722447623411" lon="7.413901071499238"><ele>683.0</ele><time>2026-05-03T15:55:19.999Z</time></trkpt><trkpt lat="44.33726098852889" lon="7.414126978150661"><ele>683.0</ele><time>2026-05-03T15:55:20.999Z</time></trkpt><trkpt lat="44.33727435390523" lon="7.4143701329532155"><ele>683.0</ele><time>2026-05-03T15:55:21.999Z</time></trkpt><trkpt lat="44.3372512096977" lon="7.414624108236776"><ele>683.0</ele><time>2026-05-03T15:55:22.999Z</time></trkpt><trkpt lat="44.337192426372866" lon="7.414867110082922"><ele>683.0</ele><time>2026-05-03T15:55:23.999Z</time></trkpt><trkpt lat="44.33710862147447" lon="7.415110841591583"><ele>682.0</ele><time>2026-05-03T15:55:24.999Z</time></trkpt><trkpt lat="44.3370285909844" lon="7.415343202194637"><ele>681.0</ele><time>2026-05-03T15:55:25.999Z</time></trkpt><trkpt lat="44.33695863336679" lon="7.415565900761167"><ele>680.0</ele><time>2026-05-03T15:55:26.999Z</time></trkpt><trkpt lat="44.33688707519129" lon="7.415779977473482"><ele>678.6666666666666</ele><time>2026-05-03T15:55:27.999Z</time></trkpt><trkpt lat="44.33681569204477" lon="7.415998857865941"><ele>677.3333333333334</ele><time>2026-05-03T15:55:28.999Z</time></trkpt><trkpt lat="44.336745898327955" lon="7.416220257822514"><ele>676.0</ele><time>2026-05-03T15:55:29.999Z</time></trkpt><trkpt lat="44.336675648918956" lon="7.416430574947799"><ele>672.0</ele><time>2026-05-03T15:55:30.999Z</time></trkpt><trkpt lat="44.33660691425749" lon="7.41664072541215"><ele>668.0</ele><time>2026-05-03T15:55:31.999Z</time></trkpt><trkpt lat="44.336539333522865" lon="7.416854383328604"><ele>664.0</ele><time>2026-05-03T15:55:32.999Z</time></trkpt><trkpt lat="44.33647139478533" lon="7.417058459746282"><ele>663.0</ele><time>2026-05-03T15:55:33.999Z</time></trkpt><trkpt lat="44.33640418766462" lon="7.417261162011841"><ele>662.0</ele><time>2026-05-03T15:55:34.999Z</time></trkpt><trkpt lat="44.336338176615136" lon="7.417463999705317"><ele>661.0</ele><time>2026-05-03T15:55:35.999Z</time></trkpt><trkpt lat="44.33627283898216" lon="7.4176605314499575"><ele>663.0</ele><time>2026-05-03T15:55:36.999Z</time></trkpt><trkpt lat="44.336204261444685" lon="7.4178548588128725"><ele>665.0</ele><time>2026-05-03T15:55:37.999Z</time></trkpt><trkpt lat="44.33612778290372" lon="7.418047253789142"><ele>667.0</ele><time>2026-05-03T15:55:38.998Z</time></trkpt><trkpt lat="44.336038020528484" lon="7.4182189302458665"><ele>670.6666666666667</ele><time>2026-05-03T15:55:39.998Z</time></trkpt><trkpt lat="44.3359339496643" lon="7.41836992403602"><ele>674.3333333333334</ele><time>2026-05-03T15:55:40.998Z</time></trkpt><trkpt lat="44.33579305180145" lon="7.4184912361601105"><ele>678.0</ele><time>2026-05-03T15:55:41.998Z</time></trkpt><trkpt lat="44.33564911855117" lon="7.418614498113792"><ele>679.3333333333334</ele><time>2026-05-03T15:55:42.998Z</time></trkpt><trkpt lat="44.33551241003776" lon="7.418744590739917"><ele>680.6666666666667</ele><time>2026-05-03T15:55:43.998Z</time></trkpt><trkpt lat="44.33535777087321" lon="7.418839208291028"><ele>682.0</ele><time>2026-05-03T15:55:44.998Z</time></trkpt><trkpt lat="44.33521627551196" lon="7.418947086725712"><ele>682.0</ele><time>2026-05-03T15:55:45.998Z</time></trkpt><trkpt lat="44.33507557811941" lon="7.419078679077433"><ele>682.0</ele><time>2026-05-03T15:55:46.998Z</time></trkpt><trkpt lat="44.334934145434055" lon="7.419186563532081"><ele>682.0</ele><time>2026-05-03T15:55:47.998Z</time></trkpt><trkpt lat="44.33479120707427" lon="7.419298700825999"><ele>682.6666666666667</ele><time>2026-05-03T15:55:48.998Z</time></trkpt><trkpt lat="44.33464605444758" lon="7.419388265576102"><ele>683.3333333333334</ele><time>2026-05-03T15:55:49.998Z</time></trkpt><trkpt lat="44.33451714286176" lon="7.419520831707139"><ele>684.0</ele><time>2026-05-03T15:55:50.998Z</time></trkpt><trkpt lat="44.33441950129989" lon="7.419685215871346"><ele>686.3333333333334</ele><time>2026-05-03T15:55:52Z</time></trkpt><trkpt lat="44.334324547913" lon="7.419859163989693"><ele>688.6666666666667</ele><time>2026-05-03T15:55:53Z</time></trkpt><trkpt lat="44.33425138343634" lon="7.420064313126453"><ele>691.0</ele><time>2026-05-03T15:55:54Z</time></trkpt><trkpt lat="44.33420684483844" lon="7.420287168064201"><ele>693.0</ele><time>2026-05-03T15:55:55Z</time></trkpt><trkpt lat="44.3341853715647" lon="7.420521526588196"><ele>695.0</ele><time>2026-05-03T15:55:56Z</time></trkpt><trkpt lat="44.33418737877539" lon="7.420749779242715"><ele>697.0</ele><time>2026-05-03T15:55:57Z</time></trkpt><trkpt lat="44.33421535219179" lon="7.42098205736208"><ele>697.0</ele><time>2026-05-03T15:55:58Z</time></trkpt><trkpt lat="44.3342555650716" lon="7.421220228207258"><ele>697.0</ele><time>2026-05-03T15:55:59Z</time></trkpt><trkpt lat="44.33428498652544" lon="7.421468888403099"><ele>697.0</ele><time>2026-05-03T15:56:00Z</time></trkpt><trkpt lat="44.334324059793644" lon="7.421728045461043"><ele>698.6666666666667</ele><time>2026-05-03T15:56:01Z</time></trkpt><trkpt lat="44.33434743806286" lon="7.421994605595889"><ele>700.3333333333334</ele><time>2026-05-03T15:56:02Z</time></trkpt><trkpt lat="44.33439495722141" lon="7.422268506919278"><ele>702.0</ele><time>2026-05-03T15:56:03Z</time></trkpt><trkpt lat="44.334433188642116" lon="7.422555494578405"><ele>702.5</ele><time>2026-05-03T15:56:04Z</time></trkpt><trkpt lat="44.33447082700637" lon="7.42286385482201"><ele>703.0</ele><time>2026-05-03T15:56:05Z</time></trkpt><trkpt lat="44.33449949205196" lon="7.423183991692346"><ele>703.6666666666667</ele><time>2026-05-03T15:56:06Z</time></trkpt><trkpt lat="44.33452820293729" lon="7.423473978021136"><ele>704.3333333333334</ele><time>2026-05-03T15:56:07Z</time></trkpt><trkpt lat="44.33455870923558" lon="7.423743288404221"><ele>705.0</ele><time>2026-05-03T15:56:08Z</time></trkpt><trkpt lat="44.3345918917334" lon="7.424000442747636"><ele>705.3333333333334</ele><time>2026-05-03T15:56:09Z</time></trkpt><trkpt lat="44.33462779629494" lon="7.42426646463023"><ele>705.6666666666667</ele><time>2026-05-03T15:56:10Z</time></trkpt><trkpt lat="44.33466291322946" lon="7.42453763786885"><ele>706.0</ele><time>2026-05-03T15:56:11Z</time></trkpt><trkpt lat="44.334697376131345" lon="7.424805475403352"><ele>704.0</ele><time>2026-05-03T15:56:12Z</time></trkpt><trkpt lat="44.334733760547" lon="7.425069267825232"><ele>702.0</ele><time>2026-05-03T15:56:13Z</time></trkpt><trkpt lat="44.33476990559473" lon="7.42533800704265"><ele>700.0</ele><time>2026-05-03T15:56:14Z</time></trkpt><trkpt lat="44.33480304111453" lon="7.425620626370769"><ele>700.0</ele><time>2026-05-03T15:56:15Z</time></trkpt><trkpt lat="44.33483785067546" lon="7.4259060010439555"><ele>700.0</ele><time>2026-05-03T15:56:16Z</time></trkpt><trkpt lat="44.33486988650132" lon="7.426196375265613"><ele>700.0</ele><time>2026-05-03T15:56:17Z</time></trkpt><trkpt lat="44.33490495403454" lon="7.426500265046483"><ele>699.6666666666667</ele><time>2026-05-03T15:56:18Z</time></trkpt><trkpt lat="44.33494497846175" lon="7.426820366741066"><ele>699.3333333333334</ele><time>2026-05-03T15:56:19Z</time></trkpt><trkpt lat="44.334981968008925" lon="7.427111785183093"><ele>699.0</ele><time>2026-05-03T15:56:20Z</time></trkpt><trkpt lat="44.33501699695262" lon="7.4273886690502335"><ele>698.3333333333334</ele><time>2026-05-03T15:56:21Z</time></trkpt><trkpt lat="44.335053128557256" lon="7.427670581520872"><ele>697.6666666666667</ele><time>2026-05-03T15:56:22Z</time></trkpt><trkpt lat="44.3350924350855" lon="7.427968731701821"><ele>697.0</ele><time>2026-05-03T15:56:23Z</time></trkpt><trkpt lat="44.33512964779164" lon="7.428272980320275"><ele>697.0</ele><time>2026-05-03T15:56:24Z</time></trkpt><trkpt lat="44.33516584014812" lon="7.4285777983991945"><ele>697.0</ele><time>2026-05-03T15:56:25Z</time></trkpt><trkpt lat="44.33519713613257" lon="7.428873967464511"><ele>697.0</ele><time>2026-05-03T15:56:26Z</time></trkpt><trkpt lat="44.33521342763438" lon="7.429163449734301"><ele>697.3333333333334</ele><time>2026-05-03T15:56:27Z</time></trkpt><trkpt lat="44.335209803633404" lon="7.429450065521239"><ele>697.6666666666666</ele><time>2026-05-03T15:56:28Z</time></trkpt><trkpt lat="44.3351890414849" lon="7.429736999661522"><ele>698.0</ele><time>2026-05-03T15:56:29Z</time></trkpt><trkpt lat="44.335150403311765" lon="7.430021990696778"><ele>698.0</ele><time>2026-05-03T15:56:30Z</time></trkpt><trkpt lat="44.33510499425235" lon="7.430296523985605"><ele>698.0</ele><time>2026-05-03T15:56:31Z</time></trkpt><trkpt lat="44.335063378014475" lon="7.430553704551544"><ele>698.0</ele><time>2026-05-03T15:56:32Z</time></trkpt><trkpt lat="44.33502582034187" lon="7.430797959866822"><ele>697.3333333333333</ele><time>2026-05-03T15:56:33Z</time></trkpt><trkpt lat="44.33498801401817" lon="7.431047718114021"><ele>696.6666666666666</ele><time>2026-05-03T15:56:34Z</time></trkpt><trkpt lat="44.3349527634531" lon="7.431298273953429"><ele>696.0</ele><time>2026-05-03T15:56:35Z</time></trkpt><trkpt lat="44.33491369525788" lon="7.431542967953145"><ele>695.6666666666666</ele><time>2026-05-03T15:56:36Z</time></trkpt><trkpt lat="44.33487887368277" lon="7.431783841268164"><ele>695.3333333333333</ele><time>2026-05-03T15:56:37Z</time></trkpt><trkpt lat="44.33482332702436" lon="7.4320294401239035"><ele>695.0</ele><time>2026-05-03T15:56:38Z</time></trkpt><trkpt lat="44.334796990422014" lon="7.432285305611449"><ele>695.0</ele><time>2026-05-03T15:56:39Z</time></trkpt><trkpt lat="44.334758080333806" lon="7.432533187404993"><ele>695.0</ele><time>2026-05-03T15:56:40Z</time></trkpt><trkpt lat="44.33470563975897" lon="7.4327764557338325"><ele>695.0</ele><time>2026-05-03T15:56:41Z</time></trkpt><trkpt lat="44.33466671834343" lon="7.433023508014291"><ele>695.0</ele><time>2026-05-03T15:56:42Z</time></trkpt><trkpt lat="44.334626582502906" lon="7.4332782687887455"><ele>695.0</ele><time>2026-05-03T15:56:43Z</time></trkpt><trkpt lat="44.33458259670201" lon="7.43355243388678"><ele>695.0</ele><time>2026-05-03T15:56:44Z</time></trkpt><trkpt lat="44.33457034034338" lon="7.433854416741415"><ele>695.0</ele><time>2026-05-03T15:56:45Z</time></trkpt><trkpt lat="44.33452553014765" lon="7.434162262920776"><ele>695.0</ele><time>2026-05-03T15:56:46Z</time></trkpt><trkpt lat="44.3344594889717" lon="7.434487076301001"><ele>694.5</ele><time>2026-05-03T15:56:47Z</time></trkpt><trkpt lat="44.334389588050605" lon="7.434826487875155"><ele>694.0</ele><time>2026-05-03T15:56:48Z</time></trkpt><trkpt lat="44.334331424408184" lon="7.435164103660649"><ele>694.0</ele><time>2026-05-03T15:56:49Z</time></trkpt><trkpt lat="44.33428613614048" lon="7.435480866162046"><ele>694.0</ele><time>2026-05-03T15:56:50Z</time></trkpt><trkpt lat="44.334240273874734" lon="7.435777370407902"><ele>694.0</ele><time>2026-05-03T15:56:51Z</time></trkpt><trkpt lat="44.3341953633355" lon="7.436058280421945"><ele>693.6666666666667</ele><time>2026-05-03T15:56:52Z</time></trkpt><trkpt lat="44.33415334596844" lon="7.436330366389113"><ele>693.3333333333334</ele><time>2026-05-03T15:56:53Z</time></trkpt><trkpt lat="44.33411585254487" lon="7.436600936290031"><ele>693.0</ele><time>2026-05-03T15:56:53.999Z</time></trkpt><trkpt lat="44.33407649471906" lon="7.436870161081343"><ele>692.0</ele><time>2026-05-03T15:56:54.999Z</time></trkpt><trkpt lat="44.33403368872599" lon="7.437137183167945"><ele>691.0</ele><time>2026-05-03T15:56:55.999Z</time></trkpt><trkpt lat="44.33398999710028" lon="7.437407560179069"><ele>690.0</ele><time>2026-05-03T15:56:56.999Z</time></trkpt><trkpt lat="44.33392238442791" lon="7.437662072698539"><ele>690.0</ele><time>2026-05-03T15:56:57.999Z</time></trkpt><trkpt lat="44.333883774937064" lon="7.43792565360548"><ele>690.0</ele><time>2026-05-03T15:56:58.999Z</time></trkpt><trkpt lat="44.333827508175865" lon="7.438173383541124"><ele>690.0</ele><time>2026-05-03T15:56:59.999Z</time></trkpt><trkpt lat="44.33376789752631" lon="7.438411621399774"><ele>690.0</ele><time>2026-05-03T15:57:00.999Z</time></trkpt><trkpt lat="44.333712616718685" lon="7.43863680773077"><ele>690.0</ele><time>2026-05-03T15:57:01.999Z</time></trkpt><trkpt lat="44.33366245819976" lon="7.438847288789734"><ele>690.0</ele><time>2026-05-03T15:57:02.999Z</time></trkpt><trkpt lat="44.3336136926943" lon="7.439034117786689"><ele>689.75</ele><time>2026-05-03T15:57:03.999Z</time></trkpt><trkpt lat="44.33356890822408" lon="7.439210098563483"><ele>689.5</ele><time>2026-05-03T15:57:04.999Z</time></trkpt><trkpt lat="44.333527676921776" lon="7.43937902687067"><ele>689.25</ele><time>2026-05-03T15:57:05.999Z</time></trkpt><trkpt lat="44.33348697469605" lon="7.439547868883838"><ele>689.0</ele><time>2026-05-03T15:57:06.999Z</time></trkpt><trkpt lat="44.33344252809604" lon="7.439723268207748"><ele>688.75</ele><time>2026-05-03T15:57:07.999Z</time></trkpt><trkpt lat="44.33339524783805" lon="7.439918474451853"><ele>688.5</ele><time>2026-05-03T15:57:08.999Z</time></trkpt><trkpt lat="44.33334887208818" lon="7.440109699176268"><ele>688.25</ele><time>2026-05-03T15:57:09.999Z</time></trkpt><trkpt lat="44.33330957057573" lon="7.440297441942129"><ele>688.0</ele><time>2026-05-03T15:57:10.999Z</time></trkpt><trkpt lat="44.33327586793736" lon="7.4404944576526075"><ele>687.3333333333334</ele><time>2026-05-03T15:57:11.999Z</time></trkpt><trkpt lat="44.33325643047456" lon="7.440708411845225"><ele>686.6666666666666</ele><time>2026-05-03T15:57:12.999Z</time></trkpt><trkpt lat="44.33325815393038" lon="7.440934873344956"><ele>686.0</ele><time>2026-05-03T15:57:13.999Z</time></trkpt><trkpt lat="44.33327018717042" lon="7.44115657778971"><ele>686.0</ele><time>2026-05-03T15:57:14.999Z</time></trkpt><trkpt lat="44.33328943724282" lon="7.441362030029442"><ele>686.0</ele><time>2026-05-03T15:57:15.999Z</time></trkpt><trkpt lat="44.33330570484862" lon="7.441551386582086"><ele>686.0</ele><time>2026-05-03T15:57:16.999Z</time></trkpt><trkpt lat="44.333319140482935" lon="7.441737097713227"><ele>686.0</ele><time>2026-05-03T15:57:17.999Z</time></trkpt><trkpt lat="44.3333343434191" lon="7.441928866008867"><ele>686.3333333333333</ele><time>2026-05-03T15:57:18.999Z</time></trkpt><trkpt lat="44.33334868869422" lon="7.442138412057932"><ele>686.6666666666666</ele><time>2026-05-03T15:57:19.999Z</time></trkpt><trkpt lat="44.33336645601282" lon="7.442355617858028"><ele>687.0</ele><time>2026-05-03T15:57:20.999Z</time></trkpt><trkpt lat="44.333384788597265" lon="7.442576172273755"><ele>687.0</ele><time>2026-05-03T15:57:21.999Z</time></trkpt><trkpt lat="44.333414789767104" lon="7.4428188714370656"><ele>687.0</ele><time>2026-05-03T15:57:22.999Z</time></trkpt><trkpt lat="44.33343583159463" lon="7.443076478560016"><ele>687.0</ele><time>2026-05-03T15:57:23.999Z</time></trkpt><trkpt lat="44.333450841440076" lon="7.4433380967431315"><ele>686.3333333333334</ele><time>2026-05-03T15:57:24.999Z</time></trkpt><trkpt lat="44.33347585268238" lon="7.443616116650436"><ele>685.6666666666667</ele><time>2026-05-03T15:57:25.999Z</time></trkpt><trkpt lat="44.33349458920611" lon="7.443887157850582"><ele>685.0</ele><time>2026-05-03T15:57:26.999Z</time></trkpt><trkpt lat="44.333510019430676" lon="7.444160492116361"><ele>684.6666666666667</ele><time>2026-05-03T15:57:27.999Z</time></trkpt><trkpt lat="44.33352632037834" lon="7.444431079871865"><ele>684.3333333333334</ele><time>2026-05-03T15:57:28.999Z</time></trkpt><trkpt lat="44.33354706677677" lon="7.444694275242323"><ele>684.0</ele><time>2026-05-03T15:57:29.999Z</time></trkpt><trkpt lat="44.33356737442248" lon="7.444957383621991"><ele>683.6666666666666</ele><time>2026-05-03T15:57:30.999Z</time></trkpt><trkpt lat="44.33359050872938" lon="7.445221713256221"><ele>683.3333333333333</ele><time>2026-05-03T15:57:31.999Z</time></trkpt><trkpt lat="44.33361711994016" lon="7.445495315885397"><ele>683.0</ele><time>2026-05-03T15:57:32.999Z</time></trkpt><trkpt lat="44.33363408027155" lon="7.445766995462544"><ele>683.0</ele><time>2026-05-03T15:57:33.999Z</time></trkpt><trkpt lat="44.33364868864252" lon="7.446029683214905"><ele>683.0</ele><time>2026-05-03T15:57:34.999Z</time></trkpt><trkpt lat="44.33367157627132" lon="7.446287991039875"><ele>683.0</ele><time>2026-05-03T15:57:35.999Z</time></trkpt><trkpt lat="44.33369425435634" lon="7.446569749788795"><ele>682.3333333333333</ele><time>2026-05-03T15:57:36.999Z</time></trkpt><trkpt lat="44.3337168661467" lon="7.446869176779394"><ele>681.6666666666666</ele><time>2026-05-03T15:57:37.999Z</time></trkpt><trkpt lat="44.33373179501535" lon="7.447167834813496"><ele>681.0</ele><time>2026-05-03T15:57:38.999Z</time></trkpt><trkpt lat="44.33375690216426" lon="7.447447499018914"><ele>681.0</ele><time>2026-05-03T15:57:39.999Z</time></trkpt><trkpt lat="44.33378109540322" lon="7.4477300523933945"><ele>681.0</ele><time>2026-05-03T15:57:40.999Z</time></trkpt><trkpt lat="44.333807200790694" lon="7.448024668690763"><ele>681.0</ele><time>2026-05-03T15:57:41.999Z</time></trkpt><trkpt lat="44.33383221880341" lon="7.448335127943289"><ele>681.5</ele><time>2026-05-03T15:57:42.999Z</time></trkpt><trkpt lat="44.33386029922437" lon="7.448666157136449"><ele>682.0</ele><time>2026-05-03T15:57:43.999Z</time></trkpt><trkpt lat="44.33387762506925" lon="7.449014940667078"><ele>681.0</ele><time>2026-05-03T15:57:44.999Z</time></trkpt><trkpt lat="44.33388642956724" lon="7.449362348678018"><ele>680.0</ele><time>2026-05-03T15:57:45.998Z</time></trkpt><trkpt lat="44.333905754240995" lon="7.449674720309996"><ele>679.6666666666666</ele><time>2026-05-03T15:57:46.998Z</time></trkpt><trkpt lat="44.333928100084336" lon="7.449970015125629"><ele>679.3333333333334</ele><time>2026-05-03T15:57:47.998Z</time></trkpt><trkpt lat="44.333948753410425" lon="7.450249637470457"><ele>679.0</ele><time>2026-05-03T15:57:48.998Z</time></trkpt><trkpt lat="44.33396973771251" lon="7.450521714943134"><ele>677.3333333333334</ele><time>2026-05-03T15:57:49.998Z</time></trkpt><trkpt lat="44.333993187952736" lon="7.450787817501447"><ele>675.6666666666666</ele><time>2026-05-03T15:57:50.998Z</time></trkpt><trkpt lat="44.334015948779935" lon="7.451058870741063"><ele>674.0</ele><time>2026-05-03T15:57:51.998Z</time></trkpt><trkpt lat="44.334033027757386" lon="7.451332538646856"><ele>673.6666666666666</ele><time>2026-05-03T15:57:52.998Z</time></trkpt><trkpt lat="44.33405085496788" lon="7.451610040306149"><ele>673.3333333333334</ele><time>2026-05-03T15:57:53.998Z</time></trkpt><trkpt lat="44.334072359086456" lon="7.451890218220288"><ele>673.0</ele><time>2026-05-03T15:57:54.998Z</time></trkpt><trkpt lat="44.334093058557244" lon="7.452165354111657"><ele>673.0</ele><time>2026-05-03T15:57:55.998Z</time></trkpt><trkpt lat="44.3341118665288" lon="7.452438184949576"><ele>673.0</ele><time>2026-05-03T15:57:56.998Z</time></trkpt><trkpt lat="44.334131662637134" lon="7.452708380003136"><ele>673.0</ele><time>2026-05-03T15:57:58Z</time></trkpt><trkpt lat="44.33415418034307" lon="7.452977245284697"><ele>673.0</ele><time>2026-05-03T15:57:59Z</time></trkpt><trkpt lat="44.334173917788654" lon="7.453246137346011"><ele>673.0</ele><time>2026-05-03T15:58:00Z</time></trkpt><trkpt lat="44.33419195540371" lon="7.45352081420172"><ele>673.0</ele><time>2026-05-03T15:58:01Z</time></trkpt><trkpt lat="44.33421048256631" lon="7.453789899225151"><ele>673.3333333333334</ele><time>2026-05-03T15:58:02Z</time></trkpt><trkpt lat="44.33423235728569" lon="7.45405381540578"><ele>673.6666666666666</ele><time>2026-05-03T15:58:03Z</time></trkpt><trkpt lat="44.33425320540324" lon="7.454324660451665"><ele>674.0</ele><time>2026-05-03T15:58:04Z</time></trkpt><trkpt lat="44.33427425095801" lon="7.454599033257011"><ele>673.3333333333333</ele><time>2026-05-03T15:58:05Z</time></trkpt><trkpt lat="44.33429589196528" lon="7.454874295844508"><ele>672.6666666666666</ele><time>2026-05-03T15:58:06Z</time></trkpt><trkpt lat="44.334314950920756" lon="7.455143123618466"><ele>672.0</ele><time>2026-05-03T15:58:07Z</time></trkpt><trkpt lat="44.33433394165839" lon="7.4554131818948095"><ele>672.0</ele><time>2026-05-03T15:58:08Z</time></trkpt><trkpt lat="44.33435425159686" lon="7.455674315228924"><ele>672.0</ele><time>2026-05-03T15:58:09Z</time></trkpt><trkpt lat="44.33437603051785" lon="7.455939769525388"><ele>672.0</ele><time>2026-05-03T15:58:10Z</time></trkpt><trkpt lat="44.334397283434306" lon="7.4562030365635605"><ele>672.0</ele><time>2026-05-03T15:58:11Z</time></trkpt><trkpt lat="44.33441545154246" lon="7.456459061552944"><ele>672.0</ele><time>2026-05-03T15:58:12Z</time></trkpt><trkpt lat="44.334433007401294" lon="7.4567171754206125"><ele>672.0</ele><time>2026-05-03T15:58:13Z</time></trkpt><trkpt lat="44.334452881222795" lon="7.456974062348161"><ele>672.0</ele><time>2026-05-03T15:58:14Z</time></trkpt><trkpt lat="44.33447593783199" lon="7.457239042038379"><ele>672.0</ele><time>2026-05-03T15:58:15Z</time></trkpt><trkpt lat="44.33449474478359" lon="7.45750182909535"><ele>672.0</ele><time>2026-05-03T15:58:16Z</time></trkpt><trkpt lat="44.33451016297837" lon="7.457758416770283"><ele>671.0</ele><time>2026-05-03T15:58:17Z</time></trkpt><trkpt lat="44.33452960114647" lon="7.458014399448223"><ele>670.0</ele><time>2026-05-03T15:58:18Z</time></trkpt><trkpt lat="44.33455253143473" lon="7.458274265897114"><ele>669.0</ele><time>2026-05-03T15:58:19Z</time></trkpt><trkpt lat="44.3345708543758" lon="7.458527494474462"><ele>669.0</ele><time>2026-05-03T15:58:20Z</time></trkpt><trkpt lat="44.33458648970595" lon="7.458779569315551"><ele>669.0</ele><time>2026-05-03T15:58:21Z</time></trkpt><trkpt lat="44.33460536515048" lon="7.459040348192986"><ele>669.0</ele><time>2026-05-03T15:58:22Z</time></trkpt><trkpt lat="44.334626182074174" lon="7.459301039006932"><ele>669.0</ele><time>2026-05-03T15:58:23Z</time></trkpt><trkpt lat="44.33464559561291" lon="7.459551887541584"><ele>669.0</ele><time>2026-05-03T15:58:24Z</time></trkpt><trkpt lat="44.33466333077692" lon="7.459810740339077"><ele>669.0</ele><time>2026-05-03T15:58:25Z</time></trkpt><trkpt lat="44.33468044213992" lon="7.460063667206149"><ele>669.0</ele><time>2026-05-03T15:58:26Z</time></trkpt><trkpt lat="44.33469241684065" lon="7.460304072572505"><ele>669.0</ele><time>2026-05-03T15:58:27Z</time></trkpt><trkpt lat="44.3347053929971" lon="7.46054520161273"><ele>669.0</ele><time>2026-05-03T15:58:28Z</time></trkpt><trkpt lat="44.33471039485291" lon="7.460804428508994"><ele>668.3333333333334</ele><time>2026-05-03T15:58:29Z</time></trkpt><trkpt lat="44.33470202435524" lon="7.46104231034539"><ele>667.6666666666667</ele><time>2026-05-03T15:58:30Z</time></trkpt><trkpt lat="44.33468726926653" lon="7.461274681902972"><ele>667.0</ele><time>2026-05-03T15:58:31Z</time></trkpt><trkpt lat="44.33466793237747" lon="7.461503892884716"><ele>666.6666666666667</ele><time>2026-05-03T15:58:32Z</time></trkpt><trkpt lat="44.33465043048398" lon="7.461738803565238"><ele>666.3333333333334</ele><time>2026-05-03T15:58:33Z</time></trkpt><trkpt lat="44.33463162202225" lon="7.461961305275125"><ele>666.0</ele><time>2026-05-03T15:58:34Z</time></trkpt><trkpt lat="44.33461166429056" lon="7.462171847560041"><ele>665.5</ele><time>2026-05-03T15:58:35Z</time></trkpt><trkpt lat="44.334592293165194" lon="7.462372965715265"><ele>665.0</ele><time>2026-05-03T15:58:36Z</time></trkpt><trkpt lat="44.33457559275695" lon="7.462575508062332"><ele>664.5</ele><time>2026-05-03T15:58:37Z</time></trkpt><trkpt lat="44.33455811731375" lon="7.462777113428476"><ele>664.0</ele><time>2026-05-03T15:58:38Z</time></trkpt><trkpt lat="44.33453805367352" lon="7.462985645777275"><ele>663.5</ele><time>2026-05-03T15:58:39Z</time></trkpt><trkpt lat="44.3345232770244" lon="7.4631866188549925"><ele>663.0</ele><time>2026-05-03T15:58:40Z</time></trkpt><trkpt lat="44.33450351770638" lon="7.463378851148029"><ele>662.5</ele><time>2026-05-03T15:58:41Z</time></trkpt><trkpt lat="44.334487701214" lon="7.463579030737887"><ele>662.0</ele><time>2026-05-03T15:58:42Z</time></trkpt><trkpt lat="44.334465887601056" lon="7.463782887939699"><ele>662.0</ele><time>2026-05-03T15:58:43Z</time></trkpt><trkpt lat="44.334447534825024" lon="7.463979033792448"><ele>662.0</ele><time>2026-05-03T15:58:44Z</time></trkpt><trkpt lat="44.33443285792208" lon="7.464179578886272"><ele>662.0</ele><time>2026-05-03T15:58:45Z</time></trkpt><trkpt lat="44.334406592965856" lon="7.464387651689819"><ele>662.0</ele><time>2026-05-03T15:58:46Z</time></trkpt><trkpt lat="44.334377099996544" lon="7.464605841486947"><ele>662.0</ele><time>2026-05-03T15:58:47Z</time></trkpt><trkpt lat="44.33435518537831" lon="7.464842341391077"><ele>662.0</ele><time>2026-05-03T15:58:48Z</time></trkpt><trkpt lat="44.3343313934559" lon="7.465096188883401"><ele>662.0</ele><time>2026-05-03T15:58:49Z</time></trkpt><trkpt lat="44.33430774886211" lon="7.46535397940944"><ele>661.6666666666666</ele><time>2026-05-03T15:58:50Z</time></trkpt><trkpt lat="44.33428519015799" lon="7.465603383338407"><ele>661.3333333333334</ele><time>2026-05-03T15:58:51Z</time></trkpt><trkpt lat="44.33426268022241" lon="7.465845637007148"><ele>661.0</ele><time>2026-05-03T15:58:52Z</time></trkpt><trkpt lat="44.33425051267099" lon="7.4660980899354765"><ele>660.6666666666667</ele><time>2026-05-03T15:58:53Z</time></trkpt><trkpt lat="44.334221826060286" lon="7.466358977008193"><ele>660.3333333333334</ele><time>2026-05-03T15:58:54Z</time></trkpt><trkpt lat="44.33418699553202" lon="7.466617567913639"><ele>660.0</ele><time>2026-05-03T15:58:55Z</time></trkpt><trkpt lat="44.334148383738274" lon="7.466872426454704"><ele>659.3333333333334</ele><time>2026-05-03T15:58:56Z</time></trkpt><trkpt lat="44.33410478403493" lon="7.467129957035641"><ele>658.6666666666667</ele><time>2026-05-03T15:58:57Z</time></trkpt><trkpt lat="44.334060702831465" lon="7.4673800486582875"><ele>658.0</ele><time>2026-05-03T15:58:57.999Z</time></trkpt><trkpt lat="44.334014850866375" lon="7.467623196293803"><ele>658.0</ele><time>2026-05-03T15:58:58.999Z</time></trkpt><trkpt lat="44.33394805328391" lon="7.467859753596369"><ele>658.0</ele><time>2026-05-03T15:58:59.999Z</time></trkpt><trkpt lat="44.333894349993585" lon="7.468103869172121"><ele>658.0</ele><time>2026-05-03T15:59:00.999Z</time></trkpt><trkpt lat="44.33383384115552" lon="7.468357466299342"><ele>657.6666666666667</ele><time>2026-05-03T15:59:01.999Z</time></trkpt><trkpt lat="44.33379178930664" lon="7.468635188146662"><ele>657.3333333333334</ele><time>2026-05-03T15:59:02.999Z</time></trkpt><trkpt lat="44.33373396439652" lon="7.468930126917562"><ele>657.0</ele><time>2026-05-03T15:59:03.999Z</time></trkpt><trkpt lat="44.333652752205424" lon="7.469232291971207"><ele>657.0</ele><time>2026-05-03T15:59:04.999Z</time></trkpt><trkpt lat="44.3335663752085" lon="7.469525910753433"><ele>657.0</ele><time>2026-05-03T15:59:05.999Z</time></trkpt><trkpt lat="44.33350028691555" lon="7.4698017763440605"><ele>657.0</ele><time>2026-05-03T15:59:06.999Z</time></trkpt><trkpt lat="44.333441268070644" lon="7.470067413461473"><ele>657.0</ele><time>2026-05-03T15:59:07.999Z</time></trkpt><trkpt lat="44.33338283856378" lon="7.470318793155627"><ele>657.0</ele><time>2026-05-03T15:59:08.999Z</time></trkpt><trkpt lat="44.33332771692119" lon="7.470556404604257"><ele>657.0</ele><time>2026-05-03T15:59:09.999Z</time></trkpt><trkpt lat="44.33326180683068" lon="7.470769413713948"><ele>656.3333333333334</ele><time>2026-05-03T15:59:10.999Z</time></trkpt><trkpt lat="44.33322763776827" lon="7.470984017240461"><ele>655.6666666666667</ele><time>2026-05-03T15:59:11.999Z</time></trkpt><trkpt lat="44.33317626746588" lon="7.471195150952387"><ele>655.0</ele><time>2026-05-03T15:59:12.999Z</time></trkpt><trkpt lat="44.333127530111355" lon="7.471404958738025"><ele>655.3333333333334</ele><time>2026-05-03T15:59:13.999Z</time></trkpt><trkpt lat="44.33306101975324" lon="7.471617950314977"><ele>655.6666666666666</ele><time>2026-05-03T15:59:14.999Z</time></trkpt><trkpt lat="44.3330052161047" lon="7.471854651472121"><ele>656.0</ele><time>2026-05-03T15:59:15.999Z</time></trkpt><trkpt lat="44.33294705901499" lon="7.472101335137208"><ele>655.0</ele><time>2026-05-03T15:59:16.999Z</time></trkpt><trkpt lat="44.33291669455731" lon="7.472346897563016"><ele>654.0</ele><time>2026-05-03T15:59:17.999Z</time></trkpt><trkpt lat="44.33285787061956" lon="7.472578899499714"><ele>653.0</ele><time>2026-05-03T15:59:18.999Z</time></trkpt><trkpt lat="44.33280753265233" lon="7.472821227782826"><ele>653.3333333333333</ele><time>2026-05-03T15:59:19.999Z</time></trkpt><trkpt lat="44.33275447445689" lon="7.473069620834359"><ele>653.6666666666666</ele><time>2026-05-03T15:59:20.999Z</time></trkpt><trkpt lat="44.33269474065578" lon="7.473302927917261"><ele>654.0</ele><time>2026-05-03T15:59:21.999Z</time></trkpt><trkpt lat="44.332624477172146" lon="7.473519258380909"><ele>654.0</ele><time>2026-05-03T15:59:22.999Z</time></trkpt><trkpt lat="44.33256411499711" lon="7.473726091137261"><ele>654.0</ele><time>2026-05-03T15:59:23.999Z</time></trkpt><trkpt lat="44.33251934212705" lon="7.473922844065941"><ele>654.0</ele><time>2026-05-03T15:59:24.999Z</time></trkpt><trkpt lat="44.33248646027617" lon="7.474095784790805"><ele>654.0</ele><time>2026-05-03T15:59:25.999Z</time></trkpt><trkpt lat="44.33246256352701" lon="7.474255389240282"><ele>653.8000000000001</ele><time>2026-05-03T15:59:26.999Z</time></trkpt><trkpt lat="44.33244915700842" lon="7.474401667014998"><ele>653.6</ele><time>2026-05-03T15:59:27.999Z</time></trkpt><trkpt lat="44.332421796502075" lon="7.474531775866148"><ele>653.4</ele><time>2026-05-03T15:59:28.999Z</time></trkpt><trkpt lat="44.33237895053671" lon="7.4746481046832"><ele>653.2</ele><time>2026-05-03T15:59:29.999Z</time></trkpt><trkpt lat="44.33235307504853" lon="7.474767017264734"><ele>653.0</ele><time>2026-05-03T15:59:30.999Z</time></trkpt><trkpt lat="44.33234897216828" lon="7.474888261621177"><ele>652.5999999999999</ele><time>2026-05-03T15:59:31.999Z</time></trkpt><trkpt lat="44.33236190458528" lon="7.474996138008397"><ele>652.1999999999999</ele><time>2026-05-03T15:59:32.999Z</time></trkpt><trkpt lat="44.33235595807724" lon="7.475124454143545"><ele>651.8</ele><time>2026-05-03T15:59:33.999Z</time></trkpt><trkpt lat="44.33231270139325" lon="7.47527276050672"><ele>651.4</ele><time>2026-05-03T15:59:34.999Z</time></trkpt><trkpt lat="44.332248031353515" lon="7.475433318403513"><ele>651.0</ele><time>2026-05-03T15:59:35.999Z</time></trkpt><trkpt lat="44.332191082355656" lon="7.475621518183088"><ele>651.0</ele><time>2026-05-03T15:59:36.999Z</time></trkpt><trkpt lat="44.332119969871066" lon="7.475816515085089"><ele>651.0</ele><time>2026-05-03T15:59:37.999Z</time></trkpt><trkpt lat="44.332035366447926" lon="7.475993462602619"><ele>651.0</ele><time>2026-05-03T15:59:38.999Z</time></trkpt><trkpt lat="44.331988845372386" lon="7.476202636315267"><ele>650.3333333333334</ele><time>2026-05-03T15:59:39.999Z</time></trkpt><trkpt lat="44.33192651816402" lon="7.4764220549296985"><ele>649.6666666666667</ele><time>2026-05-03T15:59:40.999Z</time></trkpt><trkpt lat="44.331865568229546" lon="7.476658551665085"><ele>649.0</ele><time>2026-05-03T15:59:41.999Z</time></trkpt><trkpt lat="44.331811856953976" lon="7.4768901310981954"><ele>648.3333333333334</ele><time>2026-05-03T15:59:42.999Z</time></trkpt><trkpt lat="44.33176758737881" lon="7.477109699255063"><ele>647.6666666666666</ele><time>2026-05-03T15:59:43.999Z</time></trkpt><trkpt lat="44.33171634983382" lon="7.4773293679416835"><ele>647.0</ele><time>2026-05-03T15:59:44.999Z</time></trkpt><trkpt lat="44.33166208718244" lon="7.477551030507593"><ele>647.0</ele><time>2026-05-03T15:59:45.999Z</time></trkpt><trkpt lat="44.33160712681756" lon="7.477779235974517"><ele>647.0</ele><time>2026-05-03T15:59:46.999Z</time></trkpt><trkpt lat="44.33155452263174" lon="7.478012686887424"><ele>647.0</ele><time>2026-05-03T15:59:47.999Z</time></trkpt><trkpt lat="44.33150289874274" lon="7.4782488381743235"><ele>647.0</ele><time>2026-05-03T15:59:48.999Z</time></trkpt><trkpt lat="44.33144764361573" lon="7.478489529242696"><ele>647.0</ele><time>2026-05-03T15:59:49.998Z</time></trkpt><trkpt lat="44.331388705844056" lon="7.478723788222721"><ele>647.0</ele><time>2026-05-03T15:59:50.998Z</time></trkpt><trkpt lat="44.331326952666" lon="7.47895985352003"><ele>647.0</ele><time>2026-05-03T15:59:51.998Z</time></trkpt><trkpt lat="44.33127280329866" lon="7.479197323316282"><ele>647.0</ele><time>2026-05-03T15:59:52.998Z</time></trkpt><trkpt lat="44.331217692036454" lon="7.47944018029124"><ele>647.0</ele><time>2026-05-03T15:59:53.998Z</time></trkpt><trkpt lat="44.33116043264555" lon="7.479686802082885"><ele>647.0</ele><time>2026-05-03T15:59:54.998Z</time></trkpt><trkpt lat="44.33110505810072" lon="7.479927816029296"><ele>647.0</ele><time>2026-05-03T15:59:55.998Z</time></trkpt><trkpt lat="44.33105083793059" lon="7.48016305349553"><ele>647.0</ele><time>2026-05-03T15:59:56.998Z</time></trkpt><trkpt lat="44.330997365199366" lon="7.480404059135718"><ele>646.0</ele><time>2026-05-03T15:59:57.998Z</time></trkpt><trkpt lat="44.33093960996889" lon="7.480657540089868"><ele>645.0</ele><time>2026-05-03T15:59:58.998Z</time></trkpt><trkpt lat="44.330885557615915" lon="7.480907066498493"><ele>644.0</ele><time>2026-05-03T15:59:59.998Z</time></trkpt><trkpt lat="44.330827282916715" lon="7.481143579734693"><ele>644.0</ele><time>2026-05-03T16:00:00.998Z</time></trkpt><trkpt lat="44.33077319842114" lon="7.481374032710478"><ele>644.0</ele><time>2026-05-03T16:00:01.998Z</time></trkpt><trkpt lat="44.33072297094996" lon="7.481603544973293"><ele>644.0</ele><time>2026-05-03T16:00:02.998Z</time></trkpt><trkpt lat="44.3306724449154" lon="7.481828356260253"><ele>644.0</ele><time>2026-05-03T16:00:04Z</time></trkpt><trkpt lat="44.33060342119667" lon="7.482054489275109"><ele>644.0</ele><time>2026-05-03T16:00:05Z</time></trkpt><trkpt lat="44.33054862196565" lon="7.482283259523491"><ele>644.0</ele><time>2026-05-03T16:00:06Z</time></trkpt><trkpt lat="44.330495287122474" lon="7.482510114220632"><ele>644.0</ele><time>2026-05-03T16:00:07Z</time></trkpt><trkpt lat="44.330455783495275" lon="7.482740467315999"><ele>644.0</ele><time>2026-05-03T16:00:08Z</time></trkpt><trkpt lat="44.33040437093573" lon="7.482961564079102"><ele>644.0</ele><time>2026-05-03T16:00:09Z</time></trkpt><trkpt lat="44.3303533009915" lon="7.483187424643304"><ele>643.3333333333333</ele><time>2026-05-03T16:00:10Z</time></trkpt><trkpt lat="44.33028077772153" lon="7.48341408908407"><ele>642.6666666666666</ele><time>2026-05-03T16:00:11Z</time></trkpt><trkpt lat="44.33023078820086" lon="7.483631052976507"><ele>642.0</ele><time>2026-05-03T16:00:12Z</time></trkpt><trkpt lat="44.330195000792905" lon="7.483837860796601"><ele>642.0</ele><time>2026-05-03T16:00:13Z</time></trkpt><trkpt lat="44.33014645939831" lon="7.484019048437767"><ele>642.0</ele><time>2026-05-03T16:00:14Z</time></trkpt><trkpt lat="44.33011897624754" lon="7.484192709778965"><ele>642.0</ele><time>2026-05-03T16:00:15Z</time></trkpt><trkpt lat="44.33011990270256" lon="7.484359746487804"><ele>642.0</ele><time>2026-05-03T16:00:16Z</time></trkpt><trkpt lat="44.33016853440498" lon="7.484518734514152"><ele>641.75</ele><time>2026-05-03T16:00:17Z</time></trkpt><trkpt lat="44.33025816986566" lon="7.4846521470846925"><ele>641.5</ele><time>2026-05-03T16:00:18Z</time></trkpt><trkpt lat="44.33035897602387" lon="7.484792200110848"><ele>641.25</ele><time>2026-05-03T16:00:19Z</time></trkpt><trkpt lat="44.330456197129635" lon="7.484943080368292"><ele>641.0</ele><time>2026-05-03T16:00:20Z</time></trkpt><trkpt lat="44.3305349391801" lon="7.485133741701825"><ele>641.0</ele><time>2026-05-03T16:00:21Z</time></trkpt><trkpt lat="44.33059677831457" lon="7.485328015965694"><ele>641.0</ele><time>2026-05-03T16:00:22Z</time></trkpt><trkpt lat="44.33066738251242" lon="7.485522192774516"><ele>641.0</ele><time>2026-05-03T16:00:23Z</time></trkpt><trkpt lat="44.33073518677596" lon="7.4857050385613615"><ele>641.0</ele><time>2026-05-03T16:00:24Z</time></trkpt><trkpt lat="44.33080746614728" lon="7.485897886456058"><ele>641.0</ele><time>2026-05-03T16:00:25Z</time></trkpt><trkpt lat="44.330882436953665" lon="7.486092202706453"><ele>641.0</ele><time>2026-05-03T16:00:26Z</time></trkpt><trkpt lat="44.33096394119935" lon="7.486283896145043"><ele>641.3333333333333</ele><time>2026-05-03T16:00:27Z</time></trkpt><trkpt lat="44.331049275346594" lon="7.486475097067083"><ele>641.6666666666666</ele><time>2026-05-03T16:00:28Z</time></trkpt><trkpt lat="44.33112871469632" lon="7.486649913935868"><ele>642.0</ele><time>2026-05-03T16:00:29Z</time></trkpt><trkpt lat="44.33120893895191" lon="7.486825188440995"><ele>642.0</ele><time>2026-05-03T16:00:30Z</time></trkpt><trkpt lat="44.3312902841856" lon="7.486997896778243"><ele>642.0</ele><time>2026-05-03T16:00:31Z</time></trkpt><trkpt lat="44.331373343869814" lon="7.487174809498262"><ele>642.0</ele><time>2026-05-03T16:00:32Z</time></trkpt><trkpt lat="44.331451237148045" lon="7.487344541729333"><ele>642.0</ele><time>2026-05-03T16:00:33Z</time></trkpt><trkpt lat="44.33152945467409" lon="7.487508450456735"><ele>641.25</ele><time>2026-05-03T16:00:34Z</time></trkpt><trkpt lat="44.33160593568535" lon="7.487658534785576"><ele>640.5</ele><time>2026-05-03T16:00:35Z</time></trkpt><trkpt lat="44.3316881947865" lon="7.487806696244006"><ele>639.75</ele><time>2026-05-03T16:00:36Z</time></trkpt><trkpt lat="44.33176516127017" lon="7.487947810925261"><ele>639.0</ele><time>2026-05-03T16:00:37Z</time></trkpt><trkpt lat="44.33182296789241" lon="7.488082386021988"><ele>638.25</ele><time>2026-05-03T16:00:38Z</time></trkpt><trkpt lat="44.33185061057398" lon="7.488228381530861"><ele>637.5</ele><time>2026-05-03T16:00:39Z</time></trkpt><trkpt lat="44.331876694410596" lon="7.488381035567765"><ele>636.75</ele><time>2026-05-03T16:00:40Z</time></trkpt><trkpt lat="44.33187855806771" lon="7.488569871318044"><ele>636.0</ele><time>2026-05-03T16:00:41Z</time></trkpt><trkpt lat="44.33186744033319" lon="7.488748330854418"><ele>636.0</ele><time>2026-05-03T16:00:42Z</time></trkpt><trkpt lat="44.33184071467639" lon="7.4888910825192365"><ele>636.0</ele><time>2026-05-03T16:00:43Z</time></trkpt><trkpt lat="44.33185409054735" lon="7.488992049688581"><ele>636.0</ele><time>2026-05-03T16:00:44Z</time></trkpt><trkpt lat="44.33188254133206" lon="7.489091445721255"><ele>636.0</ele><time>2026-05-03T16:00:45Z</time></trkpt><trkpt lat="44.33199776367256" lon="7.489136646551474"><ele>636.0</ele><time>2026-05-03T16:00:46Z</time></trkpt><trkpt lat="44.33208704814493" lon="7.489189581530579"><ele>636.0</ele><time>2026-05-03T16:00:47Z</time></trkpt><trkpt lat="44.3322184886498" lon="7.4891621843633684"><ele>636.0</ele><time>2026-05-03T16:00:48Z</time></trkpt><trkpt lat="44.33233369702402" lon="7.489233145668692"><ele>636.0</ele><time>2026-05-03T16:00:49Z</time></trkpt><trkpt lat="44.33245069760868" lon="7.489325869903306"><ele>636.0</ele><time>2026-05-03T16:00:50Z</time></trkpt><trkpt lat="44.33253669618211" lon="7.489461067568191"><ele>636.0</ele><time>2026-05-03T16:00:51Z</time></trkpt><trkpt lat="44.33263814321029" lon="7.489564138684183"><ele>636.0</ele><time>2026-05-03T16:00:52Z</time></trkpt><trkpt lat="44.332728707293846" lon="7.489654684905174"><ele>636.0</ele><time>2026-05-03T16:00:53Z</time></trkpt><trkpt lat="44.33282102278975" lon="7.489746665754965"><ele>636.0</ele><time>2026-05-03T16:00:54Z</time></trkpt><trkpt lat="44.3329123685632" lon="7.489809480188755"><ele>636.0</ele><time>2026-05-03T16:00:55Z</time></trkpt><trkpt lat="44.33299306855825" lon="7.4899090864089946"><ele>636.0</ele><time>2026-05-03T16:00:56Z</time></trkpt><trkpt lat="44.33306665807231" lon="7.489996565519693"><ele>636.0</ele><time>2026-05-03T16:00:57Z</time></trkpt><trkpt lat="44.33314954697044" lon="7.490068628334965"><ele>636.0</ele><time>2026-05-03T16:00:58Z</time></trkpt><trkpt lat="44.333249763055946" lon="7.490177043509184"><ele>636.0</ele><time>2026-05-03T16:00:59Z</time></trkpt><trkpt lat="44.33333672775971" lon="7.490261690653697"><ele>636.0</ele><time>2026-05-03T16:01:00Z</time></trkpt><trkpt lat="44.333420820537135" lon="7.490347907946191"><ele>636.0</ele><time>2026-05-03T16:01:01Z</time></trkpt><trkpt lat="44.333503290027" lon="7.490430006426512"><ele>636.0</ele><time>2026-05-03T16:01:02Z</time></trkpt><trkpt lat="44.333577621178435" lon="7.490514244647548"><ele>636.0</ele><time>2026-05-03T16:01:02.999Z</time></trkpt><trkpt lat="44.33365233370206" lon="7.490587603116134"><ele>636.0</ele><time>2026-05-03T16:01:03.999Z</time></trkpt><trkpt lat="44.3337263907625" lon="7.490657129595287"><ele>635.7142857142857</ele><time>2026-05-03T16:01:04.999Z</time></trkpt><trkpt lat="44.33379422141341" lon="7.4907296161525085"><ele>635.4285714285714</ele><time>2026-05-03T16:01:05.999Z</time></trkpt><trkpt lat="44.33385819024435" lon="7.490796086815382"><ele>635.1428571428571</ele><time>2026-05-03T16:01:06.999Z</time></trkpt><trkpt lat="44.333914271042076" lon="7.490871448879706"><ele>634.8571428571429</ele><time>2026-05-03T16:01:07.999Z</time></trkpt><trkpt lat="44.33397513913466" lon="7.490924812959177"><ele>634.5714285714286</ele><time>2026-05-03T16:01:08.999Z</time></trkpt><trkpt lat="44.33402533154007" lon="7.49098181647303"><ele>634.2857142857143</ele><time>2026-05-03T16:01:09.999Z</time></trkpt><trkpt lat="44.33407616291651" lon="7.491035442214938"><ele>634.0</ele><time>2026-05-03T16:01:10.999Z</time></trkpt><trkpt lat="44.33413455355376" lon="7.4910969049606555"><ele>634.0</ele><time>2026-05-03T16:01:11.999Z</time></trkpt><trkpt lat="44.33419485966699" lon="7.491156181751696"><ele>634.0</ele><time>2026-05-03T16:01:12.999Z</time></trkpt><trkpt lat="44.334256809528775" lon="7.491217671030591"><ele>634.0</ele><time>2026-05-03T16:01:13.999Z</time></trkpt><trkpt lat="44.33432322430214" lon="7.491287042492518"><ele>634.0</ele><time>2026-05-03T16:01:14.999Z</time></trkpt><trkpt lat="44.33439125181621" lon="7.49134871599029"><ele>634.0</ele><time>2026-05-03T16:01:15.999Z</time></trkpt><trkpt lat="44.33445792843279" lon="7.4914020750197015"><ele>634.0</ele><time>2026-05-03T16:01:16.999Z</time></trkpt><trkpt lat="44.3345169817546" lon="7.491472600777514"><ele>633.75</ele><time>2026-05-03T16:01:17.999Z</time></trkpt><trkpt lat="44.33464225998326" lon="7.491587428333728"><ele>633.5</ele><time>2026-05-03T16:01:18.999Z</time></trkpt><trkpt lat="44.33474865393367" lon="7.491689195143876"><ele>633.25</ele><time>2026-05-03T16:01:19.999Z</time></trkpt><trkpt lat="44.334831955945006" lon="7.491797473046999"><ele>633.0</ele><time>2026-05-03T16:01:20.999Z</time></trkpt><trkpt lat="44.33491779110779" lon="7.491892873470126"><ele>633.0</ele><time>2026-05-03T16:01:21.999Z</time></trkpt><trkpt lat="44.33499918478812" lon="7.491978420828468"><ele>633.0</ele><time>2026-05-03T16:01:22.999Z</time></trkpt><trkpt lat="44.33508377548045" lon="7.492067871799019"><ele>633.0</ele><time>2026-05-03T16:01:23.999Z</time></trkpt><trkpt lat="44.33517105790947" lon="7.492157789504582"><ele>633.0</ele><time>2026-05-03T16:01:24.999Z</time></trkpt><trkpt lat="44.33526183130576" lon="7.492248097813488"><ele>633.0</ele><time>2026-05-03T16:01:25.999Z</time></trkpt><trkpt lat="44.335342388047174" lon="7.492325681718686"><ele>633.0</ele><time>2026-05-03T16:01:26.999Z</time></trkpt><trkpt lat="44.33541386280729" lon="7.492393444373377"><ele>633.0</ele><time>2026-05-03T16:01:27.999Z</time></trkpt><trkpt lat="44.3354837889343" lon="7.492463722483461"><ele>633.0</ele><time>2026-05-03T16:01:28.999Z</time></trkpt><trkpt lat="44.33555723123394" lon="7.492536457948674"><ele>633.0</ele><time>2026-05-03T16:01:29.999Z</time></trkpt><trkpt lat="44.335627829088764" lon="7.492605639745944"><ele>633.0</ele><time>2026-05-03T16:01:30.999Z</time></trkpt><trkpt lat="44.33570168498164" lon="7.492677089192689"><ele>633.0</ele><time>2026-05-03T16:01:31.999Z</time></trkpt><trkpt lat="44.33577458672158" lon="7.492748136071926"><ele>632.8</ele><time>2026-05-03T16:01:32.999Z</time></trkpt><trkpt lat="44.3358492940891" lon="7.492821392180738"><ele>632.5999999999999</ele><time>2026-05-03T16:01:33.999Z</time></trkpt><trkpt lat="44.33591279167048" lon="7.492902688789221"><ele>632.4000000000001</ele><time>2026-05-03T16:01:34.999Z</time></trkpt><trkpt lat="44.335977322909294" lon="7.492968858119994"><ele>632.2</ele><time>2026-05-03T16:01:35.999Z</time></trkpt><trkpt lat="44.33606918961947" lon="7.493062920121794"><ele>632.0</ele><time>2026-05-03T16:01:36.999Z</time></trkpt><trkpt lat="44.33617184731845" lon="7.493168030959717"><ele>632.0</ele><time>2026-05-03T16:01:37.999Z</time></trkpt><trkpt lat="44.33627659806713" lon="7.493258828069613"><ele>632.0</ele><time>2026-05-03T16:01:38.999Z</time></trkpt><trkpt lat="44.33637214476285" lon="7.493369271506039"><ele>632.0</ele><time>2026-05-03T16:01:39.999Z</time></trkpt><trkpt lat="44.336479666201434" lon="7.493483725430567"><ele>632.0</ele><time>2026-05-03T16:01:40.999Z</time></trkpt><trkpt lat="44.33658345231284" lon="7.493585674702057"><ele>631.75</ele><time>2026-05-03T16:01:41.999Z</time></trkpt><trkpt lat="44.33668219188258" lon="7.493683564144192"><ele>631.5</ele><time>2026-05-03T16:01:42.999Z</time></trkpt><trkpt lat="44.33678189325876" lon="7.493797313715749"><ele>631.25</ele><time>2026-05-03T16:01:43.999Z</time></trkpt><trkpt lat="44.33688877551976" lon="7.4938975710881195"><ele>631.0</ele><time>2026-05-03T16:01:44.999Z</time></trkpt><trkpt lat="44.33699339012443" lon="7.493985782279395"><ele>631.0</ele><time>2026-05-03T16:01:45.999Z</time></trkpt><trkpt lat="44.337101213650044" lon="7.494099745366346"><ele>631.0</ele><time>2026-05-03T16:01:46.999Z</time></trkpt><trkpt lat="44.33721581606371" lon="7.494231861667279"><ele>631.0</ele><time>2026-05-03T16:01:47.999Z</time></trkpt><trkpt lat="44.33734184836068" lon="7.494373022273364"><ele>631.0</ele><time>2026-05-03T16:01:48.999Z</time></trkpt><trkpt lat="44.337462062516536" lon="7.494506998896815"><ele>630.6</ele><time>2026-05-03T16:01:49.999Z</time></trkpt><trkpt lat="44.337572501603624" lon="7.494626346805703"><ele>630.2</ele><time>2026-05-03T16:01:50.999Z</time></trkpt><trkpt lat="44.33765260408406" lon="7.494714883811778"><ele>629.8</ele><time>2026-05-03T16:01:51.999Z</time></trkpt><trkpt lat="44.337720583222804" lon="7.494791293240512"><ele>629.4</ele><time>2026-05-03T16:01:52.999Z</time></trkpt><trkpt lat="44.33777072666497" lon="7.494876249007163"><ele>629.0</ele><time>2026-05-03T16:01:53.999Z</time></trkpt><trkpt lat="44.33780335256489" lon="7.494963361507322"><ele>629.0</ele><time>2026-05-03T16:01:54.998Z</time></trkpt><trkpt lat="44.3378640207382" lon="7.4950961352192635"><ele>629.0</ele><time>2026-05-03T16:01:56.998Z</time></trkpt><trkpt lat="44.337978365429464" lon="7.495103766086033"><ele>629.0</ele><time>2026-05-03T16:01:57.998Z</time></trkpt><trkpt lat="44.33810225491787" lon="7.495138091217791"><ele>629.0</ele><time>2026-05-03T16:01:58.998Z</time></trkpt><trkpt lat="44.33821797504026" lon="7.495232402686863"><ele>629.0</ele><time>2026-05-03T16:01:59.998Z</time></trkpt><trkpt lat="44.338322809660156" lon="7.49535182397273"><ele>629.0</ele><time>2026-05-03T16:02:00.998Z</time></trkpt><trkpt lat="44.338412869516226" lon="7.495472842181298"><ele>629.0</ele><time>2026-05-03T16:02:01.998Z</time></trkpt><trkpt lat="44.33850179442795" lon="7.495558201643769"><ele>629.0</ele><time>2026-05-03T16:02:02.998Z</time></trkpt><trkpt lat="44.338608538162234" lon="7.495659841808818"><ele>629.0</ele><time>2026-05-03T16:02:03.998Z</time></trkpt><trkpt lat="44.33873111109156" lon="7.495780843454733"><ele>629.0</ele><time>2026-05-03T16:02:04.998Z</time></trkpt><trkpt lat="44.33886179034687" lon="7.4959246906128865"><ele>629.0</ele><time>2026-05-03T16:02:05.998Z</time></trkpt><trkpt lat="44.338985550473836" lon="7.496067764233439"><ele>628.0</ele><time>2026-05-03T16:02:06.998Z</time></trkpt><trkpt lat="44.33911111605856" lon="7.496204769751244"><ele>627.0</ele><time>2026-05-03T16:02:07.998Z</time></trkpt><trkpt lat="44.33923780875024" lon="7.496336677564285"><ele>626.0</ele><time>2026-05-03T16:02:08.998Z</time></trkpt><trkpt lat="44.33936965269179" lon="7.496473465461261"><ele>626.0</ele><time>2026-05-03T16:02:10Z</time></trkpt><trkpt lat="44.33950054826533" lon="7.496605890843758"><ele>626.0</ele><time>2026-05-03T16:02:11Z</time></trkpt><trkpt lat="44.339632312271405" lon="7.49675226443401"><ele>626.0</ele><time>2026-05-03T16:02:12Z</time></trkpt><trkpt lat="44.33976458282056" lon="7.496884408969536"><ele>626.0</ele><time>2026-05-03T16:02:13Z</time></trkpt><trkpt lat="44.33989246319915" lon="7.497007735373058"><ele>626.0</ele><time>2026-05-03T16:02:14Z</time></trkpt><trkpt lat="44.3400149451228" lon="7.497141159779303"><ele>626.0</ele><time>2026-05-03T16:02:15Z</time></trkpt><trkpt lat="44.34014264716155" lon="7.49728277058713"><ele>625.6666666666666</ele><time>2026-05-03T16:02:16Z</time></trkpt><trkpt lat="44.340275827598184" lon="7.497425611804474"><ele>625.3333333333334</ele><time>2026-05-03T16:02:17Z</time></trkpt><trkpt lat="44.34041007073761" lon="7.497564989553464"><ele>625.0</ele><time>2026-05-03T16:02:18Z</time></trkpt><trkpt lat="44.340539722583955" lon="7.497703442344011"><ele>624.75</ele><time>2026-05-03T16:02:19Z</time></trkpt><trkpt lat="44.340663018711325" lon="7.497833704684051"><ele>624.5</ele><time>2026-05-03T16:02:20Z</time></trkpt><trkpt lat="44.3407865246885" lon="7.4979439382444"><ele>624.25</ele><time>2026-05-03T16:02:21Z</time></trkpt><trkpt lat="44.34089827274351" lon="7.498066809530395"><ele>624.0</ele><time>2026-05-03T16:02:22Z</time></trkpt><trkpt lat="44.341006588858264" lon="7.498177353559884"><ele>623.75</ele><time>2026-05-03T16:02:23Z</time></trkpt><trkpt lat="44.341113295655504" lon="7.498273892871618"><ele>623.5</ele><time>2026-05-03T16:02:24Z</time></trkpt><trkpt lat="44.341216619944994" lon="7.498364773417109"><ele>623.25</ele><time>2026-05-03T16:02:25Z</time></trkpt><trkpt lat="44.34132584331578" lon="7.4984511299263925"><ele>623.0</ele><time>2026-05-03T16:02:26Z</time></trkpt><trkpt lat="44.34144006403093" lon="7.4985680479119035"><ele>622.3333333333333</ele><time>2026-05-03T16:02:27Z</time></trkpt><trkpt lat="44.34155352386809" lon="7.498720536203352"><ele>621.6666666666666</ele><time>2026-05-03T16:02:28Z</time></trkpt><trkpt lat="44.341687604638" lon="7.498849891143096"><ele>621.0</ele><time>2026-05-03T16:02:29Z</time></trkpt><trkpt lat="44.341833797473704" lon="7.498963685687677"><ele>621.0</ele><time>2026-05-03T16:02:30Z</time></trkpt><trkpt lat="44.34197160684022" lon="7.499101121331448"><ele>621.0</ele><time>2026-05-03T16:02:31Z</time></trkpt><trkpt lat="44.34212258069051" lon="7.499259867191768"><ele>621.0</ele><time>2026-05-03T16:02:32Z</time></trkpt><trkpt lat="44.34227325542608" lon="7.499422058473852"><ele>621.0</ele><time>2026-05-03T16:02:33Z</time></trkpt><trkpt lat="44.34242636684669" lon="7.49958269565468"><ele>621.0</ele><time>2026-05-03T16:02:34Z</time></trkpt><trkpt lat="44.34257639643386" lon="7.499743077486193"><ele>621.0</ele><time>2026-05-03T16:02:35Z</time></trkpt><trkpt lat="44.34273070767203" lon="7.499897581509205"><ele>621.3333333333334</ele><time>2026-05-03T16:02:36Z</time></trkpt><trkpt lat="44.342897096936554" lon="7.500060799904067"><ele>621.6666666666667</ele><time>2026-05-03T16:02:37Z</time></trkpt><trkpt lat="44.34306765982429" lon="7.500231392898222"><ele>622.0</ele><time>2026-05-03T16:02:38Z</time></trkpt><trkpt lat="44.34321707485816" lon="7.500387098050113"><ele>621.0</ele><time>2026-05-03T16:02:39Z</time></trkpt><trkpt lat="44.34335933742792" lon="7.500544621497188"><ele>620.0</ele><time>2026-05-03T16:02:40Z</time></trkpt><trkpt lat="44.34351140896976" lon="7.5006993959885255"><ele>619.0</ele><time>2026-05-03T16:02:41Z</time></trkpt><trkpt lat="44.34367427138378" lon="7.500864041149899"><ele>619.0</ele><time>2026-05-03T16:02:42Z</time></trkpt><trkpt lat="44.343844799546794" lon="7.501027083570009"><ele>619.0</ele><time>2026-05-03T16:02:43Z</time></trkpt><trkpt lat="44.343999645448605" lon="7.501203748245013"><ele>619.0</ele><time>2026-05-03T16:02:44Z</time></trkpt><trkpt lat="44.34416316842123" lon="7.501350518272306"><ele>619.0</ele><time>2026-05-03T16:02:45Z</time></trkpt><trkpt lat="44.34431054689028" lon="7.501516457046494"><ele>619.0</ele><time>2026-05-03T16:02:46Z</time></trkpt><trkpt lat="44.34445539415373" lon="7.5016882902899775"><ele>619.0</ele><time>2026-05-03T16:02:47Z</time></trkpt><trkpt lat="44.34460829579415" lon="7.50184786591924"><ele>618.3333333333334</ele><time>2026-05-03T16:02:48Z</time></trkpt><trkpt lat="44.344766638894114" lon="7.501994502342262"><ele>617.6666666666666</ele><time>2026-05-03T16:02:49Z</time></trkpt><trkpt lat="44.34491422035011" lon="7.502137845557402"><ele>617.0</ele><time>2026-05-03T16:02:50Z</time></trkpt><trkpt lat="44.34506283335126" lon="7.502287814460648"><ele>616.6666666666666</ele><time>2026-05-03T16:02:51Z</time></trkpt><trkpt lat="44.34518921290496" lon="7.502431229585733"><ele>616.3333333333334</ele><time>2026-05-03T16:02:52Z</time></trkpt><trkpt lat="44.34533134153008" lon="7.502567265999552"><ele>616.0</ele><time>2026-05-03T16:02:53Z</time></trkpt><trkpt lat="44.34546488004426" lon="7.502691682347629"><ele>615.6666666666667</ele><time>2026-05-03T16:02:54Z</time></trkpt><trkpt lat="44.34558874215883" lon="7.502818218554225"><ele>615.3333333333334</ele><time>2026-05-03T16:02:55Z</time></trkpt><trkpt lat="44.34571541824893" lon="7.50294936590853"><ele>615.0</ele><time>2026-05-03T16:02:56Z</time></trkpt><trkpt lat="44.345837284987205" lon="7.503072817764923"><ele>614.75</ele><time>2026-05-03T16:02:57Z</time></trkpt><trkpt lat="44.345949837427604" lon="7.503187829722468"><ele>614.5</ele><time>2026-05-03T16:02:58Z</time></trkpt><trkpt lat="44.346065891878276" lon="7.50330817970482"><ele>614.25</ele><time>2026-05-03T16:02:59Z</time></trkpt><trkpt lat="44.346180268176006" lon="7.503418811233998"><ele>614.0</ele><time>2026-05-03T16:03:00Z</time></trkpt><trkpt lat="44.346290211900644" lon="7.503533974670221"><ele>614.25</ele><time>2026-05-03T16:03:01Z</time></trkpt><trkpt lat="44.34639614189746" lon="7.503644481169793"><ele>614.5</ele><time>2026-05-03T16:03:02Z</time></trkpt><trkpt lat="44.346486012532225" lon="7.50374347522583"><ele>614.75</ele><time>2026-05-03T16:03:03Z</time></trkpt><trkpt lat="44.346558029651334" lon="7.5038433763565"><ele>615.0</ele><time>2026-05-03T16:03:04Z</time></trkpt><trkpt lat="44.34661049715056" lon="7.503974362310435"><ele>615.0</ele><time>2026-05-03T16:03:05Z</time></trkpt><trkpt lat="44.34663758401193" lon="7.504146356767434"><ele>615.0</ele><time>2026-05-03T16:03:06Z</time></trkpt><trkpt lat="44.34658367665969" lon="7.504343803323503"><ele>615.0</ele><time>2026-05-03T16:03:07Z</time></trkpt><trkpt lat="44.34657220778518" lon="7.504559627222827"><ele>615.0</ele><time>2026-05-03T16:03:07.999Z</time></trkpt><trkpt lat="44.34655283977328" lon="7.504782751402838"><ele>615.0</ele><time>2026-05-03T16:03:08.999Z</time></trkpt><trkpt lat="44.34653367199159" lon="7.5049903365717485"><ele>615.0</ele><time>2026-05-03T16:03:09.999Z</time></trkpt><trkpt lat="44.346536629902374" lon="7.5052053274686"><ele>615.0</ele><time>2026-05-03T16:03:10.999Z</time></trkpt><trkpt lat="44.34654638038678" lon="7.5054232678130655"><ele>614.3333333333334</ele><time>2026-05-03T16:03:11.999Z</time></trkpt><trkpt lat="44.34654580594335" lon="7.505641207723219"><ele>613.6666666666667</ele><time>2026-05-03T16:03:12.999Z</time></trkpt><trkpt lat="44.3465429500208" lon="7.50586563154977"><ele>613.0</ele><time>2026-05-03T16:03:13.999Z</time></trkpt><trkpt lat="44.34654697232601" lon="7.506095629676315"><ele>612.6666666666667</ele><time>2026-05-03T16:03:14.999Z</time></trkpt><trkpt lat="44.346555648518425" lon="7.5063375812098085"><ele>612.3333333333334</ele><time>2026-05-03T16:03:15.999Z</time></trkpt><trkpt lat="44.346564839299596" lon="7.50658333032471"><ele>612.0</ele><time>2026-05-03T16:03:16.999Z</time></trkpt><trkpt lat="44.346572197303374" lon="7.506822251479138"><ele>612.0</ele><time>2026-05-03T16:03:17.999Z</time></trkpt><trkpt lat="44.3465750682047" lon="7.507034621852044"><ele>612.0</ele><time>2026-05-03T16:03:18.999Z</time></trkpt><trkpt lat="44.346584870734915" lon="7.507238084433232"><ele>612.0</ele><time>2026-05-03T16:03:19.999Z</time></trkpt><trkpt lat="44.34659454360061" lon="7.507430462130812"><ele>612.0</ele><time>2026-05-03T16:03:20.999Z</time></trkpt><trkpt lat="44.34660633987564" lon="7.507609180560308"><ele>611.5</ele><time>2026-05-03T16:03:21.999Z</time></trkpt><trkpt lat="44.346621552529044" lon="7.507782396750179"><ele>611.0</ele><time>2026-05-03T16:03:22.999Z</time></trkpt><trkpt lat="44.34663778840701" lon="7.5079473399970285"><ele>610.5</ele><time>2026-05-03T16:03:23.999Z</time></trkpt><trkpt lat="44.3466484770394" lon="7.508102743761335"><ele>610.0</ele><time>2026-05-03T16:03:24.999Z</time></trkpt><trkpt lat="44.346660214469594" lon="7.508251086818046"><ele>609.6</ele><time>2026-05-03T16:03:25.999Z</time></trkpt><trkpt lat="44.346674908301615" lon="7.508392584893995"><ele>609.2</ele><time>2026-05-03T16:03:26.999Z</time></trkpt><trkpt lat="44.34666999600368" lon="7.508537474781425"><ele>608.8</ele><time>2026-05-03T16:03:27.999Z</time></trkpt><trkpt lat="44.346678984755975" lon="7.5086758071159485"><ele>608.4</ele><time>2026-05-03T16:03:28.999Z</time></trkpt><trkpt lat="44.34668791457252" lon="7.50881468493873"><ele>608.0</ele><time>2026-05-03T16:03:29.999Z</time></trkpt><trkpt lat="44.3466955176442" lon="7.508932929032251"><ele>608.0</ele><time>2026-05-03T16:03:30.999Z</time></trkpt><trkpt lat="44.34672799875219" lon="7.509020946626972"><ele>608.0</ele><time>2026-05-03T16:03:31.999Z</time></trkpt><trkpt lat="44.346793755107036" lon="7.509116645211011"><ele>608.0</ele><time>2026-05-03T16:03:33.999Z</time></trkpt><trkpt lat="44.346888184976805" lon="7.509065656878933"><ele>608.0</ele><time>2026-05-03T16:03:35.999Z</time></trkpt><trkpt lat="44.34695262079775" lon="7.508955419900657"><ele>608.0</ele><time>2026-05-03T16:03:37.999Z</time></trkpt><trkpt lat="44.34694394723346" lon="7.508836038135733"><ele>608.0</ele><time>2026-05-03T16:03:39.999Z</time></trkpt><trkpt lat="44.34695332668166" lon="7.50871056033834"><ele>608.0</ele><time>2026-05-03T16:03:41.999Z</time></trkpt><trkpt lat="44.346906370445794" lon="7.508610230783516"><ele>608.0</ele><time>2026-05-03T16:03:43.999Z</time></trkpt><trkpt lat="44.34683245029992" lon="7.5082868305338675"><ele>608.0</ele><time>2026-05-03T16:03:45.999Z</time></trkpt><trkpt lat="44.34689098721538" lon="7.5083514101381255"><ele>608.0</ele><time>2026-05-03T16:03:46.999Z</time></trkpt><trkpt lat="44.34693224922526" lon="7.5085640684529205"><ele>608.0</ele><time>2026-05-03T16:03:47.999Z</time></trkpt><trkpt lat="44.34686141792544" lon="7.508578269158124"><ele>608.0</ele><time>2026-05-03T16:07:31.999Z</time></trkpt><trkpt lat="44.34689948596424" lon="7.5086568952556485"><ele>608.0</ele><time>2026-05-03T16:10:03.999Z</time></trkpt><trkpt lat="44.34692271435349" lon="7.5087437966468125"><ele>608.0</ele><time>2026-05-03T16:10:13.998Z</time></trkpt><trkpt lat="44.3469055366271" lon="7.508654971240323"><ele>608.0</ele><time>2026-05-03T16:11:59.999Z</time></trkpt><trkpt lat="44.34683542018308" lon="7.508652769819722"><ele>608.0</ele><time>2026-05-03T16:12:11.999Z</time></trkpt><trkpt lat="44.34679731943487" lon="7.508725188029314"><ele>608.0</ele><time>2026-05-03T16:12:17.999Z</time></trkpt><trkpt lat="44.3467599426372" lon="7.508813519033077"><ele>608.0</ele><time>2026-05-03T16:12:30.998Z</time></trkpt><trkpt lat="44.3468038980114" lon="7.508732093638514"><ele>608.0</ele><time>2026-05-03T16:21:56.999Z</time></trkpt><trkpt lat="44.34677817253986" lon="7.508571856183419"><ele>608.0</ele><time>2026-05-03T16:21:58.999Z</time></trkpt><trkpt lat="44.346776139435626" lon="7.508425938216994"><ele>608.0</ele><time>2026-05-03T16:22:00.999Z</time></trkpt><trkpt lat="44.3467599525332" lon="7.508332681665215"><ele>608.0</ele><time>2026-05-03T16:22:02.999Z</time></trkpt><trkpt lat="44.34664319290809" lon="7.508065563118779"><ele>608.0</ele><time>2026-05-03T16:22:14.999Z</time></trkpt><trkpt lat="44.346634764237734" lon="7.507910269824695"><ele>608.0</ele><time>2026-05-03T16:22:16.999Z</time></trkpt><trkpt lat="44.34664902169183" lon="7.507800418782042"><ele>608.0</ele><time>2026-05-03T16:22:17.999Z</time></trkpt><trkpt lat="44.3466391189967" lon="7.507648080591874"><ele>608.3333333333333</ele><time>2026-05-03T16:22:18.999Z</time></trkpt><trkpt lat="44.34660811627044" lon="7.5075177191689155"><ele>608.6666666666666</ele><time>2026-05-03T16:22:19.999Z</time></trkpt><trkpt lat="44.346599489464275" lon="7.507408069019077"><ele>609.0</ele><time>2026-05-03T16:22:20.999Z</time></trkpt><trkpt lat="44.346617471032964" lon="7.507296013422139"><ele>609.3333333333334</ele><time>2026-05-03T16:22:21.999Z</time></trkpt><trkpt lat="44.34659731316493" lon="7.507180170516177"><ele>609.6666666666667</ele><time>2026-05-03T16:22:22.999Z</time></trkpt><trkpt lat="44.34659329816808" lon="7.507053476778931"><ele>610.0</ele><time>2026-05-03T16:22:23.999Z</time></trkpt><trkpt lat="44.34658660825106" lon="7.506931868556598"><ele>610.4</ele><time>2026-05-03T16:22:24.999Z</time></trkpt><trkpt lat="44.346580002525684" lon="7.506802433143977"><ele>610.8</ele><time>2026-05-03T16:22:25.999Z</time></trkpt><trkpt lat="44.346574406106924" lon="7.506661173805082"><ele>611.2</ele><time>2026-05-03T16:22:26.999Z</time></trkpt><trkpt lat="44.346565655992656" lon="7.506517817001982"><ele>611.6</ele><time>2026-05-03T16:22:27.999Z</time></trkpt><trkpt lat="44.34655736198561" lon="7.506371143697648"><ele>612.0</ele><time>2026-05-03T16:22:28.999Z</time></trkpt><trkpt lat="44.3465589361294" lon="7.506230915217948"><ele>612.2</ele><time>2026-05-03T16:22:29.999Z</time></trkpt><trkpt lat="44.3465537321821" lon="7.506087379346729"><ele>612.4000000000001</ele><time>2026-05-03T16:22:30.999Z</time></trkpt><trkpt lat="44.34654703423441" lon="7.505939876553244"><ele>612.5999999999999</ele><time>2026-05-03T16:22:31.999Z</time></trkpt><trkpt lat="44.34654447336394" lon="7.505794580982448"><ele>612.8</ele><time>2026-05-03T16:22:32.999Z</time></trkpt><trkpt lat="44.346545749312256" lon="7.505644227413427"><ele>613.0</ele><time>2026-05-03T16:22:33.999Z</time></trkpt><trkpt lat="44.34654267201726" lon="7.505482125948721"><ele>613.4</ele><time>2026-05-03T16:22:34.999Z</time></trkpt><trkpt lat="44.34654096652958" lon="7.505315967351883"><ele>613.8</ele><time>2026-05-03T16:22:35.999Z</time></trkpt><trkpt lat="44.346537177322126" lon="7.5051614679202086"><ele>614.2</ele><time>2026-05-03T16:22:36.999Z</time></trkpt><trkpt lat="44.34653697944644" lon="7.505020968410513"><ele>614.6</ele><time>2026-05-03T16:22:37.999Z</time></trkpt><trkpt lat="44.34657403846852" lon="7.504890071898078"><ele>615.0</ele><time>2026-05-03T16:22:38.999Z</time></trkpt><trkpt lat="44.34657629790335" lon="7.504768062406441"><ele>615.0</ele><time>2026-05-03T16:22:39.999Z</time></trkpt><trkpt lat="44.34657870956533" lon="7.5046613793045465"><ele>615.0</ele><time>2026-05-03T16:22:40.999Z</time></trkpt><trkpt lat="44.3464859959402" lon="7.504592750007652"><ele>615.0</ele><time>2026-05-03T16:22:41.999Z</time></trkpt><trkpt lat="44.3463538035355" lon="7.504565878246775"><ele>615.0</ele><time>2026-05-03T16:22:43.999Z</time></trkpt><trkpt lat="44.346267555690716" lon="7.504565191974922"><ele>615.0</ele><time>2026-05-03T16:22:44.999Z</time></trkpt><trkpt lat="44.346182411735604" lon="7.504556330517353"><ele>614.8333333333334</ele><time>2026-05-03T16:22:45.999Z</time></trkpt><trkpt lat="44.346089804052106" lon="7.504538095055086"><ele>614.6666666666666</ele><time>2026-05-03T16:22:46.999Z</time></trkpt><trkpt lat="44.34600477540307" lon="7.504535575254812"><ele>614.5</ele><time>2026-05-03T16:22:47.998Z</time></trkpt><trkpt lat="44.34592612888344" lon="7.504517296532053"><ele>614.3333333333333</ele><time>2026-05-03T16:22:48.998Z</time></trkpt><trkpt lat="44.345863627526306" lon="7.504468226855837"><ele>614.1666666666666</ele><time>2026-05-03T16:22:49.998Z</time></trkpt><trkpt lat="44.3458219891072" lon="7.504393529693756"><ele>614.0</ele><time>2026-05-03T16:22:50.998Z</time></trkpt><trkpt lat="44.34585768826903" lon="7.504238774928105"><ele>614.0</ele><time>2026-05-03T16:22:52.998Z</time></trkpt><trkpt lat="44.3459051206369" lon="7.50414959954982"><ele>614.0</ele><time>2026-05-03T16:22:53.998Z</time></trkpt><trkpt lat="44.34595585607851" lon="7.50405421421076"><ele>614.0</ele><time>2026-05-03T16:22:54.998Z</time></trkpt><trkpt lat="44.34601088803082" lon="7.503950751219556"><ele>614.0</ele><time>2026-05-03T16:22:55.998Z</time></trkpt><trkpt lat="44.346061199180625" lon="7.503856163568908"><ele>614.0</ele><time>2026-05-03T16:22:56.998Z</time></trkpt><trkpt lat="44.34610601722164" lon="7.503771903275958"><ele>614.0</ele><time>2026-05-03T16:22:57.998Z</time></trkpt><trkpt lat="44.346169049640295" lon="7.503653419703312"><ele>614.0</ele><time>2026-05-03T16:22:59.998Z</time></trkpt><trkpt lat="44.34612241992332" lon="7.503391369405035"><ele>614.0</ele><time>2026-05-03T16:23:16Z</time></trkpt><trkpt lat="44.34604523645632" lon="7.503313439756592"><ele>614.0</ele><time>2026-05-03T16:23:17Z</time></trkpt><trkpt lat="44.3459596194674" lon="7.50321667761185"><ele>614.0</ele><time>2026-05-03T16:23:18Z</time></trkpt><trkpt lat="44.345861153600204" lon="7.50311047715573"><ele>614.0</ele><time>2026-05-03T16:23:19Z</time></trkpt><trkpt lat="44.3457435409421" lon="7.502992934761076"><ele>614.0</ele><time>2026-05-03T16:23:20Z</time></trkpt><trkpt lat="44.34562907316064" lon="7.502864162797895"><ele>614.0</ele><time>2026-05-03T16:23:21Z</time></trkpt><trkpt lat="44.34552645912803" lon="7.502762885720444"><ele>614.0</ele><time>2026-05-03T16:23:22Z</time></trkpt><trkpt lat="44.34541775361048" lon="7.502651722635476"><ele>614.5</ele><time>2026-05-03T16:23:23Z</time></trkpt><trkpt lat="44.34529573352094" lon="7.502528864782613"><ele>615.0</ele><time>2026-05-03T16:23:24Z</time></trkpt><trkpt lat="44.34517653399516" lon="7.50240651855392"><ele>615.5</ele><time>2026-05-03T16:23:25Z</time></trkpt><trkpt lat="44.34506028363411" lon="7.5022939346072715"><ele>616.0</ele><time>2026-05-03T16:23:26Z</time></trkpt><trkpt lat="44.34494814827287" lon="7.50218641279458"><ele>616.25</ele><time>2026-05-03T16:23:27Z</time></trkpt><trkpt lat="44.34484801775606" lon="7.502079880563425"><ele>616.5</ele><time>2026-05-03T16:23:28Z</time></trkpt><trkpt lat="44.344741760685025" lon="7.501962112445324"><ele>616.75</ele><time>2026-05-03T16:23:29Z</time></trkpt><trkpt lat="44.344630614529535" lon="7.501841508665898"><ele>617.0</ele><time>2026-05-03T16:23:30Z</time></trkpt><trkpt lat="44.344515612016146" lon="7.501720612892004"><ele>617.5</ele><time>2026-05-03T16:23:31Z</time></trkpt><trkpt lat="44.34440567907178" lon="7.501604962876356"><ele>618.0</ele><time>2026-05-03T16:23:32Z</time></trkpt><trkpt lat="44.34429569203267" lon="7.501491548251936"><ele>618.5</ele><time>2026-05-03T16:23:33Z</time></trkpt><trkpt lat="44.34418183867041" lon="7.501374687385512"><ele>619.0</ele><time>2026-05-03T16:23:34Z</time></trkpt><trkpt lat="44.344063465112995" lon="7.501257563938814"><ele>619.0</ele><time>2026-05-03T16:23:35Z</time></trkpt><trkpt lat="44.343947450694984" lon="7.501137944423891"><ele>619.0</ele><time>2026-05-03T16:23:36Z</time></trkpt><trkpt lat="44.34383247640522" lon="7.5010168968881255"><ele>619.0</ele><time>2026-05-03T16:23:37Z</time></trkpt><trkpt lat="44.34373710299226" lon="7.500877195852363"><ele>619.0</ele><time>2026-05-03T16:23:38Z</time></trkpt><trkpt lat="44.34363378086071" lon="7.500774121357761"><ele>619.0</ele><time>2026-05-03T16:23:39Z</time></trkpt><trkpt lat="44.343537440163146" lon="7.500675132903599"><ele>619.0</ele><time>2026-05-03T16:23:40Z</time></trkpt><trkpt lat="44.343434887725046" lon="7.500598045625021"><ele>619.0</ele><time>2026-05-03T16:23:41Z</time></trkpt><trkpt lat="44.34334896151339" lon="7.500481353623833"><ele>619.0</ele><time>2026-05-03T16:23:42Z</time></trkpt><trkpt lat="44.34324723009524" lon="7.500376552125142"><ele>619.0</ele><time>2026-05-03T16:23:43Z</time></trkpt><trkpt lat="44.343149755412774" lon="7.50027613581973"><ele>619.0</ele><time>2026-05-03T16:23:44Z</time></trkpt><trkpt lat="44.34304925523537" lon="7.500173321359727"><ele>619.0</ele><time>2026-05-03T16:23:45Z</time></trkpt><trkpt lat="44.342931745218124" lon="7.50009603162657"><ele>619.0</ele><time>2026-05-03T16:23:46Z</time></trkpt><trkpt lat="44.34283524359002" lon="7.499995650228299"><ele>619.5</ele><time>2026-05-03T16:23:47Z</time></trkpt><trkpt lat="44.34273846980336" lon="7.499896596216114"><ele>620.0</ele><time>2026-05-03T16:23:48Z</time></trkpt><trkpt lat="44.342635549247504" lon="7.499791881227132"><ele>620.5</ele><time>2026-05-03T16:23:49Z</time></trkpt><trkpt lat="44.34254543266804" lon="7.4996571826978995"><ele>621.0</ele><time>2026-05-03T16:23:50Z</time></trkpt><trkpt lat="44.34244364041726" lon="7.499552439512792"><ele>621.0</ele><time>2026-05-03T16:23:51Z</time></trkpt><trkpt lat="44.342345814627" lon="7.499451324323984"><ele>621.0</ele><time>2026-05-03T16:23:52Z</time></trkpt><trkpt lat="44.342251265230445" lon="7.499353092245573"><ele>621.0</ele><time>2026-05-03T16:23:53Z</time></trkpt><trkpt lat="44.34215187048347" lon="7.499251336754728"><ele>621.0</ele><time>2026-05-03T16:23:54Z</time></trkpt><trkpt lat="44.34205303089537" lon="7.499150593967856"><ele>621.0</ele><time>2026-05-03T16:23:55Z</time></trkpt><trkpt lat="44.34195326578614" lon="7.499048907834378"><ele>621.0</ele><time>2026-05-03T16:23:56Z</time></trkpt><trkpt lat="44.34185987739883" lon="7.4989537212096575"><ele>621.0</ele><time>2026-05-03T16:23:57Z</time></trkpt><trkpt lat="44.34176896217683" lon="7.498858751813984"><ele>621.0</ele><time>2026-05-03T16:23:58Z</time></trkpt><trkpt lat="44.3416809154955" lon="7.498765902590094"><ele>621.0</ele><time>2026-05-03T16:23:59Z</time></trkpt><trkpt lat="44.341586185509435" lon="7.49869979355389"><ele>621.0</ele><time>2026-05-03T16:23:59.999Z</time></trkpt><trkpt lat="44.341520299571854" lon="7.498592946471351"><ele>621.0</ele><time>2026-05-03T16:24:00.999Z</time></trkpt><trkpt lat="44.34148041142914" lon="7.498472919642185"><ele>621.0</ele><time>2026-05-03T16:24:01.999Z</time></trkpt><trkpt lat="44.34146380787477" lon="7.498368101725718"><ele>621.0</ele><time>2026-05-03T16:24:02.999Z</time></trkpt><trkpt lat="44.341414818368854" lon="7.4983062548285435"><ele>621.0</ele><time>2026-05-03T16:24:03.999Z</time></trkpt><trkpt lat="44.3413318605974" lon="7.498288510417872"><ele>621.5</ele><time>2026-05-03T16:24:04.999Z</time></trkpt><trkpt lat="44.341227353184024" lon="7.4982841717494555"><ele>622.0</ele><time>2026-05-03T16:24:05.999Z</time></trkpt><trkpt lat="44.34112702148638" lon="7.498220964577732"><ele>622.5</ele><time>2026-05-03T16:24:06.999Z</time></trkpt><trkpt lat="44.34103433174527" lon="7.498122775941231"><ele>623.0</ele><time>2026-05-03T16:24:07.999Z</time></trkpt><trkpt lat="44.34093329040589" lon="7.4980021843887945"><ele>623.25</ele><time>2026-05-03T16:24:08.999Z</time></trkpt><trkpt lat="44.3408279540575" lon="7.497899228614498"><ele>623.5</ele><time>2026-05-03T16:24:09.999Z</time></trkpt><trkpt lat="44.34071534866417" lon="7.497789769885547"><ele>623.75</ele><time>2026-05-03T16:24:10.999Z</time></trkpt><trkpt lat="44.34059764488186" lon="7.497671682388943"><ele>624.0</ele><time>2026-05-03T16:24:11.999Z</time></trkpt><trkpt lat="44.34048046715498" lon="7.497556049230583"><ele>624.25</ele><time>2026-05-03T16:24:12.999Z</time></trkpt><trkpt lat="44.34036839391256" lon="7.497444851793269"><ele>624.5</ele><time>2026-05-03T16:24:13.999Z</time></trkpt><trkpt lat="44.34025899835493" lon="7.497335693446503"><ele>624.75</ele><time>2026-05-03T16:24:14.999Z</time></trkpt><trkpt lat="44.34014588961976" lon="7.497222590270062"><ele>625.0</ele><time>2026-05-03T16:24:15.999Z</time></trkpt><trkpt lat="44.34002748145947" lon="7.497103504762217"><ele>625.3333333333334</ele><time>2026-05-03T16:24:16.999Z</time></trkpt><trkpt lat="44.33990205220079" lon="7.496973671352838"><ele>625.6666666666666</ele><time>2026-05-03T16:24:17.999Z</time></trkpt><trkpt lat="44.33978366264118" lon="7.49682480536708"><ele>626.0</ele><time>2026-05-03T16:24:18.999Z</time></trkpt><trkpt lat="44.33966975153808" lon="7.4967090766899895"><ele>626.0</ele><time>2026-05-03T16:24:19.999Z</time></trkpt><trkpt lat="44.33955284981656" lon="7.4965871032659495"><ele>626.0</ele><time>2026-05-03T16:24:20.999Z</time></trkpt><trkpt lat="44.339435104395555" lon="7.496467104720448"><ele>626.0</ele><time>2026-05-03T16:24:21.999Z</time></trkpt><trkpt lat="44.33930257068568" lon="7.496376492550092"><ele>626.0</ele><time>2026-05-03T16:24:22.999Z</time></trkpt><trkpt lat="44.339178516100326" lon="7.4962493110308746"><ele>626.0</ele><time>2026-05-03T16:24:23.999Z</time></trkpt><trkpt lat="44.33905234074054" lon="7.496114209767704"><ele>626.0</ele><time>2026-05-03T16:24:24.999Z</time></trkpt><trkpt lat="44.33893705892121" lon="7.495994943649555"><ele>626.0</ele><time>2026-05-03T16:24:25.999Z</time></trkpt><trkpt lat="44.33884287121933" lon="7.495856803916723"><ele>626.0</ele><time>2026-05-03T16:24:26.999Z</time></trkpt><trkpt lat="44.338738769339805" lon="7.495750097929356"><ele>626.6</ele><time>2026-05-03T16:24:27.999Z</time></trkpt><trkpt lat="44.33864147845269" lon="7.495651086689976"><ele>627.2</ele><time>2026-05-03T16:24:28.999Z</time></trkpt><trkpt lat="44.33854827453493" lon="7.495555543442452"><ele>627.8</ele><time>2026-05-03T16:24:29.999Z</time></trkpt><trkpt lat="44.33845837987928" lon="7.495462949260188"><ele>628.4</ele><time>2026-05-03T16:24:30.999Z</time></trkpt><trkpt lat="44.33837721741314" lon="7.495379349461581"><ele>629.0</ele><time>2026-05-03T16:24:31.999Z</time></trkpt><trkpt lat="44.33830296589581" lon="7.495303890419812"><ele>629.0</ele><time>2026-05-03T16:24:32.999Z</time></trkpt><trkpt lat="44.33821914133299" lon="7.4952573327518985"><ele>629.0</ele><time>2026-05-03T16:24:33.999Z</time></trkpt><trkpt lat="44.3381526719476" lon="7.49518976661455"><ele>629.0</ele><time>2026-05-03T16:24:34.999Z</time></trkpt><trkpt lat="44.3380957285615" lon="7.49513458228554"><ele>629.0</ele><time>2026-05-03T16:24:35.999Z</time></trkpt><trkpt lat="44.33801812852513" lon="7.49505496823513"><ele>629.0</ele><time>2026-05-03T16:24:37.999Z</time></trkpt><trkpt lat="44.337958688599855" lon="7.494948451235557"><ele>629.0</ele><time>2026-05-03T16:24:39.999Z</time></trkpt><trkpt lat="44.33791275021281" lon="7.494824336694498"><ele>629.0</ele><time>2026-05-03T16:24:41.999Z</time></trkpt><trkpt lat="44.33780000959042" lon="7.4947352987728975"><ele>629.0</ele><time>2026-05-03T16:24:43.999Z</time></trkpt><trkpt lat="44.3377233413797" lon="7.494711992258326"><ele>629.0</ele><time>2026-05-03T16:24:44.999Z</time></trkpt><trkpt lat="44.33764625581039" lon="7.4946627079577635"><ele>629.0</ele><time>2026-05-03T16:24:45.999Z</time></trkpt><trkpt lat="44.33756861553722" lon="7.494583992879717"><ele>629.0</ele><time>2026-05-03T16:24:46.999Z</time></trkpt><trkpt lat="44.33747876426624" lon="7.4944988714194425"><ele>629.25</ele><time>2026-05-03T16:24:47.999Z</time></trkpt><trkpt lat="44.337388152268" lon="7.49436132163077"><ele>629.5</ele><time>2026-05-03T16:24:48.999Z</time></trkpt><trkpt lat="44.33727025952233" lon="7.494238665520899"><ele>629.75</ele><time>2026-05-03T16:24:49.999Z</time></trkpt><trkpt lat="44.33715333719732" lon="7.494117152362787"><ele>630.0</ele><time>2026-05-03T16:24:50.999Z</time></trkpt><trkpt lat="44.33703284896554" lon="7.493992081500077"><ele>630.0</ele><time>2026-05-03T16:24:51.998Z</time></trkpt><trkpt lat="44.33690529150324" lon="7.493883445665785"><ele>630.0</ele><time>2026-05-03T16:24:52.998Z</time></trkpt><trkpt lat="44.336802340876766" lon="7.493752453474724"><ele>630.0</ele><time>2026-05-03T16:24:53.998Z</time></trkpt><trkpt lat="44.336680746560155" lon="7.493628459491071"><ele>630.0</ele><time>2026-05-03T16:24:54.998Z</time></trkpt><trkpt lat="44.3365505363318" lon="7.493496127670305"><ele>630.3333333333334</ele><time>2026-05-03T16:24:55.998Z</time></trkpt><trkpt lat="44.336414148055894" lon="7.493357517121851"><ele>630.6666666666667</ele><time>2026-05-03T16:24:56.998Z</time></trkpt><trkpt lat="44.33628268583389" lon="7.49322391289988"><ele>631.0</ele><time>2026-05-03T16:24:57.998Z</time></trkpt><trkpt lat="44.33615571215002" lon="7.49309394113193"><ele>631.25</ele><time>2026-05-03T16:24:58.998Z</time></trkpt><trkpt lat="44.33603101301648" lon="7.492966262133983"><ele>631.5</ele><time>2026-05-03T16:24:59.998Z</time></trkpt><trkpt lat="44.335910402294346" lon="7.492842625100874"><ele>631.75</ele><time>2026-05-03T16:25:00.998Z</time></trkpt><trkpt lat="44.33579392312172" lon="7.492723109052767"><ele>632.0</ele><time>2026-05-03T16:25:01.998Z</time></trkpt><trkpt lat="44.33567970857403" lon="7.492605950510938"><ele>632.0</ele><time>2026-05-03T16:25:02.998Z</time></trkpt><trkpt lat="44.33556613902908" lon="7.492489065963749"><ele>632.0</ele><time>2026-05-03T16:25:03.998Z</time></trkpt><trkpt lat="44.33544737786209" lon="7.492366836898094"><ele>632.0</ele><time>2026-05-03T16:25:04.998Z</time></trkpt><trkpt lat="44.33533018121673" lon="7.492246363381357"><ele>632.0</ele><time>2026-05-03T16:25:05.998Z</time></trkpt><trkpt lat="44.335217045900876" lon="7.4921301014413615"><ele>632.25</ele><time>2026-05-03T16:25:06.998Z</time></trkpt><trkpt lat="44.335105459590714" lon="7.492015431293477"><ele>632.5</ele><time>2026-05-03T16:25:07.998Z</time></trkpt><trkpt lat="44.33498544449561" lon="7.491892398672109"><ele>632.75</ele><time>2026-05-03T16:25:08.998Z</time></trkpt><trkpt lat="44.33486533445257" lon="7.491770395700239"><ele>633.0</ele><time>2026-05-03T16:25:09.998Z</time></trkpt><trkpt lat="44.33474781662495" lon="7.49165102533867"><ele>632.75</ele><time>2026-05-03T16:25:10.998Z</time></trkpt><trkpt lat="44.33463263749663" lon="7.491532105059098"><ele>632.5</ele><time>2026-05-03T16:25:11.998Z</time></trkpt><trkpt lat="44.3345228741154" lon="7.491420926106154"><ele>632.25</ele><time>2026-05-03T16:25:13Z</time></trkpt><trkpt lat="44.334421501499676" lon="7.491316223187095"><ele>632.0</ele><time>2026-05-03T16:25:14Z</time></trkpt><trkpt lat="44.33432751533213" lon="7.491218721605569"><ele>632.3333333333333</ele><time>2026-05-03T16:25:15Z</time></trkpt><trkpt lat="44.33424611070651" lon="7.4911340566589075"><ele>632.6666666666666</ele><time>2026-05-03T16:25:16Z</time></trkpt><trkpt lat="44.334162702529014" lon="7.4910490281664455"><ele>633.0</ele><time>2026-05-03T16:25:17Z</time></trkpt><trkpt lat="44.33408562572998" lon="7.490970871070593"><ele>633.3333333333334</ele><time>2026-05-03T16:25:18Z</time></trkpt><trkpt lat="44.334021397910334" lon="7.490905783218001"><ele>633.6666666666667</ele><time>2026-05-03T16:25:19Z</time></trkpt><trkpt lat="44.333968051644014" lon="7.4908517388746585"><ele>634.0</ele><time>2026-05-03T16:25:20Z</time></trkpt><trkpt lat="44.33391151403265" lon="7.490794461433306"><ele>634.0</ele><time>2026-05-03T16:25:22Z</time></trkpt><trkpt lat="44.3337768161618" lon="7.4908141543597395"><ele>634.0</ele><time>2026-05-03T16:25:24Z</time></trkpt><trkpt lat="44.333667468458465" lon="7.490959335828869"><ele>634.0</ele><time>2026-05-03T16:25:25Z</time></trkpt><trkpt lat="44.333909715962925" lon="7.490961803748552"><ele>634.0</ele><time>2026-05-03T16:25:59Z</time></trkpt><trkpt lat="44.333967336851074" lon="7.49100668909158"><ele>634.0</ele><time>2026-05-03T16:27:08.998Z</time></trkpt><trkpt lat="44.33392178397392" lon="7.490939230992834"><ele>634.0</ele><time>2026-05-03T16:28:55.999Z</time></trkpt></trkseg></trk></gpx>